<?xml version="1.0" encoding="UTF-8" standalone="no" ?>
<gpx xmlns="http://www.topografix.com/GPX/1/1" xmlns:xsi="http://www.w3.org/2001/XMLSchema-instance" xsi:schemaLocation="http://www.topografix.com/GPX/1/1 http://www.topografix.com/GPX/1/1/gpx.xsd" version="1.1" creator="VisuGPX - https://www.visugpx.com">
  <metadata>
    <name>Champagnat Cyclisme sur route</name>
  </metadata>
  <trk>
    <name><![CDATA[Champagnat Cyclisme sur route_1]]></name>
    <trkseg>
      <trkpt lat="46.48274" lon="5.36841">
        <ele>263.4</ele>
        <time>2021-12-09T11:32:16Z</time>
      </trkpt>
      <trkpt lat="46.48266" lon="5.36829">
        <ele>263</ele>
        <time>2021-12-09T11:32:17Z</time>
      </trkpt>
      <trkpt lat="46.48257" lon="5.36819">
        <ele>262</ele>
        <time>2021-12-09T11:32:18Z</time>
      </trkpt>
      <trkpt lat="46.48238" lon="5.36802">
        <ele>260.2</ele>
        <time>2021-12-09T11:32:20Z</time>
      </trkpt>
      <trkpt lat="46.48218" lon="5.36787">
        <ele>258.4</ele>
        <time>2021-12-09T11:32:22Z</time>
      </trkpt>
      <trkpt lat="46.48209" lon="5.36779">
        <ele>257.8</ele>
        <time>2021-12-09T11:32:23Z</time>
      </trkpt>
      <trkpt lat="46.48199" lon="5.36771">
        <ele>256.8</ele>
        <time>2021-12-09T11:32:24Z</time>
      </trkpt>
      <trkpt lat="46.48181" lon="5.36756">
        <ele>255.6</ele>
        <time>2021-12-09T11:32:26Z</time>
      </trkpt>
      <trkpt lat="46.48172" lon="5.36748">
        <ele>254.4</ele>
        <time>2021-12-09T11:32:27Z</time>
      </trkpt>
      <trkpt lat="46.48153" lon="5.36734">
        <ele>252.8</ele>
        <time>2021-12-09T11:32:29Z</time>
      </trkpt>
      <trkpt lat="46.48136" lon="5.3672">
        <ele>251.6</ele>
        <time>2021-12-09T11:32:31Z</time>
      </trkpt>
      <trkpt lat="46.48116" lon="5.36703">
        <ele>250</ele>
        <time>2021-12-09T11:32:34Z</time>
      </trkpt>
      <trkpt lat="46.48111" lon="5.36698">
        <ele>249.8</ele>
        <time>2021-12-09T11:32:35Z</time>
      </trkpt>
      <trkpt lat="46.4811" lon="5.36684">
        <ele>249.2</ele>
        <time>2021-12-09T11:32:37Z</time>
      </trkpt>
      <trkpt lat="46.48112" lon="5.36677">
        <ele>248.8</ele>
        <time>2021-12-09T11:32:38Z</time>
      </trkpt>
      <trkpt lat="46.48117" lon="5.36672">
        <ele>248.6</ele>
        <time>2021-12-09T11:32:39Z</time>
      </trkpt>
      <trkpt lat="46.48123" lon="5.36666">
        <ele>248.4</ele>
        <time>2021-12-09T11:32:40Z</time>
      </trkpt>
      <trkpt lat="46.48141" lon="5.36647">
        <ele>247.6</ele>
        <time>2021-12-09T11:32:43Z</time>
      </trkpt>
      <trkpt lat="46.48152" lon="5.36634">
        <ele>246.6</ele>
        <time>2021-12-09T11:32:45Z</time>
      </trkpt>
      <trkpt lat="46.48174" lon="5.36614">
        <ele>245.4</ele>
        <time>2021-12-09T11:32:48Z</time>
      </trkpt>
      <trkpt lat="46.48182" lon="5.36608">
        <ele>245.4</ele>
        <time>2021-12-09T11:32:49Z</time>
      </trkpt>
      <trkpt lat="46.48189" lon="5.36605">
        <ele>245.2</ele>
        <time>2021-12-09T11:32:50Z</time>
      </trkpt>
      <trkpt lat="46.48209" lon="5.36599">
        <ele>245</ele>
        <time>2021-12-09T11:32:53Z</time>
      </trkpt>
      <trkpt lat="46.48214" lon="5.36594">
        <ele>244.8</ele>
        <time>2021-12-09T11:32:54Z</time>
      </trkpt>
      <trkpt lat="46.48219" lon="5.36586">
        <ele>244.8</ele>
        <time>2021-12-09T11:32:55Z</time>
      </trkpt>
      <trkpt lat="46.48225" lon="5.36568">
        <ele>244.8</ele>
        <time>2021-12-09T11:32:57Z</time>
      </trkpt>
      <trkpt lat="46.48228" lon="5.36559">
        <ele>244.8</ele>
        <time>2021-12-09T11:32:58Z</time>
      </trkpt>
      <trkpt lat="46.48233" lon="5.36551">
        <ele>244.4</ele>
        <time>2021-12-09T11:32:59Z</time>
      </trkpt>
      <trkpt lat="46.48239" lon="5.36545">
        <ele>244.2</ele>
        <time>2021-12-09T11:33:00Z</time>
      </trkpt>
      <trkpt lat="46.48276" lon="5.36506">
        <ele>243.4</ele>
        <time>2021-12-09T11:33:06Z</time>
      </trkpt>
      <trkpt lat="46.483" lon="5.36479">
        <ele>242.8</ele>
        <time>2021-12-09T11:33:10Z</time>
      </trkpt>
      <trkpt lat="46.48313" lon="5.36465">
        <ele>242.4</ele>
        <time>2021-12-09T11:33:12Z</time>
      </trkpt>
      <trkpt lat="46.48346" lon="5.36429">
        <ele>241.2</ele>
        <time>2021-12-09T11:33:17Z</time>
      </trkpt>
      <trkpt lat="46.4836" lon="5.36414">
        <ele>240.8</ele>
        <time>2021-12-09T11:33:19Z</time>
      </trkpt>
      <trkpt lat="46.4838" lon="5.36392">
        <ele>239.8</ele>
        <time>2021-12-09T11:33:22Z</time>
      </trkpt>
      <trkpt lat="46.48407" lon="5.36365">
        <ele>238.6</ele>
        <time>2021-12-09T11:33:26Z</time>
      </trkpt>
      <trkpt lat="46.48421" lon="5.36356">
        <ele>238.2</ele>
        <time>2021-12-09T11:33:28Z</time>
      </trkpt>
      <trkpt lat="46.48436" lon="5.3635">
        <ele>237.8</ele>
        <time>2021-12-09T11:33:30Z</time>
      </trkpt>
      <trkpt lat="46.48458" lon="5.36346">
        <ele>237.4</ele>
        <time>2021-12-09T11:33:33Z</time>
      </trkpt>
      <trkpt lat="46.48501" lon="5.36338">
        <ele>237</ele>
        <time>2021-12-09T11:33:39Z</time>
      </trkpt>
      <trkpt lat="46.48508" lon="5.36337">
        <ele>237</ele>
        <time>2021-12-09T11:33:40Z</time>
      </trkpt>
      <trkpt lat="46.48562" lon="5.36328">
        <ele>236.8</ele>
        <time>2021-12-09T11:33:48Z</time>
      </trkpt>
      <trkpt lat="46.48569" lon="5.36327">
        <ele>236.6</ele>
        <time>2021-12-09T11:33:49Z</time>
      </trkpt>
      <trkpt lat="46.486" lon="5.36323">
        <ele>236.4</ele>
        <time>2021-12-09T11:33:53Z</time>
      </trkpt>
      <trkpt lat="46.48608" lon="5.36321">
        <ele>236.2</ele>
        <time>2021-12-09T11:33:54Z</time>
      </trkpt>
      <trkpt lat="46.48616" lon="5.36316">
        <ele>236</ele>
        <time>2021-12-09T11:33:55Z</time>
      </trkpt>
      <trkpt lat="46.48623" lon="5.36309">
        <ele>235</ele>
        <time>2021-12-09T11:33:56Z</time>
      </trkpt>
      <trkpt lat="46.48633" lon="5.36287">
        <ele>234.2</ele>
        <time>2021-12-09T11:33:58Z</time>
      </trkpt>
      <trkpt lat="46.48637" lon="5.36262">
        <ele>233.6</ele>
        <time>2021-12-09T11:34:00Z</time>
      </trkpt>
      <trkpt lat="46.4864" lon="5.36236">
        <ele>232.8</ele>
        <time>2021-12-09T11:34:02Z</time>
      </trkpt>
      <trkpt lat="46.48642" lon="5.36224">
        <ele>232.2</ele>
        <time>2021-12-09T11:34:03Z</time>
      </trkpt>
      <trkpt lat="46.48645" lon="5.36185">
        <ele>231.2</ele>
        <time>2021-12-09T11:34:06Z</time>
      </trkpt>
      <trkpt lat="46.4865" lon="5.36137">
        <ele>230</ele>
        <time>2021-12-09T11:34:10Z</time>
      </trkpt>
      <trkpt lat="46.48666" lon="5.3606">
        <ele>229.2</ele>
        <time>2021-12-09T11:34:17Z</time>
      </trkpt>
      <trkpt lat="46.48676" lon="5.36015">
        <ele>229.2</ele>
        <time>2021-12-09T11:34:22Z</time>
      </trkpt>
      <trkpt lat="46.48677" lon="5.36007">
        <ele>229.4</ele>
        <time>2021-12-09T11:34:23Z</time>
      </trkpt>
      <trkpt lat="46.4868" lon="5.3599">
        <ele>229.6</ele>
        <time>2021-12-09T11:34:25Z</time>
      </trkpt>
      <trkpt lat="46.4868" lon="5.35982">
        <ele>230.2</ele>
        <time>2021-12-09T11:34:26Z</time>
      </trkpt>
      <trkpt lat="46.48681" lon="5.35973">
        <ele>230.4</ele>
        <time>2021-12-09T11:34:27Z</time>
      </trkpt>
      <trkpt lat="46.48683" lon="5.35965">
        <ele>230.6</ele>
        <time>2021-12-09T11:34:28Z</time>
      </trkpt>
      <trkpt lat="46.48684" lon="5.35956">
        <ele>230.8</ele>
        <time>2021-12-09T11:34:29Z</time>
      </trkpt>
      <trkpt lat="46.48688" lon="5.35927">
        <ele>231.2</ele>
        <time>2021-12-09T11:34:32Z</time>
      </trkpt>
      <trkpt lat="46.4869" lon="5.35918">
        <ele>231.2</ele>
        <time>2021-12-09T11:34:33Z</time>
      </trkpt>
      <trkpt lat="46.48693" lon="5.35908">
        <ele>231.2</ele>
        <time>2021-12-09T11:34:34Z</time>
      </trkpt>
      <trkpt lat="46.48709" lon="5.3586">
        <ele>231.2</ele>
        <time>2021-12-09T11:34:39Z</time>
      </trkpt>
      <trkpt lat="46.48728" lon="5.35815">
        <ele>229.8</ele>
        <time>2021-12-09T11:34:44Z</time>
      </trkpt>
      <trkpt lat="46.48743" lon="5.35781">
        <ele>228.8</ele>
        <time>2021-12-09T11:34:48Z</time>
      </trkpt>
      <trkpt lat="46.48774" lon="5.35711">
        <ele>228.2</ele>
        <time>2021-12-09T11:34:56Z</time>
      </trkpt>
      <trkpt lat="46.48777" lon="5.35705">
        <ele>228.2</ele>
        <time>2021-12-09T11:34:57Z</time>
      </trkpt>
      <trkpt lat="46.48805" lon="5.3564">
        <ele>228</ele>
        <time>2021-12-09T11:35:05Z</time>
      </trkpt>
      <trkpt lat="46.48808" lon="5.35632">
        <ele>227.8</ele>
        <time>2021-12-09T11:35:06Z</time>
      </trkpt>
      <trkpt lat="46.48834" lon="5.35576">
        <ele>228</ele>
        <time>2021-12-09T11:35:13Z</time>
      </trkpt>
      <trkpt lat="46.48838" lon="5.35568">
        <ele>228</ele>
        <time>2021-12-09T11:35:14Z</time>
      </trkpt>
      <trkpt lat="46.48868" lon="5.35499">
        <ele>228.2</ele>
        <time>2021-12-09T11:35:23Z</time>
      </trkpt>
      <trkpt lat="46.48872" lon="5.35491">
        <ele>228.2</ele>
        <time>2021-12-09T11:35:24Z</time>
      </trkpt>
      <trkpt lat="46.489" lon="5.35425">
        <ele>228</ele>
        <time>2021-12-09T11:35:32Z</time>
      </trkpt>
      <trkpt lat="46.48931" lon="5.35355">
        <ele>226.8</ele>
        <time>2021-12-09T11:35:40Z</time>
      </trkpt>
      <trkpt lat="46.48939" lon="5.35338">
        <ele>226.6</ele>
        <time>2021-12-09T11:35:42Z</time>
      </trkpt>
      <trkpt lat="46.48965" lon="5.35278">
        <ele>226.2</ele>
        <time>2021-12-09T11:35:49Z</time>
      </trkpt>
      <trkpt lat="46.48996" lon="5.3521">
        <ele>226.8</ele>
        <time>2021-12-09T11:35:58Z</time>
      </trkpt>
      <trkpt lat="46.48999" lon="5.35203">
        <ele>227</ele>
        <time>2021-12-09T11:35:59Z</time>
      </trkpt>
      <trkpt lat="46.49014" lon="5.35168">
        <ele>227.6</ele>
        <time>2021-12-09T11:36:04Z</time>
      </trkpt>
      <trkpt lat="46.49018" lon="5.35161">
        <ele>227.8</ele>
        <time>2021-12-09T11:36:05Z</time>
      </trkpt>
      <trkpt lat="46.49033" lon="5.35123">
        <ele>228.6</ele>
        <time>2021-12-09T11:36:10Z</time>
      </trkpt>
      <trkpt lat="46.49036" lon="5.35115">
        <ele>228.8</ele>
        <time>2021-12-09T11:36:11Z</time>
      </trkpt>
      <trkpt lat="46.49037" lon="5.35107">
        <ele>228.8</ele>
        <time>2021-12-09T11:36:12Z</time>
      </trkpt>
      <trkpt lat="46.49052" lon="5.35041">
        <ele>228.6</ele>
        <time>2021-12-09T11:36:19Z</time>
      </trkpt>
      <trkpt lat="46.49067" lon="5.34966">
        <ele>227.6</ele>
        <time>2021-12-09T11:36:26Z</time>
      </trkpt>
      <trkpt lat="46.4907" lon="5.34946">
        <ele>227.4</ele>
        <time>2021-12-09T11:36:28Z</time>
      </trkpt>
      <trkpt lat="46.49078" lon="5.34912">
        <ele>226.4</ele>
        <time>2021-12-09T11:36:31Z</time>
      </trkpt>
      <trkpt lat="46.49088" lon="5.34858">
        <ele>225.2</ele>
        <time>2021-12-09T11:36:36Z</time>
      </trkpt>
      <trkpt lat="46.49089" lon="5.34847">
        <ele>225.2</ele>
        <time>2021-12-09T11:36:37Z</time>
      </trkpt>
      <trkpt lat="46.49102" lon="5.34783">
        <ele>224</ele>
        <time>2021-12-09T11:36:43Z</time>
      </trkpt>
      <trkpt lat="46.49108" lon="5.3475">
        <ele>223.4</ele>
        <time>2021-12-09T11:36:46Z</time>
      </trkpt>
      <trkpt lat="46.49115" lon="5.34719">
        <ele>222.8</ele>
        <time>2021-12-09T11:36:49Z</time>
      </trkpt>
      <trkpt lat="46.4913" lon="5.34642">
        <ele>221.8</ele>
        <time>2021-12-09T11:36:56Z</time>
      </trkpt>
      <trkpt lat="46.49141" lon="5.34589">
        <ele>222</ele>
        <time>2021-12-09T11:37:02Z</time>
      </trkpt>
      <trkpt lat="46.49142" lon="5.3458">
        <ele>222</ele>
        <time>2021-12-09T11:37:03Z</time>
      </trkpt>
      <trkpt lat="46.49151" lon="5.34532">
        <ele>222.2</ele>
        <time>2021-12-09T11:37:08Z</time>
      </trkpt>
      <trkpt lat="46.49167" lon="5.34451">
        <ele>221.8</ele>
        <time>2021-12-09T11:37:16Z</time>
      </trkpt>
      <trkpt lat="46.49169" lon="5.34438">
        <ele>221.6</ele>
        <time>2021-12-09T11:37:17Z</time>
      </trkpt>
      <trkpt lat="46.49184" lon="5.34365">
        <ele>221.6</ele>
        <time>2021-12-09T11:37:25Z</time>
      </trkpt>
      <trkpt lat="46.4919" lon="5.34324">
        <ele>222.2</ele>
        <time>2021-12-09T11:37:30Z</time>
      </trkpt>
      <trkpt lat="46.49193" lon="5.34307">
        <ele>222.8</ele>
        <time>2021-12-09T11:37:32Z</time>
      </trkpt>
      <trkpt lat="46.49207" lon="5.34234">
        <ele>222.8</ele>
        <time>2021-12-09T11:37:39Z</time>
      </trkpt>
      <trkpt lat="46.49223" lon="5.34155">
        <ele>221.8</ele>
        <time>2021-12-09T11:37:47Z</time>
      </trkpt>
      <trkpt lat="46.49233" lon="5.34101">
        <ele>222</ele>
        <time>2021-12-09T11:37:53Z</time>
      </trkpt>
      <trkpt lat="46.49241" lon="5.34066">
        <ele>223.2</ele>
        <time>2021-12-09T11:37:58Z</time>
      </trkpt>
      <trkpt lat="46.49244" lon="5.3405">
        <ele>223.8</ele>
        <time>2021-12-09T11:38:00Z</time>
      </trkpt>
      <trkpt lat="46.4925" lon="5.3402">
        <ele>224.4</ele>
        <time>2021-12-09T11:38:04Z</time>
      </trkpt>
      <trkpt lat="46.49261" lon="5.33961">
        <ele>224.8</ele>
        <time>2021-12-09T11:38:11Z</time>
      </trkpt>
      <trkpt lat="46.49263" lon="5.33952">
        <ele>225</ele>
        <time>2021-12-09T11:38:12Z</time>
      </trkpt>
      <trkpt lat="46.49279" lon="5.33873">
        <ele>224.8</ele>
        <time>2021-12-09T11:38:21Z</time>
      </trkpt>
      <trkpt lat="46.4928" lon="5.33865">
        <ele>224.8</ele>
        <time>2021-12-09T11:38:22Z</time>
      </trkpt>
      <trkpt lat="46.49294" lon="5.33788">
        <ele>224.8</ele>
        <time>2021-12-09T11:38:31Z</time>
      </trkpt>
      <trkpt lat="46.49305" lon="5.33711">
        <ele>224.4</ele>
        <time>2021-12-09T11:38:39Z</time>
      </trkpt>
      <trkpt lat="46.49305" lon="5.33703">
        <ele>224.2</ele>
        <time>2021-12-09T11:38:40Z</time>
      </trkpt>
      <trkpt lat="46.49307" lon="5.33653">
        <ele>223.8</ele>
        <time>2021-12-09T11:38:45Z</time>
      </trkpt>
      <trkpt lat="46.4931" lon="5.33612">
        <ele>223.6</ele>
        <time>2021-12-09T11:38:49Z</time>
      </trkpt>
      <trkpt lat="46.49321" lon="5.33557">
        <ele>222.8</ele>
        <time>2021-12-09T11:38:55Z</time>
      </trkpt>
      <trkpt lat="46.49322" lon="5.3354">
        <ele>222.8</ele>
        <time>2021-12-09T11:38:57Z</time>
      </trkpt>
      <trkpt lat="46.49321" lon="5.3352">
        <ele>222.8</ele>
        <time>2021-12-09T11:38:59Z</time>
      </trkpt>
      <trkpt lat="46.49309" lon="5.33439">
        <ele>222.6</ele>
        <time>2021-12-09T11:39:08Z</time>
      </trkpt>
      <trkpt lat="46.49294" lon="5.33366">
        <ele>222.8</ele>
        <time>2021-12-09T11:39:16Z</time>
      </trkpt>
      <trkpt lat="46.49287" lon="5.33336">
        <ele>222.4</ele>
        <time>2021-12-09T11:39:19Z</time>
      </trkpt>
      <trkpt lat="46.49278" lon="5.33287">
        <ele>221.2</ele>
        <time>2021-12-09T11:39:24Z</time>
      </trkpt>
      <trkpt lat="46.49276" lon="5.33278">
        <ele>221.2</ele>
        <time>2021-12-09T11:39:25Z</time>
      </trkpt>
      <trkpt lat="46.49259" lon="5.33214">
        <ele>220.4</ele>
        <time>2021-12-09T11:39:32Z</time>
      </trkpt>
      <trkpt lat="46.49256" lon="5.33207">
        <ele>220.2</ele>
        <time>2021-12-09T11:39:33Z</time>
      </trkpt>
      <trkpt lat="46.49251" lon="5.33199">
        <ele>220.2</ele>
        <time>2021-12-09T11:39:34Z</time>
      </trkpt>
      <trkpt lat="46.49239" lon="5.33186">
        <ele>220</ele>
        <time>2021-12-09T11:39:36Z</time>
      </trkpt>
      <trkpt lat="46.49214" lon="5.33168">
        <ele>219.2</ele>
        <time>2021-12-09T11:39:40Z</time>
      </trkpt>
      <trkpt lat="46.49197" lon="5.33154">
        <ele>218.8</ele>
        <time>2021-12-09T11:39:43Z</time>
      </trkpt>
      <trkpt lat="46.49178" lon="5.33136">
        <ele>218.2</ele>
        <time>2021-12-09T11:39:46Z</time>
      </trkpt>
      <trkpt lat="46.49167" lon="5.33123">
        <ele>218</ele>
        <time>2021-12-09T11:39:48Z</time>
      </trkpt>
      <trkpt lat="46.49163" lon="5.33117">
        <ele>217.8</ele>
        <time>2021-12-09T11:39:49Z</time>
      </trkpt>
      <trkpt lat="46.49158" lon="5.33109">
        <ele>217.6</ele>
        <time>2021-12-09T11:39:50Z</time>
      </trkpt>
      <trkpt lat="46.49147" lon="5.33082">
        <ele>217.4</ele>
        <time>2021-12-09T11:39:53Z</time>
      </trkpt>
      <trkpt lat="46.49136" lon="5.33037">
        <ele>217.4</ele>
        <time>2021-12-09T11:39:58Z</time>
      </trkpt>
      <trkpt lat="46.49125" lon="5.3296">
        <ele>217.4</ele>
        <time>2021-12-09T11:40:06Z</time>
      </trkpt>
      <trkpt lat="46.49124" lon="5.32947">
        <ele>217</ele>
        <time>2021-12-09T11:40:07Z</time>
      </trkpt>
      <trkpt lat="46.49123" lon="5.32906">
        <ele>216.2</ele>
        <time>2021-12-09T11:40:11Z</time>
      </trkpt>
      <trkpt lat="46.49123" lon="5.32894">
        <ele>216</ele>
        <time>2021-12-09T11:40:12Z</time>
      </trkpt>
      <trkpt lat="46.49125" lon="5.32884">
        <ele>216</ele>
        <time>2021-12-09T11:40:13Z</time>
      </trkpt>
      <trkpt lat="46.49127" lon="5.32874">
        <ele>215.8</ele>
        <time>2021-12-09T11:40:14Z</time>
      </trkpt>
      <trkpt lat="46.49132" lon="5.32857">
        <ele>215.6</ele>
        <time>2021-12-09T11:40:16Z</time>
      </trkpt>
      <trkpt lat="46.49141" lon="5.32816">
        <ele>215.2</ele>
        <time>2021-12-09T11:40:20Z</time>
      </trkpt>
      <trkpt lat="46.49142" lon="5.32809">
        <ele>215.2</ele>
        <time>2021-12-09T11:40:21Z</time>
      </trkpt>
      <trkpt lat="46.49142" lon="5.328">
        <ele>215.2</ele>
        <time>2021-12-09T11:40:22Z</time>
      </trkpt>
      <trkpt lat="46.49139" lon="5.32772">
        <ele>215.8</ele>
        <time>2021-12-09T11:40:25Z</time>
      </trkpt>
      <trkpt lat="46.49129" lon="5.32724">
        <ele>216.4</ele>
        <time>2021-12-09T11:40:31Z</time>
      </trkpt>
      <trkpt lat="46.49127" lon="5.32716">
        <ele>216.6</ele>
        <time>2021-12-09T11:40:32Z</time>
      </trkpt>
      <trkpt lat="46.49117" lon="5.32701">
        <ele>216.6</ele>
        <time>2021-12-09T11:40:34Z</time>
      </trkpt>
      <trkpt lat="46.49112" lon="5.32696">
        <ele>216.4</ele>
        <time>2021-12-09T11:40:35Z</time>
      </trkpt>
      <trkpt lat="46.49107" lon="5.32693">
        <ele>216.4</ele>
        <time>2021-12-09T11:40:36Z</time>
      </trkpt>
      <trkpt lat="46.49091" lon="5.32693">
        <ele>216</ele>
        <time>2021-12-09T11:40:38Z</time>
      </trkpt>
      <trkpt lat="46.49044" lon="5.32702">
        <ele>215</ele>
        <time>2021-12-09T11:40:44Z</time>
      </trkpt>
      <trkpt lat="46.49036" lon="5.32704">
        <ele>214.6</ele>
        <time>2021-12-09T11:40:45Z</time>
      </trkpt>
      <trkpt lat="46.4902" lon="5.32707">
        <ele>213.6</ele>
        <time>2021-12-09T11:40:47Z</time>
      </trkpt>
      <trkpt lat="46.49" lon="5.32709">
        <ele>212.6</ele>
        <time>2021-12-09T11:40:49Z</time>
      </trkpt>
      <trkpt lat="46.48991" lon="5.32709">
        <ele>211.8</ele>
        <time>2021-12-09T11:40:50Z</time>
      </trkpt>
      <trkpt lat="46.48982" lon="5.32709">
        <ele>211.2</ele>
        <time>2021-12-09T11:40:51Z</time>
      </trkpt>
      <trkpt lat="46.48974" lon="5.32707">
        <ele>211</ele>
        <time>2021-12-09T11:40:52Z</time>
      </trkpt>
      <trkpt lat="46.48954" lon="5.32696">
        <ele>210.2</ele>
        <time>2021-12-09T11:40:54Z</time>
      </trkpt>
      <trkpt lat="46.48945" lon="5.32688">
        <ele>209.4</ele>
        <time>2021-12-09T11:40:55Z</time>
      </trkpt>
      <trkpt lat="46.48932" lon="5.32672">
        <ele>208</ele>
        <time>2021-12-09T11:40:57Z</time>
      </trkpt>
      <trkpt lat="46.48927" lon="5.32662">
        <ele>207.8</ele>
        <time>2021-12-09T11:40:58Z</time>
      </trkpt>
      <trkpt lat="46.48922" lon="5.3265">
        <ele>207</ele>
        <time>2021-12-09T11:40:59Z</time>
      </trkpt>
      <trkpt lat="46.48918" lon="5.32636">
        <ele>205.8</ele>
        <time>2021-12-09T11:41:00Z</time>
      </trkpt>
      <trkpt lat="46.48918" lon="5.32623">
        <ele>205.2</ele>
        <time>2021-12-09T11:41:01Z</time>
      </trkpt>
      <trkpt lat="46.4892" lon="5.3261">
        <ele>204.6</ele>
        <time>2021-12-09T11:41:02Z</time>
      </trkpt>
      <trkpt lat="46.48923" lon="5.32601">
        <ele>204</ele>
        <time>2021-12-09T11:41:03Z</time>
      </trkpt>
      <trkpt lat="46.48938" lon="5.32579">
        <ele>202.8</ele>
        <time>2021-12-09T11:41:05Z</time>
      </trkpt>
      <trkpt lat="46.48945" lon="5.32569">
        <ele>202</ele>
        <time>2021-12-09T11:41:06Z</time>
      </trkpt>
      <trkpt lat="46.48951" lon="5.32559">
        <ele>201.4</ele>
        <time>2021-12-09T11:41:07Z</time>
      </trkpt>
      <trkpt lat="46.48956" lon="5.32536">
        <ele>200.2</ele>
        <time>2021-12-09T11:41:09Z</time>
      </trkpt>
      <trkpt lat="46.48956" lon="5.3252">
        <ele>200</ele>
        <time>2021-12-09T11:41:10Z</time>
      </trkpt>
      <trkpt lat="46.48953" lon="5.32508">
        <ele>199.4</ele>
        <time>2021-12-09T11:41:11Z</time>
      </trkpt>
      <trkpt lat="46.48951" lon="5.32497">
        <ele>199</ele>
        <time>2021-12-09T11:41:12Z</time>
      </trkpt>
      <trkpt lat="46.48945" lon="5.32477">
        <ele>198.4</ele>
        <time>2021-12-09T11:41:14Z</time>
      </trkpt>
      <trkpt lat="46.48938" lon="5.32454">
        <ele>198.2</ele>
        <time>2021-12-09T11:41:16Z</time>
      </trkpt>
      <trkpt lat="46.48935" lon="5.32443">
        <ele>198.2</ele>
        <time>2021-12-09T11:41:17Z</time>
      </trkpt>
      <trkpt lat="46.48932" lon="5.32433">
        <ele>198.2</ele>
        <time>2021-12-09T11:41:18Z</time>
      </trkpt>
      <trkpt lat="46.48927" lon="5.32416">
        <ele>198</ele>
        <time>2021-12-09T11:41:20Z</time>
      </trkpt>
      <trkpt lat="46.48919" lon="5.32387">
        <ele>198</ele>
        <time>2021-12-09T11:41:23Z</time>
      </trkpt>
      <trkpt lat="46.48912" lon="5.3236">
        <ele>198.2</ele>
        <time>2021-12-09T11:41:26Z</time>
      </trkpt>
      <trkpt lat="46.48911" lon="5.32351">
        <ele>198.2</ele>
        <time>2021-12-09T11:41:27Z</time>
      </trkpt>
      <trkpt lat="46.48912" lon="5.32342">
        <ele>198.2</ele>
        <time>2021-12-09T11:41:28Z</time>
      </trkpt>
      <trkpt lat="46.48917" lon="5.32328">
        <ele>198.2</ele>
        <time>2021-12-09T11:41:30Z</time>
      </trkpt>
      <trkpt lat="46.48935" lon="5.32293">
        <ele>199.4</ele>
        <time>2021-12-09T11:41:36Z</time>
      </trkpt>
      <trkpt lat="46.48941" lon="5.32283">
        <ele>200</ele>
        <time>2021-12-09T11:41:38Z</time>
      </trkpt>
      <trkpt lat="46.48945" lon="5.32275">
        <ele>200.8</ele>
        <time>2021-12-09T11:41:40Z</time>
      </trkpt>
      <trkpt lat="46.48947" lon="5.32271">
        <ele>200.8</ele>
        <time>2021-12-09T11:41:41Z</time>
      </trkpt>
      <trkpt lat="46.48953" lon="5.32257">
        <ele>202</ele>
        <time>2021-12-09T11:41:44Z</time>
      </trkpt>
      <trkpt lat="46.48957" lon="5.3224">
        <ele>202.8</ele>
        <time>2021-12-09T11:41:47Z</time>
      </trkpt>
      <trkpt lat="46.48957" lon="5.32234">
        <ele>202.8</ele>
        <time>2021-12-09T11:41:48Z</time>
      </trkpt>
      <trkpt lat="46.48957" lon="5.32227">
        <ele>202.8</ele>
        <time>2021-12-09T11:41:49Z</time>
      </trkpt>
      <trkpt lat="46.48958" lon="5.32203">
        <ele>203.4</ele>
        <time>2021-12-09T11:41:53Z</time>
      </trkpt>
      <trkpt lat="46.48961" lon="5.32185">
        <ele>204</ele>
        <time>2021-12-09T11:41:56Z</time>
      </trkpt>
      <trkpt lat="46.48964" lon="5.3217">
        <ele>204.2</ele>
        <time>2021-12-09T11:41:58Z</time>
      </trkpt>
      <trkpt lat="46.4897" lon="5.32155">
        <ele>204.6</ele>
        <time>2021-12-09T11:42:00Z</time>
      </trkpt>
      <trkpt lat="46.48978" lon="5.32145">
        <ele>204.6</ele>
        <time>2021-12-09T11:42:02Z</time>
      </trkpt>
      <trkpt lat="46.48989" lon="5.32135">
        <ele>204.4</ele>
        <time>2021-12-09T11:42:04Z</time>
      </trkpt>
      <trkpt lat="46.49017" lon="5.32122">
        <ele>204</ele>
        <time>2021-12-09T11:42:09Z</time>
      </trkpt>
      <trkpt lat="46.49022" lon="5.32121">
        <ele>204</ele>
        <time>2021-12-09T11:42:10Z</time>
      </trkpt>
      <trkpt lat="46.49063" lon="5.3212">
        <ele>203.8</ele>
        <time>2021-12-09T11:42:17Z</time>
      </trkpt>
      <trkpt lat="46.4911" lon="5.32119">
        <ele>204</ele>
        <time>2021-12-09T11:42:25Z</time>
      </trkpt>
      <trkpt lat="46.49161" lon="5.32113">
        <ele>204.8</ele>
        <time>2021-12-09T11:42:34Z</time>
      </trkpt>
      <trkpt lat="46.49185" lon="5.3211">
        <ele>205</ele>
        <time>2021-12-09T11:42:38Z</time>
      </trkpt>
      <trkpt lat="46.49209" lon="5.32105">
        <ele>205.4</ele>
        <time>2021-12-09T11:42:42Z</time>
      </trkpt>
      <trkpt lat="46.49263" lon="5.32091">
        <ele>206</ele>
        <time>2021-12-09T11:42:52Z</time>
      </trkpt>
      <trkpt lat="46.4927" lon="5.32089">
        <ele>206.2</ele>
        <time>2021-12-09T11:42:53Z</time>
      </trkpt>
      <trkpt lat="46.49317" lon="5.32076">
        <ele>207.4</ele>
        <time>2021-12-09T11:43:02Z</time>
      </trkpt>
      <trkpt lat="46.49364" lon="5.32056">
        <ele>208</ele>
        <time>2021-12-09T11:43:11Z</time>
      </trkpt>
      <trkpt lat="46.49378" lon="5.32044">
        <ele>208.4</ele>
        <time>2021-12-09T11:43:14Z</time>
      </trkpt>
      <trkpt lat="46.49386" lon="5.32036">
        <ele>208.6</ele>
        <time>2021-12-09T11:43:16Z</time>
      </trkpt>
      <trkpt lat="46.4942" lon="5.3199">
        <ele>209</ele>
        <time>2021-12-09T11:43:24Z</time>
      </trkpt>
      <trkpt lat="46.4943" lon="5.31986">
        <ele>208.8</ele>
        <time>2021-12-09T11:43:26Z</time>
      </trkpt>
      <trkpt lat="46.49436" lon="5.31987">
        <ele>208.8</ele>
        <time>2021-12-09T11:43:27Z</time>
      </trkpt>
      <trkpt lat="46.49442" lon="5.31989">
        <ele>208.6</ele>
        <time>2021-12-09T11:43:28Z</time>
      </trkpt>
      <trkpt lat="46.49457" lon="5.32002">
        <ele>208.4</ele>
        <time>2021-12-09T11:43:31Z</time>
      </trkpt>
      <trkpt lat="46.49468" lon="5.32013">
        <ele>208.4</ele>
        <time>2021-12-09T11:43:33Z</time>
      </trkpt>
      <trkpt lat="46.49491" lon="5.32038">
        <ele>208.4</ele>
        <time>2021-12-09T11:43:38Z</time>
      </trkpt>
      <trkpt lat="46.49495" lon="5.32041">
        <ele>208.4</ele>
        <time>2021-12-09T11:43:39Z</time>
      </trkpt>
      <trkpt lat="46.49514" lon="5.32047">
        <ele>208.4</ele>
        <time>2021-12-09T11:43:42Z</time>
      </trkpt>
      <trkpt lat="46.4952" lon="5.32047">
        <ele>208.4</ele>
        <time>2021-12-09T11:43:43Z</time>
      </trkpt>
      <trkpt lat="46.49542" lon="5.32043">
        <ele>208</ele>
        <time>2021-12-09T11:43:46Z</time>
      </trkpt>
      <trkpt lat="46.49582" lon="5.32034">
        <ele>207.2</ele>
        <time>2021-12-09T11:43:52Z</time>
      </trkpt>
      <trkpt lat="46.49598" lon="5.32031">
        <ele>206.8</ele>
        <time>2021-12-09T11:43:54Z</time>
      </trkpt>
      <trkpt lat="46.49614" lon="5.32028">
        <ele>206.2</ele>
        <time>2021-12-09T11:43:56Z</time>
      </trkpt>
      <trkpt lat="46.49637" lon="5.3202">
        <ele>205.4</ele>
        <time>2021-12-09T11:43:59Z</time>
      </trkpt>
      <trkpt lat="46.49645" lon="5.32014">
        <ele>205.2</ele>
        <time>2021-12-09T11:44:00Z</time>
      </trkpt>
      <trkpt lat="46.49651" lon="5.32004">
        <ele>204.6</ele>
        <time>2021-12-09T11:44:01Z</time>
      </trkpt>
      <trkpt lat="46.49654" lon="5.31995">
        <ele>204.4</ele>
        <time>2021-12-09T11:44:02Z</time>
      </trkpt>
      <trkpt lat="46.49657" lon="5.31983">
        <ele>203.8</ele>
        <time>2021-12-09T11:44:03Z</time>
      </trkpt>
      <trkpt lat="46.49662" lon="5.31954">
        <ele>202.8</ele>
        <time>2021-12-09T11:44:05Z</time>
      </trkpt>
      <trkpt lat="46.49664" lon="5.3194">
        <ele>202.2</ele>
        <time>2021-12-09T11:44:06Z</time>
      </trkpt>
      <trkpt lat="46.49668" lon="5.31914">
        <ele>201.2</ele>
        <time>2021-12-09T11:44:08Z</time>
      </trkpt>
      <trkpt lat="46.49674" lon="5.31882">
        <ele>200</ele>
        <time>2021-12-09T11:44:10Z</time>
      </trkpt>
      <trkpt lat="46.49677" lon="5.31868">
        <ele>199.4</ele>
        <time>2021-12-09T11:44:11Z</time>
      </trkpt>
      <trkpt lat="46.49681" lon="5.31854">
        <ele>198.6</ele>
        <time>2021-12-09T11:44:12Z</time>
      </trkpt>
      <trkpt lat="46.49684" lon="5.31844">
        <ele>197.2</ele>
        <time>2021-12-09T11:44:13Z</time>
      </trkpt>
      <trkpt lat="46.49687" lon="5.31832">
        <ele>196.8</ele>
        <time>2021-12-09T11:44:14Z</time>
      </trkpt>
      <trkpt lat="46.49692" lon="5.31819">
        <ele>196.2</ele>
        <time>2021-12-09T11:44:15Z</time>
      </trkpt>
      <trkpt lat="46.49697" lon="5.31808">
        <ele>196</ele>
        <time>2021-12-09T11:44:16Z</time>
      </trkpt>
      <trkpt lat="46.49708" lon="5.31791">
        <ele>195.4</ele>
        <time>2021-12-09T11:44:18Z</time>
      </trkpt>
      <trkpt lat="46.49715" lon="5.31785">
        <ele>195</ele>
        <time>2021-12-09T11:44:19Z</time>
      </trkpt>
      <trkpt lat="46.49723" lon="5.3178">
        <ele>194.8</ele>
        <time>2021-12-09T11:44:20Z</time>
      </trkpt>
      <trkpt lat="46.49741" lon="5.31775">
        <ele>194.8</ele>
        <time>2021-12-09T11:44:22Z</time>
      </trkpt>
      <trkpt lat="46.49795" lon="5.31772">
        <ele>194.4</ele>
        <time>2021-12-09T11:44:29Z</time>
      </trkpt>
      <trkpt lat="46.49857" lon="5.31765">
        <ele>194.2</ele>
        <time>2021-12-09T11:44:37Z</time>
      </trkpt>
      <trkpt lat="46.49884" lon="5.31762">
        <ele>194</ele>
        <time>2021-12-09T11:44:41Z</time>
      </trkpt>
      <trkpt lat="46.49893" lon="5.31762">
        <ele>194</ele>
        <time>2021-12-09T11:44:42Z</time>
      </trkpt>
      <trkpt lat="46.49922" lon="5.31757">
        <ele>193.8</ele>
        <time>2021-12-09T11:44:46Z</time>
      </trkpt>
      <trkpt lat="46.49931" lon="5.31754">
        <ele>193.6</ele>
        <time>2021-12-09T11:44:47Z</time>
      </trkpt>
      <trkpt lat="46.49943" lon="5.31746">
        <ele>193.6</ele>
        <time>2021-12-09T11:44:49Z</time>
      </trkpt>
      <trkpt lat="46.49947" lon="5.31741">
        <ele>193.6</ele>
        <time>2021-12-09T11:44:50Z</time>
      </trkpt>
      <trkpt lat="46.49965" lon="5.31716">
        <ele>194.2</ele>
        <time>2021-12-09T11:44:54Z</time>
      </trkpt>
      <trkpt lat="46.49969" lon="5.3171">
        <ele>194.4</ele>
        <time>2021-12-09T11:44:55Z</time>
      </trkpt>
      <trkpt lat="46.49976" lon="5.3169">
        <ele>195</ele>
        <time>2021-12-09T11:44:58Z</time>
      </trkpt>
      <trkpt lat="46.49984" lon="5.31671">
        <ele>195.8</ele>
        <time>2021-12-09T11:45:01Z</time>
      </trkpt>
      <trkpt lat="46.49986" lon="5.31666">
        <ele>196.4</ele>
        <time>2021-12-09T11:45:02Z</time>
      </trkpt>
      <trkpt lat="46.49994" lon="5.3165">
        <ele>197.6</ele>
        <time>2021-12-09T11:45:05Z</time>
      </trkpt>
      <trkpt lat="46.5" lon="5.31639">
        <ele>198</ele>
        <time>2021-12-09T11:45:07Z</time>
      </trkpt>
      <trkpt lat="46.50014" lon="5.31618">
        <ele>198.6</ele>
        <time>2021-12-09T11:45:11Z</time>
      </trkpt>
      <trkpt lat="46.50017" lon="5.31614">
        <ele>198.8</ele>
        <time>2021-12-09T11:45:12Z</time>
      </trkpt>
      <trkpt lat="46.50025" lon="5.31606">
        <ele>199</ele>
        <time>2021-12-09T11:45:14Z</time>
      </trkpt>
      <trkpt lat="46.50031" lon="5.316">
        <ele>199</ele>
        <time>2021-12-09T11:45:15Z</time>
      </trkpt>
      <trkpt lat="46.50056" lon="5.31585">
        <ele>199.6</ele>
        <time>2021-12-09T11:45:20Z</time>
      </trkpt>
      <trkpt lat="46.50071" lon="5.31579">
        <ele>199.8</ele>
        <time>2021-12-09T11:45:23Z</time>
      </trkpt>
      <trkpt lat="46.50094" lon="5.31575">
        <ele>199.8</ele>
        <time>2021-12-09T11:45:27Z</time>
      </trkpt>
      <trkpt lat="46.50131" lon="5.31581">
        <ele>199.6</ele>
        <time>2021-12-09T11:45:33Z</time>
      </trkpt>
      <trkpt lat="46.50164" lon="5.31592">
        <ele>198.6</ele>
        <time>2021-12-09T11:45:38Z</time>
      </trkpt>
      <trkpt lat="46.50171" lon="5.31593">
        <ele>198.4</ele>
        <time>2021-12-09T11:45:39Z</time>
      </trkpt>
      <trkpt lat="46.50192" lon="5.31599">
        <ele>197.6</ele>
        <time>2021-12-09T11:45:42Z</time>
      </trkpt>
      <trkpt lat="46.50199" lon="5.316">
        <ele>197</ele>
        <time>2021-12-09T11:45:43Z</time>
      </trkpt>
      <trkpt lat="46.50213" lon="5.31598">
        <ele>196.4</ele>
        <time>2021-12-09T11:45:45Z</time>
      </trkpt>
      <trkpt lat="46.50219" lon="5.31596">
        <ele>195.6</ele>
        <time>2021-12-09T11:45:46Z</time>
      </trkpt>
      <trkpt lat="46.50226" lon="5.31591">
        <ele>195.4</ele>
        <time>2021-12-09T11:45:47Z</time>
      </trkpt>
      <trkpt lat="46.5023" lon="5.31585">
        <ele>195</ele>
        <time>2021-12-09T11:45:48Z</time>
      </trkpt>
      <trkpt lat="46.50234" lon="5.31579">
        <ele>194.6</ele>
        <time>2021-12-09T11:45:49Z</time>
      </trkpt>
      <trkpt lat="46.50237" lon="5.31566">
        <ele>194</ele>
        <time>2021-12-09T11:45:51Z</time>
      </trkpt>
      <trkpt lat="46.50236" lon="5.31559">
        <ele>193.8</ele>
        <time>2021-12-09T11:45:52Z</time>
      </trkpt>
      <trkpt lat="46.50234" lon="5.31551">
        <ele>193.8</ele>
        <time>2021-12-09T11:45:53Z</time>
      </trkpt>
      <trkpt lat="46.50228" lon="5.31539">
        <ele>193.6</ele>
        <time>2021-12-09T11:45:55Z</time>
      </trkpt>
      <trkpt lat="46.50209" lon="5.31492">
        <ele>194</ele>
        <time>2021-12-09T11:46:02Z</time>
      </trkpt>
      <trkpt lat="46.502" lon="5.3146">
        <ele>195</ele>
        <time>2021-12-09T11:46:07Z</time>
      </trkpt>
      <trkpt lat="46.50195" lon="5.31442">
        <ele>195.8</ele>
        <time>2021-12-09T11:46:10Z</time>
      </trkpt>
      <trkpt lat="46.50192" lon="5.3143">
        <ele>196.2</ele>
        <time>2021-12-09T11:46:12Z</time>
      </trkpt>
      <trkpt lat="46.50185" lon="5.31414">
        <ele>197.2</ele>
        <time>2021-12-09T11:46:15Z</time>
      </trkpt>
      <trkpt lat="46.50183" lon="5.31409">
        <ele>197.4</ele>
        <time>2021-12-09T11:46:16Z</time>
      </trkpt>
      <trkpt lat="46.50181" lon="5.31403">
        <ele>197.8</ele>
        <time>2021-12-09T11:46:17Z</time>
      </trkpt>
      <trkpt lat="46.50175" lon="5.31388">
        <ele>198.4</ele>
        <time>2021-12-09T11:46:20Z</time>
      </trkpt>
      <trkpt lat="46.50169" lon="5.31365">
        <ele>199.4</ele>
        <time>2021-12-09T11:46:24Z</time>
      </trkpt>
      <trkpt lat="46.50166" lon="5.3136">
        <ele>199.4</ele>
        <time>2021-12-09T11:46:25Z</time>
      </trkpt>
      <trkpt lat="46.50154" lon="5.31325">
        <ele>200.6</ele>
        <time>2021-12-09T11:46:31Z</time>
      </trkpt>
      <trkpt lat="46.5015" lon="5.31313">
        <ele>200.8</ele>
        <time>2021-12-09T11:46:33Z</time>
      </trkpt>
      <trkpt lat="46.50133" lon="5.31263">
        <ele>201.2</ele>
        <time>2021-12-09T11:46:41Z</time>
      </trkpt>
      <trkpt lat="46.50119" lon="5.31222">
        <ele>201</ele>
        <time>2021-12-09T11:46:46Z</time>
      </trkpt>
      <trkpt lat="46.50098" lon="5.31159">
        <ele>200.2</ele>
        <time>2021-12-09T11:46:53Z</time>
      </trkpt>
      <trkpt lat="46.50088" lon="5.31131">
        <ele>199.6</ele>
        <time>2021-12-09T11:46:56Z</time>
      </trkpt>
      <trkpt lat="46.50073" lon="5.31087">
        <ele>198.8</ele>
        <time>2021-12-09T11:47:01Z</time>
      </trkpt>
      <trkpt lat="46.50059" lon="5.31045">
        <ele>198.8</ele>
        <time>2021-12-09T11:47:07Z</time>
      </trkpt>
      <trkpt lat="46.50048" lon="5.31011">
        <ele>200.8</ele>
        <time>2021-12-09T11:47:13Z</time>
      </trkpt>
      <trkpt lat="46.50046" lon="5.31007">
        <ele>201</ele>
        <time>2021-12-09T11:47:14Z</time>
      </trkpt>
      <trkpt lat="46.50039" lon="5.30988">
        <ele>202</ele>
        <time>2021-12-09T11:47:18Z</time>
      </trkpt>
      <trkpt lat="46.50034" lon="5.30972">
        <ele>202.6</ele>
        <time>2021-12-09T11:47:21Z</time>
      </trkpt>
      <trkpt lat="46.5003" lon="5.30961">
        <ele>203</ele>
        <time>2021-12-09T11:47:23Z</time>
      </trkpt>
      <trkpt lat="46.50023" lon="5.30941">
        <ele>204.2</ele>
        <time>2021-12-09T11:47:27Z</time>
      </trkpt>
      <trkpt lat="46.50016" lon="5.3092">
        <ele>205.4</ele>
        <time>2021-12-09T11:47:31Z</time>
      </trkpt>
      <trkpt lat="46.50014" lon="5.30915">
        <ele>205.6</ele>
        <time>2021-12-09T11:47:32Z</time>
      </trkpt>
      <trkpt lat="46.50008" lon="5.30901">
        <ele>206.4</ele>
        <time>2021-12-09T11:47:35Z</time>
      </trkpt>
      <trkpt lat="46.49998" lon="5.30874">
        <ele>207.6</ele>
        <time>2021-12-09T11:47:41Z</time>
      </trkpt>
      <trkpt lat="46.49989" lon="5.30849">
        <ele>208.8</ele>
        <time>2021-12-09T11:47:46Z</time>
      </trkpt>
      <trkpt lat="46.49984" lon="5.30833">
        <ele>209.4</ele>
        <time>2021-12-09T11:47:49Z</time>
      </trkpt>
      <trkpt lat="46.49979" lon="5.30816">
        <ele>210</ele>
        <time>2021-12-09T11:47:52Z</time>
      </trkpt>
      <trkpt lat="46.49971" lon="5.30789">
        <ele>210.6</ele>
        <time>2021-12-09T11:47:57Z</time>
      </trkpt>
      <trkpt lat="46.49964" lon="5.3076">
        <ele>211</ele>
        <time>2021-12-09T11:48:02Z</time>
      </trkpt>
      <trkpt lat="46.49962" lon="5.30754">
        <ele>211</ele>
        <time>2021-12-09T11:48:03Z</time>
      </trkpt>
      <trkpt lat="46.49961" lon="5.30748">
        <ele>211.2</ele>
        <time>2021-12-09T11:48:04Z</time>
      </trkpt>
      <trkpt lat="46.4996" lon="5.30742">
        <ele>211.2</ele>
        <time>2021-12-09T11:48:05Z</time>
      </trkpt>
      <trkpt lat="46.4995" lon="5.30687">
        <ele>211.4</ele>
        <time>2021-12-09T11:48:13Z</time>
      </trkpt>
      <trkpt lat="46.4994" lon="5.30629">
        <ele>211</ele>
        <time>2021-12-09T11:48:20Z</time>
      </trkpt>
      <trkpt lat="46.49938" lon="5.30618">
        <ele>210.8</ele>
        <time>2021-12-09T11:48:21Z</time>
      </trkpt>
      <trkpt lat="46.49935" lon="5.30591">
        <ele>209.6</ele>
        <time>2021-12-09T11:48:24Z</time>
      </trkpt>
      <trkpt lat="46.49935" lon="5.30578">
        <ele>209.4</ele>
        <time>2021-12-09T11:48:25Z</time>
      </trkpt>
      <trkpt lat="46.49937" lon="5.30547">
        <ele>208.6</ele>
        <time>2021-12-09T11:48:28Z</time>
      </trkpt>
      <trkpt lat="46.49938" lon="5.30536">
        <ele>208.6</ele>
        <time>2021-12-09T11:48:29Z</time>
      </trkpt>
      <trkpt lat="46.49947" lon="5.30504">
        <ele>207.4</ele>
        <time>2021-12-09T11:48:32Z</time>
      </trkpt>
      <trkpt lat="46.49956" lon="5.30483">
        <ele>206.8</ele>
        <time>2021-12-09T11:48:34Z</time>
      </trkpt>
      <trkpt lat="46.49967" lon="5.30465">
        <ele>206</ele>
        <time>2021-12-09T11:48:36Z</time>
      </trkpt>
      <trkpt lat="46.49979" lon="5.30449">
        <ele>205.6</ele>
        <time>2021-12-09T11:48:38Z</time>
      </trkpt>
      <trkpt lat="46.49985" lon="5.30443">
        <ele>205.2</ele>
        <time>2021-12-09T11:48:39Z</time>
      </trkpt>
      <trkpt lat="46.50009" lon="5.30423">
        <ele>203.8</ele>
        <time>2021-12-09T11:48:42Z</time>
      </trkpt>
      <trkpt lat="46.50017" lon="5.30417">
        <ele>203.6</ele>
        <time>2021-12-09T11:48:43Z</time>
      </trkpt>
      <trkpt lat="46.50039" lon="5.30399">
        <ele>202.8</ele>
        <time>2021-12-09T11:48:46Z</time>
      </trkpt>
      <trkpt lat="46.50058" lon="5.30376">
        <ele>202</ele>
        <time>2021-12-09T11:48:49Z</time>
      </trkpt>
      <trkpt lat="46.50068" lon="5.30359">
        <ele>201.8</ele>
        <time>2021-12-09T11:48:51Z</time>
      </trkpt>
      <trkpt lat="46.50075" lon="5.30341">
        <ele>201.8</ele>
        <time>2021-12-09T11:48:53Z</time>
      </trkpt>
      <trkpt lat="46.50087" lon="5.30298">
        <ele>202.2</ele>
        <time>2021-12-09T11:48:58Z</time>
      </trkpt>
      <trkpt lat="46.50092" lon="5.3025">
        <ele>203.6</ele>
        <time>2021-12-09T11:49:04Z</time>
      </trkpt>
      <trkpt lat="46.50093" lon="5.30242">
        <ele>204</ele>
        <time>2021-12-09T11:49:05Z</time>
      </trkpt>
      <trkpt lat="46.50092" lon="5.30208">
        <ele>204.4</ele>
        <time>2021-12-09T11:49:09Z</time>
      </trkpt>
      <trkpt lat="46.50091" lon="5.30189">
        <ele>204.4</ele>
        <time>2021-12-09T11:49:11Z</time>
      </trkpt>
      <trkpt lat="46.50091" lon="5.30179">
        <ele>204.6</ele>
        <time>2021-12-09T11:49:12Z</time>
      </trkpt>
      <trkpt lat="46.50092" lon="5.30144">
        <ele>205</ele>
        <time>2021-12-09T11:49:16Z</time>
      </trkpt>
      <trkpt lat="46.50092" lon="5.30108">
        <ele>205.4</ele>
        <time>2021-12-09T11:49:20Z</time>
      </trkpt>
      <trkpt lat="46.50092" lon="5.30072">
        <ele>206</ele>
        <time>2021-12-09T11:49:24Z</time>
      </trkpt>
      <trkpt lat="46.50088" lon="5.30003">
        <ele>206.4</ele>
        <time>2021-12-09T11:49:32Z</time>
      </trkpt>
      <trkpt lat="46.50082" lon="5.29968">
        <ele>206.4</ele>
        <time>2021-12-09T11:49:36Z</time>
      </trkpt>
      <trkpt lat="46.50077" lon="5.29951">
        <ele>206.4</ele>
        <time>2021-12-09T11:49:38Z</time>
      </trkpt>
      <trkpt lat="46.50055" lon="5.29906">
        <ele>205.8</ele>
        <time>2021-12-09T11:49:44Z</time>
      </trkpt>
      <trkpt lat="46.50049" lon="5.29897">
        <ele>205.6</ele>
        <time>2021-12-09T11:49:45Z</time>
      </trkpt>
      <trkpt lat="46.50029" lon="5.29874">
        <ele>205.2</ele>
        <time>2021-12-09T11:49:49Z</time>
      </trkpt>
      <trkpt lat="46.50011" lon="5.29858">
        <ele>204.8</ele>
        <time>2021-12-09T11:49:52Z</time>
      </trkpt>
      <trkpt lat="46.49999" lon="5.29851">
        <ele>204.6</ele>
        <time>2021-12-09T11:49:54Z</time>
      </trkpt>
      <trkpt lat="46.49961" lon="5.29848">
        <ele>204</ele>
        <time>2021-12-09T11:50:00Z</time>
      </trkpt>
      <trkpt lat="46.49928" lon="5.29838">
        <ele>204.8</ele>
        <time>2021-12-09T11:50:06Z</time>
      </trkpt>
      <trkpt lat="46.49892" lon="5.29825">
        <ele>205.6</ele>
        <time>2021-12-09T11:50:13Z</time>
      </trkpt>
      <trkpt lat="46.49887" lon="5.29823">
        <ele>205.8</ele>
        <time>2021-12-09T11:50:14Z</time>
      </trkpt>
      <trkpt lat="46.49873" lon="5.29816">
        <ele>206.8</ele>
        <time>2021-12-09T11:50:17Z</time>
      </trkpt>
      <trkpt lat="46.49842" lon="5.29804">
        <ele>207.6</ele>
        <time>2021-12-09T11:50:23Z</time>
      </trkpt>
      <trkpt lat="46.49832" lon="5.29801">
        <ele>207.8</ele>
        <time>2021-12-09T11:50:25Z</time>
      </trkpt>
      <trkpt lat="46.4979" lon="5.29788">
        <ele>208.4</ele>
        <time>2021-12-09T11:50:33Z</time>
      </trkpt>
      <trkpt lat="46.49763" lon="5.29784">
        <ele>208.4</ele>
        <time>2021-12-09T11:50:38Z</time>
      </trkpt>
      <trkpt lat="46.49757" lon="5.29782">
        <ele>208.4</ele>
        <time>2021-12-09T11:50:39Z</time>
      </trkpt>
      <trkpt lat="46.49747" lon="5.29775">
        <ele>208.4</ele>
        <time>2021-12-09T11:50:41Z</time>
      </trkpt>
      <trkpt lat="46.49735" lon="5.29745">
        <ele>208.2</ele>
        <time>2021-12-09T11:50:45Z</time>
      </trkpt>
      <trkpt lat="46.49709" lon="5.29695">
        <ele>207.6</ele>
        <time>2021-12-09T11:50:52Z</time>
      </trkpt>
      <trkpt lat="46.49673" lon="5.29633">
        <ele>208</ele>
        <time>2021-12-09T11:51:02Z</time>
      </trkpt>
      <trkpt lat="46.49642" lon="5.2958">
        <ele>208.8</ele>
        <time>2021-12-09T11:51:11Z</time>
      </trkpt>
      <trkpt lat="46.49639" lon="5.29574">
        <ele>208.8</ele>
        <time>2021-12-09T11:51:12Z</time>
      </trkpt>
      <trkpt lat="46.49618" lon="5.29535">
        <ele>209</ele>
        <time>2021-12-09T11:51:18Z</time>
      </trkpt>
      <trkpt lat="46.49611" lon="5.29523">
        <ele>209.2</ele>
        <time>2021-12-09T11:51:20Z</time>
      </trkpt>
      <trkpt lat="46.49577" lon="5.29461">
        <ele>209.4</ele>
        <time>2021-12-09T11:51:29Z</time>
      </trkpt>
      <trkpt lat="46.49574" lon="5.29456">
        <ele>209.4</ele>
        <time>2021-12-09T11:51:30Z</time>
      </trkpt>
      <trkpt lat="46.49538" lon="5.29392">
        <ele>209.4</ele>
        <time>2021-12-09T11:51:39Z</time>
      </trkpt>
      <trkpt lat="46.49535" lon="5.29385">
        <ele>209.2</ele>
        <time>2021-12-09T11:51:40Z</time>
      </trkpt>
      <trkpt lat="46.49526" lon="5.29366">
        <ele>208.8</ele>
        <time>2021-12-09T11:51:42Z</time>
      </trkpt>
      <trkpt lat="46.49521" lon="5.29347">
        <ele>208.2</ele>
        <time>2021-12-09T11:51:44Z</time>
      </trkpt>
      <trkpt lat="46.49516" lon="5.29321">
        <ele>207.4</ele>
        <time>2021-12-09T11:51:46Z</time>
      </trkpt>
      <trkpt lat="46.49513" lon="5.29296">
        <ele>206.4</ele>
        <time>2021-12-09T11:51:48Z</time>
      </trkpt>
      <trkpt lat="46.49517" lon="5.29255">
        <ele>204.4</ele>
        <time>2021-12-09T11:51:51Z</time>
      </trkpt>
      <trkpt lat="46.4952" lon="5.29241">
        <ele>204</ele>
        <time>2021-12-09T11:51:52Z</time>
      </trkpt>
      <trkpt lat="46.49523" lon="5.29231">
        <ele>203.2</ele>
        <time>2021-12-09T11:51:53Z</time>
      </trkpt>
      <trkpt lat="46.49529" lon="5.29215">
        <ele>202.8</ele>
        <time>2021-12-09T11:51:54Z</time>
      </trkpt>
      <trkpt lat="46.49535" lon="5.29203">
        <ele>202</ele>
        <time>2021-12-09T11:51:55Z</time>
      </trkpt>
      <trkpt lat="46.49541" lon="5.2919">
        <ele>201.6</ele>
        <time>2021-12-09T11:51:56Z</time>
      </trkpt>
      <trkpt lat="46.49548" lon="5.29177">
        <ele>200.6</ele>
        <time>2021-12-09T11:51:57Z</time>
      </trkpt>
      <trkpt lat="46.49559" lon="5.2915">
        <ele>199.2</ele>
        <time>2021-12-09T11:51:59Z</time>
      </trkpt>
      <trkpt lat="46.49567" lon="5.29121">
        <ele>198.4</ele>
        <time>2021-12-09T11:52:01Z</time>
      </trkpt>
      <trkpt lat="46.4957" lon="5.29105">
        <ele>197.8</ele>
        <time>2021-12-09T11:52:02Z</time>
      </trkpt>
      <trkpt lat="46.49576" lon="5.29073">
        <ele>196</ele>
        <time>2021-12-09T11:52:04Z</time>
      </trkpt>
      <trkpt lat="46.49579" lon="5.29057">
        <ele>195</ele>
        <time>2021-12-09T11:52:05Z</time>
      </trkpt>
      <trkpt lat="46.49582" lon="5.29041">
        <ele>194.6</ele>
        <time>2021-12-09T11:52:06Z</time>
      </trkpt>
      <trkpt lat="46.49585" lon="5.29024">
        <ele>193.8</ele>
        <time>2021-12-09T11:52:07Z</time>
      </trkpt>
      <trkpt lat="46.49588" lon="5.29008">
        <ele>193.4</ele>
        <time>2021-12-09T11:52:08Z</time>
      </trkpt>
      <trkpt lat="46.49594" lon="5.28976">
        <ele>192</ele>
        <time>2021-12-09T11:52:10Z</time>
      </trkpt>
      <trkpt lat="46.49597" lon="5.2896">
        <ele>191</ele>
        <time>2021-12-09T11:52:11Z</time>
      </trkpt>
      <trkpt lat="46.49602" lon="5.28928">
        <ele>189.6</ele>
        <time>2021-12-09T11:52:13Z</time>
      </trkpt>
      <trkpt lat="46.4961" lon="5.28884">
        <ele>187.6</ele>
        <time>2021-12-09T11:52:16Z</time>
      </trkpt>
      <trkpt lat="46.49616" lon="5.28852">
        <ele>186.4</ele>
        <time>2021-12-09T11:52:18Z</time>
      </trkpt>
      <trkpt lat="46.49626" lon="5.28797">
        <ele>185.2</ele>
        <time>2021-12-09T11:52:22Z</time>
      </trkpt>
      <trkpt lat="46.49628" lon="5.28784">
        <ele>185</ele>
        <time>2021-12-09T11:52:23Z</time>
      </trkpt>
      <trkpt lat="46.49647" lon="5.28699">
        <ele>184.8</ele>
        <time>2021-12-09T11:52:30Z</time>
      </trkpt>
      <trkpt lat="46.49666" lon="5.28622">
        <ele>185</ele>
        <time>2021-12-09T11:52:37Z</time>
      </trkpt>
      <trkpt lat="46.49669" lon="5.28612">
        <ele>185.2</ele>
        <time>2021-12-09T11:52:38Z</time>
      </trkpt>
      <trkpt lat="46.4968" lon="5.28555">
        <ele>185.6</ele>
        <time>2021-12-09T11:52:44Z</time>
      </trkpt>
      <trkpt lat="46.49686" lon="5.28527">
        <ele>186.4</ele>
        <time>2021-12-09T11:52:47Z</time>
      </trkpt>
      <trkpt lat="46.49693" lon="5.28488">
        <ele>186.8</ele>
        <time>2021-12-09T11:52:51Z</time>
      </trkpt>
      <trkpt lat="46.49704" lon="5.28405">
        <ele>186.2</ele>
        <time>2021-12-09T11:52:59Z</time>
      </trkpt>
      <trkpt lat="46.49724" lon="5.28326">
        <ele>185.8</ele>
        <time>2021-12-09T11:53:07Z</time>
      </trkpt>
      <trkpt lat="46.49743" lon="5.28251">
        <ele>185.6</ele>
        <time>2021-12-09T11:53:15Z</time>
      </trkpt>
      <trkpt lat="46.49757" lon="5.28167">
        <ele>185.4</ele>
        <time>2021-12-09T11:53:24Z</time>
      </trkpt>
      <trkpt lat="46.49767" lon="5.28102">
        <ele>185.6</ele>
        <time>2021-12-09T11:53:31Z</time>
      </trkpt>
      <trkpt lat="46.4977" lon="5.28039">
        <ele>185.8</ele>
        <time>2021-12-09T11:53:38Z</time>
      </trkpt>
      <trkpt lat="46.49768" lon="5.27963">
        <ele>186.6</ele>
        <time>2021-12-09T11:53:47Z</time>
      </trkpt>
      <trkpt lat="46.49767" lon="5.27908">
        <ele>187</ele>
        <time>2021-12-09T11:53:54Z</time>
      </trkpt>
      <trkpt lat="46.49766" lon="5.27877">
        <ele>187.4</ele>
        <time>2021-12-09T11:53:58Z</time>
      </trkpt>
      <trkpt lat="46.49763" lon="5.27837">
        <ele>188</ele>
        <time>2021-12-09T11:54:03Z</time>
      </trkpt>
      <trkpt lat="46.49755" lon="5.27791">
        <ele>188.6</ele>
        <time>2021-12-09T11:54:09Z</time>
      </trkpt>
      <trkpt lat="46.4975" lon="5.27761">
        <ele>188.8</ele>
        <time>2021-12-09T11:54:13Z</time>
      </trkpt>
      <trkpt lat="46.49743" lon="5.27725">
        <ele>189.6</ele>
        <time>2021-12-09T11:54:18Z</time>
      </trkpt>
      <trkpt lat="46.49738" lon="5.27693">
        <ele>190.4</ele>
        <time>2021-12-09T11:54:23Z</time>
      </trkpt>
      <trkpt lat="46.49736" lon="5.27681">
        <ele>190.6</ele>
        <time>2021-12-09T11:54:25Z</time>
      </trkpt>
      <trkpt lat="46.4973" lon="5.27646">
        <ele>191.6</ele>
        <time>2021-12-09T11:54:31Z</time>
      </trkpt>
      <trkpt lat="46.49729" lon="5.2764">
        <ele>191.8</ele>
        <time>2021-12-09T11:54:32Z</time>
      </trkpt>
      <trkpt lat="46.49726" lon="5.2761">
        <ele>192.8</ele>
        <time>2021-12-09T11:54:37Z</time>
      </trkpt>
      <trkpt lat="46.49726" lon="5.27604">
        <ele>193</ele>
        <time>2021-12-09T11:54:38Z</time>
      </trkpt>
      <trkpt lat="46.49726" lon="5.27592">
        <ele>193.4</ele>
        <time>2021-12-09T11:54:40Z</time>
      </trkpt>
      <trkpt lat="46.49727" lon="5.27575">
        <ele>194</ele>
        <time>2021-12-09T11:54:43Z</time>
      </trkpt>
      <trkpt lat="46.49728" lon="5.27563">
        <ele>194.4</ele>
        <time>2021-12-09T11:54:45Z</time>
      </trkpt>
      <trkpt lat="46.49728" lon="5.27541">
        <ele>195</ele>
        <time>2021-12-09T11:54:49Z</time>
      </trkpt>
      <trkpt lat="46.49729" lon="5.27523">
        <ele>195.6</ele>
        <time>2021-12-09T11:54:52Z</time>
      </trkpt>
      <trkpt lat="46.49729" lon="5.27511">
        <ele>196.2</ele>
        <time>2021-12-09T11:54:54Z</time>
      </trkpt>
      <trkpt lat="46.4973" lon="5.27482">
        <ele>197.2</ele>
        <time>2021-12-09T11:54:59Z</time>
      </trkpt>
      <trkpt lat="46.4973" lon="5.27471">
        <ele>197.6</ele>
        <time>2021-12-09T11:55:01Z</time>
      </trkpt>
      <trkpt lat="46.49729" lon="5.27456">
        <ele>198.4</ele>
        <time>2021-12-09T11:55:04Z</time>
      </trkpt>
      <trkpt lat="46.49723" lon="5.27429">
        <ele>199</ele>
        <time>2021-12-09T11:55:09Z</time>
      </trkpt>
      <trkpt lat="46.49721" lon="5.27421">
        <ele>199.4</ele>
        <time>2021-12-09T11:55:11Z</time>
      </trkpt>
      <trkpt lat="46.49715" lon="5.27403">
        <ele>200.6</ele>
        <time>2021-12-09T11:55:15Z</time>
      </trkpt>
      <trkpt lat="46.4971" lon="5.27389">
        <ele>201.4</ele>
        <time>2021-12-09T11:55:18Z</time>
      </trkpt>
      <trkpt lat="46.49705" lon="5.2738">
        <ele>201.8</ele>
        <time>2021-12-09T11:55:20Z</time>
      </trkpt>
      <trkpt lat="46.49691" lon="5.27354">
        <ele>203</ele>
        <time>2021-12-09T11:55:26Z</time>
      </trkpt>
      <trkpt lat="46.49689" lon="5.2735">
        <ele>203.6</ele>
        <time>2021-12-09T11:55:27Z</time>
      </trkpt>
      <trkpt lat="46.4968" lon="5.27334">
        <ele>204</ele>
        <time>2021-12-09T11:55:31Z</time>
      </trkpt>
      <trkpt lat="46.49672" lon="5.27318">
        <ele>205.2</ele>
        <time>2021-12-09T11:55:35Z</time>
      </trkpt>
      <trkpt lat="46.49658" lon="5.27288">
        <ele>206.2</ele>
        <time>2021-12-09T11:55:42Z</time>
      </trkpt>
      <trkpt lat="46.49656" lon="5.27284">
        <ele>206.4</ele>
        <time>2021-12-09T11:55:43Z</time>
      </trkpt>
      <trkpt lat="46.49648" lon="5.27261">
        <ele>207.2</ele>
        <time>2021-12-09T11:55:48Z</time>
      </trkpt>
      <trkpt lat="46.49643" lon="5.27243">
        <ele>208</ele>
        <time>2021-12-09T11:55:52Z</time>
      </trkpt>
      <trkpt lat="46.49642" lon="5.27238">
        <ele>208.2</ele>
        <time>2021-12-09T11:55:53Z</time>
      </trkpt>
      <trkpt lat="46.49638" lon="5.27208">
        <ele>209.4</ele>
        <time>2021-12-09T11:55:59Z</time>
      </trkpt>
      <trkpt lat="46.49638" lon="5.27198">
        <ele>210</ele>
        <time>2021-12-09T11:56:01Z</time>
      </trkpt>
      <trkpt lat="46.49637" lon="5.27177">
        <ele>210.6</ele>
        <time>2021-12-09T11:56:05Z</time>
      </trkpt>
      <trkpt lat="46.49639" lon="5.27157">
        <ele>211</ele>
        <time>2021-12-09T11:56:09Z</time>
      </trkpt>
      <trkpt lat="46.49644" lon="5.2713">
        <ele>211.8</ele>
        <time>2021-12-09T11:56:14Z</time>
      </trkpt>
      <trkpt lat="46.49649" lon="5.27112">
        <ele>212.2</ele>
        <time>2021-12-09T11:56:17Z</time>
      </trkpt>
      <trkpt lat="46.49661" lon="5.27075">
        <ele>212.8</ele>
        <time>2021-12-09T11:56:23Z</time>
      </trkpt>
      <trkpt lat="46.49668" lon="5.27055">
        <ele>213</ele>
        <time>2021-12-09T11:56:26Z</time>
      </trkpt>
      <trkpt lat="46.49682" lon="5.2701">
        <ele>213</ele>
        <time>2021-12-09T11:56:32Z</time>
      </trkpt>
      <trkpt lat="46.49705" lon="5.26943">
        <ele>211.8</ele>
        <time>2021-12-09T11:56:39Z</time>
      </trkpt>
      <trkpt lat="46.49708" lon="5.26934">
        <ele>211.8</ele>
        <time>2021-12-09T11:56:40Z</time>
      </trkpt>
      <trkpt lat="46.49715" lon="5.26914">
        <ele>210.6</ele>
        <time>2021-12-09T11:56:42Z</time>
      </trkpt>
      <trkpt lat="46.49727" lon="5.26875">
        <ele>209.6</ele>
        <time>2021-12-09T11:56:46Z</time>
      </trkpt>
      <trkpt lat="46.49741" lon="5.26816">
        <ele>209.2</ele>
        <time>2021-12-09T11:56:52Z</time>
      </trkpt>
      <trkpt lat="46.49742" lon="5.26807">
        <ele>209.4</ele>
        <time>2021-12-09T11:56:53Z</time>
      </trkpt>
      <trkpt lat="46.49745" lon="5.26748">
        <ele>209.8</ele>
        <time>2021-12-09T11:56:59Z</time>
      </trkpt>
      <trkpt lat="46.49737" lon="5.26681">
        <ele>210.2</ele>
        <time>2021-12-09T11:57:06Z</time>
      </trkpt>
      <trkpt lat="46.4972" lon="5.26623">
        <ele>209.8</ele>
        <time>2021-12-09T11:57:12Z</time>
      </trkpt>
      <trkpt lat="46.49695" lon="5.26561">
        <ele>208.2</ele>
        <time>2021-12-09T11:57:18Z</time>
      </trkpt>
      <trkpt lat="46.49679" lon="5.26524">
        <ele>207</ele>
        <time>2021-12-09T11:57:21Z</time>
      </trkpt>
      <trkpt lat="46.49664" lon="5.26489">
        <ele>205.6</ele>
        <time>2021-12-09T11:57:24Z</time>
      </trkpt>
      <trkpt lat="46.49655" lon="5.26463">
        <ele>204.4</ele>
        <time>2021-12-09T11:57:26Z</time>
      </trkpt>
      <trkpt lat="46.49647" lon="5.26436">
        <ele>203.2</ele>
        <time>2021-12-09T11:57:28Z</time>
      </trkpt>
      <trkpt lat="46.49645" lon="5.26422">
        <ele>202.4</ele>
        <time>2021-12-09T11:57:29Z</time>
      </trkpt>
      <trkpt lat="46.49642" lon="5.26407">
        <ele>202.2</ele>
        <time>2021-12-09T11:57:30Z</time>
      </trkpt>
      <trkpt lat="46.49637" lon="5.26364">
        <ele>200.2</ele>
        <time>2021-12-09T11:57:33Z</time>
      </trkpt>
      <trkpt lat="46.49636" lon="5.26348">
        <ele>199.6</ele>
        <time>2021-12-09T11:57:34Z</time>
      </trkpt>
      <trkpt lat="46.49635" lon="5.26333">
        <ele>199.2</ele>
        <time>2021-12-09T11:57:35Z</time>
      </trkpt>
      <trkpt lat="46.49631" lon="5.26286">
        <ele>197.6</ele>
        <time>2021-12-09T11:57:38Z</time>
      </trkpt>
      <trkpt lat="46.4963" lon="5.26255">
        <ele>196.2</ele>
        <time>2021-12-09T11:57:40Z</time>
      </trkpt>
      <trkpt lat="46.49629" lon="5.2624">
        <ele>195</ele>
        <time>2021-12-09T11:57:41Z</time>
      </trkpt>
      <trkpt lat="46.49627" lon="5.26212">
        <ele>193.8</ele>
        <time>2021-12-09T11:57:43Z</time>
      </trkpt>
      <trkpt lat="46.49621" lon="5.26159">
        <ele>192.8</ele>
        <time>2021-12-09T11:57:47Z</time>
      </trkpt>
      <trkpt lat="46.49619" lon="5.26147">
        <ele>192.8</ele>
        <time>2021-12-09T11:57:48Z</time>
      </trkpt>
      <trkpt lat="46.49607" lon="5.26104">
        <ele>192.8</ele>
        <time>2021-12-09T11:57:52Z</time>
      </trkpt>
      <trkpt lat="46.49581" lon="5.26052">
        <ele>193.4</ele>
        <time>2021-12-09T11:57:58Z</time>
      </trkpt>
      <trkpt lat="46.49556" lon="5.26017">
        <ele>193.8</ele>
        <time>2021-12-09T11:58:03Z</time>
      </trkpt>
      <trkpt lat="46.49522" lon="5.25982">
        <ele>194.2</ele>
        <time>2021-12-09T11:58:09Z</time>
      </trkpt>
      <trkpt lat="46.49475" lon="5.25934">
        <ele>193.6</ele>
        <time>2021-12-09T11:58:17Z</time>
      </trkpt>
      <trkpt lat="46.49463" lon="5.25922">
        <ele>193.6</ele>
        <time>2021-12-09T11:58:19Z</time>
      </trkpt>
      <trkpt lat="46.49416" lon="5.25876">
        <ele>193.4</ele>
        <time>2021-12-09T11:58:27Z</time>
      </trkpt>
      <trkpt lat="46.49393" lon="5.25853">
        <ele>193.4</ele>
        <time>2021-12-09T11:58:31Z</time>
      </trkpt>
      <trkpt lat="46.49347" lon="5.25808">
        <ele>193.2</ele>
        <time>2021-12-09T11:58:39Z</time>
      </trkpt>
      <trkpt lat="46.49336" lon="5.25796">
        <ele>193.2</ele>
        <time>2021-12-09T11:58:41Z</time>
      </trkpt>
      <trkpt lat="46.4929" lon="5.25749">
        <ele>193.2</ele>
        <time>2021-12-09T11:58:49Z</time>
      </trkpt>
      <trkpt lat="46.49278" lon="5.25738">
        <ele>193.2</ele>
        <time>2021-12-09T11:58:51Z</time>
      </trkpt>
      <trkpt lat="46.49236" lon="5.25696">
        <ele>193.4</ele>
        <time>2021-12-09T11:58:58Z</time>
      </trkpt>
      <trkpt lat="46.49191" lon="5.25652">
        <ele>193.4</ele>
        <time>2021-12-09T11:59:06Z</time>
      </trkpt>
      <trkpt lat="46.49185" lon="5.25646">
        <ele>193.4</ele>
        <time>2021-12-09T11:59:07Z</time>
      </trkpt>
      <trkpt lat="46.49147" lon="5.25608">
        <ele>193.6</ele>
        <time>2021-12-09T11:59:14Z</time>
      </trkpt>
      <trkpt lat="46.49113" lon="5.25575">
        <ele>194.4</ele>
        <time>2021-12-09T11:59:21Z</time>
      </trkpt>
      <trkpt lat="46.49109" lon="5.25571">
        <ele>194.6</ele>
        <time>2021-12-09T11:59:22Z</time>
      </trkpt>
      <trkpt lat="46.49091" lon="5.25551">
        <ele>195.2</ele>
        <time>2021-12-09T11:59:26Z</time>
      </trkpt>
      <trkpt lat="46.49084" lon="5.2554">
        <ele>195.4</ele>
        <time>2021-12-09T11:59:28Z</time>
      </trkpt>
      <trkpt lat="46.49081" lon="5.25534">
        <ele>195.6</ele>
        <time>2021-12-09T11:59:29Z</time>
      </trkpt>
      <trkpt lat="46.49078" lon="5.25527">
        <ele>195.8</ele>
        <time>2021-12-09T11:59:30Z</time>
      </trkpt>
      <trkpt lat="46.49076" lon="5.25521">
        <ele>195.8</ele>
        <time>2021-12-09T11:59:31Z</time>
      </trkpt>
      <trkpt lat="46.49071" lon="5.25502">
        <ele>196.2</ele>
        <time>2021-12-09T11:59:34Z</time>
      </trkpt>
      <trkpt lat="46.49069" lon="5.25488">
        <ele>196.4</ele>
        <time>2021-12-09T11:59:36Z</time>
      </trkpt>
      <trkpt lat="46.49068" lon="5.25476">
        <ele>197</ele>
        <time>2021-12-09T11:59:38Z</time>
      </trkpt>
      <trkpt lat="46.49067" lon="5.2547">
        <ele>197.4</ele>
        <time>2021-12-09T11:59:39Z</time>
      </trkpt>
      <trkpt lat="46.49064" lon="5.25453">
        <ele>198.2</ele>
        <time>2021-12-09T11:59:42Z</time>
      </trkpt>
      <trkpt lat="46.49061" lon="5.25422">
        <ele>199.4</ele>
        <time>2021-12-09T11:59:47Z</time>
      </trkpt>
      <trkpt lat="46.49059" lon="5.25403">
        <ele>200.2</ele>
        <time>2021-12-09T11:59:50Z</time>
      </trkpt>
      <trkpt lat="46.49058" lon="5.25391">
        <ele>200.6</ele>
        <time>2021-12-09T11:59:52Z</time>
      </trkpt>
      <trkpt lat="46.49054" lon="5.25357">
        <ele>201.6</ele>
        <time>2021-12-09T11:59:57Z</time>
      </trkpt>
      <trkpt lat="46.49052" lon="5.25349">
        <ele>201.8</ele>
        <time>2021-12-09T11:59:58Z</time>
      </trkpt>
      <trkpt lat="46.49044" lon="5.25288">
        <ele>202.2</ele>
        <time>2021-12-09T12:00:05Z</time>
      </trkpt>
      <trkpt lat="46.49035" lon="5.25226">
        <ele>201.4</ele>
        <time>2021-12-09T12:00:11Z</time>
      </trkpt>
      <trkpt lat="46.4903" lon="5.25185">
        <ele>200.4</ele>
        <time>2021-12-09T12:00:15Z</time>
      </trkpt>
      <trkpt lat="46.49025" lon="5.25154">
        <ele>202.6</ele>
        <time>2021-12-09T12:00:18Z</time>
      </trkpt>
      <trkpt lat="46.49017" lon="5.25085">
        <ele>199.6</ele>
        <time>2021-12-09T12:00:26Z</time>
      </trkpt>
      <trkpt lat="46.49012" lon="5.25041">
        <ele>200.2</ele>
        <time>2021-12-09T12:00:32Z</time>
      </trkpt>
      <trkpt lat="46.49005" lon="5.25">
        <ele>201.2</ele>
        <time>2021-12-09T12:00:38Z</time>
      </trkpt>
      <trkpt lat="46.49005" lon="5.24994">
        <ele>201.4</ele>
        <time>2021-12-09T12:00:39Z</time>
      </trkpt>
      <trkpt lat="46.49" lon="5.24969">
        <ele>202.4</ele>
        <time>2021-12-09T12:00:43Z</time>
      </trkpt>
      <trkpt lat="46.48999" lon="5.24963">
        <ele>202.6</ele>
        <time>2021-12-09T12:00:44Z</time>
      </trkpt>
      <trkpt lat="46.48998" lon="5.24958">
        <ele>202.6</ele>
        <time>2021-12-09T12:00:45Z</time>
      </trkpt>
      <trkpt lat="46.48992" lon="5.24935">
        <ele>203.6</ele>
        <time>2021-12-09T12:00:49Z</time>
      </trkpt>
      <trkpt lat="46.48988" lon="5.24923">
        <ele>204.2</ele>
        <time>2021-12-09T12:00:51Z</time>
      </trkpt>
      <trkpt lat="46.48981" lon="5.24906">
        <ele>204.8</ele>
        <time>2021-12-09T12:00:54Z</time>
      </trkpt>
      <trkpt lat="46.48977" lon="5.24895">
        <ele>205.2</ele>
        <time>2021-12-09T12:00:56Z</time>
      </trkpt>
      <trkpt lat="46.48968" lon="5.2488">
        <ele>205.6</ele>
        <time>2021-12-09T12:00:59Z</time>
      </trkpt>
      <trkpt lat="46.48965" lon="5.24875">
        <ele>206</ele>
        <time>2021-12-09T12:01:00Z</time>
      </trkpt>
      <trkpt lat="46.48961" lon="5.24871">
        <ele>206</ele>
        <time>2021-12-09T12:01:01Z</time>
      </trkpt>
      <trkpt lat="46.48952" lon="5.24858">
        <ele>207</ele>
        <time>2021-12-09T12:01:04Z</time>
      </trkpt>
      <trkpt lat="46.48948" lon="5.24854">
        <ele>207.4</ele>
        <time>2021-12-09T12:01:05Z</time>
      </trkpt>
      <trkpt lat="46.48925" lon="5.24827">
        <ele>208</ele>
        <time>2021-12-09T12:01:11Z</time>
      </trkpt>
      <trkpt lat="46.48918" lon="5.24818">
        <ele>208.2</ele>
        <time>2021-12-09T12:01:13Z</time>
      </trkpt>
      <trkpt lat="46.4889" lon="5.24785">
        <ele>209</ele>
        <time>2021-12-09T12:01:20Z</time>
      </trkpt>
      <trkpt lat="46.48882" lon="5.24776">
        <ele>209.2</ele>
        <time>2021-12-09T12:01:22Z</time>
      </trkpt>
      <trkpt lat="46.48843" lon="5.24733">
        <ele>209.2</ele>
        <time>2021-12-09T12:01:31Z</time>
      </trkpt>
      <trkpt lat="46.48802" lon="5.2469">
        <ele>209.8</ele>
        <time>2021-12-09T12:01:40Z</time>
      </trkpt>
      <trkpt lat="46.48768" lon="5.24654">
        <ele>210</ele>
        <time>2021-12-09T12:01:48Z</time>
      </trkpt>
      <trkpt lat="46.48765" lon="5.24641">
        <ele>210.2</ele>
        <time>2021-12-09T12:01:50Z</time>
      </trkpt>
      <trkpt lat="46.48765" lon="5.24636">
        <ele>210.2</ele>
        <time>2021-12-09T12:01:51Z</time>
      </trkpt>
      <trkpt lat="46.48763" lon="5.24631">
        <ele>210.2</ele>
        <time>2021-12-09T12:01:52Z</time>
      </trkpt>
      <trkpt lat="46.4876" lon="5.24628">
        <ele>210.2</ele>
        <time>2021-12-09T12:01:53Z</time>
      </trkpt>
      <trkpt lat="46.48755" lon="5.24627">
        <ele>210.2</ele>
        <time>2021-12-09T12:01:54Z</time>
      </trkpt>
      <trkpt lat="46.48744" lon="5.24627">
        <ele>210</ele>
        <time>2021-12-09T12:01:56Z</time>
      </trkpt>
      <trkpt lat="46.48716" lon="5.24622">
        <ele>210</ele>
        <time>2021-12-09T12:02:00Z</time>
      </trkpt>
      <trkpt lat="46.48678" lon="5.24604">
        <ele>209</ele>
        <time>2021-12-09T12:02:06Z</time>
      </trkpt>
      <trkpt lat="46.48672" lon="5.24601">
        <ele>208.8</ele>
        <time>2021-12-09T12:02:07Z</time>
      </trkpt>
      <trkpt lat="46.48624" lon="5.24576">
        <ele>209.2</ele>
        <time>2021-12-09T12:02:15Z</time>
      </trkpt>
      <trkpt lat="46.48591" lon="5.24557">
        <ele>209.8</ele>
        <time>2021-12-09T12:02:21Z</time>
      </trkpt>
      <trkpt lat="46.48586" lon="5.24552">
        <ele>209.8</ele>
        <time>2021-12-09T12:02:22Z</time>
      </trkpt>
      <trkpt lat="46.48581" lon="5.24548">
        <ele>210</ele>
        <time>2021-12-09T12:02:23Z</time>
      </trkpt>
      <trkpt lat="46.48556" lon="5.24522">
        <ele>210</ele>
        <time>2021-12-09T12:02:28Z</time>
      </trkpt>
      <trkpt lat="46.48522" lon="5.24479">
        <ele>209.6</ele>
        <time>2021-12-09T12:02:35Z</time>
      </trkpt>
      <trkpt lat="46.48495" lon="5.24447">
        <ele>208.8</ele>
        <time>2021-12-09T12:02:40Z</time>
      </trkpt>
      <trkpt lat="46.48474" lon="5.2442">
        <ele>208.2</ele>
        <time>2021-12-09T12:02:44Z</time>
      </trkpt>
      <trkpt lat="46.48451" lon="5.24392">
        <ele>207.8</ele>
        <time>2021-12-09T12:02:48Z</time>
      </trkpt>
      <trkpt lat="46.48433" lon="5.24375">
        <ele>207.2</ele>
        <time>2021-12-09T12:02:51Z</time>
      </trkpt>
      <trkpt lat="46.4841" lon="5.24354">
        <ele>207</ele>
        <time>2021-12-09T12:02:55Z</time>
      </trkpt>
      <trkpt lat="46.48398" lon="5.24347">
        <ele>207</ele>
        <time>2021-12-09T12:02:57Z</time>
      </trkpt>
      <trkpt lat="46.48369" lon="5.24336">
        <ele>207.4</ele>
        <time>2021-12-09T12:03:02Z</time>
      </trkpt>
      <trkpt lat="46.48365" lon="5.24333">
        <ele>207.6</ele>
        <time>2021-12-09T12:03:03Z</time>
      </trkpt>
      <trkpt lat="46.48347" lon="5.24319">
        <ele>208.4</ele>
        <time>2021-12-09T12:03:07Z</time>
      </trkpt>
      <trkpt lat="46.48344" lon="5.24314">
        <ele>209</ele>
        <time>2021-12-09T12:03:08Z</time>
      </trkpt>
      <trkpt lat="46.48341" lon="5.24311">
        <ele>209.2</ele>
        <time>2021-12-09T12:03:09Z</time>
      </trkpt>
      <trkpt lat="46.48329" lon="5.24295">
        <ele>210</ele>
        <time>2021-12-09T12:03:12Z</time>
      </trkpt>
      <trkpt lat="46.48325" lon="5.2429">
        <ele>210.4</ele>
        <time>2021-12-09T12:03:13Z</time>
      </trkpt>
      <trkpt lat="46.48318" lon="5.24281">
        <ele>210.8</ele>
        <time>2021-12-09T12:03:15Z</time>
      </trkpt>
      <trkpt lat="46.48312" lon="5.24276">
        <ele>211</ele>
        <time>2021-12-09T12:03:16Z</time>
      </trkpt>
      <trkpt lat="46.48297" lon="5.24269">
        <ele>211.4</ele>
        <time>2021-12-09T12:03:19Z</time>
      </trkpt>
      <trkpt lat="46.48254" lon="5.24258">
        <ele>212.2</ele>
        <time>2021-12-09T12:03:27Z</time>
      </trkpt>
      <trkpt lat="46.48232" lon="5.24252">
        <ele>212.6</ele>
        <time>2021-12-09T12:03:31Z</time>
      </trkpt>
      <trkpt lat="46.48216" lon="5.2425">
        <ele>212.8</ele>
        <time>2021-12-09T12:03:34Z</time>
      </trkpt>
      <trkpt lat="46.48205" lon="5.24251">
        <ele>212.8</ele>
        <time>2021-12-09T12:03:36Z</time>
      </trkpt>
      <trkpt lat="46.48199" lon="5.24253">
        <ele>212.8</ele>
        <time>2021-12-09T12:03:37Z</time>
      </trkpt>
      <trkpt lat="46.48194" lon="5.24255">
        <ele>212.8</ele>
        <time>2021-12-09T12:03:38Z</time>
      </trkpt>
      <trkpt lat="46.48185" lon="5.24263">
        <ele>212.8</ele>
        <time>2021-12-09T12:03:40Z</time>
      </trkpt>
      <trkpt lat="46.4818" lon="5.24268">
        <ele>212.8</ele>
        <time>2021-12-09T12:03:41Z</time>
      </trkpt>
      <trkpt lat="46.48141" lon="5.24319">
        <ele>212.2</ele>
        <time>2021-12-09T12:03:49Z</time>
      </trkpt>
      <trkpt lat="46.4813" lon="5.24326">
        <ele>211.8</ele>
        <time>2021-12-09T12:03:51Z</time>
      </trkpt>
      <trkpt lat="46.48122" lon="5.24329">
        <ele>211.8</ele>
        <time>2021-12-09T12:03:52Z</time>
      </trkpt>
      <trkpt lat="46.48114" lon="5.24329">
        <ele>211.4</ele>
        <time>2021-12-09T12:03:53Z</time>
      </trkpt>
      <trkpt lat="46.48099" lon="5.24323">
        <ele>210.8</ele>
        <time>2021-12-09T12:03:55Z</time>
      </trkpt>
      <trkpt lat="46.48085" lon="5.24309">
        <ele>210.2</ele>
        <time>2021-12-09T12:03:57Z</time>
      </trkpt>
      <trkpt lat="46.4808" lon="5.24299">
        <ele>209.8</ele>
        <time>2021-12-09T12:03:58Z</time>
      </trkpt>
      <trkpt lat="46.48076" lon="5.24287">
        <ele>209.4</ele>
        <time>2021-12-09T12:03:59Z</time>
      </trkpt>
      <trkpt lat="46.48074" lon="5.2426">
        <ele>208.2</ele>
        <time>2021-12-09T12:04:01Z</time>
      </trkpt>
      <trkpt lat="46.4808" lon="5.24232">
        <ele>206.8</ele>
        <time>2021-12-09T12:04:03Z</time>
      </trkpt>
      <trkpt lat="46.48084" lon="5.24219">
        <ele>206.2</ele>
        <time>2021-12-09T12:04:04Z</time>
      </trkpt>
      <trkpt lat="46.48089" lon="5.24206">
        <ele>205.4</ele>
        <time>2021-12-09T12:04:05Z</time>
      </trkpt>
      <trkpt lat="46.48099" lon="5.24179">
        <ele>204.2</ele>
        <time>2021-12-09T12:04:07Z</time>
      </trkpt>
      <trkpt lat="46.48114" lon="5.24139">
        <ele>203.2</ele>
        <time>2021-12-09T12:04:10Z</time>
      </trkpt>
      <trkpt lat="46.48125" lon="5.24112">
        <ele>201.8</ele>
        <time>2021-12-09T12:04:12Z</time>
      </trkpt>
      <trkpt lat="46.48131" lon="5.24098">
        <ele>200.6</ele>
        <time>2021-12-09T12:04:13Z</time>
      </trkpt>
      <trkpt lat="46.48142" lon="5.2407">
        <ele>199.4</ele>
        <time>2021-12-09T12:04:15Z</time>
      </trkpt>
      <trkpt lat="46.48147" lon="5.24056">
        <ele>198.4</ele>
        <time>2021-12-09T12:04:16Z</time>
      </trkpt>
      <trkpt lat="46.48158" lon="5.24028">
        <ele>196.8</ele>
        <time>2021-12-09T12:04:18Z</time>
      </trkpt>
      <trkpt lat="46.48169" lon="5.24">
        <ele>195.4</ele>
        <time>2021-12-09T12:04:20Z</time>
      </trkpt>
      <trkpt lat="46.4818" lon="5.23972">
        <ele>194.2</ele>
        <time>2021-12-09T12:04:22Z</time>
      </trkpt>
      <trkpt lat="46.48184" lon="5.23958">
        <ele>193.2</ele>
        <time>2021-12-09T12:04:23Z</time>
      </trkpt>
      <trkpt lat="46.48192" lon="5.23929">
        <ele>191.8</ele>
        <time>2021-12-09T12:04:25Z</time>
      </trkpt>
      <trkpt lat="46.48193" lon="5.239">
        <ele>190.6</ele>
        <time>2021-12-09T12:04:27Z</time>
      </trkpt>
      <trkpt lat="46.48191" lon="5.23885">
        <ele>190.4</ele>
        <time>2021-12-09T12:04:28Z</time>
      </trkpt>
      <trkpt lat="46.48189" lon="5.23872">
        <ele>189.8</ele>
        <time>2021-12-09T12:04:29Z</time>
      </trkpt>
      <trkpt lat="46.48185" lon="5.23859">
        <ele>189.2</ele>
        <time>2021-12-09T12:04:30Z</time>
      </trkpt>
      <trkpt lat="46.48181" lon="5.23847">
        <ele>188.8</ele>
        <time>2021-12-09T12:04:31Z</time>
      </trkpt>
      <trkpt lat="46.4817" lon="5.23828">
        <ele>188.2</ele>
        <time>2021-12-09T12:04:33Z</time>
      </trkpt>
      <trkpt lat="46.48164" lon="5.23819">
        <ele>188</ele>
        <time>2021-12-09T12:04:34Z</time>
      </trkpt>
      <trkpt lat="46.48118" lon="5.23765">
        <ele>187.8</ele>
        <time>2021-12-09T12:04:41Z</time>
      </trkpt>
      <trkpt lat="46.48112" lon="5.23756">
        <ele>187.8</ele>
        <time>2021-12-09T12:04:42Z</time>
      </trkpt>
      <trkpt lat="46.48084" lon="5.23699">
        <ele>187.2</ele>
        <time>2021-12-09T12:04:48Z</time>
      </trkpt>
      <trkpt lat="46.48069" lon="5.23636">
        <ele>187</ele>
        <time>2021-12-09T12:04:54Z</time>
      </trkpt>
      <trkpt lat="46.48064" lon="5.23566">
        <ele>186.6</ele>
        <time>2021-12-09T12:05:00Z</time>
      </trkpt>
      <trkpt lat="46.48061" lon="5.23482">
        <ele>186.2</ele>
        <time>2021-12-09T12:05:08Z</time>
      </trkpt>
      <trkpt lat="46.48061" lon="5.23463">
        <ele>186.2</ele>
        <time>2021-12-09T12:05:10Z</time>
      </trkpt>
      <trkpt lat="46.48059" lon="5.23382">
        <ele>186.8</ele>
        <time>2021-12-09T12:05:18Z</time>
      </trkpt>
      <trkpt lat="46.48058" lon="5.23372">
        <ele>186.8</ele>
        <time>2021-12-09T12:05:19Z</time>
      </trkpt>
      <trkpt lat="46.48056" lon="5.23295">
        <ele>187.2</ele>
        <time>2021-12-09T12:05:27Z</time>
      </trkpt>
      <trkpt lat="46.48055" lon="5.2323">
        <ele>187.6</ele>
        <time>2021-12-09T12:05:34Z</time>
      </trkpt>
      <trkpt lat="46.48054" lon="5.23176">
        <ele>188</ele>
        <time>2021-12-09T12:05:40Z</time>
      </trkpt>
      <trkpt lat="46.48053" lon="5.23159">
        <ele>188.2</ele>
        <time>2021-12-09T12:05:42Z</time>
      </trkpt>
      <trkpt lat="46.48053" lon="5.23121">
        <ele>189.2</ele>
        <time>2021-12-09T12:05:47Z</time>
      </trkpt>
      <trkpt lat="46.48053" lon="5.23114">
        <ele>189.4</ele>
        <time>2021-12-09T12:05:48Z</time>
      </trkpt>
      <trkpt lat="46.48052" lon="5.23081">
        <ele>190.2</ele>
        <time>2021-12-09T12:05:53Z</time>
      </trkpt>
      <trkpt lat="46.48052" lon="5.23074">
        <ele>190.6</ele>
        <time>2021-12-09T12:05:54Z</time>
      </trkpt>
      <trkpt lat="46.48051" lon="5.23055">
        <ele>191.4</ele>
        <time>2021-12-09T12:05:57Z</time>
      </trkpt>
      <trkpt lat="46.48051" lon="5.2303">
        <ele>192</ele>
        <time>2021-12-09T12:06:01Z</time>
      </trkpt>
      <trkpt lat="46.48051" lon="5.23012">
        <ele>192.4</ele>
        <time>2021-12-09T12:06:04Z</time>
      </trkpt>
      <trkpt lat="46.48049" lon="5.22973">
        <ele>193.4</ele>
        <time>2021-12-09T12:06:10Z</time>
      </trkpt>
      <trkpt lat="46.48048" lon="5.2296">
        <ele>193.8</ele>
        <time>2021-12-09T12:06:12Z</time>
      </trkpt>
      <trkpt lat="46.48043" lon="5.2293">
        <ele>194.4</ele>
        <time>2021-12-09T12:06:17Z</time>
      </trkpt>
      <trkpt lat="46.48041" lon="5.22923">
        <ele>194.6</ele>
        <time>2021-12-09T12:06:18Z</time>
      </trkpt>
      <trkpt lat="46.48029" lon="5.22884">
        <ele>195.6</ele>
        <time>2021-12-09T12:06:25Z</time>
      </trkpt>
      <trkpt lat="46.48014" lon="5.22843">
        <ele>196.6</ele>
        <time>2021-12-09T12:06:32Z</time>
      </trkpt>
      <trkpt lat="46.48009" lon="5.22831">
        <ele>196.8</ele>
        <time>2021-12-09T12:06:34Z</time>
      </trkpt>
      <trkpt lat="46.47989" lon="5.22777">
        <ele>197.6</ele>
        <time>2021-12-09T12:06:43Z</time>
      </trkpt>
      <trkpt lat="46.47987" lon="5.22772">
        <ele>197.8</ele>
        <time>2021-12-09T12:06:44Z</time>
      </trkpt>
      <trkpt lat="46.47965" lon="5.2273">
        <ele>198.8</ele>
        <time>2021-12-09T12:06:52Z</time>
      </trkpt>
      <trkpt lat="46.47934" lon="5.22692">
        <ele>200</ele>
        <time>2021-12-09T12:07:01Z</time>
      </trkpt>
      <trkpt lat="46.4793" lon="5.22689">
        <ele>200.4</ele>
        <time>2021-12-09T12:07:02Z</time>
      </trkpt>
      <trkpt lat="46.47911" lon="5.22669">
        <ele>201.4</ele>
        <time>2021-12-09T12:07:08Z</time>
      </trkpt>
      <trkpt lat="46.47904" lon="5.22662">
        <ele>201.6</ele>
        <time>2021-12-09T12:07:10Z</time>
      </trkpt>
      <trkpt lat="46.47895" lon="5.22652">
        <ele>202.4</ele>
        <time>2021-12-09T12:07:13Z</time>
      </trkpt>
      <trkpt lat="46.47879" lon="5.22636">
        <ele>203.6</ele>
        <time>2021-12-09T12:07:18Z</time>
      </trkpt>
      <trkpt lat="46.4787" lon="5.22626">
        <ele>204.2</ele>
        <time>2021-12-09T12:07:21Z</time>
      </trkpt>
      <trkpt lat="46.47864" lon="5.22619">
        <ele>204.6</ele>
        <time>2021-12-09T12:07:23Z</time>
      </trkpt>
      <trkpt lat="46.47846" lon="5.226">
        <ele>206.2</ele>
        <time>2021-12-09T12:07:29Z</time>
      </trkpt>
      <trkpt lat="46.4784" lon="5.22594">
        <ele>206.6</ele>
        <time>2021-12-09T12:07:31Z</time>
      </trkpt>
      <trkpt lat="46.47828" lon="5.2258">
        <ele>207.2</ele>
        <time>2021-12-09T12:07:35Z</time>
      </trkpt>
      <trkpt lat="46.47815" lon="5.2256">
        <ele>208</ele>
        <time>2021-12-09T12:07:40Z</time>
      </trkpt>
      <trkpt lat="46.47812" lon="5.22555">
        <ele>208.2</ele>
        <time>2021-12-09T12:07:41Z</time>
      </trkpt>
      <trkpt lat="46.47805" lon="5.22533">
        <ele>208.8</ele>
        <time>2021-12-09T12:07:45Z</time>
      </trkpt>
      <trkpt lat="46.47801" lon="5.22515">
        <ele>209.2</ele>
        <time>2021-12-09T12:07:48Z</time>
      </trkpt>
      <trkpt lat="46.47793" lon="5.22474">
        <ele>209.8</ele>
        <time>2021-12-09T12:07:54Z</time>
      </trkpt>
      <trkpt lat="46.4778" lon="5.224">
        <ele>209.8</ele>
        <time>2021-12-09T12:08:04Z</time>
      </trkpt>
      <trkpt lat="46.47771" lon="5.2235">
        <ele>209.6</ele>
        <time>2021-12-09T12:08:10Z</time>
      </trkpt>
      <trkpt lat="46.47769" lon="5.22324">
        <ele>209.4</ele>
        <time>2021-12-09T12:08:13Z</time>
      </trkpt>
      <trkpt lat="46.47772" lon="5.22318">
        <ele>209.2</ele>
        <time>2021-12-09T12:08:14Z</time>
      </trkpt>
      <trkpt lat="46.47776" lon="5.22314">
        <ele>209.2</ele>
        <time>2021-12-09T12:08:15Z</time>
      </trkpt>
      <trkpt lat="46.4778" lon="5.22313">
        <ele>209.2</ele>
        <time>2021-12-09T12:08:16Z</time>
      </trkpt>
      <trkpt lat="46.47786" lon="5.22312">
        <ele>209</ele>
        <time>2021-12-09T12:08:17Z</time>
      </trkpt>
      <trkpt lat="46.47803" lon="5.2231">
        <ele>209</ele>
        <time>2021-12-09T12:08:21Z</time>
      </trkpt>
      <trkpt lat="46.47808" lon="5.2231">
        <ele>209.4</ele>
        <time>2021-12-09T12:08:25Z</time>
      </trkpt>
      <trkpt lat="46.47808" lon="5.2231">
        <ele>209.6</ele>
        <time>2021-12-09T12:08:27Z</time>
      </trkpt>
      <trkpt lat="46.47802" lon="5.22309">
        <ele>209.6</ele>
        <time>2021-12-09T12:09:25Z</time>
      </trkpt>
      <trkpt lat="46.47799" lon="5.22309">
        <ele>209.6</ele>
        <time>2021-12-09T12:09:26Z</time>
      </trkpt>
      <trkpt lat="46.47777" lon="5.2231">
        <ele>209.2</ele>
        <time>2021-12-09T12:09:31Z</time>
      </trkpt>
      <trkpt lat="46.47767" lon="5.22309">
        <ele>209</ele>
        <time>2021-12-09T12:09:34Z</time>
      </trkpt>
      <trkpt lat="46.47765" lon="5.22306">
        <ele>208.8</ele>
        <time>2021-12-09T12:09:35Z</time>
      </trkpt>
      <trkpt lat="46.47764" lon="5.22292">
        <ele>208.4</ele>
        <time>2021-12-09T12:09:37Z</time>
      </trkpt>
      <trkpt lat="46.47763" lon="5.22275">
        <ele>208.2</ele>
        <time>2021-12-09T12:09:39Z</time>
      </trkpt>
      <trkpt lat="46.47759" lon="5.22227">
        <ele>207.6</ele>
        <time>2021-12-09T12:09:44Z</time>
      </trkpt>
      <trkpt lat="46.47756" lon="5.22197">
        <ele>207</ele>
        <time>2021-12-09T12:09:47Z</time>
      </trkpt>
      <trkpt lat="46.47749" lon="5.22114">
        <ele>206.2</ele>
        <time>2021-12-09T12:09:55Z</time>
      </trkpt>
      <trkpt lat="46.47747" lon="5.22094">
        <ele>205.8</ele>
        <time>2021-12-09T12:09:57Z</time>
      </trkpt>
      <trkpt lat="46.47742" lon="5.22023">
        <ele>205</ele>
        <time>2021-12-09T12:10:04Z</time>
      </trkpt>
      <trkpt lat="46.47735" lon="5.21943">
        <ele>205.6</ele>
        <time>2021-12-09T12:10:12Z</time>
      </trkpt>
      <trkpt lat="46.47732" lon="5.21904">
        <ele>205.8</ele>
        <time>2021-12-09T12:10:16Z</time>
      </trkpt>
      <trkpt lat="46.47727" lon="5.21848">
        <ele>204.6</ele>
        <time>2021-12-09T12:10:22Z</time>
      </trkpt>
      <trkpt lat="46.47726" lon="5.2183">
        <ele>204.6</ele>
        <time>2021-12-09T12:10:24Z</time>
      </trkpt>
      <trkpt lat="46.47721" lon="5.2176">
        <ele>205</ele>
        <time>2021-12-09T12:10:32Z</time>
      </trkpt>
      <trkpt lat="46.47717" lon="5.21717">
        <ele>205.8</ele>
        <time>2021-12-09T12:10:37Z</time>
      </trkpt>
      <trkpt lat="46.47717" lon="5.21708">
        <ele>206</ele>
        <time>2021-12-09T12:10:38Z</time>
      </trkpt>
      <trkpt lat="46.47717" lon="5.21701">
        <ele>206</ele>
        <time>2021-12-09T12:10:39Z</time>
      </trkpt>
      <trkpt lat="46.47718" lon="5.21692">
        <ele>206.2</ele>
        <time>2021-12-09T12:10:40Z</time>
      </trkpt>
      <trkpt lat="46.47725" lon="5.21665">
        <ele>206.2</ele>
        <time>2021-12-09T12:10:43Z</time>
      </trkpt>
      <trkpt lat="46.4774" lon="5.21614">
        <ele>206</ele>
        <time>2021-12-09T12:10:48Z</time>
      </trkpt>
      <trkpt lat="46.47761" lon="5.21545">
        <ele>204.4</ele>
        <time>2021-12-09T12:10:54Z</time>
      </trkpt>
      <trkpt lat="46.47764" lon="5.21533">
        <ele>204.2</ele>
        <time>2021-12-09T12:10:55Z</time>
      </trkpt>
      <trkpt lat="46.47771" lon="5.21508">
        <ele>203.4</ele>
        <time>2021-12-09T12:10:57Z</time>
      </trkpt>
      <trkpt lat="46.47781" lon="5.21473">
        <ele>202</ele>
        <time>2021-12-09T12:11:00Z</time>
      </trkpt>
      <trkpt lat="46.47794" lon="5.21429">
        <ele>201.2</ele>
        <time>2021-12-09T12:11:04Z</time>
      </trkpt>
      <trkpt lat="46.4781" lon="5.21373">
        <ele>201</ele>
        <time>2021-12-09T12:11:10Z</time>
      </trkpt>
      <trkpt lat="46.47827" lon="5.21315">
        <ele>203</ele>
        <time>2021-12-09T12:11:17Z</time>
      </trkpt>
      <trkpt lat="46.47829" lon="5.21309">
        <ele>203.2</ele>
        <time>2021-12-09T12:11:18Z</time>
      </trkpt>
      <trkpt lat="46.47846" lon="5.21249">
        <ele>203.8</ele>
        <time>2021-12-09T12:11:25Z</time>
      </trkpt>
      <trkpt lat="46.4786" lon="5.21187">
        <ele>203.4</ele>
        <time>2021-12-09T12:11:31Z</time>
      </trkpt>
      <trkpt lat="46.47873" lon="5.21129">
        <ele>201.6</ele>
        <time>2021-12-09T12:11:36Z</time>
      </trkpt>
      <trkpt lat="46.4788" lon="5.21095">
        <ele>200.2</ele>
        <time>2021-12-09T12:11:39Z</time>
      </trkpt>
      <trkpt lat="46.47888" lon="5.21053">
        <ele>199.2</ele>
        <time>2021-12-09T12:11:42Z</time>
      </trkpt>
      <trkpt lat="46.47891" lon="5.2104">
        <ele>198.8</ele>
        <time>2021-12-09T12:11:43Z</time>
      </trkpt>
      <trkpt lat="46.47896" lon="5.21014">
        <ele>197.6</ele>
        <time>2021-12-09T12:11:45Z</time>
      </trkpt>
      <trkpt lat="46.47905" lon="5.20974">
        <ele>196.2</ele>
        <time>2021-12-09T12:11:48Z</time>
      </trkpt>
      <trkpt lat="46.47911" lon="5.20947">
        <ele>195.8</ele>
        <time>2021-12-09T12:11:50Z</time>
      </trkpt>
      <trkpt lat="46.47916" lon="5.20921">
        <ele>195</ele>
        <time>2021-12-09T12:11:52Z</time>
      </trkpt>
      <trkpt lat="46.47922" lon="5.20871">
        <ele>194.2</ele>
        <time>2021-12-09T12:11:56Z</time>
      </trkpt>
      <trkpt lat="46.47922" lon="5.20859">
        <ele>194.2</ele>
        <time>2021-12-09T12:11:57Z</time>
      </trkpt>
      <trkpt lat="46.4792" lon="5.20825">
        <ele>194</ele>
        <time>2021-12-09T12:12:00Z</time>
      </trkpt>
      <trkpt lat="46.47918" lon="5.20814">
        <ele>194</ele>
        <time>2021-12-09T12:12:01Z</time>
      </trkpt>
      <trkpt lat="46.47916" lon="5.20776">
        <ele>194.2</ele>
        <time>2021-12-09T12:12:05Z</time>
      </trkpt>
      <trkpt lat="46.47912" lon="5.20744">
        <ele>195.2</ele>
        <time>2021-12-09T12:12:09Z</time>
      </trkpt>
      <trkpt lat="46.47911" lon="5.20723">
        <ele>196</ele>
        <time>2021-12-09T12:12:12Z</time>
      </trkpt>
      <trkpt lat="46.4791" lon="5.20715">
        <ele>196.4</ele>
        <time>2021-12-09T12:12:13Z</time>
      </trkpt>
      <trkpt lat="46.47908" lon="5.20686">
        <ele>197.4</ele>
        <time>2021-12-09T12:12:17Z</time>
      </trkpt>
      <trkpt lat="46.47908" lon="5.20679">
        <ele>197.6</ele>
        <time>2021-12-09T12:12:18Z</time>
      </trkpt>
      <trkpt lat="46.47907" lon="5.20655">
        <ele>199</ele>
        <time>2021-12-09T12:12:22Z</time>
      </trkpt>
      <trkpt lat="46.47906" lon="5.20641">
        <ele>199.6</ele>
        <time>2021-12-09T12:12:24Z</time>
      </trkpt>
      <trkpt lat="46.47905" lon="5.2063">
        <ele>200</ele>
        <time>2021-12-09T12:12:26Z</time>
      </trkpt>
      <trkpt lat="46.47902" lon="5.20604">
        <ele>201</ele>
        <time>2021-12-09T12:12:30Z</time>
      </trkpt>
      <trkpt lat="46.47902" lon="5.20592">
        <ele>201.6</ele>
        <time>2021-12-09T12:12:32Z</time>
      </trkpt>
      <trkpt lat="46.47901" lon="5.20579">
        <ele>202.2</ele>
        <time>2021-12-09T12:12:34Z</time>
      </trkpt>
      <trkpt lat="46.47899" lon="5.20556">
        <ele>203.4</ele>
        <time>2021-12-09T12:12:38Z</time>
      </trkpt>
      <trkpt lat="46.47897" lon="5.20538">
        <ele>204</ele>
        <time>2021-12-09T12:12:41Z</time>
      </trkpt>
      <trkpt lat="46.47896" lon="5.20519">
        <ele>204.6</ele>
        <time>2021-12-09T12:12:44Z</time>
      </trkpt>
      <trkpt lat="46.47894" lon="5.20498">
        <ele>205.2</ele>
        <time>2021-12-09T12:12:47Z</time>
      </trkpt>
      <trkpt lat="46.47892" lon="5.20484">
        <ele>205.6</ele>
        <time>2021-12-09T12:12:49Z</time>
      </trkpt>
      <trkpt lat="46.47891" lon="5.20477">
        <ele>205.6</ele>
        <time>2021-12-09T12:12:50Z</time>
      </trkpt>
      <trkpt lat="46.47885" lon="5.20442">
        <ele>206.2</ele>
        <time>2021-12-09T12:12:55Z</time>
      </trkpt>
      <trkpt lat="46.47883" lon="5.20436">
        <ele>206.2</ele>
        <time>2021-12-09T12:12:56Z</time>
      </trkpt>
      <trkpt lat="46.47879" lon="5.20432">
        <ele>206.4</ele>
        <time>2021-12-09T12:12:57Z</time>
      </trkpt>
      <trkpt lat="46.47869" lon="5.20427">
        <ele>206.4</ele>
        <time>2021-12-09T12:12:59Z</time>
      </trkpt>
      <trkpt lat="46.47864" lon="5.20425">
        <ele>206.4</ele>
        <time>2021-12-09T12:13:00Z</time>
      </trkpt>
      <trkpt lat="46.47854" lon="5.20419">
        <ele>206.6</ele>
        <time>2021-12-09T12:13:02Z</time>
      </trkpt>
      <trkpt lat="46.4784" lon="5.20409">
        <ele>206.8</ele>
        <time>2021-12-09T12:13:05Z</time>
      </trkpt>
      <trkpt lat="46.47821" lon="5.20395">
        <ele>207.2</ele>
        <time>2021-12-09T12:13:09Z</time>
      </trkpt>
      <trkpt lat="46.47808" lon="5.20384">
        <ele>207.2</ele>
        <time>2021-12-09T12:13:12Z</time>
      </trkpt>
      <trkpt lat="46.47783" lon="5.20375">
        <ele>207.2</ele>
        <time>2021-12-09T12:13:17Z</time>
      </trkpt>
      <trkpt lat="46.47773" lon="5.20369">
        <ele>207.4</ele>
        <time>2021-12-09T12:13:19Z</time>
      </trkpt>
      <trkpt lat="46.47766" lon="5.20364">
        <ele>207.6</ele>
        <time>2021-12-09T12:13:21Z</time>
      </trkpt>
      <trkpt lat="46.47762" lon="5.2036">
        <ele>207.8</ele>
        <time>2021-12-09T12:13:22Z</time>
      </trkpt>
      <trkpt lat="46.47744" lon="5.20339">
        <ele>208.8</ele>
        <time>2021-12-09T12:13:27Z</time>
      </trkpt>
      <trkpt lat="46.47733" lon="5.20326">
        <ele>209.6</ele>
        <time>2021-12-09T12:13:30Z</time>
      </trkpt>
      <trkpt lat="46.47727" lon="5.20317">
        <ele>209.8</ele>
        <time>2021-12-09T12:13:32Z</time>
      </trkpt>
      <trkpt lat="46.47722" lon="5.20312">
        <ele>210</ele>
        <time>2021-12-09T12:13:33Z</time>
      </trkpt>
      <trkpt lat="46.47714" lon="5.20304">
        <ele>210.2</ele>
        <time>2021-12-09T12:13:35Z</time>
      </trkpt>
      <trkpt lat="46.47686" lon="5.20273">
        <ele>210.8</ele>
        <time>2021-12-09T12:13:42Z</time>
      </trkpt>
      <trkpt lat="46.47683" lon="5.20267">
        <ele>210.8</ele>
        <time>2021-12-09T12:13:43Z</time>
      </trkpt>
      <trkpt lat="46.47677" lon="5.20254">
        <ele>211</ele>
        <time>2021-12-09T12:13:45Z</time>
      </trkpt>
      <trkpt lat="46.47673" lon="5.20239">
        <ele>211</ele>
        <time>2021-12-09T12:13:47Z</time>
      </trkpt>
      <trkpt lat="46.4767" lon="5.20232">
        <ele>211</ele>
        <time>2021-12-09T12:13:48Z</time>
      </trkpt>
      <trkpt lat="46.47667" lon="5.20227">
        <ele>211</ele>
        <time>2021-12-09T12:13:49Z</time>
      </trkpt>
      <trkpt lat="46.47659" lon="5.20217">
        <ele>210.8</ele>
        <time>2021-12-09T12:13:51Z</time>
      </trkpt>
      <trkpt lat="46.47654" lon="5.20214">
        <ele>210.8</ele>
        <time>2021-12-09T12:13:52Z</time>
      </trkpt>
      <trkpt lat="46.47619" lon="5.20194">
        <ele>210.8</ele>
        <time>2021-12-09T12:13:59Z</time>
      </trkpt>
      <trkpt lat="46.47602" lon="5.20182">
        <ele>211</ele>
        <time>2021-12-09T12:14:02Z</time>
      </trkpt>
      <trkpt lat="46.47582" lon="5.20161">
        <ele>211</ele>
        <time>2021-12-09T12:14:06Z</time>
      </trkpt>
      <trkpt lat="46.47536" lon="5.20112">
        <ele>210.2</ele>
        <time>2021-12-09T12:14:15Z</time>
      </trkpt>
      <trkpt lat="46.47506" lon="5.20095">
        <ele>210</ele>
        <time>2021-12-09T12:14:20Z</time>
      </trkpt>
      <trkpt lat="46.47453" lon="5.2007">
        <ele>210.4</ele>
        <time>2021-12-09T12:14:29Z</time>
      </trkpt>
      <trkpt lat="46.474" lon="5.2004">
        <ele>210.6</ele>
        <time>2021-12-09T12:14:38Z</time>
      </trkpt>
      <trkpt lat="46.4739" lon="5.20034">
        <ele>210.8</ele>
        <time>2021-12-09T12:14:40Z</time>
      </trkpt>
      <trkpt lat="46.47336" lon="5.20003">
        <ele>210.8</ele>
        <time>2021-12-09T12:14:49Z</time>
      </trkpt>
      <trkpt lat="46.4733" lon="5.19999">
        <ele>210.8</ele>
        <time>2021-12-09T12:14:50Z</time>
      </trkpt>
      <trkpt lat="46.47301" lon="5.19979">
        <ele>210.6</ele>
        <time>2021-12-09T12:14:55Z</time>
      </trkpt>
      <trkpt lat="46.47292" lon="5.19966">
        <ele>210.4</ele>
        <time>2021-12-09T12:14:57Z</time>
      </trkpt>
      <trkpt lat="46.47284" lon="5.1995">
        <ele>209.8</ele>
        <time>2021-12-09T12:14:59Z</time>
      </trkpt>
      <trkpt lat="46.47282" lon="5.19942">
        <ele>209.8</ele>
        <time>2021-12-09T12:15:00Z</time>
      </trkpt>
      <trkpt lat="46.47279" lon="5.1993">
        <ele>209.4</ele>
        <time>2021-12-09T12:15:01Z</time>
      </trkpt>
      <trkpt lat="46.47274" lon="5.19908">
        <ele>209</ele>
        <time>2021-12-09T12:15:03Z</time>
      </trkpt>
      <trkpt lat="46.47269" lon="5.19899">
        <ele>208.8</ele>
        <time>2021-12-09T12:15:04Z</time>
      </trkpt>
      <trkpt lat="46.47263" lon="5.19891">
        <ele>208.2</ele>
        <time>2021-12-09T12:15:05Z</time>
      </trkpt>
      <trkpt lat="46.47248" lon="5.1988">
        <ele>207.4</ele>
        <time>2021-12-09T12:15:07Z</time>
      </trkpt>
      <trkpt lat="46.4724" lon="5.19876">
        <ele>207</ele>
        <time>2021-12-09T12:15:08Z</time>
      </trkpt>
      <trkpt lat="46.47216" lon="5.19861">
        <ele>206</ele>
        <time>2021-12-09T12:15:11Z</time>
      </trkpt>
      <trkpt lat="46.47199" lon="5.19849">
        <ele>205</ele>
        <time>2021-12-09T12:15:13Z</time>
      </trkpt>
      <trkpt lat="46.47191" lon="5.19843">
        <ele>203.6</ele>
        <time>2021-12-09T12:15:14Z</time>
      </trkpt>
      <trkpt lat="46.47167" lon="5.19822">
        <ele>201.8</ele>
        <time>2021-12-09T12:15:17Z</time>
      </trkpt>
      <trkpt lat="46.47152" lon="5.19808">
        <ele>201</ele>
        <time>2021-12-09T12:15:19Z</time>
      </trkpt>
      <trkpt lat="46.47144" lon="5.198">
        <ele>200.6</ele>
        <time>2021-12-09T12:15:20Z</time>
      </trkpt>
      <trkpt lat="46.4712" lon="5.19777">
        <ele>199.2</ele>
        <time>2021-12-09T12:15:23Z</time>
      </trkpt>
      <trkpt lat="46.47105" lon="5.1976">
        <ele>197.8</ele>
        <time>2021-12-09T12:15:25Z</time>
      </trkpt>
      <trkpt lat="46.47098" lon="5.1975">
        <ele>197</ele>
        <time>2021-12-09T12:15:26Z</time>
      </trkpt>
      <trkpt lat="46.47085" lon="5.1973">
        <ele>196.4</ele>
        <time>2021-12-09T12:15:28Z</time>
      </trkpt>
      <trkpt lat="46.47073" lon="5.19705">
        <ele>195.6</ele>
        <time>2021-12-09T12:15:30Z</time>
      </trkpt>
      <trkpt lat="46.47068" lon="5.19694">
        <ele>195.4</ele>
        <time>2021-12-09T12:15:31Z</time>
      </trkpt>
      <trkpt lat="46.47047" lon="5.19655">
        <ele>194.6</ele>
        <time>2021-12-09T12:15:35Z</time>
      </trkpt>
      <trkpt lat="46.47024" lon="5.19621">
        <ele>194</ele>
        <time>2021-12-09T12:15:39Z</time>
      </trkpt>
      <trkpt lat="46.47009" lon="5.19599">
        <ele>194.4</ele>
        <time>2021-12-09T12:15:42Z</time>
      </trkpt>
      <trkpt lat="46.47" lon="5.19584">
        <ele>194.6</ele>
        <time>2021-12-09T12:15:44Z</time>
      </trkpt>
      <trkpt lat="46.46993" lon="5.19566">
        <ele>194.8</ele>
        <time>2021-12-09T12:15:46Z</time>
      </trkpt>
      <trkpt lat="46.46987" lon="5.19549">
        <ele>195.2</ele>
        <time>2021-12-09T12:15:48Z</time>
      </trkpt>
      <trkpt lat="46.46977" lon="5.19512">
        <ele>196.2</ele>
        <time>2021-12-09T12:15:52Z</time>
      </trkpt>
      <trkpt lat="46.46969" lon="5.19484">
        <ele>196.4</ele>
        <time>2021-12-09T12:15:55Z</time>
      </trkpt>
      <trkpt lat="46.46958" lon="5.19456">
        <ele>196.4</ele>
        <time>2021-12-09T12:15:58Z</time>
      </trkpt>
      <trkpt lat="46.46953" lon="5.19448">
        <ele>196.4</ele>
        <time>2021-12-09T12:15:59Z</time>
      </trkpt>
      <trkpt lat="46.46927" lon="5.19418">
        <ele>195.2</ele>
        <time>2021-12-09T12:16:04Z</time>
      </trkpt>
      <trkpt lat="46.46924" lon="5.19413">
        <ele>195</ele>
        <time>2021-12-09T12:16:05Z</time>
      </trkpt>
      <trkpt lat="46.46921" lon="5.19408">
        <ele>194.8</ele>
        <time>2021-12-09T12:16:07Z</time>
      </trkpt>
      <trkpt lat="46.46911" lon="5.19385">
        <ele>194.8</ele>
        <time>2021-12-09T12:16:14Z</time>
      </trkpt>
      <trkpt lat="46.46901" lon="5.19357">
        <ele>194.8</ele>
        <time>2021-12-09T12:16:18Z</time>
      </trkpt>
      <trkpt lat="46.46887" lon="5.19306">
        <ele>194.6</ele>
        <time>2021-12-09T12:16:24Z</time>
      </trkpt>
      <trkpt lat="46.46865" lon="5.19237">
        <ele>194.8</ele>
        <time>2021-12-09T12:16:32Z</time>
      </trkpt>
      <trkpt lat="46.46839" lon="5.19165">
        <ele>195</ele>
        <time>2021-12-09T12:16:41Z</time>
      </trkpt>
      <trkpt lat="46.46829" lon="5.19129">
        <ele>195.6</ele>
        <time>2021-12-09T12:16:46Z</time>
      </trkpt>
      <trkpt lat="46.46824" lon="5.19109">
        <ele>196.2</ele>
        <time>2021-12-09T12:16:49Z</time>
      </trkpt>
      <trkpt lat="46.46818" lon="5.19082">
        <ele>197.2</ele>
        <time>2021-12-09T12:16:53Z</time>
      </trkpt>
      <trkpt lat="46.46816" lon="5.19076">
        <ele>197.4</ele>
        <time>2021-12-09T12:16:54Z</time>
      </trkpt>
      <trkpt lat="46.46806" lon="5.19031">
        <ele>198.6</ele>
        <time>2021-12-09T12:17:01Z</time>
      </trkpt>
      <trkpt lat="46.46804" lon="5.19016">
        <ele>198.8</ele>
        <time>2021-12-09T12:17:03Z</time>
      </trkpt>
      <trkpt lat="46.468" lon="5.18991">
        <ele>199.6</ele>
        <time>2021-12-09T12:17:07Z</time>
      </trkpt>
      <trkpt lat="46.46796" lon="5.1896">
        <ele>200.6</ele>
        <time>2021-12-09T12:17:12Z</time>
      </trkpt>
      <trkpt lat="46.46795" lon="5.18948">
        <ele>200.8</ele>
        <time>2021-12-09T12:17:14Z</time>
      </trkpt>
      <trkpt lat="46.46792" lon="5.18922">
        <ele>201.6</ele>
        <time>2021-12-09T12:17:18Z</time>
      </trkpt>
      <trkpt lat="46.46791" lon="5.18905">
        <ele>202.4</ele>
        <time>2021-12-09T12:17:21Z</time>
      </trkpt>
      <trkpt lat="46.46789" lon="5.18888">
        <ele>202.8</ele>
        <time>2021-12-09T12:17:24Z</time>
      </trkpt>
      <trkpt lat="46.46789" lon="5.18882">
        <ele>202.8</ele>
        <time>2021-12-09T12:17:25Z</time>
      </trkpt>
      <trkpt lat="46.4679" lon="5.18859">
        <ele>203.4</ele>
        <time>2021-12-09T12:17:29Z</time>
      </trkpt>
      <trkpt lat="46.4679" lon="5.18853">
        <ele>203.8</ele>
        <time>2021-12-09T12:17:30Z</time>
      </trkpt>
      <trkpt lat="46.46795" lon="5.18827">
        <ele>205</ele>
        <time>2021-12-09T12:17:35Z</time>
      </trkpt>
      <trkpt lat="46.46796" lon="5.18821">
        <ele>205.2</ele>
        <time>2021-12-09T12:17:36Z</time>
      </trkpt>
      <trkpt lat="46.46801" lon="5.18792">
        <ele>206.4</ele>
        <time>2021-12-09T12:17:42Z</time>
      </trkpt>
      <trkpt lat="46.46804" lon="5.18764">
        <ele>207.6</ele>
        <time>2021-12-09T12:17:47Z</time>
      </trkpt>
      <trkpt lat="46.46804" lon="5.1875">
        <ele>208</ele>
        <time>2021-12-09T12:17:49Z</time>
      </trkpt>
      <trkpt lat="46.46804" lon="5.18743">
        <ele>208.2</ele>
        <time>2021-12-09T12:17:50Z</time>
      </trkpt>
      <trkpt lat="46.46799" lon="5.18722">
        <ele>208.6</ele>
        <time>2021-12-09T12:17:53Z</time>
      </trkpt>
      <trkpt lat="46.46794" lon="5.18708">
        <ele>208.8</ele>
        <time>2021-12-09T12:17:55Z</time>
      </trkpt>
      <trkpt lat="46.46785" lon="5.18693">
        <ele>209.2</ele>
        <time>2021-12-09T12:17:58Z</time>
      </trkpt>
      <trkpt lat="46.46782" lon="5.18688">
        <ele>209.2</ele>
        <time>2021-12-09T12:17:59Z</time>
      </trkpt>
      <trkpt lat="46.46767" lon="5.18668">
        <ele>209.6</ele>
        <time>2021-12-09T12:18:03Z</time>
      </trkpt>
      <trkpt lat="46.4676" lon="5.18656">
        <ele>209.8</ele>
        <time>2021-12-09T12:18:05Z</time>
      </trkpt>
      <trkpt lat="46.46754" lon="5.18646">
        <ele>209.8</ele>
        <time>2021-12-09T12:18:07Z</time>
      </trkpt>
      <trkpt lat="46.46734" lon="5.18592">
        <ele>210</ele>
        <time>2021-12-09T12:18:15Z</time>
      </trkpt>
      <trkpt lat="46.46732" lon="5.18577">
        <ele>210</ele>
        <time>2021-12-09T12:18:17Z</time>
      </trkpt>
      <trkpt lat="46.46732" lon="5.18551">
        <ele>210</ele>
        <time>2021-12-09T12:18:20Z</time>
      </trkpt>
      <trkpt lat="46.46737" lon="5.18497">
        <ele>210</ele>
        <time>2021-12-09T12:18:27Z</time>
      </trkpt>
      <trkpt lat="46.46735" lon="5.18478">
        <ele>210</ele>
        <time>2021-12-09T12:18:29Z</time>
      </trkpt>
      <trkpt lat="46.46733" lon="5.18472">
        <ele>209.8</ele>
        <time>2021-12-09T12:18:30Z</time>
      </trkpt>
      <trkpt lat="46.46728" lon="5.18465">
        <ele>209.8</ele>
        <time>2021-12-09T12:18:31Z</time>
      </trkpt>
      <trkpt lat="46.46716" lon="5.18457">
        <ele>209.6</ele>
        <time>2021-12-09T12:18:33Z</time>
      </trkpt>
      <trkpt lat="46.46706" lon="5.18455">
        <ele>209.6</ele>
        <time>2021-12-09T12:18:35Z</time>
      </trkpt>
      <trkpt lat="46.4669" lon="5.18455">
        <ele>209.4</ele>
        <time>2021-12-09T12:18:38Z</time>
      </trkpt>
      <trkpt lat="46.46659" lon="5.18454">
        <ele>210.4</ele>
        <time>2021-12-09T12:18:44Z</time>
      </trkpt>
      <trkpt lat="46.46654" lon="5.18452">
        <ele>210.8</ele>
        <time>2021-12-09T12:18:45Z</time>
      </trkpt>
      <trkpt lat="46.46636" lon="5.18447">
        <ele>211.4</ele>
        <time>2021-12-09T12:18:48Z</time>
      </trkpt>
      <trkpt lat="46.46626" lon="5.18443">
        <ele>211.6</ele>
        <time>2021-12-09T12:18:50Z</time>
      </trkpt>
      <trkpt lat="46.46614" lon="5.18438">
        <ele>212</ele>
        <time>2021-12-09T12:18:52Z</time>
      </trkpt>
      <trkpt lat="46.4657" lon="5.18423">
        <ele>212.4</ele>
        <time>2021-12-09T12:19:00Z</time>
      </trkpt>
      <trkpt lat="46.46521" lon="5.18402">
        <ele>212.4</ele>
        <time>2021-12-09T12:19:09Z</time>
      </trkpt>
      <trkpt lat="46.46502" lon="5.1839">
        <ele>212.2</ele>
        <time>2021-12-09T12:19:13Z</time>
      </trkpt>
      <trkpt lat="46.46498" lon="5.18386">
        <ele>212.2</ele>
        <time>2021-12-09T12:19:15Z</time>
      </trkpt>
      <trkpt lat="46.46487" lon="5.18372">
        <ele>212.2</ele>
        <time>2021-12-09T12:19:21Z</time>
      </trkpt>
      <trkpt lat="46.46483" lon="5.18359">
        <ele>212.2</ele>
        <time>2021-12-09T12:19:23Z</time>
      </trkpt>
      <trkpt lat="46.46483" lon="5.18351">
        <ele>212.2</ele>
        <time>2021-12-09T12:19:24Z</time>
      </trkpt>
      <trkpt lat="46.46479" lon="5.18289">
        <ele>212</ele>
        <time>2021-12-09T12:19:31Z</time>
      </trkpt>
      <trkpt lat="46.46463" lon="5.18212">
        <ele>211.8</ele>
        <time>2021-12-09T12:19:40Z</time>
      </trkpt>
      <trkpt lat="46.46455" lon="5.18197">
        <ele>211.8</ele>
        <time>2021-12-09T12:19:42Z</time>
      </trkpt>
      <trkpt lat="46.4645" lon="5.18191">
        <ele>211.6</ele>
        <time>2021-12-09T12:19:43Z</time>
      </trkpt>
      <trkpt lat="46.46444" lon="5.18186">
        <ele>211.6</ele>
        <time>2021-12-09T12:19:44Z</time>
      </trkpt>
      <trkpt lat="46.46425" lon="5.18174">
        <ele>211.4</ele>
        <time>2021-12-09T12:19:47Z</time>
      </trkpt>
      <trkpt lat="46.4639" lon="5.18164">
        <ele>211</ele>
        <time>2021-12-09T12:19:52Z</time>
      </trkpt>
      <trkpt lat="46.46382" lon="5.18162">
        <ele>210.8</ele>
        <time>2021-12-09T12:19:53Z</time>
      </trkpt>
      <trkpt lat="46.46327" lon="5.18149">
        <ele>210</ele>
        <time>2021-12-09T12:20:01Z</time>
      </trkpt>
      <trkpt lat="46.4632" lon="5.18148">
        <ele>210</ele>
        <time>2021-12-09T12:20:02Z</time>
      </trkpt>
      <trkpt lat="46.46273" lon="5.18134">
        <ele>209.6</ele>
        <time>2021-12-09T12:20:09Z</time>
      </trkpt>
      <trkpt lat="46.4622" lon="5.1811">
        <ele>209</ele>
        <time>2021-12-09T12:20:17Z</time>
      </trkpt>
      <trkpt lat="46.46214" lon="5.18106">
        <ele>209</ele>
        <time>2021-12-09T12:20:18Z</time>
      </trkpt>
      <trkpt lat="46.46184" lon="5.18082">
        <ele>209</ele>
        <time>2021-12-09T12:20:23Z</time>
      </trkpt>
      <trkpt lat="46.46158" lon="5.18044">
        <ele>209</ele>
        <time>2021-12-09T12:20:29Z</time>
      </trkpt>
      <trkpt lat="46.46126" lon="5.17993">
        <ele>210.2</ele>
        <time>2021-12-09T12:20:37Z</time>
      </trkpt>
      <trkpt lat="46.46112" lon="5.17969">
        <ele>211.2</ele>
        <time>2021-12-09T12:20:41Z</time>
      </trkpt>
      <trkpt lat="46.46104" lon="5.1795">
        <ele>211.4</ele>
        <time>2021-12-09T12:20:44Z</time>
      </trkpt>
      <trkpt lat="46.46102" lon="5.17944">
        <ele>211.6</ele>
        <time>2021-12-09T12:20:45Z</time>
      </trkpt>
      <trkpt lat="46.46098" lon="5.17931">
        <ele>212.4</ele>
        <time>2021-12-09T12:20:47Z</time>
      </trkpt>
      <trkpt lat="46.46088" lon="5.17896">
        <ele>213.6</ele>
        <time>2021-12-09T12:20:52Z</time>
      </trkpt>
      <trkpt lat="46.46082" lon="5.17874">
        <ele>214</ele>
        <time>2021-12-09T12:20:55Z</time>
      </trkpt>
      <trkpt lat="46.46069" lon="5.17832">
        <ele>214.6</ele>
        <time>2021-12-09T12:21:01Z</time>
      </trkpt>
      <trkpt lat="46.46062" lon="5.17809">
        <ele>214.8</ele>
        <time>2021-12-09T12:21:04Z</time>
      </trkpt>
      <trkpt lat="46.46055" lon="5.17755">
        <ele>214.6</ele>
        <time>2021-12-09T12:21:10Z</time>
      </trkpt>
      <trkpt lat="46.46051" lon="5.17703">
        <ele>213.8</ele>
        <time>2021-12-09T12:21:15Z</time>
      </trkpt>
      <trkpt lat="46.46049" lon="5.1768">
        <ele>213.4</ele>
        <time>2021-12-09T12:21:17Z</time>
      </trkpt>
      <trkpt lat="46.46047" lon="5.17645">
        <ele>212.2</ele>
        <time>2021-12-09T12:21:20Z</time>
      </trkpt>
      <trkpt lat="46.46046" lon="5.17634">
        <ele>211.8</ele>
        <time>2021-12-09T12:21:21Z</time>
      </trkpt>
      <trkpt lat="46.46043" lon="5.17623">
        <ele>211.4</ele>
        <time>2021-12-09T12:21:22Z</time>
      </trkpt>
      <trkpt lat="46.46037" lon="5.17602">
        <ele>211</ele>
        <time>2021-12-09T12:21:24Z</time>
      </trkpt>
      <trkpt lat="46.4603" lon="5.17582">
        <ele>210.6</ele>
        <time>2021-12-09T12:21:26Z</time>
      </trkpt>
      <trkpt lat="46.46001" lon="5.17505">
        <ele>210.2</ele>
        <time>2021-12-09T12:21:34Z</time>
      </trkpt>
      <trkpt lat="46.45987" lon="5.17478">
        <ele>210</ele>
        <time>2021-12-09T12:21:37Z</time>
      </trkpt>
      <trkpt lat="46.4598" lon="5.1746">
        <ele>209.8</ele>
        <time>2021-12-09T12:21:39Z</time>
      </trkpt>
      <trkpt lat="46.45965" lon="5.17403">
        <ele>209.4</ele>
        <time>2021-12-09T12:21:45Z</time>
      </trkpt>
      <trkpt lat="46.45949" lon="5.17353">
        <ele>209.8</ele>
        <time>2021-12-09T12:21:51Z</time>
      </trkpt>
      <trkpt lat="46.45926" lon="5.17313">
        <ele>210.6</ele>
        <time>2021-12-09T12:21:57Z</time>
      </trkpt>
      <trkpt lat="46.45907" lon="5.17289">
        <ele>211</ele>
        <time>2021-12-09T12:22:01Z</time>
      </trkpt>
      <trkpt lat="46.45887" lon="5.17262">
        <ele>211.2</ele>
        <time>2021-12-09T12:22:05Z</time>
      </trkpt>
      <trkpt lat="46.45852" lon="5.17198">
        <ele>211.6</ele>
        <time>2021-12-09T12:22:14Z</time>
      </trkpt>
      <trkpt lat="46.45833" lon="5.17154">
        <ele>212</ele>
        <time>2021-12-09T12:22:20Z</time>
      </trkpt>
      <trkpt lat="46.4583" lon="5.17148">
        <ele>212.2</ele>
        <time>2021-12-09T12:22:21Z</time>
      </trkpt>
      <trkpt lat="46.45806" lon="5.17114">
        <ele>212.6</ele>
        <time>2021-12-09T12:22:27Z</time>
      </trkpt>
      <trkpt lat="46.45789" lon="5.17084">
        <ele>213.2</ele>
        <time>2021-12-09T12:22:32Z</time>
      </trkpt>
      <trkpt lat="46.45786" lon="5.17077">
        <ele>213.2</ele>
        <time>2021-12-09T12:22:33Z</time>
      </trkpt>
      <trkpt lat="46.45773" lon="5.1703">
        <ele>213.4</ele>
        <time>2021-12-09T12:22:39Z</time>
      </trkpt>
      <trkpt lat="46.45759" lon="5.16991">
        <ele>213</ele>
        <time>2021-12-09T12:22:44Z</time>
      </trkpt>
      <trkpt lat="46.45756" lon="5.16983">
        <ele>213</ele>
        <time>2021-12-09T12:22:45Z</time>
      </trkpt>
      <trkpt lat="46.45747" lon="5.1697">
        <ele>212.8</ele>
        <time>2021-12-09T12:22:47Z</time>
      </trkpt>
      <trkpt lat="46.45737" lon="5.1696">
        <ele>212.8</ele>
        <time>2021-12-09T12:22:49Z</time>
      </trkpt>
      <trkpt lat="46.45721" lon="5.16952">
        <ele>212</ele>
        <time>2021-12-09T12:22:52Z</time>
      </trkpt>
      <trkpt lat="46.45716" lon="5.16949">
        <ele>211.6</ele>
        <time>2021-12-09T12:22:53Z</time>
      </trkpt>
      <trkpt lat="46.4571" lon="5.16941">
        <ele>211.4</ele>
        <time>2021-12-09T12:22:55Z</time>
      </trkpt>
      <trkpt lat="46.45709" lon="5.16935">
        <ele>211.4</ele>
        <time>2021-12-09T12:22:56Z</time>
      </trkpt>
      <trkpt lat="46.45709" lon="5.16929">
        <ele>211.2</ele>
        <time>2021-12-09T12:22:57Z</time>
      </trkpt>
      <trkpt lat="46.45713" lon="5.16908">
        <ele>211.2</ele>
        <time>2021-12-09T12:23:00Z</time>
      </trkpt>
      <trkpt lat="46.45714" lon="5.16898">
        <ele>211.4</ele>
        <time>2021-12-09T12:23:02Z</time>
      </trkpt>
      <trkpt lat="46.45712" lon="5.16897">
        <ele>211.4</ele>
        <time>2021-12-09T12:23:03Z</time>
      </trkpt>
      <trkpt lat="46.45708" lon="5.16911">
        <ele>211.6</ele>
        <time>2021-12-09T12:23:06Z</time>
      </trkpt>
      <trkpt lat="46.45704" lon="5.16931">
        <ele>211.6</ele>
        <time>2021-12-09T12:23:09Z</time>
      </trkpt>
      <trkpt lat="46.457" lon="5.16937">
        <ele>211.6</ele>
        <time>2021-12-09T12:23:10Z</time>
      </trkpt>
      <trkpt lat="46.45695" lon="5.1694">
        <ele>211.6</ele>
        <time>2021-12-09T12:23:11Z</time>
      </trkpt>
      <trkpt lat="46.45684" lon="5.16937">
        <ele>211.6</ele>
        <time>2021-12-09T12:23:13Z</time>
      </trkpt>
      <trkpt lat="46.45659" lon="5.16919">
        <ele>211</ele>
        <time>2021-12-09T12:23:18Z</time>
      </trkpt>
      <trkpt lat="46.45654" lon="5.16916">
        <ele>211</ele>
        <time>2021-12-09T12:23:19Z</time>
      </trkpt>
      <trkpt lat="46.45632" lon="5.16897">
        <ele>211.6</ele>
        <time>2021-12-09T12:23:24Z</time>
      </trkpt>
      <trkpt lat="46.4562" lon="5.16887">
        <ele>212.4</ele>
        <time>2021-12-09T12:23:27Z</time>
      </trkpt>
      <trkpt lat="46.45608" lon="5.16877">
        <ele>213.4</ele>
        <time>2021-12-09T12:23:30Z</time>
      </trkpt>
      <trkpt lat="46.45599" lon="5.1687">
        <ele>213.8</ele>
        <time>2021-12-09T12:23:32Z</time>
      </trkpt>
      <trkpt lat="46.45588" lon="5.16864">
        <ele>214.4</ele>
        <time>2021-12-09T12:23:34Z</time>
      </trkpt>
      <trkpt lat="46.45568" lon="5.16852">
        <ele>214.8</ele>
        <time>2021-12-09T12:23:38Z</time>
      </trkpt>
      <trkpt lat="46.45527" lon="5.16826">
        <ele>215.2</ele>
        <time>2021-12-09T12:23:46Z</time>
      </trkpt>
      <trkpt lat="46.45521" lon="5.16823">
        <ele>215.4</ele>
        <time>2021-12-09T12:23:47Z</time>
      </trkpt>
      <trkpt lat="46.45498" lon="5.16817">
        <ele>215.6</ele>
        <time>2021-12-09T12:23:51Z</time>
      </trkpt>
      <trkpt lat="46.45492" lon="5.16817">
        <ele>215.6</ele>
        <time>2021-12-09T12:23:52Z</time>
      </trkpt>
      <trkpt lat="46.45448" lon="5.16805">
        <ele>215.4</ele>
        <time>2021-12-09T12:23:59Z</time>
      </trkpt>
      <trkpt lat="46.45415" lon="5.16799">
        <ele>214.8</ele>
        <time>2021-12-09T12:24:04Z</time>
      </trkpt>
      <trkpt lat="46.45388" lon="5.16799">
        <ele>214.2</ele>
        <time>2021-12-09T12:24:08Z</time>
      </trkpt>
      <trkpt lat="46.45381" lon="5.16798">
        <ele>214.2</ele>
        <time>2021-12-09T12:24:09Z</time>
      </trkpt>
      <trkpt lat="46.45374" lon="5.16795">
        <ele>214</ele>
        <time>2021-12-09T12:24:10Z</time>
      </trkpt>
      <trkpt lat="46.45368" lon="5.16791">
        <ele>214</ele>
        <time>2021-12-09T12:24:11Z</time>
      </trkpt>
      <trkpt lat="46.45342" lon="5.16772">
        <ele>213.6</ele>
        <time>2021-12-09T12:24:15Z</time>
      </trkpt>
      <trkpt lat="46.45316" lon="5.1675">
        <ele>213.2</ele>
        <time>2021-12-09T12:24:19Z</time>
      </trkpt>
      <trkpt lat="46.45311" lon="5.16743">
        <ele>213</ele>
        <time>2021-12-09T12:24:20Z</time>
      </trkpt>
      <trkpt lat="46.45306" lon="5.16736">
        <ele>212.8</ele>
        <time>2021-12-09T12:24:21Z</time>
      </trkpt>
      <trkpt lat="46.45274" lon="5.16692">
        <ele>212.2</ele>
        <time>2021-12-09T12:24:27Z</time>
      </trkpt>
      <trkpt lat="46.45269" lon="5.16685">
        <ele>212</ele>
        <time>2021-12-09T12:24:28Z</time>
      </trkpt>
      <trkpt lat="46.45264" lon="5.16677">
        <ele>212</ele>
        <time>2021-12-09T12:24:29Z</time>
      </trkpt>
      <trkpt lat="46.45258" lon="5.1666">
        <ele>212</ele>
        <time>2021-12-09T12:24:31Z</time>
      </trkpt>
      <trkpt lat="46.45256" lon="5.16652">
        <ele>212</ele>
        <time>2021-12-09T12:24:32Z</time>
      </trkpt>
      <trkpt lat="46.45254" lon="5.16642">
        <ele>212</ele>
        <time>2021-12-09T12:24:33Z</time>
      </trkpt>
      <trkpt lat="46.45251" lon="5.16602">
        <ele>212</ele>
        <time>2021-12-09T12:24:37Z</time>
      </trkpt>
      <trkpt lat="46.45246" lon="5.16584">
        <ele>212.2</ele>
        <time>2021-12-09T12:24:39Z</time>
      </trkpt>
      <trkpt lat="46.45238" lon="5.16569">
        <ele>212.2</ele>
        <time>2021-12-09T12:24:41Z</time>
      </trkpt>
      <trkpt lat="46.45222" lon="5.16552">
        <ele>212.4</ele>
        <time>2021-12-09T12:24:44Z</time>
      </trkpt>
      <trkpt lat="46.45218" lon="5.16546">
        <ele>212.4</ele>
        <time>2021-12-09T12:24:45Z</time>
      </trkpt>
      <trkpt lat="46.45215" lon="5.16539">
        <ele>212.4</ele>
        <time>2021-12-09T12:24:46Z</time>
      </trkpt>
      <trkpt lat="46.45214" lon="5.16523">
        <ele>212.4</ele>
        <time>2021-12-09T12:24:48Z</time>
      </trkpt>
      <trkpt lat="46.45216" lon="5.16504">
        <ele>212.4</ele>
        <time>2021-12-09T12:24:50Z</time>
      </trkpt>
      <trkpt lat="46.45215" lon="5.16494">
        <ele>212.4</ele>
        <time>2021-12-09T12:24:51Z</time>
      </trkpt>
      <trkpt lat="46.45211" lon="5.16485">
        <ele>212</ele>
        <time>2021-12-09T12:24:52Z</time>
      </trkpt>
      <trkpt lat="46.45205" lon="5.16479">
        <ele>211.6</ele>
        <time>2021-12-09T12:24:53Z</time>
      </trkpt>
      <trkpt lat="46.45198" lon="5.16475">
        <ele>211.6</ele>
        <time>2021-12-09T12:24:54Z</time>
      </trkpt>
      <trkpt lat="46.45191" lon="5.16472">
        <ele>211</ele>
        <time>2021-12-09T12:24:55Z</time>
      </trkpt>
      <trkpt lat="46.45183" lon="5.16469">
        <ele>210.8</ele>
        <time>2021-12-09T12:24:56Z</time>
      </trkpt>
      <trkpt lat="46.45176" lon="5.16466">
        <ele>210</ele>
        <time>2021-12-09T12:24:57Z</time>
      </trkpt>
      <trkpt lat="46.45147" lon="5.16457">
        <ele>209</ele>
        <time>2021-12-09T12:25:01Z</time>
      </trkpt>
      <trkpt lat="46.45118" lon="5.16449">
        <ele>208.8</ele>
        <time>2021-12-09T12:25:05Z</time>
      </trkpt>
      <trkpt lat="46.45085" lon="5.16451">
        <ele>208.8</ele>
        <time>2021-12-09T12:25:10Z</time>
      </trkpt>
      <trkpt lat="46.45055" lon="5.16447">
        <ele>210</ele>
        <time>2021-12-09T12:25:15Z</time>
      </trkpt>
      <trkpt lat="46.45024" lon="5.16428">
        <ele>211</ele>
        <time>2021-12-09T12:25:21Z</time>
      </trkpt>
      <trkpt lat="46.45019" lon="5.16423">
        <ele>211.4</ele>
        <time>2021-12-09T12:25:22Z</time>
      </trkpt>
      <trkpt lat="46.44991" lon="5.16388">
        <ele>211.8</ele>
        <time>2021-12-09T12:25:28Z</time>
      </trkpt>
      <trkpt lat="46.44977" lon="5.16367">
        <ele>211.6</ele>
        <time>2021-12-09T12:25:31Z</time>
      </trkpt>
      <trkpt lat="46.44971" lon="5.16364">
        <ele>211.2</ele>
        <time>2021-12-09T12:25:32Z</time>
      </trkpt>
      <trkpt lat="46.44964" lon="5.16362">
        <ele>211.2</ele>
        <time>2021-12-09T12:25:33Z</time>
      </trkpt>
      <trkpt lat="46.44943" lon="5.16358">
        <ele>210.2</ele>
        <time>2021-12-09T12:25:36Z</time>
      </trkpt>
      <trkpt lat="46.44936" lon="5.16357">
        <ele>210</ele>
        <time>2021-12-09T12:25:37Z</time>
      </trkpt>
      <trkpt lat="46.4488" lon="5.16347">
        <ele>209.6</ele>
        <time>2021-12-09T12:25:45Z</time>
      </trkpt>
      <trkpt lat="46.44873" lon="5.16346">
        <ele>209.6</ele>
        <time>2021-12-09T12:25:46Z</time>
      </trkpt>
      <trkpt lat="46.44823" lon="5.16345">
        <ele>210.2</ele>
        <time>2021-12-09T12:25:54Z</time>
      </trkpt>
      <trkpt lat="46.44796" lon="5.16347">
        <ele>211</ele>
        <time>2021-12-09T12:25:59Z</time>
      </trkpt>
      <trkpt lat="46.44792" lon="5.16348">
        <ele>211</ele>
        <time>2021-12-09T12:26:00Z</time>
      </trkpt>
      <trkpt lat="46.44782" lon="5.16354">
        <ele>211.2</ele>
        <time>2021-12-09T12:26:02Z</time>
      </trkpt>
      <trkpt lat="46.44773" lon="5.16361">
        <ele>211.6</ele>
        <time>2021-12-09T12:26:04Z</time>
      </trkpt>
      <trkpt lat="46.44754" lon="5.16376">
        <ele>212.4</ele>
        <time>2021-12-09T12:26:08Z</time>
      </trkpt>
      <trkpt lat="46.44735" lon="5.16392">
        <ele>213</ele>
        <time>2021-12-09T12:26:12Z</time>
      </trkpt>
      <trkpt lat="46.44727" lon="5.16401">
        <ele>213.2</ele>
        <time>2021-12-09T12:26:14Z</time>
      </trkpt>
      <trkpt lat="46.44723" lon="5.16406">
        <ele>213.4</ele>
        <time>2021-12-09T12:26:15Z</time>
      </trkpt>
      <trkpt lat="46.44719" lon="5.16409">
        <ele>213.6</ele>
        <time>2021-12-09T12:26:16Z</time>
      </trkpt>
      <trkpt lat="46.44716" lon="5.16411">
        <ele>213.8</ele>
        <time>2021-12-09T12:26:17Z</time>
      </trkpt>
      <trkpt lat="46.44713" lon="5.16411">
        <ele>213.8</ele>
        <time>2021-12-09T12:26:18Z</time>
      </trkpt>
      <trkpt lat="46.44708" lon="5.16406">
        <ele>214.2</ele>
        <time>2021-12-09T12:26:20Z</time>
      </trkpt>
      <trkpt lat="46.44708" lon="5.16402">
        <ele>214.4</ele>
        <time>2021-12-09T12:26:21Z</time>
      </trkpt>
      <trkpt lat="46.44709" lon="5.16397">
        <ele>214.8</ele>
        <time>2021-12-09T12:26:22Z</time>
      </trkpt>
      <trkpt lat="46.44709" lon="5.16384">
        <ele>215</ele>
        <time>2021-12-09T12:26:24Z</time>
      </trkpt>
      <trkpt lat="46.4471" lon="5.16346">
        <ele>215.2</ele>
        <time>2021-12-09T12:26:29Z</time>
      </trkpt>
      <trkpt lat="46.4471" lon="5.16293">
        <ele>215.6</ele>
        <time>2021-12-09T12:26:35Z</time>
      </trkpt>
      <trkpt lat="46.44711" lon="5.16232">
        <ele>215.8</ele>
        <time>2021-12-09T12:26:42Z</time>
      </trkpt>
      <trkpt lat="46.44711" lon="5.16212">
        <ele>215.8</ele>
        <time>2021-12-09T12:26:44Z</time>
      </trkpt>
      <trkpt lat="46.44705" lon="5.16148">
        <ele>216</ele>
        <time>2021-12-09T12:26:51Z</time>
      </trkpt>
      <trkpt lat="46.44692" lon="5.16064">
        <ele>216</ele>
        <time>2021-12-09T12:27:00Z</time>
      </trkpt>
      <trkpt lat="46.44678" lon="5.15979">
        <ele>216</ele>
        <time>2021-12-09T12:27:09Z</time>
      </trkpt>
      <trkpt lat="46.44665" lon="5.15914">
        <ele>215.4</ele>
        <time>2021-12-09T12:27:16Z</time>
      </trkpt>
      <trkpt lat="46.44654" lon="5.1588">
        <ele>215.4</ele>
        <time>2021-12-09T12:27:20Z</time>
      </trkpt>
      <trkpt lat="46.4465" lon="5.15873">
        <ele>215.4</ele>
        <time>2021-12-09T12:27:21Z</time>
      </trkpt>
      <trkpt lat="46.44627" lon="5.15832">
        <ele>216</ele>
        <time>2021-12-09T12:27:27Z</time>
      </trkpt>
      <trkpt lat="46.4462" lon="5.15817">
        <ele>216</ele>
        <time>2021-12-09T12:27:29Z</time>
      </trkpt>
      <trkpt lat="46.44614" lon="5.1579">
        <ele>216</ele>
        <time>2021-12-09T12:27:32Z</time>
      </trkpt>
      <trkpt lat="46.44607" lon="5.15741">
        <ele>215.8</ele>
        <time>2021-12-09T12:27:37Z</time>
      </trkpt>
      <trkpt lat="46.44607" lon="5.1573">
        <ele>215.8</ele>
        <time>2021-12-09T12:27:38Z</time>
      </trkpt>
      <trkpt lat="46.44608" lon="5.15708">
        <ele>215.6</ele>
        <time>2021-12-09T12:27:40Z</time>
      </trkpt>
      <trkpt lat="46.44612" lon="5.15686">
        <ele>215.4</ele>
        <time>2021-12-09T12:27:42Z</time>
      </trkpt>
      <trkpt lat="46.44617" lon="5.15664">
        <ele>214.6</ele>
        <time>2021-12-09T12:27:44Z</time>
      </trkpt>
      <trkpt lat="46.44626" lon="5.15613">
        <ele>214</ele>
        <time>2021-12-09T12:27:49Z</time>
      </trkpt>
      <trkpt lat="46.44638" lon="5.15551">
        <ele>214.8</ele>
        <time>2021-12-09T12:27:56Z</time>
      </trkpt>
      <trkpt lat="46.44655" lon="5.15493">
        <ele>215.6</ele>
        <time>2021-12-09T12:28:03Z</time>
      </trkpt>
      <trkpt lat="46.44661" lon="5.15476">
        <ele>215.6</ele>
        <time>2021-12-09T12:28:05Z</time>
      </trkpt>
      <trkpt lat="46.44664" lon="5.15455">
        <ele>215.2</ele>
        <time>2021-12-09T12:28:07Z</time>
      </trkpt>
      <trkpt lat="46.44661" lon="5.15408">
        <ele>214.6</ele>
        <time>2021-12-09T12:28:11Z</time>
      </trkpt>
      <trkpt lat="46.4466" lon="5.15396">
        <ele>213.8</ele>
        <time>2021-12-09T12:28:12Z</time>
      </trkpt>
      <trkpt lat="46.44661" lon="5.15384">
        <ele>212.8</ele>
        <time>2021-12-09T12:28:13Z</time>
      </trkpt>
      <trkpt lat="46.44663" lon="5.15372">
        <ele>212.2</ele>
        <time>2021-12-09T12:28:14Z</time>
      </trkpt>
      <trkpt lat="46.44667" lon="5.15361">
        <ele>211.2</ele>
        <time>2021-12-09T12:28:15Z</time>
      </trkpt>
      <trkpt lat="46.44672" lon="5.1535">
        <ele>210.6</ele>
        <time>2021-12-09T12:28:16Z</time>
      </trkpt>
      <trkpt lat="46.44678" lon="5.15341">
        <ele>209.6</ele>
        <time>2021-12-09T12:28:17Z</time>
      </trkpt>
      <trkpt lat="46.44688" lon="5.15322">
        <ele>208.6</ele>
        <time>2021-12-09T12:28:19Z</time>
      </trkpt>
      <trkpt lat="46.44708" lon="5.15286">
        <ele>207.6</ele>
        <time>2021-12-09T12:28:23Z</time>
      </trkpt>
      <trkpt lat="46.44721" lon="5.15257">
        <ele>207.2</ele>
        <time>2021-12-09T12:28:27Z</time>
      </trkpt>
      <trkpt lat="46.44722" lon="5.15245">
        <ele>207.4</ele>
        <time>2021-12-09T12:28:29Z</time>
      </trkpt>
      <trkpt lat="46.4472" lon="5.15239">
        <ele>207.2</ele>
        <time>2021-12-09T12:28:30Z</time>
      </trkpt>
      <trkpt lat="46.44717" lon="5.15234">
        <ele>207.4</ele>
        <time>2021-12-09T12:28:31Z</time>
      </trkpt>
      <trkpt lat="46.44708" lon="5.15231">
        <ele>207.8</ele>
        <time>2021-12-09T12:28:33Z</time>
      </trkpt>
      <trkpt lat="46.44678" lon="5.1523">
        <ele>208</ele>
        <time>2021-12-09T12:28:38Z</time>
      </trkpt>
      <trkpt lat="46.4467" lon="5.1523">
        <ele>208</ele>
        <time>2021-12-09T12:28:39Z</time>
      </trkpt>
      <trkpt lat="46.44646" lon="5.15229">
        <ele>208.4</ele>
        <time>2021-12-09T12:28:43Z</time>
      </trkpt>
      <trkpt lat="46.44621" lon="5.15233">
        <ele>208.8</ele>
        <time>2021-12-09T12:28:47Z</time>
      </trkpt>
      <trkpt lat="46.44597" lon="5.15237">
        <ele>209.2</ele>
        <time>2021-12-09T12:28:51Z</time>
      </trkpt>
      <trkpt lat="46.44575" lon="5.15241">
        <ele>209.8</ele>
        <time>2021-12-09T12:28:55Z</time>
      </trkpt>
      <trkpt lat="46.44561" lon="5.15244">
        <ele>210.2</ele>
        <time>2021-12-09T12:28:57Z</time>
      </trkpt>
      <trkpt lat="46.44527" lon="5.15253">
        <ele>211</ele>
        <time>2021-12-09T12:29:03Z</time>
      </trkpt>
      <trkpt lat="46.44521" lon="5.15254">
        <ele>211</ele>
        <time>2021-12-09T12:29:04Z</time>
      </trkpt>
      <trkpt lat="46.44476" lon="5.15264">
        <ele>212</ele>
        <time>2021-12-09T12:29:12Z</time>
      </trkpt>
      <trkpt lat="46.44464" lon="5.15266">
        <ele>212.2</ele>
        <time>2021-12-09T12:29:14Z</time>
      </trkpt>
      <trkpt lat="46.44418" lon="5.15273">
        <ele>211.8</ele>
        <time>2021-12-09T12:29:21Z</time>
      </trkpt>
      <trkpt lat="46.44376" lon="5.15283">
        <ele>210.8</ele>
        <time>2021-12-09T12:29:27Z</time>
      </trkpt>
      <trkpt lat="46.44362" lon="5.15288">
        <ele>210.4</ele>
        <time>2021-12-09T12:29:29Z</time>
      </trkpt>
      <trkpt lat="46.44323" lon="5.1531">
        <ele>210</ele>
        <time>2021-12-09T12:29:35Z</time>
      </trkpt>
      <trkpt lat="46.44277" lon="5.15345">
        <ele>210.2</ele>
        <time>2021-12-09T12:29:43Z</time>
      </trkpt>
      <trkpt lat="46.44246" lon="5.15358">
        <ele>210.8</ele>
        <time>2021-12-09T12:29:48Z</time>
      </trkpt>
      <trkpt lat="46.44207" lon="5.15358">
        <ele>211</ele>
        <time>2021-12-09T12:29:54Z</time>
      </trkpt>
      <trkpt lat="46.44152" lon="5.15354">
        <ele>210.4</ele>
        <time>2021-12-09T12:30:02Z</time>
      </trkpt>
      <trkpt lat="46.44097" lon="5.1535">
        <ele>210.4</ele>
        <time>2021-12-09T12:30:10Z</time>
      </trkpt>
      <trkpt lat="46.44042" lon="5.15349">
        <ele>210.6</ele>
        <time>2021-12-09T12:30:18Z</time>
      </trkpt>
      <trkpt lat="46.44029" lon="5.1535">
        <ele>210.6</ele>
        <time>2021-12-09T12:30:20Z</time>
      </trkpt>
      <trkpt lat="46.43972" lon="5.15351">
        <ele>211.4</ele>
        <time>2021-12-09T12:30:29Z</time>
      </trkpt>
      <trkpt lat="46.43917" lon="5.15352">
        <ele>211.8</ele>
        <time>2021-12-09T12:30:38Z</time>
      </trkpt>
      <trkpt lat="46.43893" lon="5.1535">
        <ele>212</ele>
        <time>2021-12-09T12:30:42Z</time>
      </trkpt>
      <trkpt lat="46.43859" lon="5.15343">
        <ele>213</ele>
        <time>2021-12-09T12:30:48Z</time>
      </trkpt>
      <trkpt lat="46.43853" lon="5.15341">
        <ele>213</ele>
        <time>2021-12-09T12:30:49Z</time>
      </trkpt>
      <trkpt lat="46.43822" lon="5.15322">
        <ele>214.2</ele>
        <time>2021-12-09T12:30:55Z</time>
      </trkpt>
      <trkpt lat="46.43817" lon="5.15318">
        <ele>214.2</ele>
        <time>2021-12-09T12:30:56Z</time>
      </trkpt>
      <trkpt lat="46.43781" lon="5.15284">
        <ele>215.2</ele>
        <time>2021-12-09T12:31:04Z</time>
      </trkpt>
      <trkpt lat="46.43739" lon="5.15235">
        <ele>215.8</ele>
        <time>2021-12-09T12:31:13Z</time>
      </trkpt>
      <trkpt lat="46.437" lon="5.15188">
        <ele>214.8</ele>
        <time>2021-12-09T12:31:20Z</time>
      </trkpt>
      <trkpt lat="46.43682" lon="5.15166">
        <ele>214</ele>
        <time>2021-12-09T12:31:23Z</time>
      </trkpt>
      <trkpt lat="46.43663" lon="5.15144">
        <ele>212.8</ele>
        <time>2021-12-09T12:31:26Z</time>
      </trkpt>
      <trkpt lat="46.43657" lon="5.15137">
        <ele>212.8</ele>
        <time>2021-12-09T12:31:27Z</time>
      </trkpt>
      <trkpt lat="46.43636" lon="5.15111">
        <ele>211.6</ele>
        <time>2021-12-09T12:31:30Z</time>
      </trkpt>
      <trkpt lat="46.43609" lon="5.15081">
        <ele>210.4</ele>
        <time>2021-12-09T12:31:34Z</time>
      </trkpt>
      <trkpt lat="46.43601" lon="5.15071">
        <ele>210.2</ele>
        <time>2021-12-09T12:31:35Z</time>
      </trkpt>
      <trkpt lat="46.43581" lon="5.15047">
        <ele>209.4</ele>
        <time>2021-12-09T12:31:38Z</time>
      </trkpt>
      <trkpt lat="46.4356" lon="5.15021">
        <ele>208.2</ele>
        <time>2021-12-09T12:31:41Z</time>
      </trkpt>
      <trkpt lat="46.43538" lon="5.14996">
        <ele>206.8</ele>
        <time>2021-12-09T12:31:44Z</time>
      </trkpt>
      <trkpt lat="46.43531" lon="5.14988">
        <ele>206.4</ele>
        <time>2021-12-09T12:31:45Z</time>
      </trkpt>
      <trkpt lat="46.4351" lon="5.14963">
        <ele>205.6</ele>
        <time>2021-12-09T12:31:48Z</time>
      </trkpt>
      <trkpt lat="46.43489" lon="5.14938">
        <ele>204.4</ele>
        <time>2021-12-09T12:31:51Z</time>
      </trkpt>
      <trkpt lat="46.43467" lon="5.14912">
        <ele>203.4</ele>
        <time>2021-12-09T12:31:54Z</time>
      </trkpt>
      <trkpt lat="46.43446" lon="5.14887">
        <ele>202.4</ele>
        <time>2021-12-09T12:31:57Z</time>
      </trkpt>
      <trkpt lat="46.43439" lon="5.14879">
        <ele>202.4</ele>
        <time>2021-12-09T12:31:58Z</time>
      </trkpt>
      <trkpt lat="46.43395" lon="5.14833">
        <ele>201.2</ele>
        <time>2021-12-09T12:32:04Z</time>
      </trkpt>
      <trkpt lat="46.43389" lon="5.14828">
        <ele>201.2</ele>
        <time>2021-12-09T12:32:05Z</time>
      </trkpt>
      <trkpt lat="46.4334" lon="5.14788">
        <ele>201.4</ele>
        <time>2021-12-09T12:32:12Z</time>
      </trkpt>
      <trkpt lat="46.43334" lon="5.14782">
        <ele>201.6</ele>
        <time>2021-12-09T12:32:13Z</time>
      </trkpt>
      <trkpt lat="46.43284" lon="5.14742">
        <ele>202.2</ele>
        <time>2021-12-09T12:32:21Z</time>
      </trkpt>
      <trkpt lat="46.43272" lon="5.14732">
        <ele>202.4</ele>
        <time>2021-12-09T12:32:23Z</time>
      </trkpt>
      <trkpt lat="46.43239" lon="5.14699">
        <ele>203</ele>
        <time>2021-12-09T12:32:29Z</time>
      </trkpt>
      <trkpt lat="46.43205" lon="5.14656">
        <ele>203.6</ele>
        <time>2021-12-09T12:32:36Z</time>
      </trkpt>
      <trkpt lat="46.43173" lon="5.14615">
        <ele>204.6</ele>
        <time>2021-12-09T12:32:43Z</time>
      </trkpt>
      <trkpt lat="46.43164" lon="5.14603">
        <ele>204.8</ele>
        <time>2021-12-09T12:32:45Z</time>
      </trkpt>
      <trkpt lat="46.43137" lon="5.14571">
        <ele>205.8</ele>
        <time>2021-12-09T12:32:51Z</time>
      </trkpt>
      <trkpt lat="46.43133" lon="5.14566">
        <ele>205.8</ele>
        <time>2021-12-09T12:32:52Z</time>
      </trkpt>
      <trkpt lat="46.43099" lon="5.14513">
        <ele>206.2</ele>
        <time>2021-12-09T12:33:00Z</time>
      </trkpt>
      <trkpt lat="46.43065" lon="5.14457">
        <ele>205.4</ele>
        <time>2021-12-09T12:33:07Z</time>
      </trkpt>
      <trkpt lat="46.43044" lon="5.14424">
        <ele>204.6</ele>
        <time>2021-12-09T12:33:11Z</time>
      </trkpt>
      <trkpt lat="46.43024" lon="5.14391">
        <ele>203.6</ele>
        <time>2021-12-09T12:33:15Z</time>
      </trkpt>
      <trkpt lat="46.43014" lon="5.14375">
        <ele>203.4</ele>
        <time>2021-12-09T12:33:17Z</time>
      </trkpt>
      <trkpt lat="46.42983" lon="5.14323">
        <ele>203.4</ele>
        <time>2021-12-09T12:33:24Z</time>
      </trkpt>
      <trkpt lat="46.42956" lon="5.14289">
        <ele>204</ele>
        <time>2021-12-09T12:33:30Z</time>
      </trkpt>
      <trkpt lat="46.42935" lon="5.14269">
        <ele>204.6</ele>
        <time>2021-12-09T12:33:34Z</time>
      </trkpt>
      <trkpt lat="46.42919" lon="5.14256">
        <ele>205</ele>
        <time>2021-12-09T12:33:37Z</time>
      </trkpt>
      <trkpt lat="46.42892" lon="5.14234">
        <ele>205.8</ele>
        <time>2021-12-09T12:33:42Z</time>
      </trkpt>
      <trkpt lat="46.42881" lon="5.14225">
        <ele>205.8</ele>
        <time>2021-12-09T12:33:44Z</time>
      </trkpt>
      <trkpt lat="46.42831" lon="5.14184">
        <ele>206.6</ele>
        <time>2021-12-09T12:33:53Z</time>
      </trkpt>
      <trkpt lat="46.42794" lon="5.14143">
        <ele>206.6</ele>
        <time>2021-12-09T12:34:00Z</time>
      </trkpt>
      <trkpt lat="46.42789" lon="5.14134">
        <ele>206.6</ele>
        <time>2021-12-09T12:34:01Z</time>
      </trkpt>
      <trkpt lat="46.4278" lon="5.14114">
        <ele>206.4</ele>
        <time>2021-12-09T12:34:03Z</time>
      </trkpt>
      <trkpt lat="46.42777" lon="5.14101">
        <ele>206</ele>
        <time>2021-12-09T12:34:04Z</time>
      </trkpt>
      <trkpt lat="46.42772" lon="5.14069">
        <ele>204.8</ele>
        <time>2021-12-09T12:34:07Z</time>
      </trkpt>
      <trkpt lat="46.42772" lon="5.14057">
        <ele>204.4</ele>
        <time>2021-12-09T12:34:08Z</time>
      </trkpt>
      <trkpt lat="46.42772" lon="5.14033">
        <ele>203.6</ele>
        <time>2021-12-09T12:34:10Z</time>
      </trkpt>
      <trkpt lat="46.42775" lon="5.13987">
        <ele>203</ele>
        <time>2021-12-09T12:34:14Z</time>
      </trkpt>
      <trkpt lat="46.42777" lon="5.13933">
        <ele>202.8</ele>
        <time>2021-12-09T12:34:19Z</time>
      </trkpt>
      <trkpt lat="46.42775" lon="5.13923">
        <ele>202.8</ele>
        <time>2021-12-09T12:34:20Z</time>
      </trkpt>
      <trkpt lat="46.42771" lon="5.13904">
        <ele>203</ele>
        <time>2021-12-09T12:34:22Z</time>
      </trkpt>
      <trkpt lat="46.42764" lon="5.13887">
        <ele>203.2</ele>
        <time>2021-12-09T12:34:24Z</time>
      </trkpt>
      <trkpt lat="46.4274" lon="5.13848">
        <ele>204.2</ele>
        <time>2021-12-09T12:34:30Z</time>
      </trkpt>
      <trkpt lat="46.42723" lon="5.13823">
        <ele>204.8</ele>
        <time>2021-12-09T12:34:34Z</time>
      </trkpt>
      <trkpt lat="46.42708" lon="5.13799">
        <ele>205.6</ele>
        <time>2021-12-09T12:34:38Z</time>
      </trkpt>
      <trkpt lat="46.42704" lon="5.13793">
        <ele>205.8</ele>
        <time>2021-12-09T12:34:39Z</time>
      </trkpt>
      <trkpt lat="46.42671" lon="5.13747">
        <ele>206.6</ele>
        <time>2021-12-09T12:34:47Z</time>
      </trkpt>
      <trkpt lat="46.42665" lon="5.13741">
        <ele>206.8</ele>
        <time>2021-12-09T12:34:48Z</time>
      </trkpt>
      <trkpt lat="46.42655" lon="5.13734">
        <ele>206.8</ele>
        <time>2021-12-09T12:34:50Z</time>
      </trkpt>
      <trkpt lat="46.4265" lon="5.13731">
        <ele>206.8</ele>
        <time>2021-12-09T12:34:51Z</time>
      </trkpt>
      <trkpt lat="46.42619" lon="5.13723">
        <ele>206.6</ele>
        <time>2021-12-09T12:34:56Z</time>
      </trkpt>
      <trkpt lat="46.426" lon="5.13716">
        <ele>206.6</ele>
        <time>2021-12-09T12:34:59Z</time>
      </trkpt>
      <trkpt lat="46.42582" lon="5.13705">
        <ele>206.4</ele>
        <time>2021-12-09T12:35:02Z</time>
      </trkpt>
      <trkpt lat="46.42562" lon="5.13681">
        <ele>206</ele>
        <time>2021-12-09T12:35:06Z</time>
      </trkpt>
      <trkpt lat="46.4254" lon="5.1364">
        <ele>206.2</ele>
        <time>2021-12-09T12:35:12Z</time>
      </trkpt>
      <trkpt lat="46.42521" lon="5.13607">
        <ele>207</ele>
        <time>2021-12-09T12:35:17Z</time>
      </trkpt>
      <trkpt lat="46.42513" lon="5.13597">
        <ele>207.2</ele>
        <time>2021-12-09T12:35:19Z</time>
      </trkpt>
      <trkpt lat="46.42509" lon="5.13592">
        <ele>207.2</ele>
        <time>2021-12-09T12:35:20Z</time>
      </trkpt>
      <trkpt lat="46.4249" lon="5.13575">
        <ele>207.6</ele>
        <time>2021-12-09T12:35:24Z</time>
      </trkpt>
      <trkpt lat="46.4248" lon="5.1357">
        <ele>208</ele>
        <time>2021-12-09T12:35:26Z</time>
      </trkpt>
      <trkpt lat="46.42455" lon="5.13558">
        <ele>209</ele>
        <time>2021-12-09T12:35:31Z</time>
      </trkpt>
      <trkpt lat="46.42431" lon="5.13546">
        <ele>209.8</ele>
        <time>2021-12-09T12:35:36Z</time>
      </trkpt>
      <trkpt lat="46.42421" lon="5.13541">
        <ele>210.2</ele>
        <time>2021-12-09T12:35:38Z</time>
      </trkpt>
      <trkpt lat="46.42405" lon="5.13533">
        <ele>210.4</ele>
        <time>2021-12-09T12:35:41Z</time>
      </trkpt>
      <trkpt lat="46.42383" lon="5.13524">
        <ele>210.8</ele>
        <time>2021-12-09T12:35:45Z</time>
      </trkpt>
      <trkpt lat="46.42371" lon="5.1352">
        <ele>211.2</ele>
        <time>2021-12-09T12:35:47Z</time>
      </trkpt>
      <trkpt lat="46.42348" lon="5.1351">
        <ele>211.4</ele>
        <time>2021-12-09T12:35:51Z</time>
      </trkpt>
      <trkpt lat="46.42295" lon="5.13488">
        <ele>211.4</ele>
        <time>2021-12-09T12:35:59Z</time>
      </trkpt>
      <trkpt lat="46.42247" lon="5.13466">
        <ele>210.4</ele>
        <time>2021-12-09T12:36:06Z</time>
      </trkpt>
      <trkpt lat="46.42193" lon="5.13442">
        <ele>210</ele>
        <time>2021-12-09T12:36:14Z</time>
      </trkpt>
      <trkpt lat="46.42186" lon="5.13437">
        <ele>210</ele>
        <time>2021-12-09T12:36:15Z</time>
      </trkpt>
      <trkpt lat="46.42146" lon="5.13401">
        <ele>209.6</ele>
        <time>2021-12-09T12:36:22Z</time>
      </trkpt>
      <trkpt lat="46.42115" lon="5.13364">
        <ele>209.4</ele>
        <time>2021-12-09T12:36:28Z</time>
      </trkpt>
      <trkpt lat="46.42086" lon="5.13325">
        <ele>210</ele>
        <time>2021-12-09T12:36:35Z</time>
      </trkpt>
      <trkpt lat="46.42049" lon="5.13275">
        <ele>210.8</ele>
        <time>2021-12-09T12:36:44Z</time>
      </trkpt>
      <trkpt lat="46.42045" lon="5.1327">
        <ele>211</ele>
        <time>2021-12-09T12:36:45Z</time>
      </trkpt>
      <trkpt lat="46.42029" lon="5.13249">
        <ele>211.6</ele>
        <time>2021-12-09T12:36:49Z</time>
      </trkpt>
      <trkpt lat="46.42021" lon="5.13239">
        <ele>212</ele>
        <time>2021-12-09T12:36:51Z</time>
      </trkpt>
      <trkpt lat="46.42016" lon="5.13234">
        <ele>212.4</ele>
        <time>2021-12-09T12:36:52Z</time>
      </trkpt>
      <trkpt lat="46.41995" lon="5.13207">
        <ele>213</ele>
        <time>2021-12-09T12:36:57Z</time>
      </trkpt>
      <trkpt lat="46.41987" lon="5.13197">
        <ele>213.2</ele>
        <time>2021-12-09T12:36:59Z</time>
      </trkpt>
      <trkpt lat="46.41975" lon="5.1318">
        <ele>213.6</ele>
        <time>2021-12-09T12:37:02Z</time>
      </trkpt>
      <trkpt lat="46.41963" lon="5.13165">
        <ele>214</ele>
        <time>2021-12-09T12:37:05Z</time>
      </trkpt>
      <trkpt lat="46.41938" lon="5.13134">
        <ele>215.2</ele>
        <time>2021-12-09T12:37:11Z</time>
      </trkpt>
      <trkpt lat="46.41926" lon="5.13118">
        <ele>215.8</ele>
        <time>2021-12-09T12:37:14Z</time>
      </trkpt>
      <trkpt lat="46.41906" lon="5.1309">
        <ele>216.2</ele>
        <time>2021-12-09T12:37:19Z</time>
      </trkpt>
      <trkpt lat="46.41885" lon="5.13063">
        <ele>216.8</ele>
        <time>2021-12-09T12:37:24Z</time>
      </trkpt>
      <trkpt lat="46.41847" lon="5.13012">
        <ele>217.2</ele>
        <time>2021-12-09T12:37:33Z</time>
      </trkpt>
      <trkpt lat="46.41843" lon="5.13007">
        <ele>217.4</ele>
        <time>2021-12-09T12:37:34Z</time>
      </trkpt>
      <trkpt lat="46.41801" lon="5.12952">
        <ele>217.6</ele>
        <time>2021-12-09T12:37:43Z</time>
      </trkpt>
      <trkpt lat="46.41757" lon="5.12896">
        <ele>217.2</ele>
        <time>2021-12-09T12:37:52Z</time>
      </trkpt>
      <trkpt lat="46.41752" lon="5.1289">
        <ele>217.2</ele>
        <time>2021-12-09T12:37:53Z</time>
      </trkpt>
      <trkpt lat="46.41712" lon="5.12853">
        <ele>217</ele>
        <time>2021-12-09T12:38:00Z</time>
      </trkpt>
      <trkpt lat="46.41663" lon="5.12819">
        <ele>217.2</ele>
        <time>2021-12-09T12:38:08Z</time>
      </trkpt>
      <trkpt lat="46.41609" lon="5.12782">
        <ele>217.2</ele>
        <time>2021-12-09T12:38:17Z</time>
      </trkpt>
      <trkpt lat="46.41585" lon="5.12766">
        <ele>217</ele>
        <time>2021-12-09T12:38:21Z</time>
      </trkpt>
      <trkpt lat="46.41533" lon="5.1273">
        <ele>217.4</ele>
        <time>2021-12-09T12:38:30Z</time>
      </trkpt>
      <trkpt lat="46.41484" lon="5.12695">
        <ele>217.8</ele>
        <time>2021-12-09T12:38:39Z</time>
      </trkpt>
      <trkpt lat="46.41472" lon="5.12687">
        <ele>218</ele>
        <time>2021-12-09T12:38:41Z</time>
      </trkpt>
      <trkpt lat="46.41455" lon="5.12675">
        <ele>218.6</ele>
        <time>2021-12-09T12:38:44Z</time>
      </trkpt>
      <trkpt lat="46.41414" lon="5.12648">
        <ele>218.8</ele>
        <time>2021-12-09T12:38:51Z</time>
      </trkpt>
      <trkpt lat="46.41368" lon="5.12615">
        <ele>219.6</ele>
        <time>2021-12-09T12:38:59Z</time>
      </trkpt>
      <trkpt lat="46.41338" lon="5.12595">
        <ele>219.6</ele>
        <time>2021-12-09T12:39:04Z</time>
      </trkpt>
      <trkpt lat="46.41283" lon="5.12557">
        <ele>219.2</ele>
        <time>2021-12-09T12:39:13Z</time>
      </trkpt>
      <trkpt lat="46.41265" lon="5.12544">
        <ele>219</ele>
        <time>2021-12-09T12:39:16Z</time>
      </trkpt>
      <trkpt lat="46.41216" lon="5.1251">
        <ele>219</ele>
        <time>2021-12-09T12:39:24Z</time>
      </trkpt>
      <trkpt lat="46.41204" lon="5.12502">
        <ele>219</ele>
        <time>2021-12-09T12:39:26Z</time>
      </trkpt>
      <trkpt lat="46.41154" lon="5.12468">
        <ele>218.8</ele>
        <time>2021-12-09T12:39:34Z</time>
      </trkpt>
      <trkpt lat="46.41135" lon="5.12455">
        <ele>218.6</ele>
        <time>2021-12-09T12:39:37Z</time>
      </trkpt>
      <trkpt lat="46.41122" lon="5.12446">
        <ele>218.4</ele>
        <time>2021-12-09T12:39:39Z</time>
      </trkpt>
      <trkpt lat="46.41067" lon="5.12408">
        <ele>217.4</ele>
        <time>2021-12-09T12:39:47Z</time>
      </trkpt>
      <trkpt lat="46.41017" lon="5.12373">
        <ele>216.2</ele>
        <time>2021-12-09T12:39:54Z</time>
      </trkpt>
      <trkpt lat="46.40995" lon="5.12358">
        <ele>215.4</ele>
        <time>2021-12-09T12:39:57Z</time>
      </trkpt>
      <trkpt lat="46.4098" lon="5.12347">
        <ele>214.6</ele>
        <time>2021-12-09T12:39:59Z</time>
      </trkpt>
      <trkpt lat="46.40933" lon="5.12315">
        <ele>213.4</ele>
        <time>2021-12-09T12:40:05Z</time>
      </trkpt>
      <trkpt lat="46.40901" lon="5.12292">
        <ele>212.4</ele>
        <time>2021-12-09T12:40:09Z</time>
      </trkpt>
      <trkpt lat="46.40876" lon="5.12275">
        <ele>210.8</ele>
        <time>2021-12-09T12:40:12Z</time>
      </trkpt>
      <trkpt lat="46.40859" lon="5.12263">
        <ele>210</ele>
        <time>2021-12-09T12:40:14Z</time>
      </trkpt>
      <trkpt lat="46.40851" lon="5.12258">
        <ele>209.4</ele>
        <time>2021-12-09T12:40:15Z</time>
      </trkpt>
      <trkpt lat="46.40817" lon="5.12234">
        <ele>207.8</ele>
        <time>2021-12-09T12:40:19Z</time>
      </trkpt>
      <trkpt lat="46.40784" lon="5.12211">
        <ele>206.8</ele>
        <time>2021-12-09T12:40:23Z</time>
      </trkpt>
      <trkpt lat="46.4076" lon="5.12195">
        <ele>206.4</ele>
        <time>2021-12-09T12:40:26Z</time>
      </trkpt>
      <trkpt lat="46.4073" lon="5.12173">
        <ele>205.6</ele>
        <time>2021-12-09T12:40:30Z</time>
      </trkpt>
      <trkpt lat="46.4071" lon="5.12159">
        <ele>205.6</ele>
        <time>2021-12-09T12:40:33Z</time>
      </trkpt>
      <trkpt lat="46.40659" lon="5.12126">
        <ele>206.4</ele>
        <time>2021-12-09T12:40:41Z</time>
      </trkpt>
      <trkpt lat="46.40602" lon="5.12091">
        <ele>206.2</ele>
        <time>2021-12-09T12:40:49Z</time>
      </trkpt>
      <trkpt lat="46.40545" lon="5.12063">
        <ele>204.4</ele>
        <time>2021-12-09T12:40:56Z</time>
      </trkpt>
      <trkpt lat="46.40519" lon="5.12051">
        <ele>203.6</ele>
        <time>2021-12-09T12:40:59Z</time>
      </trkpt>
      <trkpt lat="46.40495" lon="5.1204">
        <ele>202.2</ele>
        <time>2021-12-09T12:41:02Z</time>
      </trkpt>
      <trkpt lat="46.40463" lon="5.12025">
        <ele>201.4</ele>
        <time>2021-12-09T12:41:06Z</time>
      </trkpt>
      <trkpt lat="46.4041" lon="5.12003">
        <ele>201.6</ele>
        <time>2021-12-09T12:41:13Z</time>
      </trkpt>
      <trkpt lat="46.40378" lon="5.11991">
        <ele>202.2</ele>
        <time>2021-12-09T12:41:18Z</time>
      </trkpt>
      <trkpt lat="46.4033" lon="5.11973">
        <ele>203</ele>
        <time>2021-12-09T12:41:26Z</time>
      </trkpt>
      <trkpt lat="46.40324" lon="5.11971">
        <ele>203.2</ele>
        <time>2021-12-09T12:41:27Z</time>
      </trkpt>
      <trkpt lat="46.40289" lon="5.11956">
        <ele>204.2</ele>
        <time>2021-12-09T12:41:32Z</time>
      </trkpt>
      <trkpt lat="46.40283" lon="5.11954">
        <ele>204.2</ele>
        <time>2021-12-09T12:41:33Z</time>
      </trkpt>
      <trkpt lat="46.40241" lon="5.11939">
        <ele>204.4</ele>
        <time>2021-12-09T12:41:40Z</time>
      </trkpt>
      <trkpt lat="46.40233" lon="5.11934">
        <ele>204.6</ele>
        <time>2021-12-09T12:41:42Z</time>
      </trkpt>
      <trkpt lat="46.40228" lon="5.11923">
        <ele>204.4</ele>
        <time>2021-12-09T12:41:44Z</time>
      </trkpt>
      <trkpt lat="46.4022" lon="5.11892">
        <ele>204.2</ele>
        <time>2021-12-09T12:41:48Z</time>
      </trkpt>
      <trkpt lat="46.40206" lon="5.11833">
        <ele>203.8</ele>
        <time>2021-12-09T12:41:54Z</time>
      </trkpt>
      <trkpt lat="46.40197" lon="5.11792">
        <ele>203</ele>
        <time>2021-12-09T12:41:58Z</time>
      </trkpt>
      <trkpt lat="46.40187" lon="5.11758">
        <ele>202</ele>
        <time>2021-12-09T12:42:01Z</time>
      </trkpt>
      <trkpt lat="46.40183" lon="5.11739">
        <ele>201.8</ele>
        <time>2021-12-09T12:42:03Z</time>
      </trkpt>
      <trkpt lat="46.40175" lon="5.11706">
        <ele>200.4</ele>
        <time>2021-12-09T12:42:06Z</time>
      </trkpt>
      <trkpt lat="46.40164" lon="5.11663">
        <ele>199.4</ele>
        <time>2021-12-09T12:42:10Z</time>
      </trkpt>
      <trkpt lat="46.40161" lon="5.11652">
        <ele>199</ele>
        <time>2021-12-09T12:42:11Z</time>
      </trkpt>
      <trkpt lat="46.40156" lon="5.11631">
        <ele>198.4</ele>
        <time>2021-12-09T12:42:13Z</time>
      </trkpt>
      <trkpt lat="46.40148" lon="5.11595">
        <ele>197.2</ele>
        <time>2021-12-09T12:42:16Z</time>
      </trkpt>
      <trkpt lat="46.4014" lon="5.11561">
        <ele>196.2</ele>
        <time>2021-12-09T12:42:19Z</time>
      </trkpt>
      <trkpt lat="46.4013" lon="5.11522">
        <ele>194.8</ele>
        <time>2021-12-09T12:42:22Z</time>
      </trkpt>
      <trkpt lat="46.40121" lon="5.11489">
        <ele>193.8</ele>
        <time>2021-12-09T12:42:25Z</time>
      </trkpt>
      <trkpt lat="46.40113" lon="5.11462">
        <ele>193.2</ele>
        <time>2021-12-09T12:42:27Z</time>
      </trkpt>
      <trkpt lat="46.4011" lon="5.1145">
        <ele>192.6</ele>
        <time>2021-12-09T12:42:28Z</time>
      </trkpt>
      <trkpt lat="46.40097" lon="5.11413">
        <ele>191.2</ele>
        <time>2021-12-09T12:42:31Z</time>
      </trkpt>
      <trkpt lat="46.40088" lon="5.11391">
        <ele>190.2</ele>
        <time>2021-12-09T12:42:33Z</time>
      </trkpt>
      <trkpt lat="46.40079" lon="5.11372">
        <ele>188.8</ele>
        <time>2021-12-09T12:42:35Z</time>
      </trkpt>
      <trkpt lat="46.40075" lon="5.11364">
        <ele>188.4</ele>
        <time>2021-12-09T12:42:36Z</time>
      </trkpt>
      <trkpt lat="46.40071" lon="5.11358">
        <ele>188.2</ele>
        <time>2021-12-09T12:42:37Z</time>
      </trkpt>
      <trkpt lat="46.40066" lon="5.11352">
        <ele>187.4</ele>
        <time>2021-12-09T12:42:38Z</time>
      </trkpt>
      <trkpt lat="46.40056" lon="5.11342">
        <ele>187</ele>
        <time>2021-12-09T12:42:40Z</time>
      </trkpt>
      <trkpt lat="46.40048" lon="5.11335">
        <ele>186.6</ele>
        <time>2021-12-09T12:42:42Z</time>
      </trkpt>
      <trkpt lat="46.40047" lon="5.11333">
        <ele>186.6</ele>
        <time>2021-12-09T12:42:43Z</time>
      </trkpt>
      <trkpt lat="46.40047" lon="5.1133">
        <ele>186.2</ele>
        <time>2021-12-09T12:42:44Z</time>
      </trkpt>
      <trkpt lat="46.40047" lon="5.11328">
        <ele>185.8</ele>
        <time>2021-12-09T12:42:45Z</time>
      </trkpt>
      <trkpt lat="46.40047" lon="5.11327">
        <ele>185.6</ele>
        <time>2021-12-09T12:42:48Z</time>
      </trkpt>
      <trkpt lat="46.4005" lon="5.11322">
        <ele>185.6</ele>
        <time>2021-12-09T12:42:52Z</time>
      </trkpt>
      <trkpt lat="46.40059" lon="5.11304">
        <ele>185.4</ele>
        <time>2021-12-09T12:42:56Z</time>
      </trkpt>
      <trkpt lat="46.40065" lon="5.11283">
        <ele>185.2</ele>
        <time>2021-12-09T12:42:59Z</time>
      </trkpt>
      <trkpt lat="46.4007" lon="5.11266">
        <ele>185</ele>
        <time>2021-12-09T12:43:01Z</time>
      </trkpt>
      <trkpt lat="46.40093" lon="5.11199">
        <ele>184.8</ele>
        <time>2021-12-09T12:43:09Z</time>
      </trkpt>
      <trkpt lat="46.40096" lon="5.11191">
        <ele>184.8</ele>
        <time>2021-12-09T12:43:10Z</time>
      </trkpt>
      <trkpt lat="46.40102" lon="5.11172">
        <ele>184.8</ele>
        <time>2021-12-09T12:43:13Z</time>
      </trkpt>
      <trkpt lat="46.40105" lon="5.11158">
        <ele>184.8</ele>
        <time>2021-12-09T12:43:15Z</time>
      </trkpt>
      <trkpt lat="46.40103" lon="5.11154">
        <ele>184.8</ele>
        <time>2021-12-09T12:43:16Z</time>
      </trkpt>
      <trkpt lat="46.40097" lon="5.11143">
        <ele>184.8</ele>
        <time>2021-12-09T12:43:18Z</time>
      </trkpt>
      <trkpt lat="46.40092" lon="5.11139">
        <ele>184.8</ele>
        <time>2021-12-09T12:43:19Z</time>
      </trkpt>
      <trkpt lat="46.40089" lon="5.11136">
        <ele>184.8</ele>
        <time>2021-12-09T12:43:20Z</time>
      </trkpt>
      <trkpt lat="46.40083" lon="5.11128">
        <ele>184.8</ele>
        <time>2021-12-09T12:43:22Z</time>
      </trkpt>
      <trkpt lat="46.40083" lon="5.11122">
        <ele>184.8</ele>
        <time>2021-12-09T12:43:23Z</time>
      </trkpt>
      <trkpt lat="46.40083" lon="5.11114">
        <ele>184.6</ele>
        <time>2021-12-09T12:43:24Z</time>
      </trkpt>
      <trkpt lat="46.40089" lon="5.11102">
        <ele>184.6</ele>
        <time>2021-12-09T12:43:26Z</time>
      </trkpt>
      <trkpt lat="46.40091" lon="5.11096">
        <ele>184.6</ele>
        <time>2021-12-09T12:43:27Z</time>
      </trkpt>
      <trkpt lat="46.40099" lon="5.11071">
        <ele>184.6</ele>
        <time>2021-12-09T12:43:31Z</time>
      </trkpt>
      <trkpt lat="46.40103" lon="5.11052">
        <ele>184.6</ele>
        <time>2021-12-09T12:43:34Z</time>
      </trkpt>
      <trkpt lat="46.40107" lon="5.11029">
        <ele>184.6</ele>
        <time>2021-12-09T12:43:37Z</time>
      </trkpt>
      <trkpt lat="46.40108" lon="5.11018">
        <ele>184.6</ele>
        <time>2021-12-09T12:43:38Z</time>
      </trkpt>
      <trkpt lat="46.40108" lon="5.1101">
        <ele>184.6</ele>
        <time>2021-12-09T12:43:39Z</time>
      </trkpt>
      <trkpt lat="46.40102" lon="5.10985">
        <ele>184.4</ele>
        <time>2021-12-09T12:43:42Z</time>
      </trkpt>
      <trkpt lat="46.40099" lon="5.10977">
        <ele>184.2</ele>
        <time>2021-12-09T12:43:43Z</time>
      </trkpt>
      <trkpt lat="46.40086" lon="5.10938">
        <ele>184</ele>
        <time>2021-12-09T12:43:48Z</time>
      </trkpt>
      <trkpt lat="46.40077" lon="5.10895">
        <ele>184</ele>
        <time>2021-12-09T12:43:53Z</time>
      </trkpt>
      <trkpt lat="46.40075" lon="5.1088">
        <ele>184</ele>
        <time>2021-12-09T12:43:55Z</time>
      </trkpt>
      <trkpt lat="46.40073" lon="5.1086">
        <ele>184.2</ele>
        <time>2021-12-09T12:43:57Z</time>
      </trkpt>
      <trkpt lat="46.40068" lon="5.10799">
        <ele>184.8</ele>
        <time>2021-12-09T12:44:03Z</time>
      </trkpt>
      <trkpt lat="46.4006" lon="5.10716">
        <ele>183.8</ele>
        <time>2021-12-09T12:44:11Z</time>
      </trkpt>
      <trkpt lat="46.40052" lon="5.1064">
        <ele>184</ele>
        <time>2021-12-09T12:44:19Z</time>
      </trkpt>
      <trkpt lat="46.40047" lon="5.1056">
        <ele>184</ele>
        <time>2021-12-09T12:44:27Z</time>
      </trkpt>
      <trkpt lat="46.40046" lon="5.10551">
        <ele>183.8</ele>
        <time>2021-12-09T12:44:28Z</time>
      </trkpt>
      <trkpt lat="46.4004" lon="5.10472">
        <ele>183.8</ele>
        <time>2021-12-09T12:44:36Z</time>
      </trkpt>
      <trkpt lat="46.40037" lon="5.10445">
        <ele>183.6</ele>
        <time>2021-12-09T12:44:39Z</time>
      </trkpt>
      <trkpt lat="46.40029" lon="5.10357">
        <ele>183.8</ele>
        <time>2021-12-09T12:44:48Z</time>
      </trkpt>
      <trkpt lat="46.40028" lon="5.10318">
        <ele>183.8</ele>
        <time>2021-12-09T12:44:52Z</time>
      </trkpt>
      <trkpt lat="46.40027" lon="5.10239">
        <ele>183.8</ele>
        <time>2021-12-09T12:45:00Z</time>
      </trkpt>
      <trkpt lat="46.40025" lon="5.10154">
        <ele>184.4</ele>
        <time>2021-12-09T12:45:09Z</time>
      </trkpt>
      <trkpt lat="46.40025" lon="5.10144">
        <ele>184.4</ele>
        <time>2021-12-09T12:45:10Z</time>
      </trkpt>
      <trkpt lat="46.40023" lon="5.10066">
        <ele>185.2</ele>
        <time>2021-12-09T12:45:19Z</time>
      </trkpt>
      <trkpt lat="46.40023" lon="5.10051">
        <ele>185.8</ele>
        <time>2021-12-09T12:45:21Z</time>
      </trkpt>
      <trkpt lat="46.40023" lon="5.10023">
        <ele>186.8</ele>
        <time>2021-12-09T12:45:25Z</time>
      </trkpt>
      <trkpt lat="46.40023" lon="5.10016">
        <ele>187.2</ele>
        <time>2021-12-09T12:45:26Z</time>
      </trkpt>
      <trkpt lat="46.40022" lon="5.09991">
        <ele>188</ele>
        <time>2021-12-09T12:45:30Z</time>
      </trkpt>
      <trkpt lat="46.40022" lon="5.09985">
        <ele>188.4</ele>
        <time>2021-12-09T12:45:31Z</time>
      </trkpt>
      <trkpt lat="46.40022" lon="5.09973">
        <ele>189.2</ele>
        <time>2021-12-09T12:45:33Z</time>
      </trkpt>
      <trkpt lat="46.40022" lon="5.09961">
        <ele>189.8</ele>
        <time>2021-12-09T12:45:35Z</time>
      </trkpt>
      <trkpt lat="46.40022" lon="5.09949">
        <ele>190.2</ele>
        <time>2021-12-09T12:45:37Z</time>
      </trkpt>
      <trkpt lat="46.40022" lon="5.09943">
        <ele>190.6</ele>
        <time>2021-12-09T12:45:38Z</time>
      </trkpt>
      <trkpt lat="46.40022" lon="5.09926">
        <ele>191.6</ele>
        <time>2021-12-09T12:45:41Z</time>
      </trkpt>
      <trkpt lat="46.40022" lon="5.09903">
        <ele>192.6</ele>
        <time>2021-12-09T12:45:45Z</time>
      </trkpt>
      <trkpt lat="46.40022" lon="5.09899">
        <ele>193</ele>
        <time>2021-12-09T12:45:46Z</time>
      </trkpt>
      <trkpt lat="46.40021" lon="5.09887">
        <ele>193.6</ele>
        <time>2021-12-09T12:45:48Z</time>
      </trkpt>
      <trkpt lat="46.40021" lon="5.0986">
        <ele>195</ele>
        <time>2021-12-09T12:45:53Z</time>
      </trkpt>
      <trkpt lat="46.40021" lon="5.09855">
        <ele>195.4</ele>
        <time>2021-12-09T12:45:54Z</time>
      </trkpt>
      <trkpt lat="46.40021" lon="5.0984">
        <ele>196.2</ele>
        <time>2021-12-09T12:45:57Z</time>
      </trkpt>
      <trkpt lat="46.4002" lon="5.0983">
        <ele>196.6</ele>
        <time>2021-12-09T12:45:59Z</time>
      </trkpt>
      <trkpt lat="46.4002" lon="5.09826">
        <ele>197.2</ele>
        <time>2021-12-09T12:46:00Z</time>
      </trkpt>
      <trkpt lat="46.4002" lon="5.09812">
        <ele>198.2</ele>
        <time>2021-12-09T12:46:03Z</time>
      </trkpt>
      <trkpt lat="46.40019" lon="5.09798">
        <ele>199.2</ele>
        <time>2021-12-09T12:46:06Z</time>
      </trkpt>
      <trkpt lat="46.40019" lon="5.09792">
        <ele>199.6</ele>
        <time>2021-12-09T12:46:07Z</time>
      </trkpt>
      <trkpt lat="46.40018" lon="5.09768">
        <ele>200.8</ele>
        <time>2021-12-09T12:46:12Z</time>
      </trkpt>
      <trkpt lat="46.40018" lon="5.09758">
        <ele>201</ele>
        <time>2021-12-09T12:46:14Z</time>
      </trkpt>
      <trkpt lat="46.40018" lon="5.0974">
        <ele>201.8</ele>
        <time>2021-12-09T12:46:18Z</time>
      </trkpt>
      <trkpt lat="46.40019" lon="5.09723">
        <ele>202.8</ele>
        <time>2021-12-09T12:46:22Z</time>
      </trkpt>
      <trkpt lat="46.40019" lon="5.09715">
        <ele>203.2</ele>
        <time>2021-12-09T12:46:24Z</time>
      </trkpt>
      <trkpt lat="46.40019" lon="5.09698">
        <ele>204</ele>
        <time>2021-12-09T12:46:28Z</time>
      </trkpt>
      <trkpt lat="46.40021" lon="5.0968">
        <ele>205</ele>
        <time>2021-12-09T12:46:32Z</time>
      </trkpt>
      <trkpt lat="46.40021" lon="5.09676">
        <ele>205.2</ele>
        <time>2021-12-09T12:46:33Z</time>
      </trkpt>
      <trkpt lat="46.40023" lon="5.09659">
        <ele>206.2</ele>
        <time>2021-12-09T12:46:37Z</time>
      </trkpt>
      <trkpt lat="46.40024" lon="5.09649">
        <ele>206.6</ele>
        <time>2021-12-09T12:46:39Z</time>
      </trkpt>
      <trkpt lat="46.40026" lon="5.09629">
        <ele>207.6</ele>
        <time>2021-12-09T12:46:43Z</time>
      </trkpt>
      <trkpt lat="46.40027" lon="5.09623">
        <ele>208</ele>
        <time>2021-12-09T12:46:44Z</time>
      </trkpt>
      <trkpt lat="46.40029" lon="5.09592">
        <ele>208.6</ele>
        <time>2021-12-09T12:46:49Z</time>
      </trkpt>
      <trkpt lat="46.4003" lon="5.09585">
        <ele>208.6</ele>
        <time>2021-12-09T12:46:50Z</time>
      </trkpt>
      <trkpt lat="46.40032" lon="5.0955">
        <ele>208.8</ele>
        <time>2021-12-09T12:46:55Z</time>
      </trkpt>
      <trkpt lat="46.40037" lon="5.09492">
        <ele>209.4</ele>
        <time>2021-12-09T12:47:03Z</time>
      </trkpt>
      <trkpt lat="46.4004" lon="5.09453">
        <ele>209.8</ele>
        <time>2021-12-09T12:47:08Z</time>
      </trkpt>
      <trkpt lat="46.40042" lon="5.09429">
        <ele>210</ele>
        <time>2021-12-09T12:47:11Z</time>
      </trkpt>
      <trkpt lat="46.40047" lon="5.09363">
        <ele>209.6</ele>
        <time>2021-12-09T12:47:18Z</time>
      </trkpt>
      <trkpt lat="46.40051" lon="5.09317">
        <ele>208.6</ele>
        <time>2021-12-09T12:47:22Z</time>
      </trkpt>
      <trkpt lat="46.40053" lon="5.09295">
        <ele>208</ele>
        <time>2021-12-09T12:47:24Z</time>
      </trkpt>
      <trkpt lat="46.40055" lon="5.09267">
        <ele>207.2</ele>
        <time>2021-12-09T12:47:26Z</time>
      </trkpt>
      <trkpt lat="46.40057" lon="5.09243">
        <ele>206.2</ele>
        <time>2021-12-09T12:47:28Z</time>
      </trkpt>
      <trkpt lat="46.40059" lon="5.09213">
        <ele>205.4</ele>
        <time>2021-12-09T12:47:30Z</time>
      </trkpt>
      <trkpt lat="46.4006" lon="5.09199">
        <ele>205</ele>
        <time>2021-12-09T12:47:31Z</time>
      </trkpt>
      <trkpt lat="46.40062" lon="5.0917">
        <ele>203.6</ele>
        <time>2021-12-09T12:47:33Z</time>
      </trkpt>
      <trkpt lat="46.40063" lon="5.09155">
        <ele>202.6</ele>
        <time>2021-12-09T12:47:34Z</time>
      </trkpt>
      <trkpt lat="46.40066" lon="5.09126">
        <ele>201.4</ele>
        <time>2021-12-09T12:47:36Z</time>
      </trkpt>
      <trkpt lat="46.40068" lon="5.091">
        <ele>200.2</ele>
        <time>2021-12-09T12:47:38Z</time>
      </trkpt>
      <trkpt lat="46.40071" lon="5.09068">
        <ele>199.2</ele>
        <time>2021-12-09T12:47:40Z</time>
      </trkpt>
      <trkpt lat="46.40074" lon="5.09027">
        <ele>197.8</ele>
        <time>2021-12-09T12:47:43Z</time>
      </trkpt>
      <trkpt lat="46.40075" lon="5.09">
        <ele>197</ele>
        <time>2021-12-09T12:47:45Z</time>
      </trkpt>
      <trkpt lat="46.40077" lon="5.08976">
        <ele>196.8</ele>
        <time>2021-12-09T12:47:47Z</time>
      </trkpt>
      <trkpt lat="46.40075" lon="5.08923">
        <ele>196.4</ele>
        <time>2021-12-09T12:47:51Z</time>
      </trkpt>
      <trkpt lat="46.40063" lon="5.08841">
        <ele>196.6</ele>
        <time>2021-12-09T12:47:58Z</time>
      </trkpt>
      <trkpt lat="46.40053" lon="5.08769">
        <ele>197.2</ele>
        <time>2021-12-09T12:48:05Z</time>
      </trkpt>
      <trkpt lat="46.40047" lon="5.08725">
        <ele>198</ele>
        <time>2021-12-09T12:48:10Z</time>
      </trkpt>
      <trkpt lat="46.40045" lon="5.08715">
        <ele>198.2</ele>
        <time>2021-12-09T12:48:11Z</time>
      </trkpt>
      <trkpt lat="46.40042" lon="5.08692">
        <ele>199.4</ele>
        <time>2021-12-09T12:48:14Z</time>
      </trkpt>
      <trkpt lat="46.40036" lon="5.08657">
        <ele>201</ele>
        <time>2021-12-09T12:48:19Z</time>
      </trkpt>
      <trkpt lat="46.40031" lon="5.08628">
        <ele>202.4</ele>
        <time>2021-12-09T12:48:23Z</time>
      </trkpt>
      <trkpt lat="46.40027" lon="5.08599">
        <ele>203.2</ele>
        <time>2021-12-09T12:48:27Z</time>
      </trkpt>
      <trkpt lat="46.40027" lon="5.08594">
        <ele>203.4</ele>
        <time>2021-12-09T12:48:28Z</time>
      </trkpt>
      <trkpt lat="46.40023" lon="5.08565">
        <ele>204.6</ele>
        <time>2021-12-09T12:48:32Z</time>
      </trkpt>
      <trkpt lat="46.4002" lon="5.08545">
        <ele>205.6</ele>
        <time>2021-12-09T12:48:35Z</time>
      </trkpt>
      <trkpt lat="46.40019" lon="5.08538">
        <ele>205.8</ele>
        <time>2021-12-09T12:48:36Z</time>
      </trkpt>
      <trkpt lat="46.40014" lon="5.08503">
        <ele>206.8</ele>
        <time>2021-12-09T12:48:41Z</time>
      </trkpt>
      <trkpt lat="46.40011" lon="5.08483">
        <ele>207.6</ele>
        <time>2021-12-09T12:48:44Z</time>
      </trkpt>
      <trkpt lat="46.40009" lon="5.08469">
        <ele>208</ele>
        <time>2021-12-09T12:48:46Z</time>
      </trkpt>
      <trkpt lat="46.40004" lon="5.08436">
        <ele>209.2</ele>
        <time>2021-12-09T12:48:51Z</time>
      </trkpt>
      <trkpt lat="46.40001" lon="5.08409">
        <ele>209.8</ele>
        <time>2021-12-09T12:48:55Z</time>
      </trkpt>
      <trkpt lat="46.39998" lon="5.08388">
        <ele>210.2</ele>
        <time>2021-12-09T12:48:58Z</time>
      </trkpt>
      <trkpt lat="46.39993" lon="5.08338">
        <ele>210.8</ele>
        <time>2021-12-09T12:49:05Z</time>
      </trkpt>
      <trkpt lat="46.39987" lon="5.08257">
        <ele>211.4</ele>
        <time>2021-12-09T12:49:15Z</time>
      </trkpt>
      <trkpt lat="46.39979" lon="5.08171">
        <ele>211.4</ele>
        <time>2021-12-09T12:49:25Z</time>
      </trkpt>
      <trkpt lat="46.39973" lon="5.08094">
        <ele>211.2</ele>
        <time>2021-12-09T12:49:34Z</time>
      </trkpt>
      <trkpt lat="46.39966" lon="5.0801">
        <ele>211</ele>
        <time>2021-12-09T12:49:43Z</time>
      </trkpt>
      <trkpt lat="46.39965" lon="5.08001">
        <ele>211.2</ele>
        <time>2021-12-09T12:49:44Z</time>
      </trkpt>
      <trkpt lat="46.39958" lon="5.07916">
        <ele>211</ele>
        <time>2021-12-09T12:49:53Z</time>
      </trkpt>
      <trkpt lat="46.39957" lon="5.07907">
        <ele>210.8</ele>
        <time>2021-12-09T12:49:54Z</time>
      </trkpt>
      <trkpt lat="46.39951" lon="5.07844">
        <ele>210.4</ele>
        <time>2021-12-09T12:50:01Z</time>
      </trkpt>
      <trkpt lat="46.39949" lon="5.07839">
        <ele>210.4</ele>
        <time>2021-12-09T12:50:02Z</time>
      </trkpt>
      <trkpt lat="46.39944" lon="5.07833">
        <ele>210.4</ele>
        <time>2021-12-09T12:50:03Z</time>
      </trkpt>
      <trkpt lat="46.3994" lon="5.07832">
        <ele>210.2</ele>
        <time>2021-12-09T12:50:04Z</time>
      </trkpt>
      <trkpt lat="46.39934" lon="5.07833">
        <ele>210</ele>
        <time>2021-12-09T12:50:05Z</time>
      </trkpt>
      <trkpt lat="46.39925" lon="5.07839">
        <ele>209.8</ele>
        <time>2021-12-09T12:50:07Z</time>
      </trkpt>
      <trkpt lat="46.39912" lon="5.07848">
        <ele>209.4</ele>
        <time>2021-12-09T12:50:09Z</time>
      </trkpt>
      <trkpt lat="46.39892" lon="5.07858">
        <ele>209</ele>
        <time>2021-12-09T12:50:12Z</time>
      </trkpt>
      <trkpt lat="46.39845" lon="5.07884">
        <ele>208.6</ele>
        <time>2021-12-09T12:50:19Z</time>
      </trkpt>
      <trkpt lat="46.39822" lon="5.07896">
        <ele>208.4</ele>
        <time>2021-12-09T12:50:22Z</time>
      </trkpt>
      <trkpt lat="46.3979" lon="5.07909">
        <ele>207.2</ele>
        <time>2021-12-09T12:50:26Z</time>
      </trkpt>
      <trkpt lat="46.39757" lon="5.07922">
        <ele>206.2</ele>
        <time>2021-12-09T12:50:30Z</time>
      </trkpt>
      <trkpt lat="46.39736" lon="5.07931">
        <ele>205.8</ele>
        <time>2021-12-09T12:50:33Z</time>
      </trkpt>
      <trkpt lat="46.39728" lon="5.07936">
        <ele>205.8</ele>
        <time>2021-12-09T12:50:34Z</time>
      </trkpt>
      <trkpt lat="46.39715" lon="5.07947">
        <ele>205.8</ele>
        <time>2021-12-09T12:50:36Z</time>
      </trkpt>
      <trkpt lat="46.39691" lon="5.07978">
        <ele>206.4</ele>
        <time>2021-12-09T12:50:41Z</time>
      </trkpt>
      <trkpt lat="46.39671" lon="5.08004">
        <ele>207.2</ele>
        <time>2021-12-09T12:50:45Z</time>
      </trkpt>
      <trkpt lat="46.39647" lon="5.08037">
        <ele>208.2</ele>
        <time>2021-12-09T12:50:50Z</time>
      </trkpt>
      <trkpt lat="46.39612" lon="5.08082">
        <ele>209.2</ele>
        <time>2021-12-09T12:50:57Z</time>
      </trkpt>
      <trkpt lat="46.39607" lon="5.08088">
        <ele>209.4</ele>
        <time>2021-12-09T12:50:58Z</time>
      </trkpt>
      <trkpt lat="46.39569" lon="5.08128">
        <ele>209.4</ele>
        <time>2021-12-09T12:51:04Z</time>
      </trkpt>
      <trkpt lat="46.39533" lon="5.08161">
        <ele>208.4</ele>
        <time>2021-12-09T12:51:09Z</time>
      </trkpt>
      <trkpt lat="46.39525" lon="5.08166">
        <ele>208</ele>
        <time>2021-12-09T12:51:10Z</time>
      </trkpt>
      <trkpt lat="46.39517" lon="5.08172">
        <ele>207.4</ele>
        <time>2021-12-09T12:51:11Z</time>
      </trkpt>
      <trkpt lat="46.39491" lon="5.08185">
        <ele>206.2</ele>
        <time>2021-12-09T12:51:14Z</time>
      </trkpt>
      <trkpt lat="46.39483" lon="5.08189">
        <ele>205.8</ele>
        <time>2021-12-09T12:51:15Z</time>
      </trkpt>
      <trkpt lat="46.39466" lon="5.08198">
        <ele>205.2</ele>
        <time>2021-12-09T12:51:17Z</time>
      </trkpt>
      <trkpt lat="46.39424" lon="5.08217">
        <ele>204</ele>
        <time>2021-12-09T12:51:22Z</time>
      </trkpt>
      <trkpt lat="46.39399" lon="5.08228">
        <ele>203.8</ele>
        <time>2021-12-09T12:51:25Z</time>
      </trkpt>
      <trkpt lat="46.39364" lon="5.08253">
        <ele>203.8</ele>
        <time>2021-12-09T12:51:30Z</time>
      </trkpt>
      <trkpt lat="46.39323" lon="5.0828">
        <ele>204</ele>
        <time>2021-12-09T12:51:36Z</time>
      </trkpt>
      <trkpt lat="46.39298" lon="5.08295">
        <ele>204.2</ele>
        <time>2021-12-09T12:51:40Z</time>
      </trkpt>
      <trkpt lat="46.39288" lon="5.08308">
        <ele>204.2</ele>
        <time>2021-12-09T12:51:42Z</time>
      </trkpt>
      <trkpt lat="46.39283" lon="5.08325">
        <ele>204</ele>
        <time>2021-12-09T12:51:44Z</time>
      </trkpt>
      <trkpt lat="46.39282" lon="5.08334">
        <ele>204</ele>
        <time>2021-12-09T12:51:45Z</time>
      </trkpt>
      <trkpt lat="46.39276" lon="5.08384">
        <ele>204.8</ele>
        <time>2021-12-09T12:51:51Z</time>
      </trkpt>
      <trkpt lat="46.39273" lon="5.08399">
        <ele>205.2</ele>
        <time>2021-12-09T12:51:53Z</time>
      </trkpt>
      <trkpt lat="46.39269" lon="5.08419">
        <ele>206.4</ele>
        <time>2021-12-09T12:51:56Z</time>
      </trkpt>
      <trkpt lat="46.39267" lon="5.08434">
        <ele>207.2</ele>
        <time>2021-12-09T12:51:58Z</time>
      </trkpt>
      <trkpt lat="46.39267" lon="5.08442">
        <ele>207.6</ele>
        <time>2021-12-09T12:51:59Z</time>
      </trkpt>
      <trkpt lat="46.39266" lon="5.0847">
        <ele>208.8</ele>
        <time>2021-12-09T12:52:03Z</time>
      </trkpt>
      <trkpt lat="46.39266" lon="5.08485">
        <ele>209.4</ele>
        <time>2021-12-09T12:52:05Z</time>
      </trkpt>
      <trkpt lat="46.39262" lon="5.085">
        <ele>209.8</ele>
        <time>2021-12-09T12:52:07Z</time>
      </trkpt>
      <trkpt lat="46.39259" lon="5.08507">
        <ele>210</ele>
        <time>2021-12-09T12:52:08Z</time>
      </trkpt>
      <trkpt lat="46.39254" lon="5.08512">
        <ele>210</ele>
        <time>2021-12-09T12:52:09Z</time>
      </trkpt>
      <trkpt lat="46.39243" lon="5.08519">
        <ele>210.2</ele>
        <time>2021-12-09T12:52:11Z</time>
      </trkpt>
      <trkpt lat="46.39209" lon="5.0853">
        <ele>210.8</ele>
        <time>2021-12-09T12:52:17Z</time>
      </trkpt>
      <trkpt lat="46.39153" lon="5.08541">
        <ele>210.8</ele>
        <time>2021-12-09T12:52:26Z</time>
      </trkpt>
      <trkpt lat="46.39107" lon="5.0855">
        <ele>210.8</ele>
        <time>2021-12-09T12:52:33Z</time>
      </trkpt>
      <trkpt lat="46.39067" lon="5.08548">
        <ele>210.6</ele>
        <time>2021-12-09T12:52:39Z</time>
      </trkpt>
      <trkpt lat="46.39055" lon="5.08552">
        <ele>210.8</ele>
        <time>2021-12-09T12:52:41Z</time>
      </trkpt>
      <trkpt lat="46.39042" lon="5.0856">
        <ele>211</ele>
        <time>2021-12-09T12:52:43Z</time>
      </trkpt>
      <trkpt lat="46.39036" lon="5.08564">
        <ele>211.2</ele>
        <time>2021-12-09T12:52:44Z</time>
      </trkpt>
      <trkpt lat="46.39005" lon="5.0859">
        <ele>212.2</ele>
        <time>2021-12-09T12:52:50Z</time>
      </trkpt>
      <trkpt lat="46.39" lon="5.08595">
        <ele>212.4</ele>
        <time>2021-12-09T12:52:51Z</time>
      </trkpt>
      <trkpt lat="46.38986" lon="5.08608">
        <ele>212.8</ele>
        <time>2021-12-09T12:52:54Z</time>
      </trkpt>
      <trkpt lat="46.38974" lon="5.08614">
        <ele>213</ele>
        <time>2021-12-09T12:52:56Z</time>
      </trkpt>
      <trkpt lat="46.38961" lon="5.08615">
        <ele>213</ele>
        <time>2021-12-09T12:52:58Z</time>
      </trkpt>
      <trkpt lat="46.38941" lon="5.08612">
        <ele>213</ele>
        <time>2021-12-09T12:53:01Z</time>
      </trkpt>
      <trkpt lat="46.38915" lon="5.08604">
        <ele>213</ele>
        <time>2021-12-09T12:53:05Z</time>
      </trkpt>
      <trkpt lat="46.38909" lon="5.086">
        <ele>212.8</ele>
        <time>2021-12-09T12:53:06Z</time>
      </trkpt>
      <trkpt lat="46.38903" lon="5.08595">
        <ele>212.8</ele>
        <time>2021-12-09T12:53:07Z</time>
      </trkpt>
      <trkpt lat="46.3888" lon="5.08572">
        <ele>212.6</ele>
        <time>2021-12-09T12:53:11Z</time>
      </trkpt>
      <trkpt lat="46.38845" lon="5.08539">
        <ele>212</ele>
        <time>2021-12-09T12:53:17Z</time>
      </trkpt>
      <trkpt lat="46.38838" lon="5.08535">
        <ele>211.8</ele>
        <time>2021-12-09T12:53:18Z</time>
      </trkpt>
      <trkpt lat="46.38794" lon="5.08513">
        <ele>211.2</ele>
        <time>2021-12-09T12:53:24Z</time>
      </trkpt>
      <trkpt lat="46.38786" lon="5.0851">
        <ele>211</ele>
        <time>2021-12-09T12:53:25Z</time>
      </trkpt>
      <trkpt lat="46.38745" lon="5.08502">
        <ele>209.8</ele>
        <time>2021-12-09T12:53:30Z</time>
      </trkpt>
      <trkpt lat="46.38721" lon="5.08505">
        <ele>209.4</ele>
        <time>2021-12-09T12:53:33Z</time>
      </trkpt>
      <trkpt lat="46.38714" lon="5.08508">
        <ele>209.2</ele>
        <time>2021-12-09T12:53:34Z</time>
      </trkpt>
      <trkpt lat="46.38693" lon="5.08522">
        <ele>208.8</ele>
        <time>2021-12-09T12:53:37Z</time>
      </trkpt>
      <trkpt lat="46.38686" lon="5.08526">
        <ele>208.8</ele>
        <time>2021-12-09T12:53:38Z</time>
      </trkpt>
      <trkpt lat="46.38678" lon="5.08528">
        <ele>208.8</ele>
        <time>2021-12-09T12:53:39Z</time>
      </trkpt>
      <trkpt lat="46.38627" lon="5.0854">
        <ele>208.8</ele>
        <time>2021-12-09T12:53:46Z</time>
      </trkpt>
      <trkpt lat="46.38571" lon="5.08555">
        <ele>209</ele>
        <time>2021-12-09T12:53:54Z</time>
      </trkpt>
      <trkpt lat="46.38565" lon="5.08557">
        <ele>209</ele>
        <time>2021-12-09T12:53:55Z</time>
      </trkpt>
      <trkpt lat="46.38511" lon="5.08571">
        <ele>208.4</ele>
        <time>2021-12-09T12:54:02Z</time>
      </trkpt>
      <trkpt lat="46.38503" lon="5.08573">
        <ele>208.4</ele>
        <time>2021-12-09T12:54:03Z</time>
      </trkpt>
      <trkpt lat="46.38445" lon="5.08579">
        <ele>208.2</ele>
        <time>2021-12-09T12:54:11Z</time>
      </trkpt>
      <trkpt lat="46.38438" lon="5.08579">
        <ele>208.2</ele>
        <time>2021-12-09T12:54:12Z</time>
      </trkpt>
      <trkpt lat="46.38379" lon="5.08579">
        <ele>209.2</ele>
        <time>2021-12-09T12:54:21Z</time>
      </trkpt>
      <trkpt lat="46.38322" lon="5.08569">
        <ele>209.8</ele>
        <time>2021-12-09T12:54:30Z</time>
      </trkpt>
      <trkpt lat="46.38309" lon="5.08566">
        <ele>209.8</ele>
        <time>2021-12-09T12:54:32Z</time>
      </trkpt>
      <trkpt lat="46.3826" lon="5.08564">
        <ele>209.6</ele>
        <time>2021-12-09T12:54:39Z</time>
      </trkpt>
      <trkpt lat="46.3822" lon="5.08573">
        <ele>209.6</ele>
        <time>2021-12-09T12:54:45Z</time>
      </trkpt>
      <trkpt lat="46.382" lon="5.08574">
        <ele>209.4</ele>
        <time>2021-12-09T12:54:48Z</time>
      </trkpt>
      <trkpt lat="46.38189" lon="5.0857">
        <ele>209.2</ele>
        <time>2021-12-09T12:54:50Z</time>
      </trkpt>
      <trkpt lat="46.38177" lon="5.0856">
        <ele>209.2</ele>
        <time>2021-12-09T12:54:52Z</time>
      </trkpt>
      <trkpt lat="46.38165" lon="5.08546">
        <ele>209</ele>
        <time>2021-12-09T12:54:54Z</time>
      </trkpt>
      <trkpt lat="46.3815" lon="5.0853">
        <ele>208.8</ele>
        <time>2021-12-09T12:54:57Z</time>
      </trkpt>
      <trkpt lat="46.38136" lon="5.08524">
        <ele>208.4</ele>
        <time>2021-12-09T12:54:59Z</time>
      </trkpt>
      <trkpt lat="46.38123" lon="5.08527">
        <ele>207.8</ele>
        <time>2021-12-09T12:55:01Z</time>
      </trkpt>
      <trkpt lat="46.38115" lon="5.08532">
        <ele>207.8</ele>
        <time>2021-12-09T12:55:02Z</time>
      </trkpt>
      <trkpt lat="46.38109" lon="5.08537">
        <ele>207.6</ele>
        <time>2021-12-09T12:55:03Z</time>
      </trkpt>
      <trkpt lat="46.38091" lon="5.08554">
        <ele>207.2</ele>
        <time>2021-12-09T12:55:06Z</time>
      </trkpt>
      <trkpt lat="46.38082" lon="5.0856">
        <ele>207.2</ele>
        <time>2021-12-09T12:55:07Z</time>
      </trkpt>
      <trkpt lat="46.38073" lon="5.08564">
        <ele>206.4</ele>
        <time>2021-12-09T12:55:08Z</time>
      </trkpt>
      <trkpt lat="46.38046" lon="5.08574">
        <ele>205.4</ele>
        <time>2021-12-09T12:55:11Z</time>
      </trkpt>
      <trkpt lat="46.38037" lon="5.08577">
        <ele>205</ele>
        <time>2021-12-09T12:55:12Z</time>
      </trkpt>
      <trkpt lat="46.38021" lon="5.08583">
        <ele>203.4</ele>
        <time>2021-12-09T12:55:14Z</time>
      </trkpt>
      <trkpt lat="46.38011" lon="5.08584">
        <ele>203</ele>
        <time>2021-12-09T12:55:15Z</time>
      </trkpt>
      <trkpt lat="46.38" lon="5.08583">
        <ele>202.4</ele>
        <time>2021-12-09T12:55:16Z</time>
      </trkpt>
      <trkpt lat="46.37991" lon="5.0858">
        <ele>201.8</ele>
        <time>2021-12-09T12:55:17Z</time>
      </trkpt>
      <trkpt lat="46.37976" lon="5.08571">
        <ele>201.4</ele>
        <time>2021-12-09T12:55:19Z</time>
      </trkpt>
      <trkpt lat="46.37951" lon="5.08555">
        <ele>201</ele>
        <time>2021-12-09T12:55:22Z</time>
      </trkpt>
      <trkpt lat="46.37944" lon="5.08553">
        <ele>200.8</ele>
        <time>2021-12-09T12:55:23Z</time>
      </trkpt>
      <trkpt lat="46.37936" lon="5.0855">
        <ele>200.8</ele>
        <time>2021-12-09T12:55:24Z</time>
      </trkpt>
      <trkpt lat="46.37889" lon="5.08545">
        <ele>200.8</ele>
        <time>2021-12-09T12:55:30Z</time>
      </trkpt>
      <trkpt lat="46.37863" lon="5.08545">
        <ele>201</ele>
        <time>2021-12-09T12:55:34Z</time>
      </trkpt>
      <trkpt lat="46.37857" lon="5.08543">
        <ele>201.2</ele>
        <time>2021-12-09T12:55:35Z</time>
      </trkpt>
      <trkpt lat="46.37845" lon="5.08539">
        <ele>201.8</ele>
        <time>2021-12-09T12:55:37Z</time>
      </trkpt>
      <trkpt lat="46.37817" lon="5.08529">
        <ele>203</ele>
        <time>2021-12-09T12:55:42Z</time>
      </trkpt>
      <trkpt lat="46.37799" lon="5.08519">
        <ele>204.4</ele>
        <time>2021-12-09T12:55:46Z</time>
      </trkpt>
      <trkpt lat="46.37788" lon="5.08515">
        <ele>205.4</ele>
        <time>2021-12-09T12:55:48Z</time>
      </trkpt>
      <trkpt lat="46.37784" lon="5.08514">
        <ele>205.8</ele>
        <time>2021-12-09T12:55:49Z</time>
      </trkpt>
      <trkpt lat="46.37779" lon="5.08513">
        <ele>206.4</ele>
        <time>2021-12-09T12:55:50Z</time>
      </trkpt>
      <trkpt lat="46.3777" lon="5.08513">
        <ele>207</ele>
        <time>2021-12-09T12:55:52Z</time>
      </trkpt>
      <trkpt lat="46.37764" lon="5.08514">
        <ele>207.6</ele>
        <time>2021-12-09T12:55:53Z</time>
      </trkpt>
      <trkpt lat="46.37753" lon="5.08517">
        <ele>208</ele>
        <time>2021-12-09T12:55:55Z</time>
      </trkpt>
      <trkpt lat="46.37729" lon="5.0852">
        <ele>208.2</ele>
        <time>2021-12-09T12:55:59Z</time>
      </trkpt>
      <trkpt lat="46.37689" lon="5.08519">
        <ele>207.8</ele>
        <time>2021-12-09T12:56:05Z</time>
      </trkpt>
      <trkpt lat="46.37654" lon="5.0851">
        <ele>206.2</ele>
        <time>2021-12-09T12:56:09Z</time>
      </trkpt>
      <trkpt lat="46.37646" lon="5.08508">
        <ele>205.8</ele>
        <time>2021-12-09T12:56:10Z</time>
      </trkpt>
      <trkpt lat="46.37637" lon="5.08506">
        <ele>205</ele>
        <time>2021-12-09T12:56:11Z</time>
      </trkpt>
      <trkpt lat="46.37617" lon="5.08501">
        <ele>203.6</ele>
        <time>2021-12-09T12:56:13Z</time>
      </trkpt>
      <trkpt lat="46.3759" lon="5.08495">
        <ele>202.2</ele>
        <time>2021-12-09T12:56:16Z</time>
      </trkpt>
      <trkpt lat="46.3757" lon="5.08492">
        <ele>201.2</ele>
        <time>2021-12-09T12:56:18Z</time>
      </trkpt>
      <trkpt lat="46.37535" lon="5.08487">
        <ele>199.8</ele>
        <time>2021-12-09T12:56:22Z</time>
      </trkpt>
      <trkpt lat="46.37511" lon="5.08484">
        <ele>199.2</ele>
        <time>2021-12-09T12:56:25Z</time>
      </trkpt>
      <trkpt lat="46.37492" lon="5.08483">
        <ele>198.6</ele>
        <time>2021-12-09T12:56:27Z</time>
      </trkpt>
      <trkpt lat="46.37451" lon="5.08485">
        <ele>198.4</ele>
        <time>2021-12-09T12:56:32Z</time>
      </trkpt>
      <trkpt lat="46.37414" lon="5.085">
        <ele>198</ele>
        <time>2021-12-09T12:56:37Z</time>
      </trkpt>
      <trkpt lat="46.37378" lon="5.08513">
        <ele>198</ele>
        <time>2021-12-09T12:56:42Z</time>
      </trkpt>
      <trkpt lat="46.3733" lon="5.08529">
        <ele>198.2</ele>
        <time>2021-12-09T12:56:49Z</time>
      </trkpt>
      <trkpt lat="46.37289" lon="5.08557">
        <ele>198.6</ele>
        <time>2021-12-09T12:56:56Z</time>
      </trkpt>
      <trkpt lat="46.37237" lon="5.08595">
        <ele>199.4</ele>
        <time>2021-12-09T12:57:05Z</time>
      </trkpt>
      <trkpt lat="46.37232" lon="5.08597">
        <ele>199.4</ele>
        <time>2021-12-09T12:57:06Z</time>
      </trkpt>
      <trkpt lat="46.37216" lon="5.08602">
        <ele>199.8</ele>
        <time>2021-12-09T12:57:09Z</time>
      </trkpt>
      <trkpt lat="46.3721" lon="5.08604">
        <ele>200</ele>
        <time>2021-12-09T12:57:11Z</time>
      </trkpt>
      <trkpt lat="46.37209" lon="5.08604">
        <ele>200</ele>
        <time>2021-12-09T12:57:12Z</time>
      </trkpt>
      <trkpt lat="46.37208" lon="5.08605">
        <ele>200.2</ele>
        <time>2021-12-09T12:57:13Z</time>
      </trkpt>
      <trkpt lat="46.37207" lon="5.08605">
        <ele>200.4</ele>
        <time>2021-12-09T12:57:15Z</time>
      </trkpt>
      <trkpt lat="46.37207" lon="5.08605">
        <ele>200.6</ele>
        <time>2021-12-09T12:57:16Z</time>
      </trkpt>
      <trkpt lat="46.37203" lon="5.08605">
        <ele>200.8</ele>
        <time>2021-12-09T12:58:53Z</time>
      </trkpt>
      <trkpt lat="46.37196" lon="5.08606">
        <ele>200.6</ele>
        <time>2021-12-09T12:58:55Z</time>
      </trkpt>
      <trkpt lat="46.37173" lon="5.0861">
        <ele>200.6</ele>
        <time>2021-12-09T12:59:00Z</time>
      </trkpt>
      <trkpt lat="46.37146" lon="5.08612">
        <ele>201</ele>
        <time>2021-12-09T12:59:05Z</time>
      </trkpt>
      <trkpt lat="46.37134" lon="5.08612">
        <ele>201</ele>
        <time>2021-12-09T12:59:07Z</time>
      </trkpt>
      <trkpt lat="46.37118" lon="5.08612">
        <ele>201.2</ele>
        <time>2021-12-09T12:59:10Z</time>
      </trkpt>
      <trkpt lat="46.37102" lon="5.08606">
        <ele>201.4</ele>
        <time>2021-12-09T12:59:13Z</time>
      </trkpt>
      <trkpt lat="46.37083" lon="5.08595">
        <ele>201.6</ele>
        <time>2021-12-09T12:59:17Z</time>
      </trkpt>
      <trkpt lat="46.37074" lon="5.0859">
        <ele>201.8</ele>
        <time>2021-12-09T12:59:19Z</time>
      </trkpt>
      <trkpt lat="46.37071" lon="5.08588">
        <ele>202.2</ele>
        <time>2021-12-09T12:59:20Z</time>
      </trkpt>
      <trkpt lat="46.37062" lon="5.08584">
        <ele>203.2</ele>
        <time>2021-12-09T12:59:22Z</time>
      </trkpt>
      <trkpt lat="46.37047" lon="5.08578">
        <ele>204.2</ele>
        <time>2021-12-09T12:59:26Z</time>
      </trkpt>
      <trkpt lat="46.37033" lon="5.08575">
        <ele>205.6</ele>
        <time>2021-12-09T12:59:30Z</time>
      </trkpt>
      <trkpt lat="46.37025" lon="5.08573">
        <ele>206</ele>
        <time>2021-12-09T12:59:32Z</time>
      </trkpt>
      <trkpt lat="46.37019" lon="5.08572">
        <ele>206.6</ele>
        <time>2021-12-09T12:59:34Z</time>
      </trkpt>
      <trkpt lat="46.37007" lon="5.08571">
        <ele>207.8</ele>
        <time>2021-12-09T12:59:37Z</time>
      </trkpt>
      <trkpt lat="46.36991" lon="5.08568">
        <ele>208.6</ele>
        <time>2021-12-09T12:59:41Z</time>
      </trkpt>
      <trkpt lat="46.36987" lon="5.08567">
        <ele>209</ele>
        <time>2021-12-09T12:59:42Z</time>
      </trkpt>
      <trkpt lat="46.36966" lon="5.08556">
        <ele>210.2</ele>
        <time>2021-12-09T12:59:47Z</time>
      </trkpt>
      <trkpt lat="46.36963" lon="5.08554">
        <ele>210.4</ele>
        <time>2021-12-09T12:59:48Z</time>
      </trkpt>
      <trkpt lat="46.36934" lon="5.08535">
        <ele>211.4</ele>
        <time>2021-12-09T12:59:55Z</time>
      </trkpt>
      <trkpt lat="46.36931" lon="5.08531">
        <ele>211.6</ele>
        <time>2021-12-09T12:59:56Z</time>
      </trkpt>
      <trkpt lat="46.36929" lon="5.08527">
        <ele>211.6</ele>
        <time>2021-12-09T12:59:57Z</time>
      </trkpt>
      <trkpt lat="46.36923" lon="5.08507">
        <ele>211.8</ele>
        <time>2021-12-09T13:00:00Z</time>
      </trkpt>
      <trkpt lat="46.36921" lon="5.08501">
        <ele>212</ele>
        <time>2021-12-09T13:00:01Z</time>
      </trkpt>
      <trkpt lat="46.36915" lon="5.08493">
        <ele>212</ele>
        <time>2021-12-09T13:00:03Z</time>
      </trkpt>
      <trkpt lat="46.36909" lon="5.0849">
        <ele>212.2</ele>
        <time>2021-12-09T13:00:04Z</time>
      </trkpt>
      <trkpt lat="46.36904" lon="5.08487">
        <ele>212.2</ele>
        <time>2021-12-09T13:00:05Z</time>
      </trkpt>
      <trkpt lat="46.36885" lon="5.08485">
        <ele>212.4</ele>
        <time>2021-12-09T13:00:09Z</time>
      </trkpt>
      <trkpt lat="46.36871" lon="5.08484">
        <ele>212.6</ele>
        <time>2021-12-09T13:00:12Z</time>
      </trkpt>
      <trkpt lat="46.36852" lon="5.08477">
        <ele>212.8</ele>
        <time>2021-12-09T13:00:16Z</time>
      </trkpt>
      <trkpt lat="46.36842" lon="5.08474">
        <ele>212.8</ele>
        <time>2021-12-09T13:00:18Z</time>
      </trkpt>
      <trkpt lat="46.36827" lon="5.08466">
        <ele>212.8</ele>
        <time>2021-12-09T13:00:22Z</time>
      </trkpt>
      <trkpt lat="46.36815" lon="5.08463">
        <ele>213</ele>
        <time>2021-12-09T13:00:26Z</time>
      </trkpt>
      <trkpt lat="46.36813" lon="5.08464">
        <ele>213</ele>
        <time>2021-12-09T13:00:27Z</time>
      </trkpt>
      <trkpt lat="46.3681" lon="5.08473">
        <ele>213</ele>
        <time>2021-12-09T13:00:29Z</time>
      </trkpt>
      <trkpt lat="46.36814" lon="5.08502">
        <ele>213.2</ele>
        <time>2021-12-09T13:00:33Z</time>
      </trkpt>
      <trkpt lat="46.36821" lon="5.08561">
        <ele>213.2</ele>
        <time>2021-12-09T13:00:40Z</time>
      </trkpt>
      <trkpt lat="46.36831" lon="5.08639">
        <ele>212.6</ele>
        <time>2021-12-09T13:00:48Z</time>
      </trkpt>
      <trkpt lat="46.36837" lon="5.08694">
        <ele>212.2</ele>
        <time>2021-12-09T13:00:53Z</time>
      </trkpt>
      <trkpt lat="46.36839" lon="5.08716">
        <ele>211.4</ele>
        <time>2021-12-09T13:00:55Z</time>
      </trkpt>
      <trkpt lat="46.36845" lon="5.08767">
        <ele>210</ele>
        <time>2021-12-09T13:00:59Z</time>
      </trkpt>
      <trkpt lat="46.36846" lon="5.08781">
        <ele>209.6</ele>
        <time>2021-12-09T13:01:00Z</time>
      </trkpt>
      <trkpt lat="46.36848" lon="5.08797">
        <ele>209</ele>
        <time>2021-12-09T13:01:01Z</time>
      </trkpt>
      <trkpt lat="46.36852" lon="5.08836">
        <ele>207.2</ele>
        <time>2021-12-09T13:01:04Z</time>
      </trkpt>
      <trkpt lat="46.36856" lon="5.08864">
        <ele>206</ele>
        <time>2021-12-09T13:01:06Z</time>
      </trkpt>
      <trkpt lat="46.36858" lon="5.08881">
        <ele>205.6</ele>
        <time>2021-12-09T13:01:07Z</time>
      </trkpt>
      <trkpt lat="46.36861" lon="5.08907">
        <ele>204.8</ele>
        <time>2021-12-09T13:01:09Z</time>
      </trkpt>
      <trkpt lat="46.36866" lon="5.08951">
        <ele>203.8</ele>
        <time>2021-12-09T13:01:12Z</time>
      </trkpt>
      <trkpt lat="46.36872" lon="5.09001">
        <ele>202.8</ele>
        <time>2021-12-09T13:01:16Z</time>
      </trkpt>
      <trkpt lat="46.36873" lon="5.09013">
        <ele>202.8</ele>
        <time>2021-12-09T13:01:17Z</time>
      </trkpt>
      <trkpt lat="46.3688" lon="5.09075">
        <ele>203.4</ele>
        <time>2021-12-09T13:01:23Z</time>
      </trkpt>
      <trkpt lat="46.36881" lon="5.09087">
        <ele>203.8</ele>
        <time>2021-12-09T13:01:24Z</time>
      </trkpt>
      <trkpt lat="46.36881" lon="5.09096">
        <ele>204</ele>
        <time>2021-12-09T13:01:25Z</time>
      </trkpt>
      <trkpt lat="46.36882" lon="5.09121">
        <ele>205.2</ele>
        <time>2021-12-09T13:01:28Z</time>
      </trkpt>
      <trkpt lat="46.36882" lon="5.09147">
        <ele>206</ele>
        <time>2021-12-09T13:01:31Z</time>
      </trkpt>
      <trkpt lat="46.36882" lon="5.09161">
        <ele>206.6</ele>
        <time>2021-12-09T13:01:33Z</time>
      </trkpt>
      <trkpt lat="46.36882" lon="5.0917">
        <ele>206.6</ele>
        <time>2021-12-09T13:01:34Z</time>
      </trkpt>
      <trkpt lat="46.36881" lon="5.09178">
        <ele>207.2</ele>
        <time>2021-12-09T13:01:35Z</time>
      </trkpt>
      <trkpt lat="46.3688" lon="5.09199">
        <ele>208.6</ele>
        <time>2021-12-09T13:01:38Z</time>
      </trkpt>
      <trkpt lat="46.36879" lon="5.09229">
        <ele>209.4</ele>
        <time>2021-12-09T13:01:42Z</time>
      </trkpt>
      <trkpt lat="46.36878" lon="5.09238">
        <ele>209.8</ele>
        <time>2021-12-09T13:01:43Z</time>
      </trkpt>
      <trkpt lat="46.36877" lon="5.09292">
        <ele>210.4</ele>
        <time>2021-12-09T13:01:49Z</time>
      </trkpt>
      <trkpt lat="46.36875" lon="5.09364">
        <ele>209.8</ele>
        <time>2021-12-09T13:01:56Z</time>
      </trkpt>
      <trkpt lat="46.36875" lon="5.0939">
        <ele>209.2</ele>
        <time>2021-12-09T13:01:58Z</time>
      </trkpt>
      <trkpt lat="46.36873" lon="5.09451">
        <ele>208</ele>
        <time>2021-12-09T13:02:03Z</time>
      </trkpt>
      <trkpt lat="46.36872" lon="5.09537">
        <ele>207</ele>
        <time>2021-12-09T13:02:11Z</time>
      </trkpt>
      <trkpt lat="46.3687" lon="5.09604">
        <ele>207.4</ele>
        <time>2021-12-09T13:02:18Z</time>
      </trkpt>
      <trkpt lat="46.36869" lon="5.09666">
        <ele>209.2</ele>
        <time>2021-12-09T13:02:25Z</time>
      </trkpt>
      <trkpt lat="46.36869" lon="5.09693">
        <ele>209.4</ele>
        <time>2021-12-09T13:02:28Z</time>
      </trkpt>
      <trkpt lat="46.36867" lon="5.09776">
        <ele>209.2</ele>
        <time>2021-12-09T13:02:36Z</time>
      </trkpt>
      <trkpt lat="46.36867" lon="5.09787">
        <ele>209</ele>
        <time>2021-12-09T13:02:37Z</time>
      </trkpt>
      <trkpt lat="46.36866" lon="5.09835">
        <ele>208</ele>
        <time>2021-12-09T13:02:41Z</time>
      </trkpt>
      <trkpt lat="46.36865" lon="5.09871">
        <ele>207</ele>
        <time>2021-12-09T13:02:44Z</time>
      </trkpt>
      <trkpt lat="46.36865" lon="5.0991">
        <ele>205.8</ele>
        <time>2021-12-09T13:02:47Z</time>
      </trkpt>
      <trkpt lat="46.36864" lon="5.09941">
        <ele>204.8</ele>
        <time>2021-12-09T13:02:49Z</time>
      </trkpt>
      <trkpt lat="46.36864" lon="5.09968">
        <ele>203.8</ele>
        <time>2021-12-09T13:02:51Z</time>
      </trkpt>
      <trkpt lat="46.36863" lon="5.0998">
        <ele>203</ele>
        <time>2021-12-09T13:02:52Z</time>
      </trkpt>
      <trkpt lat="46.36862" lon="5.10011">
        <ele>202</ele>
        <time>2021-12-09T13:02:54Z</time>
      </trkpt>
      <trkpt lat="46.36862" lon="5.1004">
        <ele>200.8</ele>
        <time>2021-12-09T13:02:56Z</time>
      </trkpt>
      <trkpt lat="46.36861" lon="5.10067">
        <ele>199.8</ele>
        <time>2021-12-09T13:02:58Z</time>
      </trkpt>
      <trkpt lat="46.36861" lon="5.10085">
        <ele>199</ele>
        <time>2021-12-09T13:02:59Z</time>
      </trkpt>
      <trkpt lat="46.3686" lon="5.101">
        <ele>198.2</ele>
        <time>2021-12-09T13:03:00Z</time>
      </trkpt>
      <trkpt lat="46.3686" lon="5.10144">
        <ele>197</ele>
        <time>2021-12-09T13:03:03Z</time>
      </trkpt>
      <trkpt lat="46.36859" lon="5.10174">
        <ele>196</ele>
        <time>2021-12-09T13:03:05Z</time>
      </trkpt>
      <trkpt lat="46.36859" lon="5.10217">
        <ele>194.6</ele>
        <time>2021-12-09T13:03:08Z</time>
      </trkpt>
      <trkpt lat="46.36859" lon="5.10245">
        <ele>193.8</ele>
        <time>2021-12-09T13:03:10Z</time>
      </trkpt>
      <trkpt lat="46.36858" lon="5.10269">
        <ele>193.4</ele>
        <time>2021-12-09T13:03:12Z</time>
      </trkpt>
      <trkpt lat="46.36855" lon="5.10336">
        <ele>192.6</ele>
        <time>2021-12-09T13:03:17Z</time>
      </trkpt>
      <trkpt lat="46.3685" lon="5.1037">
        <ele>192.4</ele>
        <time>2021-12-09T13:03:20Z</time>
      </trkpt>
      <trkpt lat="46.36842" lon="5.10405">
        <ele>192.2</ele>
        <time>2021-12-09T13:03:23Z</time>
      </trkpt>
      <trkpt lat="46.36824" lon="5.10489">
        <ele>192.4</ele>
        <time>2021-12-09T13:03:31Z</time>
      </trkpt>
      <trkpt lat="46.36806" lon="5.1056">
        <ele>192.4</ele>
        <time>2021-12-09T13:03:38Z</time>
      </trkpt>
      <trkpt lat="46.36783" lon="5.10612">
        <ele>192.8</ele>
        <time>2021-12-09T13:03:44Z</time>
      </trkpt>
      <trkpt lat="46.3678" lon="5.10618">
        <ele>192.8</ele>
        <time>2021-12-09T13:03:45Z</time>
      </trkpt>
      <trkpt lat="46.36774" lon="5.10639">
        <ele>192.8</ele>
        <time>2021-12-09T13:03:47Z</time>
      </trkpt>
      <trkpt lat="46.36773" lon="5.10649">
        <ele>192.8</ele>
        <time>2021-12-09T13:03:48Z</time>
      </trkpt>
      <trkpt lat="46.36772" lon="5.10667">
        <ele>192.8</ele>
        <time>2021-12-09T13:03:50Z</time>
      </trkpt>
      <trkpt lat="46.36773" lon="5.1069">
        <ele>192.6</ele>
        <time>2021-12-09T13:03:52Z</time>
      </trkpt>
      <trkpt lat="46.36781" lon="5.10768">
        <ele>192.4</ele>
        <time>2021-12-09T13:04:00Z</time>
      </trkpt>
      <trkpt lat="46.36783" lon="5.1078">
        <ele>192.4</ele>
        <time>2021-12-09T13:04:01Z</time>
      </trkpt>
      <trkpt lat="46.36797" lon="5.10865">
        <ele>192.4</ele>
        <time>2021-12-09T13:04:10Z</time>
      </trkpt>
      <trkpt lat="46.36813" lon="5.10942">
        <ele>192.6</ele>
        <time>2021-12-09T13:04:18Z</time>
      </trkpt>
      <trkpt lat="46.36814" lon="5.10952">
        <ele>192.6</ele>
        <time>2021-12-09T13:04:19Z</time>
      </trkpt>
      <trkpt lat="46.36832" lon="5.11029">
        <ele>192.6</ele>
        <time>2021-12-09T13:04:27Z</time>
      </trkpt>
      <trkpt lat="46.36834" lon="5.11037">
        <ele>192.6</ele>
        <time>2021-12-09T13:04:28Z</time>
      </trkpt>
      <trkpt lat="46.36853" lon="5.11115">
        <ele>192.4</ele>
        <time>2021-12-09T13:04:36Z</time>
      </trkpt>
      <trkpt lat="46.36861" lon="5.11142">
        <ele>192.4</ele>
        <time>2021-12-09T13:04:39Z</time>
      </trkpt>
      <trkpt lat="46.36878" lon="5.11215">
        <ele>192.6</ele>
        <time>2021-12-09T13:04:47Z</time>
      </trkpt>
      <trkpt lat="46.36888" lon="5.11276">
        <ele>193</ele>
        <time>2021-12-09T13:04:54Z</time>
      </trkpt>
      <trkpt lat="46.36895" lon="5.11338">
        <ele>193.8</ele>
        <time>2021-12-09T13:05:01Z</time>
      </trkpt>
      <trkpt lat="46.36898" lon="5.11363">
        <ele>194.2</ele>
        <time>2021-12-09T13:05:04Z</time>
      </trkpt>
      <trkpt lat="46.36904" lon="5.1143">
        <ele>194.8</ele>
        <time>2021-12-09T13:05:12Z</time>
      </trkpt>
      <trkpt lat="46.36908" lon="5.11474">
        <ele>196</ele>
        <time>2021-12-09T13:05:18Z</time>
      </trkpt>
      <trkpt lat="46.3691" lon="5.11486">
        <ele>196.4</ele>
        <time>2021-12-09T13:05:20Z</time>
      </trkpt>
      <trkpt lat="46.36913" lon="5.11511">
        <ele>197.2</ele>
        <time>2021-12-09T13:05:24Z</time>
      </trkpt>
      <trkpt lat="46.36914" lon="5.1153">
        <ele>198</ele>
        <time>2021-12-09T13:05:27Z</time>
      </trkpt>
      <trkpt lat="46.36914" lon="5.11542">
        <ele>198.4</ele>
        <time>2021-12-09T13:05:29Z</time>
      </trkpt>
      <trkpt lat="46.36915" lon="5.11565">
        <ele>199.6</ele>
        <time>2021-12-09T13:05:33Z</time>
      </trkpt>
      <trkpt lat="46.36917" lon="5.1158">
        <ele>200.6</ele>
        <time>2021-12-09T13:05:36Z</time>
      </trkpt>
      <trkpt lat="46.36917" lon="5.11586">
        <ele>200.8</ele>
        <time>2021-12-09T13:05:37Z</time>
      </trkpt>
      <trkpt lat="46.36919" lon="5.11599">
        <ele>201.8</ele>
        <time>2021-12-09T13:05:40Z</time>
      </trkpt>
      <trkpt lat="46.36921" lon="5.11613">
        <ele>202.8</ele>
        <time>2021-12-09T13:05:43Z</time>
      </trkpt>
      <trkpt lat="46.36921" lon="5.11617">
        <ele>203</ele>
        <time>2021-12-09T13:05:44Z</time>
      </trkpt>
      <trkpt lat="46.36922" lon="5.1163">
        <ele>204</ele>
        <time>2021-12-09T13:05:47Z</time>
      </trkpt>
      <trkpt lat="46.36923" lon="5.11644">
        <ele>205</ele>
        <time>2021-12-09T13:05:50Z</time>
      </trkpt>
      <trkpt lat="46.36924" lon="5.11657">
        <ele>205.6</ele>
        <time>2021-12-09T13:05:53Z</time>
      </trkpt>
      <trkpt lat="46.36924" lon="5.11662">
        <ele>206.2</ele>
        <time>2021-12-09T13:05:54Z</time>
      </trkpt>
      <trkpt lat="46.36924" lon="5.11681">
        <ele>207.4</ele>
        <time>2021-12-09T13:05:58Z</time>
      </trkpt>
      <trkpt lat="46.36923" lon="5.11701">
        <ele>208.2</ele>
        <time>2021-12-09T13:06:02Z</time>
      </trkpt>
      <trkpt lat="46.36922" lon="5.11706">
        <ele>208.6</ele>
        <time>2021-12-09T13:06:03Z</time>
      </trkpt>
      <trkpt lat="46.3692" lon="5.11731">
        <ele>210.2</ele>
        <time>2021-12-09T13:06:08Z</time>
      </trkpt>
      <trkpt lat="46.36919" lon="5.11746">
        <ele>210.8</ele>
        <time>2021-12-09T13:06:11Z</time>
      </trkpt>
      <trkpt lat="46.36917" lon="5.11758">
        <ele>211.2</ele>
        <time>2021-12-09T13:06:13Z</time>
      </trkpt>
      <trkpt lat="46.3691" lon="5.11798">
        <ele>212</ele>
        <time>2021-12-09T13:06:20Z</time>
      </trkpt>
      <trkpt lat="46.36906" lon="5.11821">
        <ele>212.2</ele>
        <time>2021-12-09T13:06:24Z</time>
      </trkpt>
      <trkpt lat="46.36906" lon="5.11834">
        <ele>212.2</ele>
        <time>2021-12-09T13:06:26Z</time>
      </trkpt>
      <trkpt lat="46.36906" lon="5.11847">
        <ele>212.2</ele>
        <time>2021-12-09T13:06:28Z</time>
      </trkpt>
      <trkpt lat="46.36906" lon="5.1186">
        <ele>212.2</ele>
        <time>2021-12-09T13:06:30Z</time>
      </trkpt>
      <trkpt lat="46.36903" lon="5.11872">
        <ele>212</ele>
        <time>2021-12-09T13:06:32Z</time>
      </trkpt>
      <trkpt lat="46.36895" lon="5.11878">
        <ele>212</ele>
        <time>2021-12-09T13:06:34Z</time>
      </trkpt>
      <trkpt lat="46.3689" lon="5.1188">
        <ele>212</ele>
        <time>2021-12-09T13:06:35Z</time>
      </trkpt>
      <trkpt lat="46.36886" lon="5.1188">
        <ele>212</ele>
        <time>2021-12-09T13:06:36Z</time>
      </trkpt>
      <trkpt lat="46.36871" lon="5.11885">
        <ele>211.8</ele>
        <time>2021-12-09T13:06:39Z</time>
      </trkpt>
      <trkpt lat="46.36867" lon="5.11887">
        <ele>211.8</ele>
        <time>2021-12-09T13:06:40Z</time>
      </trkpt>
      <trkpt lat="46.36864" lon="5.11891">
        <ele>211.8</ele>
        <time>2021-12-09T13:06:41Z</time>
      </trkpt>
      <trkpt lat="46.36862" lon="5.11903">
        <ele>211.8</ele>
        <time>2021-12-09T13:06:43Z</time>
      </trkpt>
      <trkpt lat="46.36864" lon="5.11961">
        <ele>211.2</ele>
        <time>2021-12-09T13:06:51Z</time>
      </trkpt>
      <trkpt lat="46.36864" lon="5.11976">
        <ele>211</ele>
        <time>2021-12-09T13:06:53Z</time>
      </trkpt>
      <trkpt lat="46.3686" lon="5.11989">
        <ele>210.8</ele>
        <time>2021-12-09T13:06:55Z</time>
      </trkpt>
      <trkpt lat="46.36856" lon="5.11994">
        <ele>210.2</ele>
        <time>2021-12-09T13:06:56Z</time>
      </trkpt>
      <trkpt lat="46.3685" lon="5.11997">
        <ele>209.8</ele>
        <time>2021-12-09T13:06:57Z</time>
      </trkpt>
      <trkpt lat="46.36845" lon="5.12">
        <ele>208.8</ele>
        <time>2021-12-09T13:06:58Z</time>
      </trkpt>
      <trkpt lat="46.36825" lon="5.12011">
        <ele>207.8</ele>
        <time>2021-12-09T13:07:02Z</time>
      </trkpt>
      <trkpt lat="46.36808" lon="5.12023">
        <ele>207.6</ele>
        <time>2021-12-09T13:07:06Z</time>
      </trkpt>
      <trkpt lat="46.36799" lon="5.12031">
        <ele>207.4</ele>
        <time>2021-12-09T13:07:08Z</time>
      </trkpt>
      <trkpt lat="46.36784" lon="5.12045">
        <ele>207.6</ele>
        <time>2021-12-09T13:07:12Z</time>
      </trkpt>
      <trkpt lat="46.36781" lon="5.12049">
        <ele>207.6</ele>
        <time>2021-12-09T13:07:13Z</time>
      </trkpt>
      <trkpt lat="46.36774" lon="5.12058">
        <ele>207.6</ele>
        <time>2021-12-09T13:07:15Z</time>
      </trkpt>
      <trkpt lat="46.3677" lon="5.1207">
        <ele>207.6</ele>
        <time>2021-12-09T13:07:17Z</time>
      </trkpt>
      <trkpt lat="46.36768" lon="5.12089">
        <ele>207.6</ele>
        <time>2021-12-09T13:07:20Z</time>
      </trkpt>
      <trkpt lat="46.36763" lon="5.121">
        <ele>207.2</ele>
        <time>2021-12-09T13:07:23Z</time>
      </trkpt>
      <trkpt lat="46.36755" lon="5.12104">
        <ele>207</ele>
        <time>2021-12-09T13:07:25Z</time>
      </trkpt>
      <trkpt lat="46.36745" lon="5.12105">
        <ele>206.8</ele>
        <time>2021-12-09T13:07:27Z</time>
      </trkpt>
      <trkpt lat="46.36739" lon="5.12106">
        <ele>207</ele>
        <time>2021-12-09T13:07:28Z</time>
      </trkpt>
      <trkpt lat="46.36717" lon="5.12111">
        <ele>207</ele>
        <time>2021-12-09T13:07:32Z</time>
      </trkpt>
      <trkpt lat="46.36711" lon="5.12112">
        <ele>207.2</ele>
        <time>2021-12-09T13:07:33Z</time>
      </trkpt>
      <trkpt lat="46.36678" lon="5.1212">
        <ele>208.8</ele>
        <time>2021-12-09T13:07:39Z</time>
      </trkpt>
      <trkpt lat="46.36672" lon="5.12121">
        <ele>209</ele>
        <time>2021-12-09T13:07:40Z</time>
      </trkpt>
      <trkpt lat="46.36636" lon="5.1213">
        <ele>209.8</ele>
        <time>2021-12-09T13:07:46Z</time>
      </trkpt>
      <trkpt lat="46.36624" lon="5.12133">
        <ele>210</ele>
        <time>2021-12-09T13:07:48Z</time>
      </trkpt>
      <trkpt lat="46.36585" lon="5.12142">
        <ele>210.2</ele>
        <time>2021-12-09T13:07:54Z</time>
      </trkpt>
      <trkpt lat="46.3656" lon="5.12149">
        <ele>209.8</ele>
        <time>2021-12-09T13:07:58Z</time>
      </trkpt>
      <trkpt lat="46.36542" lon="5.12157">
        <ele>209.4</ele>
        <time>2021-12-09T13:08:01Z</time>
      </trkpt>
      <trkpt lat="46.36534" lon="5.1217">
        <ele>209.2</ele>
        <time>2021-12-09T13:08:03Z</time>
      </trkpt>
      <trkpt lat="46.36533" lon="5.12179">
        <ele>209</ele>
        <time>2021-12-09T13:08:04Z</time>
      </trkpt>
      <trkpt lat="46.36533" lon="5.12189">
        <ele>209</ele>
        <time>2021-12-09T13:08:05Z</time>
      </trkpt>
      <trkpt lat="46.36533" lon="5.12241">
        <ele>208.2</ele>
        <time>2021-12-09T13:08:10Z</time>
      </trkpt>
      <trkpt lat="46.36533" lon="5.12252">
        <ele>208</ele>
        <time>2021-12-09T13:08:11Z</time>
      </trkpt>
      <trkpt lat="46.36535" lon="5.12326">
        <ele>206.8</ele>
        <time>2021-12-09T13:08:16Z</time>
      </trkpt>
      <trkpt lat="46.36534" lon="5.12353">
        <ele>205.4</ele>
        <time>2021-12-09T13:08:18Z</time>
      </trkpt>
      <trkpt lat="46.36532" lon="5.12381">
        <ele>204.4</ele>
        <time>2021-12-09T13:08:20Z</time>
      </trkpt>
      <trkpt lat="46.36529" lon="5.12409">
        <ele>203.4</ele>
        <time>2021-12-09T13:08:22Z</time>
      </trkpt>
      <trkpt lat="46.36528" lon="5.12423">
        <ele>203</ele>
        <time>2021-12-09T13:08:23Z</time>
      </trkpt>
      <trkpt lat="46.36527" lon="5.12438">
        <ele>201.8</ele>
        <time>2021-12-09T13:08:24Z</time>
      </trkpt>
      <trkpt lat="46.36524" lon="5.12466">
        <ele>200.2</ele>
        <time>2021-12-09T13:08:26Z</time>
      </trkpt>
      <trkpt lat="46.36523" lon="5.12481">
        <ele>198.6</ele>
        <time>2021-12-09T13:08:27Z</time>
      </trkpt>
      <trkpt lat="46.36523" lon="5.12496">
        <ele>197.4</ele>
        <time>2021-12-09T13:08:29Z</time>
      </trkpt>
      <trkpt lat="46.3652" lon="5.12539">
        <ele>195.8</ele>
        <time>2021-12-09T13:08:31Z</time>
      </trkpt>
      <trkpt lat="46.36518" lon="5.12581">
        <ele>194.8</ele>
        <time>2021-12-09T13:08:34Z</time>
      </trkpt>
      <trkpt lat="46.36517" lon="5.12623">
        <ele>194</ele>
        <time>2021-12-09T13:08:37Z</time>
      </trkpt>
      <trkpt lat="46.36517" lon="5.12637">
        <ele>193.6</ele>
        <time>2021-12-09T13:08:38Z</time>
      </trkpt>
      <trkpt lat="46.36518" lon="5.12678">
        <ele>192.4</ele>
        <time>2021-12-09T13:08:42Z</time>
      </trkpt>
      <trkpt lat="46.36521" lon="5.12717">
        <ele>192</ele>
        <time>2021-12-09T13:08:44Z</time>
      </trkpt>
      <trkpt lat="46.36526" lon="5.12768">
        <ele>191.4</ele>
        <time>2021-12-09T13:08:48Z</time>
      </trkpt>
      <trkpt lat="46.36534" lon="5.12829">
        <ele>190.8</ele>
        <time>2021-12-09T13:08:53Z</time>
      </trkpt>
      <trkpt lat="46.36545" lon="5.12911">
        <ele>190.4</ele>
        <time>2021-12-09T13:09:00Z</time>
      </trkpt>
      <trkpt lat="46.36549" lon="5.12945">
        <ele>190.4</ele>
        <time>2021-12-09T13:09:03Z</time>
      </trkpt>
      <trkpt lat="46.36555" lon="5.13002">
        <ele>190.4</ele>
        <time>2021-12-09T13:09:08Z</time>
      </trkpt>
      <trkpt lat="46.36559" lon="5.13032">
        <ele>190.4</ele>
        <time>2021-12-09T13:09:12Z</time>
      </trkpt>
      <trkpt lat="46.36571" lon="5.13118">
        <ele>190.4</ele>
        <time>2021-12-09T13:09:19Z</time>
      </trkpt>
      <trkpt lat="46.36571" lon="5.13118">
        <ele>190.4</ele>
        <time>2021-12-09T13:09:20Z</time>
      </trkpt>
      <trkpt lat="46.36583" lon="5.13205">
        <ele>190.4</ele>
        <time>2021-12-09T13:09:27Z</time>
      </trkpt>
      <trkpt lat="46.36592" lon="5.13275">
        <ele>190.4</ele>
        <time>2021-12-09T13:09:34Z</time>
      </trkpt>
      <trkpt lat="46.36602" lon="5.13354">
        <ele>190.2</ele>
        <time>2021-12-09T13:09:42Z</time>
      </trkpt>
      <trkpt lat="46.36607" lon="5.13396">
        <ele>190</ele>
        <time>2021-12-09T13:09:46Z</time>
      </trkpt>
      <trkpt lat="46.36613" lon="5.1345">
        <ele>190.2</ele>
        <time>2021-12-09T13:09:52Z</time>
      </trkpt>
      <trkpt lat="46.36621" lon="5.13521">
        <ele>190.2</ele>
        <time>2021-12-09T13:09:59Z</time>
      </trkpt>
      <trkpt lat="46.36631" lon="5.13593">
        <ele>190.2</ele>
        <time>2021-12-09T13:10:06Z</time>
      </trkpt>
      <trkpt lat="46.36632" lon="5.13605">
        <ele>190.2</ele>
        <time>2021-12-09T13:10:07Z</time>
      </trkpt>
      <trkpt lat="46.36635" lon="5.13634">
        <ele>190.2</ele>
        <time>2021-12-09T13:10:10Z</time>
      </trkpt>
      <trkpt lat="46.36636" lon="5.13654">
        <ele>190</ele>
        <time>2021-12-09T13:10:12Z</time>
      </trkpt>
      <trkpt lat="46.36638" lon="5.13739">
        <ele>190</ele>
        <time>2021-12-09T13:10:21Z</time>
      </trkpt>
      <trkpt lat="46.36638" lon="5.13767">
        <ele>190.4</ele>
        <time>2021-12-09T13:10:24Z</time>
      </trkpt>
      <trkpt lat="46.36637" lon="5.13787">
        <ele>190.4</ele>
        <time>2021-12-09T13:10:26Z</time>
      </trkpt>
      <trkpt lat="46.36634" lon="5.13873">
        <ele>190.6</ele>
        <time>2021-12-09T13:10:35Z</time>
      </trkpt>
      <trkpt lat="46.36635" lon="5.13901">
        <ele>190.6</ele>
        <time>2021-12-09T13:10:38Z</time>
      </trkpt>
      <trkpt lat="46.36634" lon="5.13929">
        <ele>190.6</ele>
        <time>2021-12-09T13:10:41Z</time>
      </trkpt>
      <trkpt lat="46.3663" lon="5.14017">
        <ele>190.4</ele>
        <time>2021-12-09T13:10:50Z</time>
      </trkpt>
      <trkpt lat="46.3663" lon="5.14025">
        <ele>190.4</ele>
        <time>2021-12-09T13:10:51Z</time>
      </trkpt>
      <trkpt lat="46.36623" lon="5.14109">
        <ele>190.6</ele>
        <time>2021-12-09T13:11:00Z</time>
      </trkpt>
      <trkpt lat="46.3662" lon="5.14188">
        <ele>191.2</ele>
        <time>2021-12-09T13:11:09Z</time>
      </trkpt>
      <trkpt lat="46.3662" lon="5.14197">
        <ele>191.6</ele>
        <time>2021-12-09T13:11:10Z</time>
      </trkpt>
      <trkpt lat="46.36619" lon="5.14256">
        <ele>192</ele>
        <time>2021-12-09T13:11:17Z</time>
      </trkpt>
      <trkpt lat="46.3662" lon="5.14272">
        <ele>192.2</ele>
        <time>2021-12-09T13:11:19Z</time>
      </trkpt>
      <trkpt lat="46.36621" lon="5.14295">
        <ele>192.6</ele>
        <time>2021-12-09T13:11:22Z</time>
      </trkpt>
      <trkpt lat="46.36621" lon="5.14295">
        <ele>192.6</ele>
        <time>2021-12-09T13:11:23Z</time>
      </trkpt>
      <trkpt lat="46.36628" lon="5.14341">
        <ele>193.6</ele>
        <time>2021-12-09T13:11:29Z</time>
      </trkpt>
      <trkpt lat="46.36629" lon="5.14347">
        <ele>193.8</ele>
        <time>2021-12-09T13:11:30Z</time>
      </trkpt>
      <trkpt lat="46.36631" lon="5.14365">
        <ele>194.6</ele>
        <time>2021-12-09T13:11:33Z</time>
      </trkpt>
      <trkpt lat="46.36633" lon="5.14377">
        <ele>195.2</ele>
        <time>2021-12-09T13:11:35Z</time>
      </trkpt>
      <trkpt lat="46.36636" lon="5.14395">
        <ele>195.8</ele>
        <time>2021-12-09T13:11:38Z</time>
      </trkpt>
      <trkpt lat="46.36641" lon="5.14424">
        <ele>196.8</ele>
        <time>2021-12-09T13:11:43Z</time>
      </trkpt>
      <trkpt lat="46.36642" lon="5.1443">
        <ele>197.2</ele>
        <time>2021-12-09T13:11:44Z</time>
      </trkpt>
      <trkpt lat="46.36644" lon="5.14441">
        <ele>197.8</ele>
        <time>2021-12-09T13:11:46Z</time>
      </trkpt>
      <trkpt lat="46.36644" lon="5.14441">
        <ele>198</ele>
        <time>2021-12-09T13:11:47Z</time>
      </trkpt>
      <trkpt lat="46.3665" lon="5.14467">
        <ele>199</ele>
        <time>2021-12-09T13:11:52Z</time>
      </trkpt>
      <trkpt lat="46.36656" lon="5.14491">
        <ele>200.6</ele>
        <time>2021-12-09T13:11:56Z</time>
      </trkpt>
      <trkpt lat="46.36659" lon="5.14505">
        <ele>201.4</ele>
        <time>2021-12-09T13:11:59Z</time>
      </trkpt>
      <trkpt lat="46.36661" lon="5.1451">
        <ele>201.8</ele>
        <time>2021-12-09T13:12:00Z</time>
      </trkpt>
      <trkpt lat="46.36667" lon="5.14534">
        <ele>203</ele>
        <time>2021-12-09T13:12:05Z</time>
      </trkpt>
      <trkpt lat="46.36671" lon="5.1455">
        <ele>203.6</ele>
        <time>2021-12-09T13:12:08Z</time>
      </trkpt>
      <trkpt lat="46.36673" lon="5.14559">
        <ele>204</ele>
        <time>2021-12-09T13:12:10Z</time>
      </trkpt>
      <trkpt lat="46.36678" lon="5.14578">
        <ele>205</ele>
        <time>2021-12-09T13:12:14Z</time>
      </trkpt>
      <trkpt lat="46.36681" lon="5.14593">
        <ele>205.8</ele>
        <time>2021-12-09T13:12:17Z</time>
      </trkpt>
      <trkpt lat="46.36682" lon="5.14597">
        <ele>206.4</ele>
        <time>2021-12-09T13:12:18Z</time>
      </trkpt>
      <trkpt lat="46.36689" lon="5.14623">
        <ele>207.4</ele>
        <time>2021-12-09T13:12:23Z</time>
      </trkpt>
      <trkpt lat="46.36695" lon="5.14641">
        <ele>207.8</ele>
        <time>2021-12-09T13:12:26Z</time>
      </trkpt>
      <trkpt lat="46.36697" lon="5.14648">
        <ele>207.8</ele>
        <time>2021-12-09T13:12:27Z</time>
      </trkpt>
      <trkpt lat="46.36699" lon="5.14665">
        <ele>208</ele>
        <time>2021-12-09T13:12:29Z</time>
      </trkpt>
      <trkpt lat="46.36699" lon="5.14677">
        <ele>208</ele>
        <time>2021-12-09T13:12:30Z</time>
      </trkpt>
      <trkpt lat="46.36699" lon="5.14732">
        <ele>207.4</ele>
        <time>2021-12-09T13:12:35Z</time>
      </trkpt>
      <trkpt lat="46.36698" lon="5.14744">
        <ele>206.2</ele>
        <time>2021-12-09T13:12:36Z</time>
      </trkpt>
      <trkpt lat="46.36697" lon="5.14757">
        <ele>205</ele>
        <time>2021-12-09T13:12:37Z</time>
      </trkpt>
      <trkpt lat="46.36696" lon="5.14782">
        <ele>204</ele>
        <time>2021-12-09T13:12:39Z</time>
      </trkpt>
      <trkpt lat="46.36695" lon="5.14808">
        <ele>203</ele>
        <time>2021-12-09T13:12:41Z</time>
      </trkpt>
      <trkpt lat="46.36694" lon="5.14821">
        <ele>202.4</ele>
        <time>2021-12-09T13:12:42Z</time>
      </trkpt>
      <trkpt lat="46.36693" lon="5.14834">
        <ele>201.8</ele>
        <time>2021-12-09T13:12:43Z</time>
      </trkpt>
      <trkpt lat="46.36689" lon="5.14871">
        <ele>200.4</ele>
        <time>2021-12-09T13:12:46Z</time>
      </trkpt>
      <trkpt lat="46.36685" lon="5.14895">
        <ele>199.6</ele>
        <time>2021-12-09T13:12:48Z</time>
      </trkpt>
      <trkpt lat="46.3668" lon="5.14918">
        <ele>199.2</ele>
        <time>2021-12-09T13:12:50Z</time>
      </trkpt>
      <trkpt lat="46.36671" lon="5.14984">
        <ele>199</ele>
        <time>2021-12-09T13:12:56Z</time>
      </trkpt>
      <trkpt lat="46.36668" lon="5.15053">
        <ele>199.6</ele>
        <time>2021-12-09T13:13:03Z</time>
      </trkpt>
      <trkpt lat="46.36666" lon="5.15115">
        <ele>200.4</ele>
        <time>2021-12-09T13:13:10Z</time>
      </trkpt>
      <trkpt lat="46.36668" lon="5.15151">
        <ele>201.4</ele>
        <time>2021-12-09T13:13:15Z</time>
      </trkpt>
      <trkpt lat="46.36669" lon="5.15159">
        <ele>201.6</ele>
        <time>2021-12-09T13:13:16Z</time>
      </trkpt>
      <trkpt lat="46.36672" lon="5.15172">
        <ele>202.4</ele>
        <time>2021-12-09T13:13:18Z</time>
      </trkpt>
      <trkpt lat="46.36676" lon="5.15191">
        <ele>203</ele>
        <time>2021-12-09T13:13:21Z</time>
      </trkpt>
      <trkpt lat="46.36678" lon="5.15203">
        <ele>203.6</ele>
        <time>2021-12-09T13:13:23Z</time>
      </trkpt>
      <trkpt lat="46.36682" lon="5.15221">
        <ele>204.6</ele>
        <time>2021-12-09T13:13:26Z</time>
      </trkpt>
      <trkpt lat="46.36686" lon="5.15238">
        <ele>206</ele>
        <time>2021-12-09T13:13:29Z</time>
      </trkpt>
      <trkpt lat="46.3669" lon="5.1526">
        <ele>207.2</ele>
        <time>2021-12-09T13:13:33Z</time>
      </trkpt>
      <trkpt lat="46.36691" lon="5.15265">
        <ele>207.4</ele>
        <time>2021-12-09T13:13:34Z</time>
      </trkpt>
      <trkpt lat="46.36693" lon="5.15277">
        <ele>208.2</ele>
        <time>2021-12-09T13:13:36Z</time>
      </trkpt>
      <trkpt lat="46.36696" lon="5.15294">
        <ele>209.2</ele>
        <time>2021-12-09T13:13:39Z</time>
      </trkpt>
      <trkpt lat="46.36697" lon="5.153">
        <ele>209.8</ele>
        <time>2021-12-09T13:13:40Z</time>
      </trkpt>
      <trkpt lat="46.36699" lon="5.15311">
        <ele>210.2</ele>
        <time>2021-12-09T13:13:42Z</time>
      </trkpt>
      <trkpt lat="46.36709" lon="5.15341">
        <ele>210.4</ele>
        <time>2021-12-09T13:13:46Z</time>
      </trkpt>
      <trkpt lat="46.36715" lon="5.15367">
        <ele>210.4</ele>
        <time>2021-12-09T13:13:49Z</time>
      </trkpt>
      <trkpt lat="46.36719" lon="5.15385">
        <ele>210.2</ele>
        <time>2021-12-09T13:13:51Z</time>
      </trkpt>
      <trkpt lat="46.36731" lon="5.15425">
        <ele>209.2</ele>
        <time>2021-12-09T13:13:55Z</time>
      </trkpt>
      <trkpt lat="46.36737" lon="5.15447">
        <ele>208.6</ele>
        <time>2021-12-09T13:13:57Z</time>
      </trkpt>
      <trkpt lat="46.3674" lon="5.15459">
        <ele>207.6</ele>
        <time>2021-12-09T13:13:58Z</time>
      </trkpt>
      <trkpt lat="46.3675" lon="5.15495">
        <ele>206</ele>
        <time>2021-12-09T13:14:01Z</time>
      </trkpt>
      <trkpt lat="46.36755" lon="5.15522">
        <ele>205</ele>
        <time>2021-12-09T13:14:03Z</time>
      </trkpt>
      <trkpt lat="46.36755" lon="5.15551">
        <ele>203.8</ele>
        <time>2021-12-09T13:14:05Z</time>
      </trkpt>
      <trkpt lat="46.36752" lon="5.15564">
        <ele>203.6</ele>
        <time>2021-12-09T13:14:06Z</time>
      </trkpt>
      <trkpt lat="46.36744" lon="5.1559">
        <ele>202.4</ele>
        <time>2021-12-09T13:14:08Z</time>
      </trkpt>
      <trkpt lat="46.36735" lon="5.15615">
        <ele>200.8</ele>
        <time>2021-12-09T13:14:10Z</time>
      </trkpt>
      <trkpt lat="46.36731" lon="5.15628">
        <ele>200.6</ele>
        <time>2021-12-09T13:14:11Z</time>
      </trkpt>
      <trkpt lat="46.36728" lon="5.15641">
        <ele>199.8</ele>
        <time>2021-12-09T13:14:12Z</time>
      </trkpt>
      <trkpt lat="46.36721" lon="5.1567">
        <ele>198.8</ele>
        <time>2021-12-09T13:14:14Z</time>
      </trkpt>
      <trkpt lat="46.36715" lon="5.15706">
        <ele>198</ele>
        <time>2021-12-09T13:14:17Z</time>
      </trkpt>
      <trkpt lat="46.36712" lon="5.15734">
        <ele>197.6</ele>
        <time>2021-12-09T13:14:19Z</time>
      </trkpt>
      <trkpt lat="46.36713" lon="5.1576">
        <ele>197</ele>
        <time>2021-12-09T13:14:21Z</time>
      </trkpt>
      <trkpt lat="46.36723" lon="5.15796">
        <ele>196.4</ele>
        <time>2021-12-09T13:14:24Z</time>
      </trkpt>
      <trkpt lat="46.36726" lon="5.15808">
        <ele>196.2</ele>
        <time>2021-12-09T13:14:25Z</time>
      </trkpt>
      <trkpt lat="46.36753" lon="5.15882">
        <ele>195.8</ele>
        <time>2021-12-09T13:14:32Z</time>
      </trkpt>
      <trkpt lat="46.3677" lon="5.15945">
        <ele>195.6</ele>
        <time>2021-12-09T13:14:38Z</time>
      </trkpt>
      <trkpt lat="46.3677" lon="5.15967">
        <ele>195.6</ele>
        <time>2021-12-09T13:14:40Z</time>
      </trkpt>
      <trkpt lat="46.36768" lon="5.15986">
        <ele>195.8</ele>
        <time>2021-12-09T13:14:42Z</time>
      </trkpt>
      <trkpt lat="46.36762" lon="5.16001">
        <ele>196</ele>
        <time>2021-12-09T13:14:44Z</time>
      </trkpt>
      <trkpt lat="46.36751" lon="5.16014">
        <ele>196.4</ele>
        <time>2021-12-09T13:14:46Z</time>
      </trkpt>
      <trkpt lat="46.36728" lon="5.1603">
        <ele>197.2</ele>
        <time>2021-12-09T13:14:50Z</time>
      </trkpt>
      <trkpt lat="46.3672" lon="5.16033">
        <ele>197.6</ele>
        <time>2021-12-09T13:14:51Z</time>
      </trkpt>
      <trkpt lat="46.36695" lon="5.16037">
        <ele>198</ele>
        <time>2021-12-09T13:14:55Z</time>
      </trkpt>
      <trkpt lat="46.36688" lon="5.1604">
        <ele>198</ele>
        <time>2021-12-09T13:14:56Z</time>
      </trkpt>
      <trkpt lat="46.36682" lon="5.16044">
        <ele>198</ele>
        <time>2021-12-09T13:14:57Z</time>
      </trkpt>
      <trkpt lat="46.36674" lon="5.16054">
        <ele>198.2</ele>
        <time>2021-12-09T13:14:59Z</time>
      </trkpt>
      <trkpt lat="46.36668" lon="5.16069">
        <ele>198.2</ele>
        <time>2021-12-09T13:15:01Z</time>
      </trkpt>
      <trkpt lat="46.36665" lon="5.16087">
        <ele>198.6</ele>
        <time>2021-12-09T13:15:03Z</time>
      </trkpt>
      <trkpt lat="46.36663" lon="5.16095">
        <ele>198.8</ele>
        <time>2021-12-09T13:15:04Z</time>
      </trkpt>
      <trkpt lat="46.36655" lon="5.16134">
        <ele>199.8</ele>
        <time>2021-12-09T13:15:09Z</time>
      </trkpt>
      <trkpt lat="46.36652" lon="5.16146">
        <ele>200.2</ele>
        <time>2021-12-09T13:15:11Z</time>
      </trkpt>
      <trkpt lat="46.36643" lon="5.16178">
        <ele>200.8</ele>
        <time>2021-12-09T13:15:16Z</time>
      </trkpt>
      <trkpt lat="46.36637" lon="5.162">
        <ele>201.4</ele>
        <time>2021-12-09T13:15:19Z</time>
      </trkpt>
      <trkpt lat="46.36632" lon="5.16226">
        <ele>202</ele>
        <time>2021-12-09T13:15:23Z</time>
      </trkpt>
      <trkpt lat="46.36631" lon="5.16239">
        <ele>202.4</ele>
        <time>2021-12-09T13:15:25Z</time>
      </trkpt>
      <trkpt lat="46.3663" lon="5.16271">
        <ele>203.2</ele>
        <time>2021-12-09T13:15:30Z</time>
      </trkpt>
      <trkpt lat="46.36629" lon="5.16279">
        <ele>203.4</ele>
        <time>2021-12-09T13:15:31Z</time>
      </trkpt>
      <trkpt lat="46.36628" lon="5.16291">
        <ele>203.8</ele>
        <time>2021-12-09T13:15:33Z</time>
      </trkpt>
      <trkpt lat="46.36627" lon="5.16308">
        <ele>204.2</ele>
        <time>2021-12-09T13:15:36Z</time>
      </trkpt>
      <trkpt lat="46.36625" lon="5.16331">
        <ele>205.6</ele>
        <time>2021-12-09T13:15:40Z</time>
      </trkpt>
      <trkpt lat="46.36625" lon="5.16336">
        <ele>206</ele>
        <time>2021-12-09T13:15:41Z</time>
      </trkpt>
      <trkpt lat="46.36623" lon="5.16347">
        <ele>207</ele>
        <time>2021-12-09T13:15:43Z</time>
      </trkpt>
      <trkpt lat="46.3662" lon="5.16367">
        <ele>208.2</ele>
        <time>2021-12-09T13:15:47Z</time>
      </trkpt>
      <trkpt lat="46.36616" lon="5.1638">
        <ele>209.2</ele>
        <time>2021-12-09T13:15:50Z</time>
      </trkpt>
      <trkpt lat="46.36614" lon="5.16386">
        <ele>209.4</ele>
        <time>2021-12-09T13:15:51Z</time>
      </trkpt>
      <trkpt lat="46.36611" lon="5.164">
        <ele>210.6</ele>
        <time>2021-12-09T13:15:54Z</time>
      </trkpt>
      <trkpt lat="46.36605" lon="5.16415">
        <ele>211.4</ele>
        <time>2021-12-09T13:15:57Z</time>
      </trkpt>
      <trkpt lat="46.36603" lon="5.1642">
        <ele>211.8</ele>
        <time>2021-12-09T13:15:58Z</time>
      </trkpt>
      <trkpt lat="46.36594" lon="5.16447">
        <ele>213</ele>
        <time>2021-12-09T13:16:03Z</time>
      </trkpt>
      <trkpt lat="46.36594" lon="5.16447">
        <ele>213.2</ele>
        <time>2021-12-09T13:16:04Z</time>
      </trkpt>
      <trkpt lat="46.36587" lon="5.16472">
        <ele>214.4</ele>
        <time>2021-12-09T13:16:08Z</time>
      </trkpt>
      <trkpt lat="46.36577" lon="5.16499">
        <ele>215.2</ele>
        <time>2021-12-09T13:16:13Z</time>
      </trkpt>
      <trkpt lat="46.36573" lon="5.16515">
        <ele>215.6</ele>
        <time>2021-12-09T13:16:16Z</time>
      </trkpt>
      <trkpt lat="46.36571" lon="5.16527">
        <ele>215.8</ele>
        <time>2021-12-09T13:16:18Z</time>
      </trkpt>
      <trkpt lat="46.36571" lon="5.16534">
        <ele>216.2</ele>
        <time>2021-12-09T13:16:19Z</time>
      </trkpt>
      <trkpt lat="46.36571" lon="5.16541">
        <ele>216.4</ele>
        <time>2021-12-09T13:16:20Z</time>
      </trkpt>
      <trkpt lat="46.36575" lon="5.16559">
        <ele>216.6</ele>
        <time>2021-12-09T13:16:23Z</time>
      </trkpt>
      <trkpt lat="46.36575" lon="5.16559">
        <ele>216.6</ele>
        <time>2021-12-09T13:16:24Z</time>
      </trkpt>
      <trkpt lat="46.36578" lon="5.1657">
        <ele>216.6</ele>
        <time>2021-12-09T13:16:25Z</time>
      </trkpt>
      <trkpt lat="46.36587" lon="5.16585">
        <ele>216.8</ele>
        <time>2021-12-09T13:16:28Z</time>
      </trkpt>
      <trkpt lat="46.36614" lon="5.16623">
        <ele>217</ele>
        <time>2021-12-09T13:16:35Z</time>
      </trkpt>
      <trkpt lat="46.36642" lon="5.16653">
        <ele>217</ele>
        <time>2021-12-09T13:16:41Z</time>
      </trkpt>
      <trkpt lat="46.36662" lon="5.16677">
        <ele>217</ele>
        <time>2021-12-09T13:16:45Z</time>
      </trkpt>
      <trkpt lat="46.36665" lon="5.16682">
        <ele>216.8</ele>
        <time>2021-12-09T13:16:46Z</time>
      </trkpt>
      <trkpt lat="46.36671" lon="5.16697">
        <ele>216.8</ele>
        <time>2021-12-09T13:16:48Z</time>
      </trkpt>
      <trkpt lat="46.36684" lon="5.16731">
        <ele>216.6</ele>
        <time>2021-12-09T13:16:52Z</time>
      </trkpt>
      <trkpt lat="46.36703" lon="5.16781">
        <ele>216.6</ele>
        <time>2021-12-09T13:16:58Z</time>
      </trkpt>
      <trkpt lat="46.3673" lon="5.16838">
        <ele>217.6</ele>
        <time>2021-12-09T13:17:06Z</time>
      </trkpt>
      <trkpt lat="46.36762" lon="5.16902">
        <ele>217.8</ele>
        <time>2021-12-09T13:17:14Z</time>
      </trkpt>
      <trkpt lat="46.36766" lon="5.16922">
        <ele>217.4</ele>
        <time>2021-12-09T13:17:16Z</time>
      </trkpt>
      <trkpt lat="46.36766" lon="5.16932">
        <ele>217.4</ele>
        <time>2021-12-09T13:17:17Z</time>
      </trkpt>
      <trkpt lat="46.36766" lon="5.16942">
        <ele>217.4</ele>
        <time>2021-12-09T13:17:18Z</time>
      </trkpt>
      <trkpt lat="46.36759" lon="5.16968">
        <ele>217.2</ele>
        <time>2021-12-09T13:17:21Z</time>
      </trkpt>
      <trkpt lat="46.36743" lon="5.17016">
        <ele>217.6</ele>
        <time>2021-12-09T13:17:27Z</time>
      </trkpt>
      <trkpt lat="46.3674" lon="5.17025">
        <ele>217.6</ele>
        <time>2021-12-09T13:17:28Z</time>
      </trkpt>
      <trkpt lat="46.36735" lon="5.17058">
        <ele>218.2</ele>
        <time>2021-12-09T13:17:32Z</time>
      </trkpt>
      <trkpt lat="46.36733" lon="5.17117">
        <ele>218.8</ele>
        <time>2021-12-09T13:17:39Z</time>
      </trkpt>
      <trkpt lat="46.36732" lon="5.17125">
        <ele>218.8</ele>
        <time>2021-12-09T13:17:40Z</time>
      </trkpt>
      <trkpt lat="46.36732" lon="5.17142">
        <ele>218.8</ele>
        <time>2021-12-09T13:17:42Z</time>
      </trkpt>
      <trkpt lat="46.36731" lon="5.17174">
        <ele>219</ele>
        <time>2021-12-09T13:17:46Z</time>
      </trkpt>
      <trkpt lat="46.3673" lon="5.17198">
        <ele>219</ele>
        <time>2021-12-09T13:17:49Z</time>
      </trkpt>
      <trkpt lat="46.36729" lon="5.17215">
        <ele>219.2</ele>
        <time>2021-12-09T13:17:51Z</time>
      </trkpt>
      <trkpt lat="46.36728" lon="5.1723">
        <ele>219.6</ele>
        <time>2021-12-09T13:17:53Z</time>
      </trkpt>
      <trkpt lat="46.36727" lon="5.17245">
        <ele>219.8</ele>
        <time>2021-12-09T13:17:55Z</time>
      </trkpt>
      <trkpt lat="46.36726" lon="5.17259">
        <ele>220</ele>
        <time>2021-12-09T13:17:57Z</time>
      </trkpt>
      <trkpt lat="46.36724" lon="5.17282">
        <ele>220.6</ele>
        <time>2021-12-09T13:18:01Z</time>
      </trkpt>
      <trkpt lat="46.36723" lon="5.17291">
        <ele>221.4</ele>
        <time>2021-12-09T13:18:03Z</time>
      </trkpt>
      <trkpt lat="46.36725" lon="5.17312">
        <ele>222.6</ele>
        <time>2021-12-09T13:18:07Z</time>
      </trkpt>
      <trkpt lat="46.36726" lon="5.17317">
        <ele>223</ele>
        <time>2021-12-09T13:18:08Z</time>
      </trkpt>
      <trkpt lat="46.36732" lon="5.17331">
        <ele>223.4</ele>
        <time>2021-12-09T13:18:10Z</time>
      </trkpt>
      <trkpt lat="46.36741" lon="5.17343">
        <ele>223.6</ele>
        <time>2021-12-09T13:18:12Z</time>
      </trkpt>
      <trkpt lat="46.36758" lon="5.17367">
        <ele>224</ele>
        <time>2021-12-09T13:18:16Z</time>
      </trkpt>
      <trkpt lat="46.36798" lon="5.1742">
        <ele>224</ele>
        <time>2021-12-09T13:18:25Z</time>
      </trkpt>
      <trkpt lat="46.36837" lon="5.17453">
        <ele>224.2</ele>
        <time>2021-12-09T13:18:32Z</time>
      </trkpt>
      <trkpt lat="46.36877" lon="5.1747">
        <ele>224.8</ele>
        <time>2021-12-09T13:18:39Z</time>
      </trkpt>
      <trkpt lat="46.36883" lon="5.1747">
        <ele>224.8</ele>
        <time>2021-12-09T13:18:40Z</time>
      </trkpt>
      <trkpt lat="46.36922" lon="5.17474">
        <ele>224.8</ele>
        <time>2021-12-09T13:18:46Z</time>
      </trkpt>
      <trkpt lat="46.3695" lon="5.17477">
        <ele>224.2</ele>
        <time>2021-12-09T13:18:50Z</time>
      </trkpt>
      <trkpt lat="46.36963" lon="5.17482">
        <ele>224.2</ele>
        <time>2021-12-09T13:18:52Z</time>
      </trkpt>
      <trkpt lat="46.36969" lon="5.17485">
        <ele>224</ele>
        <time>2021-12-09T13:18:53Z</time>
      </trkpt>
      <trkpt lat="46.3698" lon="5.17492">
        <ele>224</ele>
        <time>2021-12-09T13:18:55Z</time>
      </trkpt>
      <trkpt lat="46.36988" lon="5.17502">
        <ele>224</ele>
        <time>2021-12-09T13:18:57Z</time>
      </trkpt>
      <trkpt lat="46.36996" lon="5.17526">
        <ele>224.2</ele>
        <time>2021-12-09T13:19:00Z</time>
      </trkpt>
      <trkpt lat="46.37003" lon="5.17536">
        <ele>224.6</ele>
        <time>2021-12-09T13:19:02Z</time>
      </trkpt>
      <trkpt lat="46.37008" lon="5.17541">
        <ele>224.6</ele>
        <time>2021-12-09T13:19:03Z</time>
      </trkpt>
      <trkpt lat="46.3702" lon="5.17551">
        <ele>224.8</ele>
        <time>2021-12-09T13:19:06Z</time>
      </trkpt>
      <trkpt lat="46.37023" lon="5.17554">
        <ele>224.8</ele>
        <time>2021-12-09T13:19:07Z</time>
      </trkpt>
      <trkpt lat="46.37031" lon="5.17564">
        <ele>224.8</ele>
        <time>2021-12-09T13:19:12Z</time>
      </trkpt>
      <trkpt lat="46.37032" lon="5.17564">
        <ele>224.8</ele>
        <time>2021-12-09T13:19:14Z</time>
      </trkpt>
      <trkpt lat="46.37033" lon="5.17567">
        <ele>225</ele>
        <time>2021-12-09T13:19:48Z</time>
      </trkpt>
      <trkpt lat="46.3704" lon="5.17584">
        <ele>224.8</ele>
        <time>2021-12-09T13:19:53Z</time>
      </trkpt>
      <trkpt lat="46.37048" lon="5.17602">
        <ele>224.8</ele>
        <time>2021-12-09T13:19:57Z</time>
      </trkpt>
      <trkpt lat="46.37052" lon="5.17631">
        <ele>224.2</ele>
        <time>2021-12-09T13:20:01Z</time>
      </trkpt>
      <trkpt lat="46.37058" lon="5.17643">
        <ele>224</ele>
        <time>2021-12-09T13:20:03Z</time>
      </trkpt>
      <trkpt lat="46.37063" lon="5.17647">
        <ele>223.8</ele>
        <time>2021-12-09T13:20:04Z</time>
      </trkpt>
      <trkpt lat="46.37068" lon="5.1765">
        <ele>223.6</ele>
        <time>2021-12-09T13:20:05Z</time>
      </trkpt>
      <trkpt lat="46.37079" lon="5.1765">
        <ele>223.6</ele>
        <time>2021-12-09T13:20:07Z</time>
      </trkpt>
      <trkpt lat="46.37084" lon="5.1765">
        <ele>223.4</ele>
        <time>2021-12-09T13:20:08Z</time>
      </trkpt>
      <trkpt lat="46.37097" lon="5.17649">
        <ele>223.4</ele>
        <time>2021-12-09T13:20:10Z</time>
      </trkpt>
      <trkpt lat="46.37108" lon="5.17651">
        <ele>223.2</ele>
        <time>2021-12-09T13:20:12Z</time>
      </trkpt>
      <trkpt lat="46.37114" lon="5.17655">
        <ele>223.2</ele>
        <time>2021-12-09T13:20:13Z</time>
      </trkpt>
      <trkpt lat="46.37118" lon="5.17659">
        <ele>223.2</ele>
        <time>2021-12-09T13:20:14Z</time>
      </trkpt>
      <trkpt lat="46.37135" lon="5.1768">
        <ele>223</ele>
        <time>2021-12-09T13:20:17Z</time>
      </trkpt>
      <trkpt lat="46.37147" lon="5.17696">
        <ele>222.4</ele>
        <time>2021-12-09T13:20:19Z</time>
      </trkpt>
      <trkpt lat="46.37164" lon="5.17722">
        <ele>221.4</ele>
        <time>2021-12-09T13:20:22Z</time>
      </trkpt>
      <trkpt lat="46.37174" lon="5.1774">
        <ele>220.4</ele>
        <time>2021-12-09T13:20:24Z</time>
      </trkpt>
      <trkpt lat="46.37184" lon="5.17759">
        <ele>219.2</ele>
        <time>2021-12-09T13:20:26Z</time>
      </trkpt>
      <trkpt lat="46.37193" lon="5.17777">
        <ele>218.2</ele>
        <time>2021-12-09T13:20:28Z</time>
      </trkpt>
      <trkpt lat="46.37198" lon="5.17785">
        <ele>218</ele>
        <time>2021-12-09T13:20:29Z</time>
      </trkpt>
      <trkpt lat="46.37214" lon="5.17814">
        <ele>217.8</ele>
        <time>2021-12-09T13:20:33Z</time>
      </trkpt>
      <trkpt lat="46.37238" lon="5.1786">
        <ele>218.4</ele>
        <time>2021-12-09T13:20:40Z</time>
      </trkpt>
      <trkpt lat="46.37254" lon="5.17886">
        <ele>219.2</ele>
        <time>2021-12-09T13:20:45Z</time>
      </trkpt>
      <trkpt lat="46.37257" lon="5.17893">
        <ele>219.8</ele>
        <time>2021-12-09T13:20:46Z</time>
      </trkpt>
      <trkpt lat="46.37263" lon="5.17904">
        <ele>220.6</ele>
        <time>2021-12-09T13:20:48Z</time>
      </trkpt>
      <trkpt lat="46.37278" lon="5.17933">
        <ele>221.6</ele>
        <time>2021-12-09T13:20:53Z</time>
      </trkpt>
      <trkpt lat="46.37281" lon="5.17939">
        <ele>221.8</ele>
        <time>2021-12-09T13:20:54Z</time>
      </trkpt>
      <trkpt lat="46.37295" lon="5.17964">
        <ele>222.8</ele>
        <time>2021-12-09T13:20:58Z</time>
      </trkpt>
      <trkpt lat="46.37309" lon="5.17988">
        <ele>223.2</ele>
        <time>2021-12-09T13:21:02Z</time>
      </trkpt>
      <trkpt lat="46.37319" lon="5.18007">
        <ele>223.8</ele>
        <time>2021-12-09T13:21:05Z</time>
      </trkpt>
      <trkpt lat="46.37348" lon="5.18059">
        <ele>224</ele>
        <time>2021-12-09T13:21:13Z</time>
      </trkpt>
      <trkpt lat="46.37377" lon="5.1811">
        <ele>224</ele>
        <time>2021-12-09T13:21:20Z</time>
      </trkpt>
      <trkpt lat="46.3741" lon="5.18169">
        <ele>224</ele>
        <time>2021-12-09T13:21:28Z</time>
      </trkpt>
      <trkpt lat="46.37446" lon="5.18231">
        <ele>224.2</ele>
        <time>2021-12-09T13:21:37Z</time>
      </trkpt>
      <trkpt lat="46.37475" lon="5.18275">
        <ele>225</ele>
        <time>2021-12-09T13:21:44Z</time>
      </trkpt>
      <trkpt lat="46.3748" lon="5.18281">
        <ele>225.2</ele>
        <time>2021-12-09T13:21:45Z</time>
      </trkpt>
      <trkpt lat="46.37521" lon="5.18336">
        <ele>225.8</ele>
        <time>2021-12-09T13:21:54Z</time>
      </trkpt>
      <trkpt lat="46.37536" lon="5.18355">
        <ele>225.8</ele>
        <time>2021-12-09T13:21:57Z</time>
      </trkpt>
      <trkpt lat="46.37581" lon="5.18411">
        <ele>225.6</ele>
        <time>2021-12-09T13:22:06Z</time>
      </trkpt>
      <trkpt lat="46.37624" lon="5.18465">
        <ele>224.8</ele>
        <time>2021-12-09T13:22:14Z</time>
      </trkpt>
      <trkpt lat="46.3763" lon="5.18472">
        <ele>224.8</ele>
        <time>2021-12-09T13:22:15Z</time>
      </trkpt>
      <trkpt lat="46.37657" lon="5.18507">
        <ele>224</ele>
        <time>2021-12-09T13:22:20Z</time>
      </trkpt>
      <trkpt lat="46.37674" lon="5.18529">
        <ele>223.6</ele>
        <time>2021-12-09T13:22:23Z</time>
      </trkpt>
      <trkpt lat="46.37705" lon="5.18568">
        <ele>222.8</ele>
        <time>2021-12-09T13:22:28Z</time>
      </trkpt>
      <trkpt lat="46.37718" lon="5.18584">
        <ele>222.4</ele>
        <time>2021-12-09T13:22:30Z</time>
      </trkpt>
      <trkpt lat="46.37739" lon="5.1861">
        <ele>221.8</ele>
        <time>2021-12-09T13:22:33Z</time>
      </trkpt>
      <trkpt lat="46.37759" lon="5.18636">
        <ele>220.6</ele>
        <time>2021-12-09T13:22:36Z</time>
      </trkpt>
      <trkpt lat="46.37766" lon="5.18644">
        <ele>220</ele>
        <time>2021-12-09T13:22:37Z</time>
      </trkpt>
      <trkpt lat="46.37773" lon="5.18652">
        <ele>219.6</ele>
        <time>2021-12-09T13:22:38Z</time>
      </trkpt>
      <trkpt lat="46.37816" lon="5.18707">
        <ele>218.6</ele>
        <time>2021-12-09T13:22:45Z</time>
      </trkpt>
      <trkpt lat="46.37822" lon="5.18714">
        <ele>218.6</ele>
        <time>2021-12-09T13:22:46Z</time>
      </trkpt>
      <trkpt lat="46.37848" lon="5.18748">
        <ele>219.2</ele>
        <time>2021-12-09T13:22:51Z</time>
      </trkpt>
      <trkpt lat="46.37867" lon="5.18774">
        <ele>219.8</ele>
        <time>2021-12-09T13:22:55Z</time>
      </trkpt>
      <trkpt lat="46.37886" lon="5.18799">
        <ele>220.4</ele>
        <time>2021-12-09T13:22:59Z</time>
      </trkpt>
      <trkpt lat="46.37891" lon="5.18805">
        <ele>220.8</ele>
        <time>2021-12-09T13:23:00Z</time>
      </trkpt>
      <trkpt lat="46.37916" lon="5.18834">
        <ele>221.8</ele>
        <time>2021-12-09T13:23:05Z</time>
      </trkpt>
      <trkpt lat="46.3793" lon="5.18853">
        <ele>222.2</ele>
        <time>2021-12-09T13:23:08Z</time>
      </trkpt>
      <trkpt lat="46.37954" lon="5.18883">
        <ele>223</ele>
        <time>2021-12-09T13:23:13Z</time>
      </trkpt>
      <trkpt lat="46.37983" lon="5.18919">
        <ele>223.4</ele>
        <time>2021-12-09T13:23:19Z</time>
      </trkpt>
      <trkpt lat="46.38022" lon="5.1897">
        <ele>224</ele>
        <time>2021-12-09T13:23:28Z</time>
      </trkpt>
      <trkpt lat="46.38026" lon="5.18975">
        <ele>224</ele>
        <time>2021-12-09T13:23:29Z</time>
      </trkpt>
      <trkpt lat="46.38071" lon="5.19031">
        <ele>225</ele>
        <time>2021-12-09T13:23:39Z</time>
      </trkpt>
      <trkpt lat="46.38088" lon="5.19053">
        <ele>225.4</ele>
        <time>2021-12-09T13:23:43Z</time>
      </trkpt>
      <trkpt lat="46.38121" lon="5.19095">
        <ele>226</ele>
        <time>2021-12-09T13:23:51Z</time>
      </trkpt>
      <trkpt lat="46.38131" lon="5.19107">
        <ele>226.2</ele>
        <time>2021-12-09T13:23:53Z</time>
      </trkpt>
      <trkpt lat="46.38176" lon="5.19164">
        <ele>226.8</ele>
        <time>2021-12-09T13:24:03Z</time>
      </trkpt>
      <trkpt lat="46.38221" lon="5.19221">
        <ele>226.8</ele>
        <time>2021-12-09T13:24:12Z</time>
      </trkpt>
      <trkpt lat="46.38232" lon="5.19234">
        <ele>226.8</ele>
        <time>2021-12-09T13:24:14Z</time>
      </trkpt>
      <trkpt lat="46.38274" lon="5.19287">
        <ele>225.8</ele>
        <time>2021-12-09T13:24:22Z</time>
      </trkpt>
      <trkpt lat="46.38279" lon="5.19293">
        <ele>225.8</ele>
        <time>2021-12-09T13:24:23Z</time>
      </trkpt>
      <trkpt lat="46.38317" lon="5.19342">
        <ele>225</ele>
        <time>2021-12-09T13:24:30Z</time>
      </trkpt>
      <trkpt lat="46.38349" lon="5.19382">
        <ele>224.8</ele>
        <time>2021-12-09T13:24:36Z</time>
      </trkpt>
      <trkpt lat="46.3839" lon="5.19434">
        <ele>224.6</ele>
        <time>2021-12-09T13:24:44Z</time>
      </trkpt>
      <trkpt lat="46.38401" lon="5.19447">
        <ele>224.6</ele>
        <time>2021-12-09T13:24:46Z</time>
      </trkpt>
      <trkpt lat="46.38441" lon="5.19496">
        <ele>225.2</ele>
        <time>2021-12-09T13:24:54Z</time>
      </trkpt>
      <trkpt lat="46.38485" lon="5.19553">
        <ele>225.2</ele>
        <time>2021-12-09T13:25:03Z</time>
      </trkpt>
      <trkpt lat="46.385" lon="5.19572">
        <ele>225.2</ele>
        <time>2021-12-09T13:25:06Z</time>
      </trkpt>
      <trkpt lat="46.38546" lon="5.19629">
        <ele>225.2</ele>
        <time>2021-12-09T13:25:15Z</time>
      </trkpt>
      <trkpt lat="46.3855" lon="5.19635">
        <ele>225</ele>
        <time>2021-12-09T13:25:16Z</time>
      </trkpt>
      <trkpt lat="46.38596" lon="5.19693">
        <ele>225</ele>
        <time>2021-12-09T13:25:25Z</time>
      </trkpt>
      <trkpt lat="46.38611" lon="5.19711">
        <ele>224.8</ele>
        <time>2021-12-09T13:25:28Z</time>
      </trkpt>
      <trkpt lat="46.38656" lon="5.19769">
        <ele>224.6</ele>
        <time>2021-12-09T13:25:37Z</time>
      </trkpt>
      <trkpt lat="46.38662" lon="5.19775">
        <ele>224.6</ele>
        <time>2021-12-09T13:25:38Z</time>
      </trkpt>
      <trkpt lat="46.38695" lon="5.19817">
        <ele>224.2</ele>
        <time>2021-12-09T13:25:44Z</time>
      </trkpt>
      <trkpt lat="46.38701" lon="5.19825">
        <ele>224</ele>
        <time>2021-12-09T13:25:45Z</time>
      </trkpt>
      <trkpt lat="46.38739" lon="5.19873">
        <ele>223</ele>
        <time>2021-12-09T13:25:51Z</time>
      </trkpt>
      <trkpt lat="46.38745" lon="5.19881">
        <ele>222.8</ele>
        <time>2021-12-09T13:25:52Z</time>
      </trkpt>
      <trkpt lat="46.38765" lon="5.19906">
        <ele>221.6</ele>
        <time>2021-12-09T13:25:55Z</time>
      </trkpt>
      <trkpt lat="46.38786" lon="5.19933">
        <ele>220.4</ele>
        <time>2021-12-09T13:25:58Z</time>
      </trkpt>
      <trkpt lat="46.388" lon="5.19951">
        <ele>219.4</ele>
        <time>2021-12-09T13:26:00Z</time>
      </trkpt>
      <trkpt lat="46.38807" lon="5.1996">
        <ele>219</ele>
        <time>2021-12-09T13:26:01Z</time>
      </trkpt>
      <trkpt lat="46.38822" lon="5.19979">
        <ele>218.4</ele>
        <time>2021-12-09T13:26:03Z</time>
      </trkpt>
      <trkpt lat="46.38844" lon="5.20007">
        <ele>217</ele>
        <time>2021-12-09T13:26:06Z</time>
      </trkpt>
      <trkpt lat="46.38858" lon="5.20025">
        <ele>215.8</ele>
        <time>2021-12-09T13:26:08Z</time>
      </trkpt>
      <trkpt lat="46.38865" lon="5.20034">
        <ele>215.6</ele>
        <time>2021-12-09T13:26:09Z</time>
      </trkpt>
      <trkpt lat="46.38879" lon="5.20052">
        <ele>214.6</ele>
        <time>2021-12-09T13:26:11Z</time>
      </trkpt>
      <trkpt lat="46.38912" lon="5.20092">
        <ele>213.6</ele>
        <time>2021-12-09T13:26:16Z</time>
      </trkpt>
      <trkpt lat="46.38949" lon="5.2014">
        <ele>214.4</ele>
        <time>2021-12-09T13:26:23Z</time>
      </trkpt>
      <trkpt lat="46.38977" lon="5.20175">
        <ele>216</ele>
        <time>2021-12-09T13:26:29Z</time>
      </trkpt>
      <trkpt lat="46.38982" lon="5.20181">
        <ele>216</ele>
        <time>2021-12-09T13:26:30Z</time>
      </trkpt>
      <trkpt lat="46.39009" lon="5.20216">
        <ele>217.2</ele>
        <time>2021-12-09T13:26:36Z</time>
      </trkpt>
      <trkpt lat="46.39028" lon="5.20239">
        <ele>217.8</ele>
        <time>2021-12-09T13:26:40Z</time>
      </trkpt>
      <trkpt lat="46.3905" lon="5.20266">
        <ele>218.6</ele>
        <time>2021-12-09T13:26:45Z</time>
      </trkpt>
      <trkpt lat="46.39059" lon="5.20276">
        <ele>219</ele>
        <time>2021-12-09T13:26:47Z</time>
      </trkpt>
      <trkpt lat="46.39072" lon="5.20291">
        <ele>219.6</ele>
        <time>2021-12-09T13:26:50Z</time>
      </trkpt>
      <trkpt lat="46.39088" lon="5.20312">
        <ele>220.8</ele>
        <time>2021-12-09T13:26:54Z</time>
      </trkpt>
      <trkpt lat="46.39109" lon="5.2034">
        <ele>222</ele>
        <time>2021-12-09T13:27:00Z</time>
      </trkpt>
      <trkpt lat="46.39112" lon="5.20345">
        <ele>222.2</ele>
        <time>2021-12-09T13:27:01Z</time>
      </trkpt>
      <trkpt lat="46.39128" lon="5.20365">
        <ele>223</ele>
        <time>2021-12-09T13:27:05Z</time>
      </trkpt>
      <trkpt lat="46.39151" lon="5.20396">
        <ele>223.8</ele>
        <time>2021-12-09T13:27:11Z</time>
      </trkpt>
      <trkpt lat="46.39171" lon="5.20423">
        <ele>224</ele>
        <time>2021-12-09T13:27:16Z</time>
      </trkpt>
      <trkpt lat="46.39184" lon="5.2044">
        <ele>224.2</ele>
        <time>2021-12-09T13:27:19Z</time>
      </trkpt>
      <trkpt lat="46.39226" lon="5.20493">
        <ele>225</ele>
        <time>2021-12-09T13:27:29Z</time>
      </trkpt>
      <trkpt lat="46.39231" lon="5.20498">
        <ele>225</ele>
        <time>2021-12-09T13:27:30Z</time>
      </trkpt>
      <trkpt lat="46.39235" lon="5.20504">
        <ele>225.2</ele>
        <time>2021-12-09T13:27:31Z</time>
      </trkpt>
      <trkpt lat="46.39276" lon="5.20557">
        <ele>225.6</ele>
        <time>2021-12-09T13:27:40Z</time>
      </trkpt>
      <trkpt lat="46.39316" lon="5.20609">
        <ele>226.2</ele>
        <time>2021-12-09T13:27:49Z</time>
      </trkpt>
      <trkpt lat="46.3932" lon="5.20615">
        <ele>226.2</ele>
        <time>2021-12-09T13:27:50Z</time>
      </trkpt>
      <trkpt lat="46.39362" lon="5.20668">
        <ele>226.6</ele>
        <time>2021-12-09T13:27:59Z</time>
      </trkpt>
      <trkpt lat="46.39372" lon="5.20681">
        <ele>226.6</ele>
        <time>2021-12-09T13:28:01Z</time>
      </trkpt>
      <trkpt lat="46.39415" lon="5.20737">
        <ele>226.6</ele>
        <time>2021-12-09T13:28:10Z</time>
      </trkpt>
      <trkpt lat="46.39431" lon="5.20756">
        <ele>226.6</ele>
        <time>2021-12-09T13:28:13Z</time>
      </trkpt>
      <trkpt lat="46.39475" lon="5.20813">
        <ele>227</ele>
        <time>2021-12-09T13:28:22Z</time>
      </trkpt>
      <trkpt lat="46.39485" lon="5.20826">
        <ele>227</ele>
        <time>2021-12-09T13:28:24Z</time>
      </trkpt>
      <trkpt lat="46.39495" lon="5.20839">
        <ele>227.2</ele>
        <time>2021-12-09T13:28:26Z</time>
      </trkpt>
      <trkpt lat="46.39529" lon="5.20882">
        <ele>227.8</ele>
        <time>2021-12-09T13:28:33Z</time>
      </trkpt>
      <trkpt lat="46.39573" lon="5.20939">
        <ele>228</ele>
        <time>2021-12-09T13:28:42Z</time>
      </trkpt>
      <trkpt lat="46.39583" lon="5.20952">
        <ele>228.2</ele>
        <time>2021-12-09T13:28:44Z</time>
      </trkpt>
      <trkpt lat="46.39617" lon="5.20998">
        <ele>228.4</ele>
        <time>2021-12-09T13:28:51Z</time>
      </trkpt>
      <trkpt lat="46.39662" lon="5.21057">
        <ele>228.6</ele>
        <time>2021-12-09T13:29:00Z</time>
      </trkpt>
      <trkpt lat="46.39678" lon="5.21078">
        <ele>228.2</ele>
        <time>2021-12-09T13:29:03Z</time>
      </trkpt>
      <trkpt lat="46.39713" lon="5.21128">
        <ele>227.4</ele>
        <time>2021-12-09T13:29:09Z</time>
      </trkpt>
      <trkpt lat="46.39719" lon="5.21137">
        <ele>227</ele>
        <time>2021-12-09T13:29:10Z</time>
      </trkpt>
      <trkpt lat="46.39745" lon="5.21175">
        <ele>225.8</ele>
        <time>2021-12-09T13:29:14Z</time>
      </trkpt>
      <trkpt lat="46.39758" lon="5.21195">
        <ele>224.6</ele>
        <time>2021-12-09T13:29:16Z</time>
      </trkpt>
      <trkpt lat="46.39778" lon="5.21226">
        <ele>223.2</ele>
        <time>2021-12-09T13:29:19Z</time>
      </trkpt>
      <trkpt lat="46.398" lon="5.21259">
        <ele>222</ele>
        <time>2021-12-09T13:29:22Z</time>
      </trkpt>
      <trkpt lat="46.39814" lon="5.21281">
        <ele>220.6</ele>
        <time>2021-12-09T13:29:24Z</time>
      </trkpt>
      <trkpt lat="46.39829" lon="5.21303">
        <ele>219</ele>
        <time>2021-12-09T13:29:26Z</time>
      </trkpt>
      <trkpt lat="46.39844" lon="5.21325">
        <ele>217.4</ele>
        <time>2021-12-09T13:29:28Z</time>
      </trkpt>
      <trkpt lat="46.39858" lon="5.21347">
        <ele>216.2</ele>
        <time>2021-12-09T13:29:30Z</time>
      </trkpt>
      <trkpt lat="46.39873" lon="5.21369">
        <ele>214.8</ele>
        <time>2021-12-09T13:29:32Z</time>
      </trkpt>
      <trkpt lat="46.39894" lon="5.21402">
        <ele>213.4</ele>
        <time>2021-12-09T13:29:35Z</time>
      </trkpt>
      <trkpt lat="46.39915" lon="5.21434">
        <ele>212.4</ele>
        <time>2021-12-09T13:29:38Z</time>
      </trkpt>
      <trkpt lat="46.39929" lon="5.21454">
        <ele>211.8</ele>
        <time>2021-12-09T13:29:40Z</time>
      </trkpt>
      <trkpt lat="46.39936" lon="5.21464">
        <ele>211.2</ele>
        <time>2021-12-09T13:29:41Z</time>
      </trkpt>
      <trkpt lat="46.39956" lon="5.21494">
        <ele>210.2</ele>
        <time>2021-12-09T13:29:44Z</time>
      </trkpt>
      <trkpt lat="46.39981" lon="5.21532">
        <ele>209.6</ele>
        <time>2021-12-09T13:29:48Z</time>
      </trkpt>
      <trkpt lat="46.39999" lon="5.21559">
        <ele>209</ele>
        <time>2021-12-09T13:29:51Z</time>
      </trkpt>
      <trkpt lat="46.40028" lon="5.21603">
        <ele>208.6</ele>
        <time>2021-12-09T13:29:56Z</time>
      </trkpt>
      <trkpt lat="46.40069" lon="5.21665">
        <ele>208.2</ele>
        <time>2021-12-09T13:30:03Z</time>
      </trkpt>
      <trkpt lat="46.40087" lon="5.21692">
        <ele>208</ele>
        <time>2021-12-09T13:30:06Z</time>
      </trkpt>
      <trkpt lat="46.40118" lon="5.21737">
        <ele>207</ele>
        <time>2021-12-09T13:30:11Z</time>
      </trkpt>
      <trkpt lat="46.40136" lon="5.21765">
        <ele>206.2</ele>
        <time>2021-12-09T13:30:14Z</time>
      </trkpt>
      <trkpt lat="46.40142" lon="5.21775">
        <ele>205.8</ele>
        <time>2021-12-09T13:30:15Z</time>
      </trkpt>
      <trkpt lat="46.40172" lon="5.21821">
        <ele>204.6</ele>
        <time>2021-12-09T13:30:20Z</time>
      </trkpt>
      <trkpt lat="46.40202" lon="5.21864">
        <ele>203.8</ele>
        <time>2021-12-09T13:30:25Z</time>
      </trkpt>
      <trkpt lat="46.40208" lon="5.21873">
        <ele>203.8</ele>
        <time>2021-12-09T13:30:26Z</time>
      </trkpt>
      <trkpt lat="46.40245" lon="5.2193">
        <ele>203.4</ele>
        <time>2021-12-09T13:30:33Z</time>
      </trkpt>
      <trkpt lat="46.4028" lon="5.21982">
        <ele>204</ele>
        <time>2021-12-09T13:30:40Z</time>
      </trkpt>
      <trkpt lat="46.40303" lon="5.22016">
        <ele>205</ele>
        <time>2021-12-09T13:30:45Z</time>
      </trkpt>
      <trkpt lat="46.4032" lon="5.22042">
        <ele>205.4</ele>
        <time>2021-12-09T13:30:49Z</time>
      </trkpt>
      <trkpt lat="46.40357" lon="5.22098">
        <ele>206</ele>
        <time>2021-12-09T13:30:58Z</time>
      </trkpt>
      <trkpt lat="46.40361" lon="5.22104">
        <ele>206.2</ele>
        <time>2021-12-09T13:30:59Z</time>
      </trkpt>
      <trkpt lat="46.40383" lon="5.22138">
        <ele>207.2</ele>
        <time>2021-12-09T13:31:05Z</time>
      </trkpt>
      <trkpt lat="46.4039" lon="5.22149">
        <ele>207.4</ele>
        <time>2021-12-09T13:31:07Z</time>
      </trkpt>
      <trkpt lat="46.40404" lon="5.22167">
        <ele>207.8</ele>
        <time>2021-12-09T13:31:11Z</time>
      </trkpt>
      <trkpt lat="46.40407" lon="5.22173">
        <ele>208</ele>
        <time>2021-12-09T13:31:12Z</time>
      </trkpt>
      <trkpt lat="46.4041" lon="5.22179">
        <ele>208</ele>
        <time>2021-12-09T13:31:13Z</time>
      </trkpt>
      <trkpt lat="46.40412" lon="5.22196">
        <ele>208.2</ele>
        <time>2021-12-09T13:31:15Z</time>
      </trkpt>
      <trkpt lat="46.40411" lon="5.22214">
        <ele>208.2</ele>
        <time>2021-12-09T13:31:17Z</time>
      </trkpt>
      <trkpt lat="46.40408" lon="5.22245">
        <ele>208.2</ele>
        <time>2021-12-09T13:31:20Z</time>
      </trkpt>
      <trkpt lat="46.40404" lon="5.22297">
        <ele>207.2</ele>
        <time>2021-12-09T13:31:25Z</time>
      </trkpt>
      <trkpt lat="46.40402" lon="5.22318">
        <ele>206.8</ele>
        <time>2021-12-09T13:31:27Z</time>
      </trkpt>
      <trkpt lat="46.40397" lon="5.22371">
        <ele>206</ele>
        <time>2021-12-09T13:31:32Z</time>
      </trkpt>
      <trkpt lat="46.40394" lon="5.22403">
        <ele>205.4</ele>
        <time>2021-12-09T13:31:35Z</time>
      </trkpt>
      <trkpt lat="46.40391" lon="5.22445">
        <ele>205</ele>
        <time>2021-12-09T13:31:39Z</time>
      </trkpt>
      <trkpt lat="46.40387" lon="5.22503">
        <ele>204.2</ele>
        <time>2021-12-09T13:31:44Z</time>
      </trkpt>
      <trkpt lat="46.40385" lon="5.22527">
        <ele>203.8</ele>
        <time>2021-12-09T13:31:46Z</time>
      </trkpt>
      <trkpt lat="46.40381" lon="5.22578">
        <ele>202.6</ele>
        <time>2021-12-09T13:31:50Z</time>
      </trkpt>
      <trkpt lat="46.40379" lon="5.22603">
        <ele>201.8</ele>
        <time>2021-12-09T13:31:52Z</time>
      </trkpt>
      <trkpt lat="46.40378" lon="5.22615">
        <ele>201.2</ele>
        <time>2021-12-09T13:31:53Z</time>
      </trkpt>
      <trkpt lat="46.40374" lon="5.22662">
        <ele>200.2</ele>
        <time>2021-12-09T13:31:57Z</time>
      </trkpt>
      <trkpt lat="46.4037" lon="5.22705">
        <ele>200</ele>
        <time>2021-12-09T13:32:01Z</time>
      </trkpt>
      <trkpt lat="46.40365" lon="5.22773">
        <ele>200.4</ele>
        <time>2021-12-09T13:32:08Z</time>
      </trkpt>
      <trkpt lat="46.40362" lon="5.22809">
        <ele>201.4</ele>
        <time>2021-12-09T13:32:12Z</time>
      </trkpt>
      <trkpt lat="46.40358" lon="5.22857">
        <ele>201.8</ele>
        <time>2021-12-09T13:32:17Z</time>
      </trkpt>
      <trkpt lat="46.40351" lon="5.22943">
        <ele>201</ele>
        <time>2021-12-09T13:32:25Z</time>
      </trkpt>
      <trkpt lat="46.40344" lon="5.23023">
        <ele>200.6</ele>
        <time>2021-12-09T13:32:33Z</time>
      </trkpt>
      <trkpt lat="46.40342" lon="5.2305">
        <ele>200.8</ele>
        <time>2021-12-09T13:32:36Z</time>
      </trkpt>
      <trkpt lat="46.40336" lon="5.23118">
        <ele>202.4</ele>
        <time>2021-12-09T13:32:44Z</time>
      </trkpt>
      <trkpt lat="46.40331" lon="5.23168">
        <ele>203.4</ele>
        <time>2021-12-09T13:32:50Z</time>
      </trkpt>
      <trkpt lat="46.40328" lon="5.23215">
        <ele>204.2</ele>
        <time>2021-12-09T13:32:55Z</time>
      </trkpt>
      <trkpt lat="46.40323" lon="5.23288">
        <ele>204</ele>
        <time>2021-12-09T13:33:02Z</time>
      </trkpt>
      <trkpt lat="46.40317" lon="5.2337">
        <ele>202.6</ele>
        <time>2021-12-09T13:33:09Z</time>
      </trkpt>
      <trkpt lat="46.40316" lon="5.23382">
        <ele>202.4</ele>
        <time>2021-12-09T13:33:10Z</time>
      </trkpt>
      <trkpt lat="46.40313" lon="5.23416">
        <ele>201.2</ele>
        <time>2021-12-09T13:33:13Z</time>
      </trkpt>
      <trkpt lat="46.40311" lon="5.23449">
        <ele>200.6</ele>
        <time>2021-12-09T13:33:16Z</time>
      </trkpt>
      <trkpt lat="46.40304" lon="5.23534">
        <ele>200.2</ele>
        <time>2021-12-09T13:33:24Z</time>
      </trkpt>
      <trkpt lat="46.40303" lon="5.23553">
        <ele>200.2</ele>
        <time>2021-12-09T13:33:26Z</time>
      </trkpt>
      <trkpt lat="46.40299" lon="5.23597">
        <ele>201</ele>
        <time>2021-12-09T13:33:31Z</time>
      </trkpt>
      <trkpt lat="46.40296" lon="5.23642">
        <ele>202.2</ele>
        <time>2021-12-09T13:33:37Z</time>
      </trkpt>
      <trkpt lat="46.40296" lon="5.23649">
        <ele>202.6</ele>
        <time>2021-12-09T13:33:38Z</time>
      </trkpt>
      <trkpt lat="46.40295" lon="5.23669">
        <ele>203.6</ele>
        <time>2021-12-09T13:33:41Z</time>
      </trkpt>
      <trkpt lat="46.40293" lon="5.23688">
        <ele>204.8</ele>
        <time>2021-12-09T13:33:44Z</time>
      </trkpt>
      <trkpt lat="46.40293" lon="5.23694">
        <ele>205</ele>
        <time>2021-12-09T13:33:45Z</time>
      </trkpt>
      <trkpt lat="46.40291" lon="5.23712">
        <ele>206</ele>
        <time>2021-12-09T13:33:48Z</time>
      </trkpt>
      <trkpt lat="46.40291" lon="5.23718">
        <ele>206.2</ele>
        <time>2021-12-09T13:33:49Z</time>
      </trkpt>
      <trkpt lat="46.40293" lon="5.23735">
        <ele>206.8</ele>
        <time>2021-12-09T13:33:52Z</time>
      </trkpt>
      <trkpt lat="46.40294" lon="5.23741">
        <ele>207</ele>
        <time>2021-12-09T13:33:53Z</time>
      </trkpt>
      <trkpt lat="46.40298" lon="5.23765">
        <ele>208.4</ele>
        <time>2021-12-09T13:33:57Z</time>
      </trkpt>
      <trkpt lat="46.40302" lon="5.23783">
        <ele>209.4</ele>
        <time>2021-12-09T13:34:00Z</time>
      </trkpt>
      <trkpt lat="46.40309" lon="5.23806">
        <ele>210.6</ele>
        <time>2021-12-09T13:34:04Z</time>
      </trkpt>
      <trkpt lat="46.40317" lon="5.23823">
        <ele>211.6</ele>
        <time>2021-12-09T13:34:07Z</time>
      </trkpt>
      <trkpt lat="46.4033" lon="5.23849">
        <ele>212.6</ele>
        <time>2021-12-09T13:34:12Z</time>
      </trkpt>
      <trkpt lat="46.40338" lon="5.23865">
        <ele>213.4</ele>
        <time>2021-12-09T13:34:15Z</time>
      </trkpt>
      <trkpt lat="46.4034" lon="5.23871">
        <ele>213.6</ele>
        <time>2021-12-09T13:34:16Z</time>
      </trkpt>
      <trkpt lat="46.40346" lon="5.23883">
        <ele>213.8</ele>
        <time>2021-12-09T13:34:18Z</time>
      </trkpt>
      <trkpt lat="46.40357" lon="5.23907">
        <ele>214.2</ele>
        <time>2021-12-09T13:34:22Z</time>
      </trkpt>
      <trkpt lat="46.40376" lon="5.23949">
        <ele>214.6</ele>
        <time>2021-12-09T13:34:28Z</time>
      </trkpt>
      <trkpt lat="46.4039" lon="5.23977">
        <ele>214.6</ele>
        <time>2021-12-09T13:34:32Z</time>
      </trkpt>
      <trkpt lat="46.40397" lon="5.23991">
        <ele>214.4</ele>
        <time>2021-12-09T13:34:34Z</time>
      </trkpt>
      <trkpt lat="46.40401" lon="5.23997">
        <ele>214.4</ele>
        <time>2021-12-09T13:34:35Z</time>
      </trkpt>
      <trkpt lat="46.40428" lon="5.24031">
        <ele>214</ele>
        <time>2021-12-09T13:34:41Z</time>
      </trkpt>
      <trkpt lat="46.40436" lon="5.24045">
        <ele>214</ele>
        <time>2021-12-09T13:34:43Z</time>
      </trkpt>
      <trkpt lat="46.40444" lon="5.24067">
        <ele>213.8</ele>
        <time>2021-12-09T13:34:46Z</time>
      </trkpt>
      <trkpt lat="46.4045" lon="5.24087">
        <ele>213.6</ele>
        <time>2021-12-09T13:34:49Z</time>
      </trkpt>
      <trkpt lat="46.40451" lon="5.24092">
        <ele>213.4</ele>
        <time>2021-12-09T13:34:50Z</time>
      </trkpt>
      <trkpt lat="46.40449" lon="5.24112">
        <ele>213.2</ele>
        <time>2021-12-09T13:34:54Z</time>
      </trkpt>
      <trkpt lat="46.40451" lon="5.24117">
        <ele>213.2</ele>
        <time>2021-12-09T13:34:55Z</time>
      </trkpt>
      <trkpt lat="46.40457" lon="5.24131">
        <ele>213.2</ele>
        <time>2021-12-09T13:34:57Z</time>
      </trkpt>
      <trkpt lat="46.40459" lon="5.2414">
        <ele>213</ele>
        <time>2021-12-09T13:34:58Z</time>
      </trkpt>
      <trkpt lat="46.40466" lon="5.24177">
        <ele>212.8</ele>
        <time>2021-12-09T13:35:02Z</time>
      </trkpt>
      <trkpt lat="46.4047" lon="5.24197">
        <ele>212.4</ele>
        <time>2021-12-09T13:35:04Z</time>
      </trkpt>
      <trkpt lat="46.4049" lon="5.24278">
        <ele>211.8</ele>
        <time>2021-12-09T13:35:13Z</time>
      </trkpt>
      <trkpt lat="46.40492" lon="5.24286">
        <ele>211.6</ele>
        <time>2021-12-09T13:35:14Z</time>
      </trkpt>
      <trkpt lat="46.40503" lon="5.24331">
        <ele>212</ele>
        <time>2021-12-09T13:35:20Z</time>
      </trkpt>
      <trkpt lat="46.40508" lon="5.24352">
        <ele>213</ele>
        <time>2021-12-09T13:35:23Z</time>
      </trkpt>
      <trkpt lat="46.40517" lon="5.24386">
        <ele>214.2</ele>
        <time>2021-12-09T13:35:28Z</time>
      </trkpt>
      <trkpt lat="46.40522" lon="5.24413">
        <ele>215.4</ele>
        <time>2021-12-09T13:35:32Z</time>
      </trkpt>
      <trkpt lat="46.40527" lon="5.24431">
        <ele>216.6</ele>
        <time>2021-12-09T13:35:35Z</time>
      </trkpt>
      <trkpt lat="46.40531" lon="5.24449">
        <ele>217.2</ele>
        <time>2021-12-09T13:35:38Z</time>
      </trkpt>
      <trkpt lat="46.40534" lon="5.2446">
        <ele>217.6</ele>
        <time>2021-12-09T13:35:40Z</time>
      </trkpt>
      <trkpt lat="46.40539" lon="5.24482">
        <ele>219.4</ele>
        <time>2021-12-09T13:35:44Z</time>
      </trkpt>
      <trkpt lat="46.40542" lon="5.24494">
        <ele>220</ele>
        <time>2021-12-09T13:35:46Z</time>
      </trkpt>
      <trkpt lat="46.40544" lon="5.24505">
        <ele>220.6</ele>
        <time>2021-12-09T13:35:48Z</time>
      </trkpt>
      <trkpt lat="46.40551" lon="5.24533">
        <ele>221.8</ele>
        <time>2021-12-09T13:35:53Z</time>
      </trkpt>
      <trkpt lat="46.40555" lon="5.24555">
        <ele>223.2</ele>
        <time>2021-12-09T13:35:57Z</time>
      </trkpt>
      <trkpt lat="46.40558" lon="5.24566">
        <ele>223.4</ele>
        <time>2021-12-09T13:35:59Z</time>
      </trkpt>
      <trkpt lat="46.40561" lon="5.24582">
        <ele>224.2</ele>
        <time>2021-12-09T13:36:02Z</time>
      </trkpt>
      <trkpt lat="46.40566" lon="5.24604">
        <ele>225.2</ele>
        <time>2021-12-09T13:36:06Z</time>
      </trkpt>
      <trkpt lat="46.40568" lon="5.24609">
        <ele>225.4</ele>
        <time>2021-12-09T13:36:07Z</time>
      </trkpt>
      <trkpt lat="46.40577" lon="5.24648">
        <ele>226.6</ele>
        <time>2021-12-09T13:36:13Z</time>
      </trkpt>
      <trkpt lat="46.40579" lon="5.24655">
        <ele>226.6</ele>
        <time>2021-12-09T13:36:14Z</time>
      </trkpt>
      <trkpt lat="46.40589" lon="5.24701">
        <ele>226.2</ele>
        <time>2021-12-09T13:36:19Z</time>
      </trkpt>
      <trkpt lat="46.40597" lon="5.24733">
        <ele>225.2</ele>
        <time>2021-12-09T13:36:22Z</time>
      </trkpt>
      <trkpt lat="46.40605" lon="5.24768">
        <ele>223.8</ele>
        <time>2021-12-09T13:36:25Z</time>
      </trkpt>
      <trkpt lat="46.40617" lon="5.24817">
        <ele>222.4</ele>
        <time>2021-12-09T13:36:29Z</time>
      </trkpt>
      <trkpt lat="46.40623" lon="5.24842">
        <ele>221</ele>
        <time>2021-12-09T13:36:31Z</time>
      </trkpt>
      <trkpt lat="46.4063" lon="5.24869">
        <ele>219.8</ele>
        <time>2021-12-09T13:36:33Z</time>
      </trkpt>
      <trkpt lat="46.40636" lon="5.24897">
        <ele>218.6</ele>
        <time>2021-12-09T13:36:35Z</time>
      </trkpt>
      <trkpt lat="46.40644" lon="5.24926">
        <ele>217.2</ele>
        <time>2021-12-09T13:36:37Z</time>
      </trkpt>
      <trkpt lat="46.40651" lon="5.24956">
        <ele>215.8</ele>
        <time>2021-12-09T13:36:39Z</time>
      </trkpt>
      <trkpt lat="46.40658" lon="5.24987">
        <ele>214.2</ele>
        <time>2021-12-09T13:36:41Z</time>
      </trkpt>
      <trkpt lat="46.40665" lon="5.25018">
        <ele>212</ele>
        <time>2021-12-09T13:36:43Z</time>
      </trkpt>
      <trkpt lat="46.40672" lon="5.25049">
        <ele>209.8</ele>
        <time>2021-12-09T13:36:45Z</time>
      </trkpt>
      <trkpt lat="46.4068" lon="5.2508">
        <ele>207.6</ele>
        <time>2021-12-09T13:36:47Z</time>
      </trkpt>
      <trkpt lat="46.40687" lon="5.2511">
        <ele>206.4</ele>
        <time>2021-12-09T13:36:49Z</time>
      </trkpt>
      <trkpt lat="46.40694" lon="5.25141">
        <ele>205.2</ele>
        <time>2021-12-09T13:36:51Z</time>
      </trkpt>
      <trkpt lat="46.40698" lon="5.25156">
        <ele>204.2</ele>
        <time>2021-12-09T13:36:52Z</time>
      </trkpt>
      <trkpt lat="46.40705" lon="5.25187">
        <ele>202.8</ele>
        <time>2021-12-09T13:36:54Z</time>
      </trkpt>
      <trkpt lat="46.40712" lon="5.25217">
        <ele>201.4</ele>
        <time>2021-12-09T13:36:56Z</time>
      </trkpt>
      <trkpt lat="46.40716" lon="5.25231">
        <ele>201</ele>
        <time>2021-12-09T13:36:57Z</time>
      </trkpt>
      <trkpt lat="46.40723" lon="5.25259">
        <ele>199.8</ele>
        <time>2021-12-09T13:36:59Z</time>
      </trkpt>
      <trkpt lat="46.40735" lon="5.2531">
        <ele>198.6</ele>
        <time>2021-12-09T13:37:03Z</time>
      </trkpt>
      <trkpt lat="46.40755" lon="5.25391">
        <ele>198.2</ele>
        <time>2021-12-09T13:37:10Z</time>
      </trkpt>
      <trkpt lat="46.40774" lon="5.25463">
        <ele>199.4</ele>
        <time>2021-12-09T13:37:17Z</time>
      </trkpt>
      <trkpt lat="46.40795" lon="5.25539">
        <ele>199.4</ele>
        <time>2021-12-09T13:37:24Z</time>
      </trkpt>
      <trkpt lat="46.40798" lon="5.25549">
        <ele>199.4</ele>
        <time>2021-12-09T13:37:25Z</time>
      </trkpt>
      <trkpt lat="46.40813" lon="5.25607">
        <ele>199.8</ele>
        <time>2021-12-09T13:37:31Z</time>
      </trkpt>
      <trkpt lat="46.40815" lon="5.25616">
        <ele>199.8</ele>
        <time>2021-12-09T13:37:32Z</time>
      </trkpt>
      <trkpt lat="46.40824" lon="5.25647">
        <ele>201</ele>
        <time>2021-12-09T13:37:36Z</time>
      </trkpt>
      <trkpt lat="46.40828" lon="5.25661">
        <ele>201.6</ele>
        <time>2021-12-09T13:37:38Z</time>
      </trkpt>
      <trkpt lat="46.40832" lon="5.25675">
        <ele>202</ele>
        <time>2021-12-09T13:37:40Z</time>
      </trkpt>
      <trkpt lat="46.40839" lon="5.25697">
        <ele>203.2</ele>
        <time>2021-12-09T13:37:43Z</time>
      </trkpt>
      <trkpt lat="46.40845" lon="5.25721">
        <ele>204</ele>
        <time>2021-12-09T13:37:46Z</time>
      </trkpt>
      <trkpt lat="46.40847" lon="5.25727">
        <ele>204.2</ele>
        <time>2021-12-09T13:37:47Z</time>
      </trkpt>
      <trkpt lat="46.40852" lon="5.25744">
        <ele>204.6</ele>
        <time>2021-12-09T13:37:49Z</time>
      </trkpt>
      <trkpt lat="46.40857" lon="5.25757">
        <ele>205.4</ele>
        <time>2021-12-09T13:37:51Z</time>
      </trkpt>
      <trkpt lat="46.4086" lon="5.25764">
        <ele>205.4</ele>
        <time>2021-12-09T13:37:52Z</time>
      </trkpt>
      <trkpt lat="46.40862" lon="5.25773">
        <ele>205.6</ele>
        <time>2021-12-09T13:37:53Z</time>
      </trkpt>
      <trkpt lat="46.40865" lon="5.25796">
        <ele>206</ele>
        <time>2021-12-09T13:37:56Z</time>
      </trkpt>
      <trkpt lat="46.40867" lon="5.25803">
        <ele>206.2</ele>
        <time>2021-12-09T13:37:57Z</time>
      </trkpt>
      <trkpt lat="46.40872" lon="5.2582">
        <ele>206.6</ele>
        <time>2021-12-09T13:37:59Z</time>
      </trkpt>
      <trkpt lat="46.40876" lon="5.25834">
        <ele>206.8</ele>
        <time>2021-12-09T13:38:01Z</time>
      </trkpt>
      <trkpt lat="46.40883" lon="5.25858">
        <ele>207</ele>
        <time>2021-12-09T13:38:04Z</time>
      </trkpt>
      <trkpt lat="46.40886" lon="5.25872">
        <ele>207.2</ele>
        <time>2021-12-09T13:38:06Z</time>
      </trkpt>
      <trkpt lat="46.4089" lon="5.25891">
        <ele>207.2</ele>
        <time>2021-12-09T13:38:08Z</time>
      </trkpt>
      <trkpt lat="46.40898" lon="5.25924">
        <ele>207.2</ele>
        <time>2021-12-09T13:38:12Z</time>
      </trkpt>
      <trkpt lat="46.40917" lon="5.2599">
        <ele>206.4</ele>
        <time>2021-12-09T13:38:19Z</time>
      </trkpt>
      <trkpt lat="46.40939" lon="5.26067">
        <ele>205.8</ele>
        <time>2021-12-09T13:38:27Z</time>
      </trkpt>
      <trkpt lat="46.40944" lon="5.26087">
        <ele>205.6</ele>
        <time>2021-12-09T13:38:29Z</time>
      </trkpt>
      <trkpt lat="46.40966" lon="5.2617">
        <ele>205.4</ele>
        <time>2021-12-09T13:38:38Z</time>
      </trkpt>
      <trkpt lat="46.40981" lon="5.2622">
        <ele>205.8</ele>
        <time>2021-12-09T13:38:44Z</time>
      </trkpt>
      <trkpt lat="46.40995" lon="5.26276">
        <ele>206.6</ele>
        <time>2021-12-09T13:38:51Z</time>
      </trkpt>
      <trkpt lat="46.41006" lon="5.26318">
        <ele>207.8</ele>
        <time>2021-12-09T13:38:57Z</time>
      </trkpt>
      <trkpt lat="46.41011" lon="5.26338">
        <ele>208.8</ele>
        <time>2021-12-09T13:39:00Z</time>
      </trkpt>
      <trkpt lat="46.41012" lon="5.26345">
        <ele>209</ele>
        <time>2021-12-09T13:39:01Z</time>
      </trkpt>
      <trkpt lat="46.41018" lon="5.26366">
        <ele>209.8</ele>
        <time>2021-12-09T13:39:04Z</time>
      </trkpt>
      <trkpt lat="46.41021" lon="5.26375">
        <ele>210</ele>
        <time>2021-12-09T13:39:05Z</time>
      </trkpt>
      <trkpt lat="46.4103" lon="5.26408">
        <ele>211.2</ele>
        <time>2021-12-09T13:39:10Z</time>
      </trkpt>
      <trkpt lat="46.41033" lon="5.26416">
        <ele>211.4</ele>
        <time>2021-12-09T13:39:11Z</time>
      </trkpt>
      <trkpt lat="46.41043" lon="5.26453">
        <ele>212.4</ele>
        <time>2021-12-09T13:39:17Z</time>
      </trkpt>
      <trkpt lat="46.41046" lon="5.26459">
        <ele>212.4</ele>
        <time>2021-12-09T13:39:18Z</time>
      </trkpt>
      <trkpt lat="46.41049" lon="5.26462">
        <ele>212.6</ele>
        <time>2021-12-09T13:39:19Z</time>
      </trkpt>
      <trkpt lat="46.41054" lon="5.26463">
        <ele>212.8</ele>
        <time>2021-12-09T13:39:20Z</time>
      </trkpt>
      <trkpt lat="46.41072" lon="5.26462">
        <ele>213.4</ele>
        <time>2021-12-09T13:39:24Z</time>
      </trkpt>
      <trkpt lat="46.41077" lon="5.26461">
        <ele>213.4</ele>
        <time>2021-12-09T13:39:25Z</time>
      </trkpt>
      <trkpt lat="46.41082" lon="5.26459">
        <ele>213.6</ele>
        <time>2021-12-09T13:39:26Z</time>
      </trkpt>
      <trkpt lat="46.41097" lon="5.26455">
        <ele>214</ele>
        <time>2021-12-09T13:39:29Z</time>
      </trkpt>
      <trkpt lat="46.41112" lon="5.26456">
        <ele>214.4</ele>
        <time>2021-12-09T13:39:32Z</time>
      </trkpt>
      <trkpt lat="46.41117" lon="5.26457">
        <ele>214.6</ele>
        <time>2021-12-09T13:39:33Z</time>
      </trkpt>
      <trkpt lat="46.41153" lon="5.26472">
        <ele>215</ele>
        <time>2021-12-09T13:39:40Z</time>
      </trkpt>
      <trkpt lat="46.41165" lon="5.26482">
        <ele>215</ele>
        <time>2021-12-09T13:39:43Z</time>
      </trkpt>
      <trkpt lat="46.41173" lon="5.26493">
        <ele>215.2</ele>
        <time>2021-12-09T13:39:45Z</time>
      </trkpt>
      <trkpt lat="46.412" lon="5.26528">
        <ele>215</ele>
        <time>2021-12-09T13:39:52Z</time>
      </trkpt>
      <trkpt lat="46.41227" lon="5.26563">
        <ele>215</ele>
        <time>2021-12-09T13:39:59Z</time>
      </trkpt>
      <trkpt lat="46.41231" lon="5.26567">
        <ele>215.2</ele>
        <time>2021-12-09T13:40:00Z</time>
      </trkpt>
      <trkpt lat="46.4124" lon="5.26572">
        <ele>215.6</ele>
        <time>2021-12-09T13:40:02Z</time>
      </trkpt>
      <trkpt lat="46.41244" lon="5.26573">
        <ele>215.8</ele>
        <time>2021-12-09T13:40:03Z</time>
      </trkpt>
      <trkpt lat="46.41257" lon="5.26576">
        <ele>216.6</ele>
        <time>2021-12-09T13:40:06Z</time>
      </trkpt>
      <trkpt lat="46.41273" lon="5.26578">
        <ele>216.8</ele>
        <time>2021-12-09T13:40:09Z</time>
      </trkpt>
      <trkpt lat="46.41293" lon="5.26581">
        <ele>217.8</ele>
        <time>2021-12-09T13:40:13Z</time>
      </trkpt>
      <trkpt lat="46.41302" lon="5.2658">
        <ele>218</ele>
        <time>2021-12-09T13:40:15Z</time>
      </trkpt>
      <trkpt lat="46.41308" lon="5.26577">
        <ele>218</ele>
        <time>2021-12-09T13:40:16Z</time>
      </trkpt>
      <trkpt lat="46.4132" lon="5.26569">
        <ele>218</ele>
        <time>2021-12-09T13:40:18Z</time>
      </trkpt>
      <trkpt lat="46.41336" lon="5.26554">
        <ele>217.8</ele>
        <time>2021-12-09T13:40:21Z</time>
      </trkpt>
      <trkpt lat="46.41349" lon="5.2654">
        <ele>217.4</ele>
        <time>2021-12-09T13:40:23Z</time>
      </trkpt>
      <trkpt lat="46.41362" lon="5.26532">
        <ele>216.8</ele>
        <time>2021-12-09T13:40:25Z</time>
      </trkpt>
      <trkpt lat="46.4137" lon="5.26528">
        <ele>216.8</ele>
        <time>2021-12-09T13:40:26Z</time>
      </trkpt>
      <trkpt lat="46.41376" lon="5.26526">
        <ele>216.2</ele>
        <time>2021-12-09T13:40:27Z</time>
      </trkpt>
      <trkpt lat="46.41392" lon="5.26524">
        <ele>215.6</ele>
        <time>2021-12-09T13:40:29Z</time>
      </trkpt>
      <trkpt lat="46.41399" lon="5.26524">
        <ele>215.2</ele>
        <time>2021-12-09T13:40:30Z</time>
      </trkpt>
      <trkpt lat="46.41438" lon="5.26521">
        <ele>214.6</ele>
        <time>2021-12-09T13:40:35Z</time>
      </trkpt>
      <trkpt lat="46.41452" lon="5.26517">
        <ele>214.4</ele>
        <time>2021-12-09T13:40:37Z</time>
      </trkpt>
      <trkpt lat="46.4148" lon="5.2651">
        <ele>213.4</ele>
        <time>2021-12-09T13:40:41Z</time>
      </trkpt>
      <trkpt lat="46.41501" lon="5.26506">
        <ele>212.8</ele>
        <time>2021-12-09T13:40:44Z</time>
      </trkpt>
      <trkpt lat="46.41508" lon="5.26506">
        <ele>212.8</ele>
        <time>2021-12-09T13:40:45Z</time>
      </trkpt>
      <trkpt lat="46.41528" lon="5.26508">
        <ele>212.2</ele>
        <time>2021-12-09T13:40:48Z</time>
      </trkpt>
      <trkpt lat="46.41534" lon="5.2651">
        <ele>212</ele>
        <time>2021-12-09T13:40:49Z</time>
      </trkpt>
      <trkpt lat="46.41553" lon="5.26514">
        <ele>211.8</ele>
        <time>2021-12-09T13:40:52Z</time>
      </trkpt>
      <trkpt lat="46.41558" lon="5.26517">
        <ele>211.8</ele>
        <time>2021-12-09T13:40:53Z</time>
      </trkpt>
      <trkpt lat="46.41561" lon="5.26521">
        <ele>211.4</ele>
        <time>2021-12-09T13:40:54Z</time>
      </trkpt>
      <trkpt lat="46.41567" lon="5.2653">
        <ele>211.2</ele>
        <time>2021-12-09T13:40:56Z</time>
      </trkpt>
      <trkpt lat="46.4157" lon="5.26533">
        <ele>211</ele>
        <time>2021-12-09T13:40:57Z</time>
      </trkpt>
      <trkpt lat="46.41579" lon="5.26535">
        <ele>211</ele>
        <time>2021-12-09T13:40:59Z</time>
      </trkpt>
      <trkpt lat="46.41584" lon="5.26533">
        <ele>211</ele>
        <time>2021-12-09T13:41:00Z</time>
      </trkpt>
      <trkpt lat="46.41614" lon="5.26519">
        <ele>211</ele>
        <time>2021-12-09T13:41:05Z</time>
      </trkpt>
      <trkpt lat="46.41648" lon="5.26509">
        <ele>210.8</ele>
        <time>2021-12-09T13:41:10Z</time>
      </trkpt>
      <trkpt lat="46.41691" lon="5.26509">
        <ele>210.8</ele>
        <time>2021-12-09T13:41:16Z</time>
      </trkpt>
      <trkpt lat="46.41739" lon="5.26521">
        <ele>210.6</ele>
        <time>2021-12-09T13:41:23Z</time>
      </trkpt>
      <trkpt lat="46.41794" lon="5.26543">
        <ele>210.8</ele>
        <time>2021-12-09T13:41:31Z</time>
      </trkpt>
      <trkpt lat="46.418" lon="5.26546">
        <ele>210.8</ele>
        <time>2021-12-09T13:41:32Z</time>
      </trkpt>
      <trkpt lat="46.41858" lon="5.2657">
        <ele>210.8</ele>
        <time>2021-12-09T13:41:41Z</time>
      </trkpt>
      <trkpt lat="46.41876" lon="5.26578">
        <ele>211</ele>
        <time>2021-12-09T13:41:44Z</time>
      </trkpt>
      <trkpt lat="46.41932" lon="5.26601">
        <ele>212</ele>
        <time>2021-12-09T13:41:53Z</time>
      </trkpt>
      <trkpt lat="46.41945" lon="5.26606">
        <ele>212.2</ele>
        <time>2021-12-09T13:41:55Z</time>
      </trkpt>
      <trkpt lat="46.42002" lon="5.26628">
        <ele>212.6</ele>
        <time>2021-12-09T13:42:04Z</time>
      </trkpt>
      <trkpt lat="46.42009" lon="5.26631">
        <ele>212.6</ele>
        <time>2021-12-09T13:42:05Z</time>
      </trkpt>
      <trkpt lat="46.42061" lon="5.26651">
        <ele>212.6</ele>
        <time>2021-12-09T13:42:13Z</time>
      </trkpt>
      <trkpt lat="46.42088" lon="5.26661">
        <ele>212.6</ele>
        <time>2021-12-09T13:42:17Z</time>
      </trkpt>
      <trkpt lat="46.42145" lon="5.26682">
        <ele>213.2</ele>
        <time>2021-12-09T13:42:26Z</time>
      </trkpt>
      <trkpt lat="46.42163" lon="5.26688">
        <ele>213.6</ele>
        <time>2021-12-09T13:42:29Z</time>
      </trkpt>
      <trkpt lat="46.42198" lon="5.26701">
        <ele>214.4</ele>
        <time>2021-12-09T13:42:35Z</time>
      </trkpt>
      <trkpt lat="46.42204" lon="5.26703">
        <ele>214.6</ele>
        <time>2021-12-09T13:42:36Z</time>
      </trkpt>
      <trkpt lat="46.42229" lon="5.2671">
        <ele>214.8</ele>
        <time>2021-12-09T13:42:40Z</time>
      </trkpt>
      <trkpt lat="46.42243" lon="5.26715">
        <ele>215</ele>
        <time>2021-12-09T13:42:42Z</time>
      </trkpt>
      <trkpt lat="46.4228" lon="5.26727">
        <ele>214.6</ele>
        <time>2021-12-09T13:42:47Z</time>
      </trkpt>
      <trkpt lat="46.42321" lon="5.26738">
        <ele>213.4</ele>
        <time>2021-12-09T13:42:52Z</time>
      </trkpt>
      <trkpt lat="46.42337" lon="5.26741">
        <ele>212.8</ele>
        <time>2021-12-09T13:42:54Z</time>
      </trkpt>
      <trkpt lat="46.42353" lon="5.26746">
        <ele>211.8</ele>
        <time>2021-12-09T13:42:56Z</time>
      </trkpt>
      <trkpt lat="46.42402" lon="5.26758">
        <ele>210.8</ele>
        <time>2021-12-09T13:43:02Z</time>
      </trkpt>
      <trkpt lat="46.42419" lon="5.26762">
        <ele>210.8</ele>
        <time>2021-12-09T13:43:04Z</time>
      </trkpt>
      <trkpt lat="46.42453" lon="5.2677">
        <ele>209.8</ele>
        <time>2021-12-09T13:43:08Z</time>
      </trkpt>
      <trkpt lat="46.42498" lon="5.26781">
        <ele>208.6</ele>
        <time>2021-12-09T13:43:13Z</time>
      </trkpt>
      <trkpt lat="46.42516" lon="5.26785">
        <ele>208</ele>
        <time>2021-12-09T13:43:15Z</time>
      </trkpt>
      <trkpt lat="46.42533" lon="5.2679">
        <ele>207.6</ele>
        <time>2021-12-09T13:43:17Z</time>
      </trkpt>
      <trkpt lat="46.42582" lon="5.26802">
        <ele>207</ele>
        <time>2021-12-09T13:43:23Z</time>
      </trkpt>
      <trkpt lat="46.42621" lon="5.26811">
        <ele>207.8</ele>
        <time>2021-12-09T13:43:29Z</time>
      </trkpt>
      <trkpt lat="46.42631" lon="5.26815">
        <ele>208.6</ele>
        <time>2021-12-09T13:43:31Z</time>
      </trkpt>
      <trkpt lat="46.42638" lon="5.26817">
        <ele>208.8</ele>
        <time>2021-12-09T13:43:32Z</time>
      </trkpt>
      <trkpt lat="46.4265" lon="5.26818">
        <ele>209.6</ele>
        <time>2021-12-09T13:43:34Z</time>
      </trkpt>
      <trkpt lat="46.42655" lon="5.2682">
        <ele>210</ele>
        <time>2021-12-09T13:43:35Z</time>
      </trkpt>
      <trkpt lat="46.42671" lon="5.26824">
        <ele>211</ele>
        <time>2021-12-09T13:43:38Z</time>
      </trkpt>
      <trkpt lat="46.42686" lon="5.26828">
        <ele>212.2</ele>
        <time>2021-12-09T13:43:41Z</time>
      </trkpt>
      <trkpt lat="46.42701" lon="5.26833">
        <ele>213.4</ele>
        <time>2021-12-09T13:43:44Z</time>
      </trkpt>
      <trkpt lat="46.42716" lon="5.26837">
        <ele>214.4</ele>
        <time>2021-12-09T13:43:47Z</time>
      </trkpt>
      <trkpt lat="46.42736" lon="5.26841">
        <ele>215.8</ele>
        <time>2021-12-09T13:43:51Z</time>
      </trkpt>
      <trkpt lat="46.42756" lon="5.26847">
        <ele>217.2</ele>
        <time>2021-12-09T13:43:55Z</time>
      </trkpt>
      <trkpt lat="46.4277" lon="5.2685">
        <ele>218.4</ele>
        <time>2021-12-09T13:43:58Z</time>
      </trkpt>
      <trkpt lat="46.4278" lon="5.26852">
        <ele>218.8</ele>
        <time>2021-12-09T13:44:00Z</time>
      </trkpt>
      <trkpt lat="46.42789" lon="5.26854">
        <ele>219.6</ele>
        <time>2021-12-09T13:44:02Z</time>
      </trkpt>
      <trkpt lat="46.42803" lon="5.26858">
        <ele>220.8</ele>
        <time>2021-12-09T13:44:05Z</time>
      </trkpt>
      <trkpt lat="46.42816" lon="5.26859">
        <ele>221.6</ele>
        <time>2021-12-09T13:44:08Z</time>
      </trkpt>
      <trkpt lat="46.4282" lon="5.2686">
        <ele>222</ele>
        <time>2021-12-09T13:44:09Z</time>
      </trkpt>
      <trkpt lat="46.4284" lon="5.26862">
        <ele>223.2</ele>
        <time>2021-12-09T13:44:14Z</time>
      </trkpt>
      <trkpt lat="46.42849" lon="5.26863">
        <ele>223.6</ele>
        <time>2021-12-09T13:44:16Z</time>
      </trkpt>
      <trkpt lat="46.42865" lon="5.26863">
        <ele>224.2</ele>
        <time>2021-12-09T13:44:20Z</time>
      </trkpt>
      <trkpt lat="46.42892" lon="5.26861">
        <ele>225</ele>
        <time>2021-12-09T13:44:26Z</time>
      </trkpt>
      <trkpt lat="46.42911" lon="5.26858">
        <ele>225.2</ele>
        <time>2021-12-09T13:44:30Z</time>
      </trkpt>
      <trkpt lat="46.42931" lon="5.26855">
        <ele>225.4</ele>
        <time>2021-12-09T13:44:34Z</time>
      </trkpt>
      <trkpt lat="46.42983" lon="5.26848">
        <ele>225.4</ele>
        <time>2021-12-09T13:44:43Z</time>
      </trkpt>
      <trkpt lat="46.43032" lon="5.26843">
        <ele>224.4</ele>
        <time>2021-12-09T13:44:50Z</time>
      </trkpt>
      <trkpt lat="46.43048" lon="5.26843">
        <ele>224.2</ele>
        <time>2021-12-09T13:44:52Z</time>
      </trkpt>
      <trkpt lat="46.43074" lon="5.26845">
        <ele>223.2</ele>
        <time>2021-12-09T13:44:55Z</time>
      </trkpt>
      <trkpt lat="46.43101" lon="5.26848">
        <ele>222</ele>
        <time>2021-12-09T13:44:58Z</time>
      </trkpt>
      <trkpt lat="46.4313" lon="5.26855">
        <ele>220.4</ele>
        <time>2021-12-09T13:45:01Z</time>
      </trkpt>
      <trkpt lat="46.4315" lon="5.26861">
        <ele>219.2</ele>
        <time>2021-12-09T13:45:03Z</time>
      </trkpt>
      <trkpt lat="46.43161" lon="5.26865">
        <ele>218.2</ele>
        <time>2021-12-09T13:45:04Z</time>
      </trkpt>
      <trkpt lat="46.43182" lon="5.2687">
        <ele>216.8</ele>
        <time>2021-12-09T13:45:06Z</time>
      </trkpt>
      <trkpt lat="46.43203" lon="5.26875">
        <ele>215</ele>
        <time>2021-12-09T13:45:08Z</time>
      </trkpt>
      <trkpt lat="46.43224" lon="5.26878">
        <ele>213.8</ele>
        <time>2021-12-09T13:45:10Z</time>
      </trkpt>
      <trkpt lat="46.43255" lon="5.26879">
        <ele>212.4</ele>
        <time>2021-12-09T13:45:13Z</time>
      </trkpt>
      <trkpt lat="46.43275" lon="5.2688">
        <ele>211.8</ele>
        <time>2021-12-09T13:45:15Z</time>
      </trkpt>
      <trkpt lat="46.43303" lon="5.2688">
        <ele>211.4</ele>
        <time>2021-12-09T13:45:18Z</time>
      </trkpt>
      <trkpt lat="46.4335" lon="5.26882">
        <ele>211.2</ele>
        <time>2021-12-09T13:45:23Z</time>
      </trkpt>
      <trkpt lat="46.43403" lon="5.2689">
        <ele>210.8</ele>
        <time>2021-12-09T13:45:29Z</time>
      </trkpt>
      <trkpt lat="46.43412" lon="5.26891">
        <ele>210.8</ele>
        <time>2021-12-09T13:45:30Z</time>
      </trkpt>
      <trkpt lat="46.43449" lon="5.26898">
        <ele>210.2</ele>
        <time>2021-12-09T13:45:34Z</time>
      </trkpt>
      <trkpt lat="46.43504" lon="5.26908">
        <ele>209.4</ele>
        <time>2021-12-09T13:45:40Z</time>
      </trkpt>
      <trkpt lat="46.43513" lon="5.2691">
        <ele>209.2</ele>
        <time>2021-12-09T13:45:41Z</time>
      </trkpt>
      <trkpt lat="46.43557" lon="5.26919">
        <ele>208</ele>
        <time>2021-12-09T13:45:46Z</time>
      </trkpt>
      <trkpt lat="46.43592" lon="5.26928">
        <ele>207.6</ele>
        <time>2021-12-09T13:45:50Z</time>
      </trkpt>
      <trkpt lat="46.43649" lon="5.26949">
        <ele>207.2</ele>
        <time>2021-12-09T13:45:57Z</time>
      </trkpt>
      <trkpt lat="46.43666" lon="5.26955">
        <ele>207</ele>
        <time>2021-12-09T13:45:59Z</time>
      </trkpt>
      <trkpt lat="46.43674" lon="5.26958">
        <ele>207</ele>
        <time>2021-12-09T13:46:00Z</time>
      </trkpt>
      <trkpt lat="46.4373" lon="5.2698">
        <ele>206.4</ele>
        <time>2021-12-09T13:46:07Z</time>
      </trkpt>
      <trkpt lat="46.43747" lon="5.26986">
        <ele>206.2</ele>
        <time>2021-12-09T13:46:09Z</time>
      </trkpt>
      <trkpt lat="46.43771" lon="5.26994">
        <ele>206</ele>
        <time>2021-12-09T13:46:12Z</time>
      </trkpt>
      <trkpt lat="46.43794" lon="5.26996">
        <ele>205.6</ele>
        <time>2021-12-09T13:46:15Z</time>
      </trkpt>
      <trkpt lat="46.43824" lon="5.26985">
        <ele>205.6</ele>
        <time>2021-12-09T13:46:19Z</time>
      </trkpt>
      <trkpt lat="46.43837" lon="5.26973">
        <ele>205.6</ele>
        <time>2021-12-09T13:46:21Z</time>
      </trkpt>
      <trkpt lat="46.43848" lon="5.2696">
        <ele>205.6</ele>
        <time>2021-12-09T13:46:23Z</time>
      </trkpt>
      <trkpt lat="46.43853" lon="5.26952">
        <ele>205.8</ele>
        <time>2021-12-09T13:46:24Z</time>
      </trkpt>
      <trkpt lat="46.4386" lon="5.26936">
        <ele>206.4</ele>
        <time>2021-12-09T13:46:26Z</time>
      </trkpt>
      <trkpt lat="46.43863" lon="5.26926">
        <ele>206.8</ele>
        <time>2021-12-09T13:46:27Z</time>
      </trkpt>
      <trkpt lat="46.43867" lon="5.26908">
        <ele>207</ele>
        <time>2021-12-09T13:46:29Z</time>
      </trkpt>
      <trkpt lat="46.4387" lon="5.26888">
        <ele>207.4</ele>
        <time>2021-12-09T13:46:31Z</time>
      </trkpt>
      <trkpt lat="46.43871" lon="5.26878">
        <ele>207.8</ele>
        <time>2021-12-09T13:46:32Z</time>
      </trkpt>
      <trkpt lat="46.43871" lon="5.26869">
        <ele>208</ele>
        <time>2021-12-09T13:46:33Z</time>
      </trkpt>
      <trkpt lat="46.43873" lon="5.26849">
        <ele>208.2</ele>
        <time>2021-12-09T13:46:35Z</time>
      </trkpt>
      <trkpt lat="46.43877" lon="5.2683">
        <ele>208.4</ele>
        <time>2021-12-09T13:46:37Z</time>
      </trkpt>
      <trkpt lat="46.43888" lon="5.26816">
        <ele>208.2</ele>
        <time>2021-12-09T13:46:39Z</time>
      </trkpt>
      <trkpt lat="46.43894" lon="5.26813">
        <ele>208</ele>
        <time>2021-12-09T13:46:40Z</time>
      </trkpt>
      <trkpt lat="46.439" lon="5.26813">
        <ele>207.6</ele>
        <time>2021-12-09T13:46:41Z</time>
      </trkpt>
      <trkpt lat="46.43907" lon="5.26816">
        <ele>207.4</ele>
        <time>2021-12-09T13:46:42Z</time>
      </trkpt>
      <trkpt lat="46.4392" lon="5.26826">
        <ele>207</ele>
        <time>2021-12-09T13:46:44Z</time>
      </trkpt>
      <trkpt lat="46.43926" lon="5.26829">
        <ele>206.6</ele>
        <time>2021-12-09T13:46:45Z</time>
      </trkpt>
      <trkpt lat="46.43933" lon="5.26829">
        <ele>206.6</ele>
        <time>2021-12-09T13:46:46Z</time>
      </trkpt>
      <trkpt lat="46.43939" lon="5.26826">
        <ele>206.4</ele>
        <time>2021-12-09T13:46:47Z</time>
      </trkpt>
      <trkpt lat="46.43949" lon="5.26815">
        <ele>206.2</ele>
        <time>2021-12-09T13:46:49Z</time>
      </trkpt>
      <trkpt lat="46.43964" lon="5.26793">
        <ele>206</ele>
        <time>2021-12-09T13:46:52Z</time>
      </trkpt>
      <trkpt lat="46.4397" lon="5.26789">
        <ele>206</ele>
        <time>2021-12-09T13:46:53Z</time>
      </trkpt>
      <trkpt lat="46.43977" lon="5.26788">
        <ele>206</ele>
        <time>2021-12-09T13:46:54Z</time>
      </trkpt>
      <trkpt lat="46.43984" lon="5.26789">
        <ele>206</ele>
        <time>2021-12-09T13:46:55Z</time>
      </trkpt>
      <trkpt lat="46.4399" lon="5.26792">
        <ele>205.8</ele>
        <time>2021-12-09T13:46:56Z</time>
      </trkpt>
      <trkpt lat="46.44021" lon="5.2682">
        <ele>205.4</ele>
        <time>2021-12-09T13:47:01Z</time>
      </trkpt>
      <trkpt lat="46.44047" lon="5.26845">
        <ele>204.8</ele>
        <time>2021-12-09T13:47:05Z</time>
      </trkpt>
      <trkpt lat="46.44067" lon="5.26864">
        <ele>204.2</ele>
        <time>2021-12-09T13:47:08Z</time>
      </trkpt>
      <trkpt lat="46.44081" lon="5.26877">
        <ele>203.6</ele>
        <time>2021-12-09T13:47:10Z</time>
      </trkpt>
      <trkpt lat="46.44107" lon="5.26903">
        <ele>202.6</ele>
        <time>2021-12-09T13:47:14Z</time>
      </trkpt>
      <trkpt lat="46.44127" lon="5.26921">
        <ele>202</ele>
        <time>2021-12-09T13:47:17Z</time>
      </trkpt>
      <trkpt lat="46.44141" lon="5.26932">
        <ele>201.8</ele>
        <time>2021-12-09T13:47:19Z</time>
      </trkpt>
      <trkpt lat="46.44155" lon="5.26937">
        <ele>201.8</ele>
        <time>2021-12-09T13:47:21Z</time>
      </trkpt>
      <trkpt lat="46.4417" lon="5.26933">
        <ele>201.6</ele>
        <time>2021-12-09T13:47:23Z</time>
      </trkpt>
      <trkpt lat="46.44176" lon="5.26928">
        <ele>201.6</ele>
        <time>2021-12-09T13:47:24Z</time>
      </trkpt>
      <trkpt lat="46.44182" lon="5.26922">
        <ele>201.6</ele>
        <time>2021-12-09T13:47:25Z</time>
      </trkpt>
      <trkpt lat="46.44197" lon="5.26902">
        <ele>201.8</ele>
        <time>2021-12-09T13:47:28Z</time>
      </trkpt>
      <trkpt lat="46.4422" lon="5.26878">
        <ele>202.8</ele>
        <time>2021-12-09T13:47:33Z</time>
      </trkpt>
      <trkpt lat="46.44237" lon="5.26865">
        <ele>204</ele>
        <time>2021-12-09T13:47:37Z</time>
      </trkpt>
      <trkpt lat="46.44245" lon="5.26859">
        <ele>205</ele>
        <time>2021-12-09T13:47:39Z</time>
      </trkpt>
      <trkpt lat="46.4425" lon="5.26856">
        <ele>205.4</ele>
        <time>2021-12-09T13:47:40Z</time>
      </trkpt>
      <trkpt lat="46.44266" lon="5.26847">
        <ele>207</ele>
        <time>2021-12-09T13:47:44Z</time>
      </trkpt>
      <trkpt lat="46.44278" lon="5.26842">
        <ele>208</ele>
        <time>2021-12-09T13:47:47Z</time>
      </trkpt>
      <trkpt lat="46.44283" lon="5.2684">
        <ele>208.2</ele>
        <time>2021-12-09T13:47:48Z</time>
      </trkpt>
      <trkpt lat="46.44292" lon="5.26837">
        <ele>209</ele>
        <time>2021-12-09T13:47:50Z</time>
      </trkpt>
      <trkpt lat="46.44314" lon="5.26829">
        <ele>210.2</ele>
        <time>2021-12-09T13:47:55Z</time>
      </trkpt>
      <trkpt lat="46.44319" lon="5.26828">
        <ele>210.4</ele>
        <time>2021-12-09T13:47:56Z</time>
      </trkpt>
      <trkpt lat="46.44332" lon="5.26823">
        <ele>210.8</ele>
        <time>2021-12-09T13:47:59Z</time>
      </trkpt>
      <trkpt lat="46.44341" lon="5.26816">
        <ele>211</ele>
        <time>2021-12-09T13:48:01Z</time>
      </trkpt>
      <trkpt lat="46.44345" lon="5.26812">
        <ele>211.2</ele>
        <time>2021-12-09T13:48:02Z</time>
      </trkpt>
      <trkpt lat="46.44355" lon="5.26795">
        <ele>211.4</ele>
        <time>2021-12-09T13:48:05Z</time>
      </trkpt>
      <trkpt lat="46.44363" lon="5.26777">
        <ele>211.6</ele>
        <time>2021-12-09T13:48:08Z</time>
      </trkpt>
      <trkpt lat="46.44371" lon="5.2676">
        <ele>211.8</ele>
        <time>2021-12-09T13:48:11Z</time>
      </trkpt>
      <trkpt lat="46.44381" lon="5.26746">
        <ele>212</ele>
        <time>2021-12-09T13:48:14Z</time>
      </trkpt>
      <trkpt lat="46.44384" lon="5.26743">
        <ele>212.2</ele>
        <time>2021-12-09T13:48:15Z</time>
      </trkpt>
      <trkpt lat="46.44388" lon="5.2674">
        <ele>212.4</ele>
        <time>2021-12-09T13:48:16Z</time>
      </trkpt>
      <trkpt lat="46.44396" lon="5.26736">
        <ele>212.8</ele>
        <time>2021-12-09T13:48:18Z</time>
      </trkpt>
      <trkpt lat="46.44405" lon="5.26733">
        <ele>213.4</ele>
        <time>2021-12-09T13:48:20Z</time>
      </trkpt>
      <trkpt lat="46.44409" lon="5.26732">
        <ele>213.8</ele>
        <time>2021-12-09T13:48:21Z</time>
      </trkpt>
      <trkpt lat="46.44425" lon="5.26728">
        <ele>214.8</ele>
        <time>2021-12-09T13:48:25Z</time>
      </trkpt>
      <trkpt lat="46.44441" lon="5.26724">
        <ele>215.8</ele>
        <time>2021-12-09T13:48:29Z</time>
      </trkpt>
      <trkpt lat="46.44465" lon="5.26717">
        <ele>217</ele>
        <time>2021-12-09T13:48:35Z</time>
      </trkpt>
      <trkpt lat="46.4447" lon="5.26715">
        <ele>217.4</ele>
        <time>2021-12-09T13:48:36Z</time>
      </trkpt>
      <trkpt lat="46.44474" lon="5.26712">
        <ele>217.6</ele>
        <time>2021-12-09T13:48:37Z</time>
      </trkpt>
      <trkpt lat="46.44488" lon="5.26698">
        <ele>218</ele>
        <time>2021-12-09T13:48:41Z</time>
      </trkpt>
      <trkpt lat="46.44491" lon="5.26694">
        <ele>218.2</ele>
        <time>2021-12-09T13:48:42Z</time>
      </trkpt>
      <trkpt lat="46.44503" lon="5.26678">
        <ele>219.4</ele>
        <time>2021-12-09T13:48:46Z</time>
      </trkpt>
      <trkpt lat="46.44514" lon="5.26663">
        <ele>220.6</ele>
        <time>2021-12-09T13:48:50Z</time>
      </trkpt>
      <trkpt lat="46.44528" lon="5.26652">
        <ele>221.6</ele>
        <time>2021-12-09T13:48:54Z</time>
      </trkpt>
      <trkpt lat="46.44541" lon="5.26645">
        <ele>222.8</ele>
        <time>2021-12-09T13:48:57Z</time>
      </trkpt>
      <trkpt lat="46.4455" lon="5.26641">
        <ele>223</ele>
        <time>2021-12-09T13:48:59Z</time>
      </trkpt>
      <trkpt lat="46.44564" lon="5.26638">
        <ele>223.4</ele>
        <time>2021-12-09T13:49:02Z</time>
      </trkpt>
      <trkpt lat="46.44569" lon="5.26639">
        <ele>223.6</ele>
        <time>2021-12-09T13:49:03Z</time>
      </trkpt>
      <trkpt lat="46.44586" lon="5.26644">
        <ele>223.8</ele>
        <time>2021-12-09T13:49:06Z</time>
      </trkpt>
      <trkpt lat="46.44619" lon="5.26664">
        <ele>223.2</ele>
        <time>2021-12-09T13:49:11Z</time>
      </trkpt>
      <trkpt lat="46.44649" lon="5.26686">
        <ele>221.8</ele>
        <time>2021-12-09T13:49:15Z</time>
      </trkpt>
      <trkpt lat="46.44664" lon="5.26696">
        <ele>220.8</ele>
        <time>2021-12-09T13:49:17Z</time>
      </trkpt>
      <trkpt lat="46.44672" lon="5.267">
        <ele>220.2</ele>
        <time>2021-12-09T13:49:18Z</time>
      </trkpt>
      <trkpt lat="46.44687" lon="5.26705">
        <ele>219.6</ele>
        <time>2021-12-09T13:49:20Z</time>
      </trkpt>
      <trkpt lat="46.44695" lon="5.26706">
        <ele>219.4</ele>
        <time>2021-12-09T13:49:21Z</time>
      </trkpt>
      <trkpt lat="46.44724" lon="5.26704">
        <ele>219.2</ele>
        <time>2021-12-09T13:49:25Z</time>
      </trkpt>
      <trkpt lat="46.44753" lon="5.26694">
        <ele>220.2</ele>
        <time>2021-12-09T13:49:30Z</time>
      </trkpt>
      <trkpt lat="46.44767" lon="5.26687">
        <ele>221.6</ele>
        <time>2021-12-09T13:49:33Z</time>
      </trkpt>
      <trkpt lat="46.44781" lon="5.26677">
        <ele>222.6</ele>
        <time>2021-12-09T13:49:36Z</time>
      </trkpt>
      <trkpt lat="46.44795" lon="5.26666">
        <ele>223.4</ele>
        <time>2021-12-09T13:49:39Z</time>
      </trkpt>
      <trkpt lat="46.448" lon="5.26665">
        <ele>223.8</ele>
        <time>2021-12-09T13:49:40Z</time>
      </trkpt>
      <trkpt lat="46.44806" lon="5.26664">
        <ele>224</ele>
        <time>2021-12-09T13:49:41Z</time>
      </trkpt>
      <trkpt lat="46.44822" lon="5.26661">
        <ele>224.8</ele>
        <time>2021-12-09T13:49:44Z</time>
      </trkpt>
      <trkpt lat="46.44828" lon="5.26658">
        <ele>225</ele>
        <time>2021-12-09T13:49:45Z</time>
      </trkpt>
      <trkpt lat="46.44833" lon="5.26654">
        <ele>225</ele>
        <time>2021-12-09T13:49:46Z</time>
      </trkpt>
      <trkpt lat="46.4484" lon="5.2664">
        <ele>225.4</ele>
        <time>2021-12-09T13:49:48Z</time>
      </trkpt>
      <trkpt lat="46.44843" lon="5.26632">
        <ele>225.6</ele>
        <time>2021-12-09T13:49:49Z</time>
      </trkpt>
      <trkpt lat="46.44853" lon="5.26594">
        <ele>225.4</ele>
        <time>2021-12-09T13:49:53Z</time>
      </trkpt>
      <trkpt lat="46.44857" lon="5.26585">
        <ele>225.4</ele>
        <time>2021-12-09T13:49:54Z</time>
      </trkpt>
      <trkpt lat="46.44863" lon="5.26576">
        <ele>225.2</ele>
        <time>2021-12-09T13:49:55Z</time>
      </trkpt>
      <trkpt lat="46.44883" lon="5.26555">
        <ele>224.2</ele>
        <time>2021-12-09T13:49:58Z</time>
      </trkpt>
      <trkpt lat="46.44891" lon="5.26549">
        <ele>223.6</ele>
        <time>2021-12-09T13:49:59Z</time>
      </trkpt>
      <trkpt lat="46.44907" lon="5.26542">
        <ele>222.4</ele>
        <time>2021-12-09T13:50:01Z</time>
      </trkpt>
      <trkpt lat="46.44916" lon="5.26538">
        <ele>222.2</ele>
        <time>2021-12-09T13:50:02Z</time>
      </trkpt>
      <trkpt lat="46.4494" lon="5.26526">
        <ele>221.4</ele>
        <time>2021-12-09T13:50:05Z</time>
      </trkpt>
      <trkpt lat="46.44971" lon="5.26515">
        <ele>221.2</ele>
        <time>2021-12-09T13:50:09Z</time>
      </trkpt>
      <trkpt lat="46.45021" lon="5.26514">
        <ele>221.4</ele>
        <time>2021-12-09T13:50:16Z</time>
      </trkpt>
      <trkpt lat="46.45075" lon="5.26517">
        <ele>222.4</ele>
        <time>2021-12-09T13:50:24Z</time>
      </trkpt>
      <trkpt lat="46.45082" lon="5.26518">
        <ele>222.4</ele>
        <time>2021-12-09T13:50:25Z</time>
      </trkpt>
      <trkpt lat="46.45129" lon="5.26532">
        <ele>223.2</ele>
        <time>2021-12-09T13:50:32Z</time>
      </trkpt>
      <trkpt lat="46.45187" lon="5.26555">
        <ele>223.2</ele>
        <time>2021-12-09T13:50:40Z</time>
      </trkpt>
      <trkpt lat="46.45194" lon="5.26557">
        <ele>223.2</ele>
        <time>2021-12-09T13:50:41Z</time>
      </trkpt>
      <trkpt lat="46.45238" lon="5.26558">
        <ele>223</ele>
        <time>2021-12-09T13:50:47Z</time>
      </trkpt>
      <trkpt lat="46.45295" lon="5.26549">
        <ele>223</ele>
        <time>2021-12-09T13:50:55Z</time>
      </trkpt>
      <trkpt lat="46.45302" lon="5.26548">
        <ele>223</ele>
        <time>2021-12-09T13:50:56Z</time>
      </trkpt>
      <trkpt lat="46.45316" lon="5.26547">
        <ele>223</ele>
        <time>2021-12-09T13:50:58Z</time>
      </trkpt>
      <trkpt lat="46.45337" lon="5.26551">
        <ele>223.2</ele>
        <time>2021-12-09T13:51:01Z</time>
      </trkpt>
      <trkpt lat="46.45392" lon="5.2657">
        <ele>223.4</ele>
        <time>2021-12-09T13:51:09Z</time>
      </trkpt>
      <trkpt lat="46.45447" lon="5.266">
        <ele>223.4</ele>
        <time>2021-12-09T13:51:17Z</time>
      </trkpt>
      <trkpt lat="46.45501" lon="5.26627">
        <ele>222.2</ele>
        <time>2021-12-09T13:51:24Z</time>
      </trkpt>
      <trkpt lat="46.45509" lon="5.26631">
        <ele>221.8</ele>
        <time>2021-12-09T13:51:25Z</time>
      </trkpt>
      <trkpt lat="46.45525" lon="5.26638">
        <ele>221.2</ele>
        <time>2021-12-09T13:51:27Z</time>
      </trkpt>
      <trkpt lat="46.45567" lon="5.26649">
        <ele>220.4</ele>
        <time>2021-12-09T13:51:32Z</time>
      </trkpt>
      <trkpt lat="46.45576" lon="5.26648">
        <ele>220.2</ele>
        <time>2021-12-09T13:51:33Z</time>
      </trkpt>
      <trkpt lat="46.45584" lon="5.26647">
        <ele>220</ele>
        <time>2021-12-09T13:51:34Z</time>
      </trkpt>
      <trkpt lat="46.45601" lon="5.26642">
        <ele>219.6</ele>
        <time>2021-12-09T13:51:36Z</time>
      </trkpt>
      <trkpt lat="46.45627" lon="5.26634">
        <ele>218.8</ele>
        <time>2021-12-09T13:51:39Z</time>
      </trkpt>
      <trkpt lat="46.45635" lon="5.26631">
        <ele>218.8</ele>
        <time>2021-12-09T13:51:40Z</time>
      </trkpt>
      <trkpt lat="46.4565" lon="5.2662">
        <ele>218.6</ele>
        <time>2021-12-09T13:51:42Z</time>
      </trkpt>
      <trkpt lat="46.45665" lon="5.26597">
        <ele>218.6</ele>
        <time>2021-12-09T13:51:45Z</time>
      </trkpt>
      <trkpt lat="46.45683" lon="5.26556">
        <ele>219.6</ele>
        <time>2021-12-09T13:51:50Z</time>
      </trkpt>
      <trkpt lat="46.45685" lon="5.26548">
        <ele>219.8</ele>
        <time>2021-12-09T13:51:51Z</time>
      </trkpt>
      <trkpt lat="46.45693" lon="5.26515">
        <ele>221.2</ele>
        <time>2021-12-09T13:51:55Z</time>
      </trkpt>
      <trkpt lat="46.45694" lon="5.26507">
        <ele>221.4</ele>
        <time>2021-12-09T13:51:56Z</time>
      </trkpt>
      <trkpt lat="46.45697" lon="5.26481">
        <ele>222.4</ele>
        <time>2021-12-09T13:51:59Z</time>
      </trkpt>
      <trkpt lat="46.45704" lon="5.26435">
        <ele>223.4</ele>
        <time>2021-12-09T13:52:04Z</time>
      </trkpt>
      <trkpt lat="46.45706" lon="5.26417">
        <ele>223.6</ele>
        <time>2021-12-09T13:52:06Z</time>
      </trkpt>
      <trkpt lat="46.45721" lon="5.26334">
        <ele>224</ele>
        <time>2021-12-09T13:52:15Z</time>
      </trkpt>
      <trkpt lat="46.45724" lon="5.26325">
        <ele>224</ele>
        <time>2021-12-09T13:52:16Z</time>
      </trkpt>
      <trkpt lat="46.45737" lon="5.26272">
        <ele>224.6</ele>
        <time>2021-12-09T13:52:22Z</time>
      </trkpt>
      <trkpt lat="46.45741" lon="5.26254">
        <ele>224.8</ele>
        <time>2021-12-09T13:52:24Z</time>
      </trkpt>
      <trkpt lat="46.45757" lon="5.26192">
        <ele>225.2</ele>
        <time>2021-12-09T13:52:31Z</time>
      </trkpt>
      <trkpt lat="46.4576" lon="5.26184">
        <ele>225.2</ele>
        <time>2021-12-09T13:52:32Z</time>
      </trkpt>
      <trkpt lat="46.45765" lon="5.26177">
        <ele>225.2</ele>
        <time>2021-12-09T13:52:33Z</time>
      </trkpt>
      <trkpt lat="46.45775" lon="5.26166">
        <ele>225.4</ele>
        <time>2021-12-09T13:52:35Z</time>
      </trkpt>
      <trkpt lat="46.45788" lon="5.26161">
        <ele>225.4</ele>
        <time>2021-12-09T13:52:37Z</time>
      </trkpt>
      <trkpt lat="46.45795" lon="5.26161">
        <ele>225.4</ele>
        <time>2021-12-09T13:52:38Z</time>
      </trkpt>
      <trkpt lat="46.45802" lon="5.26161">
        <ele>225.6</ele>
        <time>2021-12-09T13:52:39Z</time>
      </trkpt>
      <trkpt lat="46.45856" lon="5.26162">
        <ele>226</ele>
        <time>2021-12-09T13:52:47Z</time>
      </trkpt>
      <trkpt lat="46.45917" lon="5.26165">
        <ele>226.2</ele>
        <time>2021-12-09T13:52:56Z</time>
      </trkpt>
      <trkpt lat="46.45931" lon="5.26165">
        <ele>226.2</ele>
        <time>2021-12-09T13:52:58Z</time>
      </trkpt>
      <trkpt lat="46.45989" lon="5.26166">
        <ele>225.6</ele>
        <time>2021-12-09T13:53:06Z</time>
      </trkpt>
      <trkpt lat="46.46004" lon="5.26167">
        <ele>225.4</ele>
        <time>2021-12-09T13:53:08Z</time>
      </trkpt>
      <trkpt lat="46.4605" lon="5.26174">
        <ele>224.4</ele>
        <time>2021-12-09T13:53:14Z</time>
      </trkpt>
      <trkpt lat="46.46057" lon="5.26178">
        <ele>224.4</ele>
        <time>2021-12-09T13:53:15Z</time>
      </trkpt>
      <trkpt lat="46.46099" lon="5.26201">
        <ele>223.4</ele>
        <time>2021-12-09T13:53:21Z</time>
      </trkpt>
      <trkpt lat="46.4612" lon="5.26213">
        <ele>223</ele>
        <time>2021-12-09T13:53:24Z</time>
      </trkpt>
      <trkpt lat="46.46146" lon="5.26227">
        <ele>222.2</ele>
        <time>2021-12-09T13:53:28Z</time>
      </trkpt>
      <trkpt lat="46.46166" lon="5.26238">
        <ele>222</ele>
        <time>2021-12-09T13:53:31Z</time>
      </trkpt>
      <trkpt lat="46.46182" lon="5.26247">
        <ele>221.4</ele>
        <time>2021-12-09T13:53:34Z</time>
      </trkpt>
      <trkpt lat="46.46185" lon="5.26251">
        <ele>221.4</ele>
        <time>2021-12-09T13:53:35Z</time>
      </trkpt>
      <trkpt lat="46.46187" lon="5.26255">
        <ele>221.2</ele>
        <time>2021-12-09T13:53:36Z</time>
      </trkpt>
      <trkpt lat="46.46187" lon="5.26268">
        <ele>221.2</ele>
        <time>2021-12-09T13:53:38Z</time>
      </trkpt>
      <trkpt lat="46.46182" lon="5.26308">
        <ele>220.8</ele>
        <time>2021-12-09T13:53:42Z</time>
      </trkpt>
      <trkpt lat="46.46179" lon="5.26344">
        <ele>220.2</ele>
        <time>2021-12-09T13:53:45Z</time>
      </trkpt>
      <trkpt lat="46.46175" lon="5.26383">
        <ele>218.8</ele>
        <time>2021-12-09T13:53:48Z</time>
      </trkpt>
      <trkpt lat="46.46172" lon="5.2641">
        <ele>217.8</ele>
        <time>2021-12-09T13:53:50Z</time>
      </trkpt>
      <trkpt lat="46.4617" lon="5.26439">
        <ele>216.6</ele>
        <time>2021-12-09T13:53:52Z</time>
      </trkpt>
      <trkpt lat="46.46167" lon="5.26467">
        <ele>215.2</ele>
        <time>2021-12-09T13:53:54Z</time>
      </trkpt>
      <trkpt lat="46.46165" lon="5.26482">
        <ele>214.6</ele>
        <time>2021-12-09T13:53:55Z</time>
      </trkpt>
      <trkpt lat="46.46162" lon="5.26511">
        <ele>213.4</ele>
        <time>2021-12-09T13:53:57Z</time>
      </trkpt>
      <trkpt lat="46.46159" lon="5.26541">
        <ele>212.2</ele>
        <time>2021-12-09T13:53:59Z</time>
      </trkpt>
      <trkpt lat="46.46156" lon="5.26571">
        <ele>211.2</ele>
        <time>2021-12-09T13:54:01Z</time>
      </trkpt>
      <trkpt lat="46.46153" lon="5.26602">
        <ele>210.2</ele>
        <time>2021-12-09T13:54:03Z</time>
      </trkpt>
      <trkpt lat="46.46152" lon="5.26618">
        <ele>209.2</ele>
        <time>2021-12-09T13:54:04Z</time>
      </trkpt>
      <trkpt lat="46.4615" lon="5.26649">
        <ele>207.8</ele>
        <time>2021-12-09T13:54:06Z</time>
      </trkpt>
      <trkpt lat="46.46148" lon="5.26681">
        <ele>206.4</ele>
        <time>2021-12-09T13:54:08Z</time>
      </trkpt>
      <trkpt lat="46.46147" lon="5.26714">
        <ele>205.2</ele>
        <time>2021-12-09T13:54:10Z</time>
      </trkpt>
      <trkpt lat="46.46146" lon="5.26761">
        <ele>203.4</ele>
        <time>2021-12-09T13:54:13Z</time>
      </trkpt>
      <trkpt lat="46.46145" lon="5.26792">
        <ele>201.8</ele>
        <time>2021-12-09T13:54:15Z</time>
      </trkpt>
      <trkpt lat="46.46144" lon="5.26822">
        <ele>200.4</ele>
        <time>2021-12-09T13:54:17Z</time>
      </trkpt>
      <trkpt lat="46.46144" lon="5.26866">
        <ele>199.6</ele>
        <time>2021-12-09T13:54:20Z</time>
      </trkpt>
      <trkpt lat="46.46141" lon="5.26923">
        <ele>198.6</ele>
        <time>2021-12-09T13:54:24Z</time>
      </trkpt>
      <trkpt lat="46.46141" lon="5.26936">
        <ele>198.4</ele>
        <time>2021-12-09T13:54:25Z</time>
      </trkpt>
      <trkpt lat="46.4614" lon="5.26987">
        <ele>198</ele>
        <time>2021-12-09T13:54:29Z</time>
      </trkpt>
      <trkpt lat="46.46138" lon="5.27068">
        <ele>199</ele>
        <time>2021-12-09T13:54:36Z</time>
      </trkpt>
      <trkpt lat="46.46138" lon="5.27079">
        <ele>199</ele>
        <time>2021-12-09T13:54:37Z</time>
      </trkpt>
      <trkpt lat="46.46136" lon="5.27162">
        <ele>198.8</ele>
        <time>2021-12-09T13:54:44Z</time>
      </trkpt>
      <trkpt lat="46.46135" lon="5.27174">
        <ele>198.6</ele>
        <time>2021-12-09T13:54:45Z</time>
      </trkpt>
      <trkpt lat="46.46133" lon="5.27258">
        <ele>197.4</ele>
        <time>2021-12-09T13:54:52Z</time>
      </trkpt>
      <trkpt lat="46.46132" lon="5.27293">
        <ele>197</ele>
        <time>2021-12-09T13:54:55Z</time>
      </trkpt>
      <trkpt lat="46.4613" lon="5.2738">
        <ele>196.8</ele>
        <time>2021-12-09T13:55:03Z</time>
      </trkpt>
      <trkpt lat="46.46127" lon="5.27464">
        <ele>197</ele>
        <time>2021-12-09T13:55:11Z</time>
      </trkpt>
      <trkpt lat="46.46127" lon="5.27485">
        <ele>197</ele>
        <time>2021-12-09T13:55:13Z</time>
      </trkpt>
      <trkpt lat="46.46125" lon="5.27566">
        <ele>197</ele>
        <time>2021-12-09T13:55:21Z</time>
      </trkpt>
      <trkpt lat="46.46124" lon="5.27586">
        <ele>197</ele>
        <time>2021-12-09T13:55:23Z</time>
      </trkpt>
      <trkpt lat="46.46122" lon="5.27665">
        <ele>197.2</ele>
        <time>2021-12-09T13:55:31Z</time>
      </trkpt>
      <trkpt lat="46.46122" lon="5.27684">
        <ele>197.2</ele>
        <time>2021-12-09T13:55:33Z</time>
      </trkpt>
      <trkpt lat="46.4612" lon="5.27754">
        <ele>198.4</ele>
        <time>2021-12-09T13:55:41Z</time>
      </trkpt>
      <trkpt lat="46.46119" lon="5.27763">
        <ele>198.4</ele>
        <time>2021-12-09T13:55:42Z</time>
      </trkpt>
      <trkpt lat="46.46119" lon="5.27808">
        <ele>199.4</ele>
        <time>2021-12-09T13:55:48Z</time>
      </trkpt>
      <trkpt lat="46.46119" lon="5.27815">
        <ele>199.6</ele>
        <time>2021-12-09T13:55:49Z</time>
      </trkpt>
      <trkpt lat="46.46119" lon="5.27842">
        <ele>200.6</ele>
        <time>2021-12-09T13:55:53Z</time>
      </trkpt>
      <trkpt lat="46.4612" lon="5.27869">
        <ele>201.6</ele>
        <time>2021-12-09T13:55:57Z</time>
      </trkpt>
      <trkpt lat="46.4612" lon="5.27875">
        <ele>201.8</ele>
        <time>2021-12-09T13:55:58Z</time>
      </trkpt>
      <trkpt lat="46.46121" lon="5.27906">
        <ele>202.8</ele>
        <time>2021-12-09T13:56:03Z</time>
      </trkpt>
      <trkpt lat="46.46122" lon="5.27917">
        <ele>203</ele>
        <time>2021-12-09T13:56:05Z</time>
      </trkpt>
      <trkpt lat="46.46122" lon="5.27923">
        <ele>203.2</ele>
        <time>2021-12-09T13:56:06Z</time>
      </trkpt>
      <trkpt lat="46.46122" lon="5.27929">
        <ele>203.4</ele>
        <time>2021-12-09T13:56:07Z</time>
      </trkpt>
      <trkpt lat="46.46123" lon="5.27934">
        <ele>203.8</ele>
        <time>2021-12-09T13:56:08Z</time>
      </trkpt>
      <trkpt lat="46.46126" lon="5.27949">
        <ele>204.8</ele>
        <time>2021-12-09T13:56:11Z</time>
      </trkpt>
      <trkpt lat="46.46127" lon="5.27954">
        <ele>205</ele>
        <time>2021-12-09T13:56:12Z</time>
      </trkpt>
      <trkpt lat="46.46131" lon="5.27963">
        <ele>205.8</ele>
        <time>2021-12-09T13:56:14Z</time>
      </trkpt>
      <trkpt lat="46.46137" lon="5.27972">
        <ele>207</ele>
        <time>2021-12-09T13:56:17Z</time>
      </trkpt>
      <trkpt lat="46.46146" lon="5.27979">
        <ele>208.2</ele>
        <time>2021-12-09T13:56:20Z</time>
      </trkpt>
      <trkpt lat="46.46155" lon="5.27984">
        <ele>209.2</ele>
        <time>2021-12-09T13:56:23Z</time>
      </trkpt>
      <trkpt lat="46.4616" lon="5.27987">
        <ele>210</ele>
        <time>2021-12-09T13:56:25Z</time>
      </trkpt>
      <trkpt lat="46.46163" lon="5.27989">
        <ele>210.4</ele>
        <time>2021-12-09T13:56:26Z</time>
      </trkpt>
      <trkpt lat="46.46173" lon="5.27997">
        <ele>211.6</ele>
        <time>2021-12-09T13:56:30Z</time>
      </trkpt>
      <trkpt lat="46.46182" lon="5.28004">
        <ele>212.6</ele>
        <time>2021-12-09T13:56:33Z</time>
      </trkpt>
      <trkpt lat="46.4619" lon="5.28013">
        <ele>213.4</ele>
        <time>2021-12-09T13:56:36Z</time>
      </trkpt>
      <trkpt lat="46.4619" lon="5.28023">
        <ele>214</ele>
        <time>2021-12-09T13:56:38Z</time>
      </trkpt>
      <trkpt lat="46.46187" lon="5.28066">
        <ele>214.4</ele>
        <time>2021-12-09T13:56:44Z</time>
      </trkpt>
      <trkpt lat="46.46183" lon="5.28124">
        <ele>213.8</ele>
        <time>2021-12-09T13:56:51Z</time>
      </trkpt>
      <trkpt lat="46.46175" lon="5.28176">
        <ele>214</ele>
        <time>2021-12-09T13:56:58Z</time>
      </trkpt>
      <trkpt lat="46.46167" lon="5.28228">
        <ele>214.2</ele>
        <time>2021-12-09T13:57:04Z</time>
      </trkpt>
      <trkpt lat="46.46164" lon="5.28281">
        <ele>213.8</ele>
        <time>2021-12-09T13:57:09Z</time>
      </trkpt>
      <trkpt lat="46.46168" lon="5.28317">
        <ele>212.6</ele>
        <time>2021-12-09T13:57:12Z</time>
      </trkpt>
      <trkpt lat="46.46173" lon="5.28353">
        <ele>211.4</ele>
        <time>2021-12-09T13:57:15Z</time>
      </trkpt>
      <trkpt lat="46.46179" lon="5.28389">
        <ele>210.2</ele>
        <time>2021-12-09T13:57:18Z</time>
      </trkpt>
      <trkpt lat="46.46184" lon="5.28425">
        <ele>209</ele>
        <time>2021-12-09T13:57:21Z</time>
      </trkpt>
      <trkpt lat="46.46189" lon="5.28457">
        <ele>208.4</ele>
        <time>2021-12-09T13:57:24Z</time>
      </trkpt>
      <trkpt lat="46.46196" lon="5.28509">
        <ele>209</ele>
        <time>2021-12-09T13:57:30Z</time>
      </trkpt>
      <trkpt lat="46.46199" lon="5.28524">
        <ele>210</ele>
        <time>2021-12-09T13:57:32Z</time>
      </trkpt>
      <trkpt lat="46.46202" lon="5.28545">
        <ele>211.2</ele>
        <time>2021-12-09T13:57:35Z</time>
      </trkpt>
      <trkpt lat="46.46204" lon="5.28558">
        <ele>212</ele>
        <time>2021-12-09T13:57:37Z</time>
      </trkpt>
      <trkpt lat="46.46205" lon="5.28564">
        <ele>212.4</ele>
        <time>2021-12-09T13:57:38Z</time>
      </trkpt>
      <trkpt lat="46.46208" lon="5.28589">
        <ele>213.6</ele>
        <time>2021-12-09T13:57:42Z</time>
      </trkpt>
      <trkpt lat="46.4621" lon="5.28602">
        <ele>214.2</ele>
        <time>2021-12-09T13:57:44Z</time>
      </trkpt>
      <trkpt lat="46.46214" lon="5.28618">
        <ele>214.8</ele>
        <time>2021-12-09T13:57:47Z</time>
      </trkpt>
      <trkpt lat="46.46214" lon="5.28629">
        <ele>215.2</ele>
        <time>2021-12-09T13:57:49Z</time>
      </trkpt>
      <trkpt lat="46.46216" lon="5.28641">
        <ele>215.8</ele>
        <time>2021-12-09T13:57:51Z</time>
      </trkpt>
      <trkpt lat="46.46221" lon="5.28662">
        <ele>217</ele>
        <time>2021-12-09T13:57:55Z</time>
      </trkpt>
      <trkpt lat="46.46233" lon="5.28693">
        <ele>218</ele>
        <time>2021-12-09T13:58:01Z</time>
      </trkpt>
      <trkpt lat="46.46237" lon="5.28697">
        <ele>218.4</ele>
        <time>2021-12-09T13:58:02Z</time>
      </trkpt>
      <trkpt lat="46.46251" lon="5.28709">
        <ele>219.6</ele>
        <time>2021-12-09T13:58:06Z</time>
      </trkpt>
      <trkpt lat="46.46258" lon="5.28715">
        <ele>220</ele>
        <time>2021-12-09T13:58:08Z</time>
      </trkpt>
      <trkpt lat="46.46265" lon="5.2872">
        <ele>220.6</ele>
        <time>2021-12-09T13:58:10Z</time>
      </trkpt>
      <trkpt lat="46.46276" lon="5.28728">
        <ele>221.8</ele>
        <time>2021-12-09T13:58:13Z</time>
      </trkpt>
      <trkpt lat="46.46288" lon="5.28736">
        <ele>222.6</ele>
        <time>2021-12-09T13:58:16Z</time>
      </trkpt>
      <trkpt lat="46.46292" lon="5.28739">
        <ele>222.8</ele>
        <time>2021-12-09T13:58:17Z</time>
      </trkpt>
      <trkpt lat="46.46317" lon="5.28754">
        <ele>223.8</ele>
        <time>2021-12-09T13:58:23Z</time>
      </trkpt>
      <trkpt lat="46.46329" lon="5.28763">
        <ele>224</ele>
        <time>2021-12-09T13:58:26Z</time>
      </trkpt>
      <trkpt lat="46.46344" lon="5.28774">
        <ele>224.8</ele>
        <time>2021-12-09T13:58:30Z</time>
      </trkpt>
      <trkpt lat="46.46359" lon="5.28786">
        <ele>225.4</ele>
        <time>2021-12-09T13:58:34Z</time>
      </trkpt>
      <trkpt lat="46.46372" lon="5.28797">
        <ele>225.8</ele>
        <time>2021-12-09T13:58:37Z</time>
      </trkpt>
      <trkpt lat="46.46375" lon="5.28801">
        <ele>226</ele>
        <time>2021-12-09T13:58:38Z</time>
      </trkpt>
      <trkpt lat="46.46391" lon="5.2882">
        <ele>226.6</ele>
        <time>2021-12-09T13:58:42Z</time>
      </trkpt>
      <trkpt lat="46.46401" lon="5.28839">
        <ele>226.8</ele>
        <time>2021-12-09T13:58:45Z</time>
      </trkpt>
      <trkpt lat="46.46408" lon="5.28858">
        <ele>227.2</ele>
        <time>2021-12-09T13:58:48Z</time>
      </trkpt>
      <trkpt lat="46.46426" lon="5.28926">
        <ele>227.6</ele>
        <time>2021-12-09T13:58:57Z</time>
      </trkpt>
      <trkpt lat="46.46436" lon="5.2897">
        <ele>228</ele>
        <time>2021-12-09T13:59:03Z</time>
      </trkpt>
      <trkpt lat="46.46439" lon="5.28987">
        <ele>228.2</ele>
        <time>2021-12-09T13:59:05Z</time>
      </trkpt>
      <trkpt lat="46.46449" lon="5.29035">
        <ele>229</ele>
        <time>2021-12-09T13:59:11Z</time>
      </trkpt>
      <trkpt lat="46.46455" lon="5.2906">
        <ele>229.2</ele>
        <time>2021-12-09T13:59:14Z</time>
      </trkpt>
      <trkpt lat="46.46471" lon="5.29137">
        <ele>229.4</ele>
        <time>2021-12-09T13:59:23Z</time>
      </trkpt>
      <trkpt lat="46.46484" lon="5.292">
        <ele>229.4</ele>
        <time>2021-12-09T13:59:30Z</time>
      </trkpt>
      <trkpt lat="46.465" lon="5.29273">
        <ele>228.4</ele>
        <time>2021-12-09T13:59:37Z</time>
      </trkpt>
      <trkpt lat="46.46507" lon="5.29303">
        <ele>228</ele>
        <time>2021-12-09T13:59:40Z</time>
      </trkpt>
      <trkpt lat="46.46518" lon="5.29358">
        <ele>227</ele>
        <time>2021-12-09T13:59:45Z</time>
      </trkpt>
      <trkpt lat="46.4652" lon="5.29368">
        <ele>226.8</ele>
        <time>2021-12-09T13:59:46Z</time>
      </trkpt>
      <trkpt lat="46.46534" lon="5.29436">
        <ele>226.8</ele>
        <time>2021-12-09T13:59:53Z</time>
      </trkpt>
      <trkpt lat="46.46555" lon="5.29521">
        <ele>226.6</ele>
        <time>2021-12-09T14:00:01Z</time>
      </trkpt>
      <trkpt lat="46.46565" lon="5.2956">
        <ele>225.8</ele>
        <time>2021-12-09T14:00:05Z</time>
      </trkpt>
      <trkpt lat="46.4657" lon="5.29578">
        <ele>225.8</ele>
        <time>2021-12-09T14:00:07Z</time>
      </trkpt>
      <trkpt lat="46.46584" lon="5.2963">
        <ele>226.2</ele>
        <time>2021-12-09T14:00:13Z</time>
      </trkpt>
      <trkpt lat="46.4659" lon="5.29657">
        <ele>227</ele>
        <time>2021-12-09T14:00:16Z</time>
      </trkpt>
      <trkpt lat="46.46602" lon="5.29703">
        <ele>227.8</ele>
        <time>2021-12-09T14:00:21Z</time>
      </trkpt>
      <trkpt lat="46.46612" lon="5.2974">
        <ele>228.2</ele>
        <time>2021-12-09T14:00:25Z</time>
      </trkpt>
      <trkpt lat="46.46622" lon="5.29779">
        <ele>228.8</ele>
        <time>2021-12-09T14:00:29Z</time>
      </trkpt>
      <trkpt lat="46.46626" lon="5.29795">
        <ele>229</ele>
        <time>2021-12-09T14:00:31Z</time>
      </trkpt>
      <trkpt lat="46.46632" lon="5.29813">
        <ele>229.4</ele>
        <time>2021-12-09T14:00:33Z</time>
      </trkpt>
      <trkpt lat="46.46634" lon="5.29822">
        <ele>229.2</ele>
        <time>2021-12-09T14:00:34Z</time>
      </trkpt>
      <trkpt lat="46.46651" lon="5.29875">
        <ele>229.8</ele>
        <time>2021-12-09T14:00:40Z</time>
      </trkpt>
      <trkpt lat="46.46659" lon="5.29904">
        <ele>230</ele>
        <time>2021-12-09T14:00:43Z</time>
      </trkpt>
      <trkpt lat="46.46667" lon="5.29933">
        <ele>229.8</ele>
        <time>2021-12-09T14:00:46Z</time>
      </trkpt>
      <trkpt lat="46.46686" lon="5.30006">
        <ele>229.2</ele>
        <time>2021-12-09T14:00:53Z</time>
      </trkpt>
      <trkpt lat="46.46689" lon="5.30017">
        <ele>229</ele>
        <time>2021-12-09T14:00:54Z</time>
      </trkpt>
      <trkpt lat="46.46707" lon="5.30081">
        <ele>228</ele>
        <time>2021-12-09T14:01:00Z</time>
      </trkpt>
      <trkpt lat="46.46709" lon="5.30092">
        <ele>227.6</ele>
        <time>2021-12-09T14:01:01Z</time>
      </trkpt>
      <trkpt lat="46.46728" lon="5.30171">
        <ele>227</ele>
        <time>2021-12-09T14:01:09Z</time>
      </trkpt>
      <trkpt lat="46.4673" lon="5.30181">
        <ele>227.2</ele>
        <time>2021-12-09T14:01:10Z</time>
      </trkpt>
      <trkpt lat="46.46742" lon="5.30215">
        <ele>227.8</ele>
        <time>2021-12-09T14:01:14Z</time>
      </trkpt>
      <trkpt lat="46.46746" lon="5.30223">
        <ele>227.8</ele>
        <time>2021-12-09T14:01:15Z</time>
      </trkpt>
      <trkpt lat="46.46752" lon="5.30231">
        <ele>227.8</ele>
        <time>2021-12-09T14:01:16Z</time>
      </trkpt>
      <trkpt lat="46.46776" lon="5.30261">
        <ele>228.6</ele>
        <time>2021-12-09T14:01:21Z</time>
      </trkpt>
      <trkpt lat="46.46819" lon="5.30312">
        <ele>228.8</ele>
        <time>2021-12-09T14:01:29Z</time>
      </trkpt>
      <trkpt lat="46.46835" lon="5.30332">
        <ele>228.6</ele>
        <time>2021-12-09T14:01:32Z</time>
      </trkpt>
      <trkpt lat="46.46875" lon="5.30373">
        <ele>228.6</ele>
        <time>2021-12-09T14:01:39Z</time>
      </trkpt>
      <trkpt lat="46.46881" lon="5.30377">
        <ele>228.4</ele>
        <time>2021-12-09T14:01:40Z</time>
      </trkpt>
      <trkpt lat="46.46908" lon="5.3039">
        <ele>228.4</ele>
        <time>2021-12-09T14:01:44Z</time>
      </trkpt>
      <trkpt lat="46.46957" lon="5.30411">
        <ele>227.8</ele>
        <time>2021-12-09T14:01:51Z</time>
      </trkpt>
      <trkpt lat="46.47004" lon="5.3045">
        <ele>228</ele>
        <time>2021-12-09T14:01:59Z</time>
      </trkpt>
      <trkpt lat="46.47055" lon="5.30493">
        <ele>228.4</ele>
        <time>2021-12-09T14:02:08Z</time>
      </trkpt>
      <trkpt lat="46.4706" lon="5.30498">
        <ele>228.4</ele>
        <time>2021-12-09T14:02:09Z</time>
      </trkpt>
      <trkpt lat="46.47092" lon="5.30526">
        <ele>229</ele>
        <time>2021-12-09T14:02:15Z</time>
      </trkpt>
      <trkpt lat="46.47105" lon="5.30534">
        <ele>229</ele>
        <time>2021-12-09T14:02:17Z</time>
      </trkpt>
      <trkpt lat="46.47137" lon="5.3055">
        <ele>229.4</ele>
        <time>2021-12-09T14:02:22Z</time>
      </trkpt>
      <trkpt lat="46.47163" lon="5.3056">
        <ele>229.4</ele>
        <time>2021-12-09T14:02:26Z</time>
      </trkpt>
      <trkpt lat="46.47177" lon="5.30561">
        <ele>229</ele>
        <time>2021-12-09T14:02:28Z</time>
      </trkpt>
      <trkpt lat="46.47184" lon="5.30561">
        <ele>229</ele>
        <time>2021-12-09T14:02:29Z</time>
      </trkpt>
      <trkpt lat="46.47213" lon="5.30558">
        <ele>228.8</ele>
        <time>2021-12-09T14:02:33Z</time>
      </trkpt>
      <trkpt lat="46.4722" lon="5.30559">
        <ele>228.8</ele>
        <time>2021-12-09T14:02:34Z</time>
      </trkpt>
      <trkpt lat="46.47227" lon="5.30561">
        <ele>228.6</ele>
        <time>2021-12-09T14:02:35Z</time>
      </trkpt>
      <trkpt lat="46.47249" lon="5.30573">
        <ele>228.2</ele>
        <time>2021-12-09T14:02:38Z</time>
      </trkpt>
      <trkpt lat="46.47265" lon="5.30588">
        <ele>228</ele>
        <time>2021-12-09T14:02:41Z</time>
      </trkpt>
      <trkpt lat="46.47277" lon="5.30603">
        <ele>228.4</ele>
        <time>2021-12-09T14:02:43Z</time>
      </trkpt>
      <trkpt lat="46.47308" lon="5.30643">
        <ele>228.4</ele>
        <time>2021-12-09T14:02:49Z</time>
      </trkpt>
      <trkpt lat="46.47311" lon="5.30651">
        <ele>228.4</ele>
        <time>2021-12-09T14:02:50Z</time>
      </trkpt>
      <trkpt lat="46.47314" lon="5.3066">
        <ele>228.6</ele>
        <time>2021-12-09T14:02:51Z</time>
      </trkpt>
      <trkpt lat="46.47316" lon="5.30682">
        <ele>228.6</ele>
        <time>2021-12-09T14:02:53Z</time>
      </trkpt>
      <trkpt lat="46.47319" lon="5.30758">
        <ele>228.2</ele>
        <time>2021-12-09T14:03:00Z</time>
      </trkpt>
      <trkpt lat="46.4732" lon="5.30778">
        <ele>227.8</ele>
        <time>2021-12-09T14:03:02Z</time>
      </trkpt>
      <trkpt lat="46.47326" lon="5.30853">
        <ele>227.2</ele>
        <time>2021-12-09T14:03:09Z</time>
      </trkpt>
      <trkpt lat="46.47328" lon="5.30862">
        <ele>227.2</ele>
        <time>2021-12-09T14:03:10Z</time>
      </trkpt>
      <trkpt lat="46.47331" lon="5.30878">
        <ele>227.2</ele>
        <time>2021-12-09T14:03:12Z</time>
      </trkpt>
      <trkpt lat="46.47334" lon="5.30886">
        <ele>227.2</ele>
        <time>2021-12-09T14:03:13Z</time>
      </trkpt>
      <trkpt lat="46.47338" lon="5.30894">
        <ele>227.2</ele>
        <time>2021-12-09T14:03:14Z</time>
      </trkpt>
      <trkpt lat="46.47349" lon="5.30898">
        <ele>227.4</ele>
        <time>2021-12-09T14:03:16Z</time>
      </trkpt>
      <trkpt lat="46.47376" lon="5.3089">
        <ele>227.6</ele>
        <time>2021-12-09T14:03:20Z</time>
      </trkpt>
      <trkpt lat="46.4742" lon="5.30869">
        <ele>227.6</ele>
        <time>2021-12-09T14:03:26Z</time>
      </trkpt>
      <trkpt lat="46.47473" lon="5.30841">
        <ele>227.8</ele>
        <time>2021-12-09T14:03:34Z</time>
      </trkpt>
      <trkpt lat="46.47488" lon="5.30833">
        <ele>227.8</ele>
        <time>2021-12-09T14:03:36Z</time>
      </trkpt>
      <trkpt lat="46.47533" lon="5.30813">
        <ele>228</ele>
        <time>2021-12-09T14:03:43Z</time>
      </trkpt>
      <trkpt lat="46.47538" lon="5.30811">
        <ele>228.2</ele>
        <time>2021-12-09T14:03:44Z</time>
      </trkpt>
      <trkpt lat="46.47594" lon="5.30802">
        <ele>229</ele>
        <time>2021-12-09T14:03:52Z</time>
      </trkpt>
      <trkpt lat="46.476" lon="5.30801">
        <ele>229</ele>
        <time>2021-12-09T14:03:53Z</time>
      </trkpt>
      <trkpt lat="46.47613" lon="5.30799">
        <ele>229</ele>
        <time>2021-12-09T14:03:55Z</time>
      </trkpt>
      <trkpt lat="46.47662" lon="5.30791">
        <ele>229</ele>
        <time>2021-12-09T14:04:02Z</time>
      </trkpt>
      <trkpt lat="46.47717" lon="5.30783">
        <ele>229</ele>
        <time>2021-12-09T14:04:10Z</time>
      </trkpt>
      <trkpt lat="46.4774" lon="5.30779">
        <ele>228.8</ele>
        <time>2021-12-09T14:04:13Z</time>
      </trkpt>
      <trkpt lat="46.47798" lon="5.30771">
        <ele>228.2</ele>
        <time>2021-12-09T14:04:21Z</time>
      </trkpt>
      <trkpt lat="46.47832" lon="5.30774">
        <ele>228</ele>
        <time>2021-12-09T14:04:26Z</time>
      </trkpt>
      <trkpt lat="46.47842" lon="5.30784">
        <ele>228.4</ele>
        <time>2021-12-09T14:04:28Z</time>
      </trkpt>
      <trkpt lat="46.47845" lon="5.30789">
        <ele>228.6</ele>
        <time>2021-12-09T14:04:29Z</time>
      </trkpt>
      <trkpt lat="46.47848" lon="5.30795">
        <ele>228.8</ele>
        <time>2021-12-09T14:04:30Z</time>
      </trkpt>
      <trkpt lat="46.47852" lon="5.30799">
        <ele>229.4</ele>
        <time>2021-12-09T14:04:31Z</time>
      </trkpt>
      <trkpt lat="46.47856" lon="5.30801">
        <ele>229.6</ele>
        <time>2021-12-09T14:04:32Z</time>
      </trkpt>
      <trkpt lat="46.47886" lon="5.30805">
        <ele>230.4</ele>
        <time>2021-12-09T14:04:36Z</time>
      </trkpt>
      <trkpt lat="46.47901" lon="5.3081">
        <ele>230.4</ele>
        <time>2021-12-09T14:04:38Z</time>
      </trkpt>
      <trkpt lat="46.47938" lon="5.3082">
        <ele>229</ele>
        <time>2021-12-09T14:04:42Z</time>
      </trkpt>
      <trkpt lat="46.47948" lon="5.3082">
        <ele>228.6</ele>
        <time>2021-12-09T14:04:43Z</time>
      </trkpt>
      <trkpt lat="46.4796" lon="5.30818">
        <ele>228</ele>
        <time>2021-12-09T14:04:44Z</time>
      </trkpt>
      <trkpt lat="46.47979" lon="5.30812">
        <ele>227</ele>
        <time>2021-12-09T14:04:46Z</time>
      </trkpt>
      <trkpt lat="46.47987" lon="5.30808">
        <ele>226.8</ele>
        <time>2021-12-09T14:04:47Z</time>
      </trkpt>
      <trkpt lat="46.48001" lon="5.308">
        <ele>225.4</ele>
        <time>2021-12-09T14:04:49Z</time>
      </trkpt>
      <trkpt lat="46.48018" lon="5.30791">
        <ele>225.2</ele>
        <time>2021-12-09T14:04:51Z</time>
      </trkpt>
      <trkpt lat="46.48065" lon="5.30764">
        <ele>225.8</ele>
        <time>2021-12-09T14:04:58Z</time>
      </trkpt>
      <trkpt lat="46.48086" lon="5.30753">
        <ele>226.6</ele>
        <time>2021-12-09T14:05:01Z</time>
      </trkpt>
      <trkpt lat="46.48142" lon="5.30721">
        <ele>227</ele>
        <time>2021-12-09T14:05:09Z</time>
      </trkpt>
      <trkpt lat="46.48198" lon="5.30691">
        <ele>226.2</ele>
        <time>2021-12-09T14:05:16Z</time>
      </trkpt>
      <trkpt lat="46.48206" lon="5.30688">
        <ele>226.2</ele>
        <time>2021-12-09T14:05:17Z</time>
      </trkpt>
      <trkpt lat="46.48222" lon="5.30685">
        <ele>226</ele>
        <time>2021-12-09T14:05:19Z</time>
      </trkpt>
      <trkpt lat="46.48242" lon="5.30688">
        <ele>225</ele>
        <time>2021-12-09T14:05:21Z</time>
      </trkpt>
      <trkpt lat="46.48287" lon="5.30699">
        <ele>223.8</ele>
        <time>2021-12-09T14:05:26Z</time>
      </trkpt>
      <trkpt lat="46.48295" lon="5.307">
        <ele>223.2</ele>
        <time>2021-12-09T14:05:27Z</time>
      </trkpt>
      <trkpt lat="46.48319" lon="5.30696">
        <ele>222.6</ele>
        <time>2021-12-09T14:05:30Z</time>
      </trkpt>
      <trkpt lat="46.48327" lon="5.30692">
        <ele>222.4</ele>
        <time>2021-12-09T14:05:31Z</time>
      </trkpt>
      <trkpt lat="46.48336" lon="5.30687">
        <ele>222.2</ele>
        <time>2021-12-09T14:05:32Z</time>
      </trkpt>
      <trkpt lat="46.48351" lon="5.30676">
        <ele>222</ele>
        <time>2021-12-09T14:05:34Z</time>
      </trkpt>
      <trkpt lat="46.48356" lon="5.3067">
        <ele>222</ele>
        <time>2021-12-09T14:05:35Z</time>
      </trkpt>
      <trkpt lat="46.48403" lon="5.30625">
        <ele>222.4</ele>
        <time>2021-12-09T14:05:42Z</time>
      </trkpt>
      <trkpt lat="46.4845" lon="5.3058">
        <ele>223.2</ele>
        <time>2021-12-09T14:05:50Z</time>
      </trkpt>
      <trkpt lat="46.48489" lon="5.30542">
        <ele>223.8</ele>
        <time>2021-12-09T14:05:57Z</time>
      </trkpt>
      <trkpt lat="46.48501" lon="5.30531">
        <ele>224</ele>
        <time>2021-12-09T14:05:59Z</time>
      </trkpt>
      <trkpt lat="46.48528" lon="5.30509">
        <ele>224.4</ele>
        <time>2021-12-09T14:06:04Z</time>
      </trkpt>
      <trkpt lat="46.48549" lon="5.30495">
        <ele>224.6</ele>
        <time>2021-12-09T14:06:08Z</time>
      </trkpt>
      <trkpt lat="46.48555" lon="5.30496">
        <ele>224.8</ele>
        <time>2021-12-09T14:06:09Z</time>
      </trkpt>
      <trkpt lat="46.48558" lon="5.30501">
        <ele>224.8</ele>
        <time>2021-12-09T14:06:10Z</time>
      </trkpt>
      <trkpt lat="46.4856" lon="5.30508">
        <ele>224.8</ele>
        <time>2021-12-09T14:06:11Z</time>
      </trkpt>
      <trkpt lat="46.48561" lon="5.30514">
        <ele>224.8</ele>
        <time>2021-12-09T14:06:12Z</time>
      </trkpt>
      <trkpt lat="46.4856" lon="5.3053">
        <ele>224.8</ele>
        <time>2021-12-09T14:06:14Z</time>
      </trkpt>
      <trkpt lat="46.48559" lon="5.30538">
        <ele>224.6</ele>
        <time>2021-12-09T14:06:15Z</time>
      </trkpt>
      <trkpt lat="46.48555" lon="5.30562">
        <ele>224.4</ele>
        <time>2021-12-09T14:06:18Z</time>
      </trkpt>
      <trkpt lat="46.48553" lon="5.30583">
        <ele>223.8</ele>
        <time>2021-12-09T14:06:20Z</time>
      </trkpt>
      <trkpt lat="46.48551" lon="5.30593">
        <ele>223.6</ele>
        <time>2021-12-09T14:06:21Z</time>
      </trkpt>
      <trkpt lat="46.48545" lon="5.30646">
        <ele>222.6</ele>
        <time>2021-12-09T14:06:26Z</time>
      </trkpt>
      <trkpt lat="46.48543" lon="5.30657">
        <ele>222.4</ele>
        <time>2021-12-09T14:06:27Z</time>
      </trkpt>
      <trkpt lat="46.48544" lon="5.30678">
        <ele>222</ele>
        <time>2021-12-09T14:06:29Z</time>
      </trkpt>
      <trkpt lat="46.48546" lon="5.30692">
        <ele>221.8</ele>
        <time>2021-12-09T14:06:30Z</time>
      </trkpt>
      <trkpt lat="46.48548" lon="5.30704">
        <ele>221.4</ele>
        <time>2021-12-09T14:06:31Z</time>
      </trkpt>
      <trkpt lat="46.48554" lon="5.30726">
        <ele>220.8</ele>
        <time>2021-12-09T14:06:33Z</time>
      </trkpt>
      <trkpt lat="46.48559" lon="5.30737">
        <ele>220.6</ele>
        <time>2021-12-09T14:06:34Z</time>
      </trkpt>
      <trkpt lat="46.48566" lon="5.30747">
        <ele>219.8</ele>
        <time>2021-12-09T14:06:35Z</time>
      </trkpt>
      <trkpt lat="46.48581" lon="5.30762">
        <ele>218.8</ele>
        <time>2021-12-09T14:06:37Z</time>
      </trkpt>
      <trkpt lat="46.48603" lon="5.30783">
        <ele>217.6</ele>
        <time>2021-12-09T14:06:40Z</time>
      </trkpt>
      <trkpt lat="46.48611" lon="5.3079">
        <ele>217.4</ele>
        <time>2021-12-09T14:06:41Z</time>
      </trkpt>
      <trkpt lat="46.48625" lon="5.308">
        <ele>217.2</ele>
        <time>2021-12-09T14:06:43Z</time>
      </trkpt>
      <trkpt lat="46.48641" lon="5.30811">
        <ele>216.2</ele>
        <time>2021-12-09T14:06:45Z</time>
      </trkpt>
      <trkpt lat="46.48676" lon="5.30833">
        <ele>215.6</ele>
        <time>2021-12-09T14:06:50Z</time>
      </trkpt>
      <trkpt lat="46.48713" lon="5.3086">
        <ele>216.4</ele>
        <time>2021-12-09T14:06:56Z</time>
      </trkpt>
      <trkpt lat="46.48721" lon="5.30874">
        <ele>217</ele>
        <time>2021-12-09T14:06:58Z</time>
      </trkpt>
      <trkpt lat="46.48722" lon="5.30882">
        <ele>217.2</ele>
        <time>2021-12-09T14:06:59Z</time>
      </trkpt>
      <trkpt lat="46.48722" lon="5.30891">
        <ele>217.4</ele>
        <time>2021-12-09T14:07:00Z</time>
      </trkpt>
      <trkpt lat="46.48718" lon="5.3091">
        <ele>217.6</ele>
        <time>2021-12-09T14:07:02Z</time>
      </trkpt>
      <trkpt lat="46.48703" lon="5.3093">
        <ele>218.2</ele>
        <time>2021-12-09T14:07:06Z</time>
      </trkpt>
      <trkpt lat="46.48699" lon="5.30937">
        <ele>218.4</ele>
        <time>2021-12-09T14:07:07Z</time>
      </trkpt>
      <trkpt lat="46.48691" lon="5.30954">
        <ele>219.4</ele>
        <time>2021-12-09T14:07:10Z</time>
      </trkpt>
      <trkpt lat="46.48688" lon="5.3096">
        <ele>219.6</ele>
        <time>2021-12-09T14:07:11Z</time>
      </trkpt>
      <trkpt lat="46.48678" lon="5.30981">
        <ele>220.8</ele>
        <time>2021-12-09T14:07:14Z</time>
      </trkpt>
      <trkpt lat="46.48665" lon="5.31009">
        <ele>221.4</ele>
        <time>2021-12-09T14:07:18Z</time>
      </trkpt>
      <trkpt lat="46.48638" lon="5.31062">
        <ele>221.6</ele>
        <time>2021-12-09T14:07:25Z</time>
      </trkpt>
      <trkpt lat="46.48604" lon="5.3113">
        <ele>220.4</ele>
        <time>2021-12-09T14:07:33Z</time>
      </trkpt>
      <trkpt lat="46.48599" lon="5.31139">
        <ele>220</ele>
        <time>2021-12-09T14:07:34Z</time>
      </trkpt>
      <trkpt lat="46.48577" lon="5.31183">
        <ele>218.6</ele>
        <time>2021-12-09T14:07:39Z</time>
      </trkpt>
      <trkpt lat="46.48559" lon="5.3122">
        <ele>217.4</ele>
        <time>2021-12-09T14:07:43Z</time>
      </trkpt>
      <trkpt lat="46.48555" lon="5.3123">
        <ele>217</ele>
        <time>2021-12-09T14:07:44Z</time>
      </trkpt>
      <trkpt lat="46.48551" lon="5.31252">
        <ele>216.8</ele>
        <time>2021-12-09T14:07:46Z</time>
      </trkpt>
      <trkpt lat="46.4855" lon="5.31274">
        <ele>216.2</ele>
        <time>2021-12-09T14:07:48Z</time>
      </trkpt>
      <trkpt lat="46.48552" lon="5.31297">
        <ele>215.8</ele>
        <time>2021-12-09T14:07:50Z</time>
      </trkpt>
      <trkpt lat="46.48554" lon="5.31319">
        <ele>215.2</ele>
        <time>2021-12-09T14:07:52Z</time>
      </trkpt>
      <trkpt lat="46.48558" lon="5.31351">
        <ele>214.8</ele>
        <time>2021-12-09T14:07:55Z</time>
      </trkpt>
      <trkpt lat="46.48561" lon="5.31362">
        <ele>214.8</ele>
        <time>2021-12-09T14:07:56Z</time>
      </trkpt>
      <trkpt lat="46.48565" lon="5.31372">
        <ele>214.6</ele>
        <time>2021-12-09T14:07:57Z</time>
      </trkpt>
      <trkpt lat="46.48578" lon="5.3139">
        <ele>214.4</ele>
        <time>2021-12-09T14:07:59Z</time>
      </trkpt>
      <trkpt lat="46.48586" lon="5.31398">
        <ele>214.2</ele>
        <time>2021-12-09T14:08:00Z</time>
      </trkpt>
      <trkpt lat="46.486" lon="5.31416">
        <ele>213.2</ele>
        <time>2021-12-09T14:08:02Z</time>
      </trkpt>
      <trkpt lat="46.48605" lon="5.31427">
        <ele>212.8</ele>
        <time>2021-12-09T14:08:03Z</time>
      </trkpt>
      <trkpt lat="46.48608" lon="5.3144">
        <ele>212</ele>
        <time>2021-12-09T14:08:04Z</time>
      </trkpt>
      <trkpt lat="46.48609" lon="5.31454">
        <ele>211.6</ele>
        <time>2021-12-09T14:08:05Z</time>
      </trkpt>
      <trkpt lat="46.48609" lon="5.31481">
        <ele>210.2</ele>
        <time>2021-12-09T14:08:07Z</time>
      </trkpt>
      <trkpt lat="46.48611" lon="5.31493">
        <ele>209.4</ele>
        <time>2021-12-09T14:08:08Z</time>
      </trkpt>
      <trkpt lat="46.48613" lon="5.31504">
        <ele>208.8</ele>
        <time>2021-12-09T14:08:09Z</time>
      </trkpt>
      <trkpt lat="46.48617" lon="5.31514">
        <ele>208.4</ele>
        <time>2021-12-09T14:08:10Z</time>
      </trkpt>
      <trkpt lat="46.48627" lon="5.31529">
        <ele>207.8</ele>
        <time>2021-12-09T14:08:12Z</time>
      </trkpt>
      <trkpt lat="46.48632" lon="5.31535">
        <ele>207.8</ele>
        <time>2021-12-09T14:08:13Z</time>
      </trkpt>
      <trkpt lat="46.48645" lon="5.31548">
        <ele>207.8</ele>
        <time>2021-12-09T14:08:15Z</time>
      </trkpt>
      <trkpt lat="46.48667" lon="5.3157">
        <ele>207.8</ele>
        <time>2021-12-09T14:08:18Z</time>
      </trkpt>
      <trkpt lat="46.48673" lon="5.31579">
        <ele>207.8</ele>
        <time>2021-12-09T14:08:19Z</time>
      </trkpt>
      <trkpt lat="46.48706" lon="5.31628">
        <ele>207.8</ele>
        <time>2021-12-09T14:08:26Z</time>
      </trkpt>
      <trkpt lat="46.48712" lon="5.31634">
        <ele>207.8</ele>
        <time>2021-12-09T14:08:27Z</time>
      </trkpt>
      <trkpt lat="46.48736" lon="5.31664">
        <ele>207.6</ele>
        <time>2021-12-09T14:08:31Z</time>
      </trkpt>
      <trkpt lat="46.48773" lon="5.31708">
        <ele>208.2</ele>
        <time>2021-12-09T14:08:37Z</time>
      </trkpt>
      <trkpt lat="46.48777" lon="5.31718">
        <ele>208.2</ele>
        <time>2021-12-09T14:08:38Z</time>
      </trkpt>
      <trkpt lat="46.48782" lon="5.31741">
        <ele>208.2</ele>
        <time>2021-12-09T14:08:40Z</time>
      </trkpt>
      <trkpt lat="46.48781" lon="5.31786">
        <ele>208</ele>
        <time>2021-12-09T14:08:44Z</time>
      </trkpt>
      <trkpt lat="46.48784" lon="5.31819">
        <ele>207.6</ele>
        <time>2021-12-09T14:08:47Z</time>
      </trkpt>
      <trkpt lat="46.4879" lon="5.31839">
        <ele>207.4</ele>
        <time>2021-12-09T14:08:49Z</time>
      </trkpt>
      <trkpt lat="46.48803" lon="5.3185">
        <ele>207.4</ele>
        <time>2021-12-09T14:08:51Z</time>
      </trkpt>
      <trkpt lat="46.4881" lon="5.31853">
        <ele>207.4</ele>
        <time>2021-12-09T14:08:52Z</time>
      </trkpt>
      <trkpt lat="46.48824" lon="5.31861">
        <ele>207.4</ele>
        <time>2021-12-09T14:08:54Z</time>
      </trkpt>
      <trkpt lat="46.48835" lon="5.31872">
        <ele>207.4</ele>
        <time>2021-12-09T14:08:56Z</time>
      </trkpt>
      <trkpt lat="46.48842" lon="5.31893">
        <ele>207.4</ele>
        <time>2021-12-09T14:08:58Z</time>
      </trkpt>
      <trkpt lat="46.48843" lon="5.31903">
        <ele>207.4</ele>
        <time>2021-12-09T14:08:59Z</time>
      </trkpt>
      <trkpt lat="46.48848" lon="5.3197">
        <ele>207.8</ele>
        <time>2021-12-09T14:09:06Z</time>
      </trkpt>
      <trkpt lat="46.48846" lon="5.32016">
        <ele>208.6</ele>
        <time>2021-12-09T14:09:11Z</time>
      </trkpt>
      <trkpt lat="46.48835" lon="5.32086">
        <ele>209.8</ele>
        <time>2021-12-09T14:09:19Z</time>
      </trkpt>
      <trkpt lat="46.48833" lon="5.32095">
        <ele>210</ele>
        <time>2021-12-09T14:09:20Z</time>
      </trkpt>
      <trkpt lat="46.48826" lon="5.3214">
        <ele>210.8</ele>
        <time>2021-12-09T14:09:25Z</time>
      </trkpt>
      <trkpt lat="46.48825" lon="5.32149">
        <ele>211</ele>
        <time>2021-12-09T14:09:26Z</time>
      </trkpt>
      <trkpt lat="46.48825" lon="5.32158">
        <ele>211.2</ele>
        <time>2021-12-09T14:09:27Z</time>
      </trkpt>
      <trkpt lat="46.4883" lon="5.32212">
        <ele>212</ele>
        <time>2021-12-09T14:09:33Z</time>
      </trkpt>
      <trkpt lat="46.48832" lon="5.32221">
        <ele>212.2</ele>
        <time>2021-12-09T14:09:34Z</time>
      </trkpt>
      <trkpt lat="46.48834" lon="5.32229">
        <ele>212.4</ele>
        <time>2021-12-09T14:09:35Z</time>
      </trkpt>
      <trkpt lat="46.48837" lon="5.32236">
        <ele>212.8</ele>
        <time>2021-12-09T14:09:36Z</time>
      </trkpt>
      <trkpt lat="46.48844" lon="5.32251">
        <ele>213.2</ele>
        <time>2021-12-09T14:09:38Z</time>
      </trkpt>
      <trkpt lat="46.48848" lon="5.32258">
        <ele>213.2</ele>
        <time>2021-12-09T14:09:39Z</time>
      </trkpt>
      <trkpt lat="46.4887" lon="5.32289">
        <ele>213.4</ele>
        <time>2021-12-09T14:09:43Z</time>
      </trkpt>
      <trkpt lat="46.48903" lon="5.3234">
        <ele>211.6</ele>
        <time>2021-12-09T14:09:48Z</time>
      </trkpt>
      <trkpt lat="46.48909" lon="5.32352">
        <ele>210.6</ele>
        <time>2021-12-09T14:09:49Z</time>
      </trkpt>
      <trkpt lat="46.48918" lon="5.32378">
        <ele>208.8</ele>
        <time>2021-12-09T14:09:51Z</time>
      </trkpt>
      <trkpt lat="46.48925" lon="5.32403">
        <ele>207.4</ele>
        <time>2021-12-09T14:09:53Z</time>
      </trkpt>
      <trkpt lat="46.48928" lon="5.32415">
        <ele>206.2</ele>
        <time>2021-12-09T14:09:54Z</time>
      </trkpt>
      <trkpt lat="46.48942" lon="5.32463">
        <ele>205.2</ele>
        <time>2021-12-09T14:09:58Z</time>
      </trkpt>
      <trkpt lat="46.48958" lon="5.32519">
        <ele>205.2</ele>
        <time>2021-12-09T14:10:03Z</time>
      </trkpt>
      <trkpt lat="46.4896" lon="5.3253">
        <ele>205.2</ele>
        <time>2021-12-09T14:10:04Z</time>
      </trkpt>
      <trkpt lat="46.48958" lon="5.32553">
        <ele>205.2</ele>
        <time>2021-12-09T14:10:06Z</time>
      </trkpt>
      <trkpt lat="46.4895" lon="5.32571">
        <ele>205.2</ele>
        <time>2021-12-09T14:10:08Z</time>
      </trkpt>
      <trkpt lat="46.48945" lon="5.32579">
        <ele>205.2</ele>
        <time>2021-12-09T14:10:09Z</time>
      </trkpt>
      <trkpt lat="46.48931" lon="5.32599">
        <ele>205.6</ele>
        <time>2021-12-09T14:10:12Z</time>
      </trkpt>
      <trkpt lat="46.48925" lon="5.32612">
        <ele>205.6</ele>
        <time>2021-12-09T14:10:14Z</time>
      </trkpt>
      <trkpt lat="46.48922" lon="5.32619">
        <ele>205.8</ele>
        <time>2021-12-09T14:10:15Z</time>
      </trkpt>
      <trkpt lat="46.48921" lon="5.32626">
        <ele>206.4</ele>
        <time>2021-12-09T14:10:16Z</time>
      </trkpt>
      <trkpt lat="46.4892" lon="5.32634">
        <ele>206.8</ele>
        <time>2021-12-09T14:10:17Z</time>
      </trkpt>
      <trkpt lat="46.48921" lon="5.3264">
        <ele>207.2</ele>
        <time>2021-12-09T14:10:18Z</time>
      </trkpt>
      <trkpt lat="46.48921" lon="5.32646">
        <ele>207.8</ele>
        <time>2021-12-09T14:10:19Z</time>
      </trkpt>
      <trkpt lat="46.48926" lon="5.32658">
        <ele>208.4</ele>
        <time>2021-12-09T14:10:21Z</time>
      </trkpt>
      <trkpt lat="46.48929" lon="5.32663">
        <ele>208.8</ele>
        <time>2021-12-09T14:10:22Z</time>
      </trkpt>
      <trkpt lat="46.48932" lon="5.32667">
        <ele>209.2</ele>
        <time>2021-12-09T14:10:23Z</time>
      </trkpt>
      <trkpt lat="46.4894" lon="5.3268">
        <ele>210.4</ele>
        <time>2021-12-09T14:10:26Z</time>
      </trkpt>
      <trkpt lat="46.48949" lon="5.32691">
        <ele>211.4</ele>
        <time>2021-12-09T14:10:29Z</time>
      </trkpt>
      <trkpt lat="46.48962" lon="5.32705">
        <ele>212.4</ele>
        <time>2021-12-09T14:10:33Z</time>
      </trkpt>
      <trkpt lat="46.48972" lon="5.32711">
        <ele>213.2</ele>
        <time>2021-12-09T14:10:36Z</time>
      </trkpt>
      <trkpt lat="46.48976" lon="5.32712">
        <ele>213.6</ele>
        <time>2021-12-09T14:10:37Z</time>
      </trkpt>
      <trkpt lat="46.48991" lon="5.32714">
        <ele>214.6</ele>
        <time>2021-12-09T14:10:41Z</time>
      </trkpt>
      <trkpt lat="46.48998" lon="5.32714">
        <ele>215</ele>
        <time>2021-12-09T14:10:43Z</time>
      </trkpt>
      <trkpt lat="46.49009" lon="5.32713">
        <ele>215.8</ele>
        <time>2021-12-09T14:10:46Z</time>
      </trkpt>
      <trkpt lat="46.49027" lon="5.32711">
        <ele>216.8</ele>
        <time>2021-12-09T14:10:51Z</time>
      </trkpt>
      <trkpt lat="46.49044" lon="5.32708">
        <ele>218</ele>
        <time>2021-12-09T14:10:56Z</time>
      </trkpt>
      <trkpt lat="46.49066" lon="5.32702">
        <ele>219.2</ele>
        <time>2021-12-09T14:11:02Z</time>
      </trkpt>
      <trkpt lat="46.49086" lon="5.32699">
        <ele>220.2</ele>
        <time>2021-12-09T14:11:08Z</time>
      </trkpt>
      <trkpt lat="46.49104" lon="5.32697">
        <ele>221.6</ele>
        <time>2021-12-09T14:11:13Z</time>
      </trkpt>
      <trkpt lat="46.49112" lon="5.32699">
        <ele>222</ele>
        <time>2021-12-09T14:11:15Z</time>
      </trkpt>
      <trkpt lat="46.49126" lon="5.32714">
        <ele>222.6</ele>
        <time>2021-12-09T14:11:19Z</time>
      </trkpt>
      <trkpt lat="46.49128" lon="5.32719">
        <ele>222.8</ele>
        <time>2021-12-09T14:11:20Z</time>
      </trkpt>
      <trkpt lat="46.49138" lon="5.32762">
        <ele>223.8</ele>
        <time>2021-12-09T14:11:27Z</time>
      </trkpt>
      <trkpt lat="46.49144" lon="5.32809">
        <ele>224</ele>
        <time>2021-12-09T14:11:33Z</time>
      </trkpt>
      <trkpt lat="46.49141" lon="5.32837">
        <ele>223.8</ele>
        <time>2021-12-09T14:11:36Z</time>
      </trkpt>
      <trkpt lat="46.49139" lon="5.32846">
        <ele>223.6</ele>
        <time>2021-12-09T14:11:37Z</time>
      </trkpt>
      <trkpt lat="46.49126" lon="5.32896">
        <ele>222.8</ele>
        <time>2021-12-09T14:11:43Z</time>
      </trkpt>
      <trkpt lat="46.49124" lon="5.32913">
        <ele>222.8</ele>
        <time>2021-12-09T14:11:45Z</time>
      </trkpt>
      <trkpt lat="46.49124" lon="5.32931">
        <ele>222.6</ele>
        <time>2021-12-09T14:11:47Z</time>
      </trkpt>
      <trkpt lat="46.49126" lon="5.3299">
        <ele>223.2</ele>
        <time>2021-12-09T14:11:54Z</time>
      </trkpt>
      <trkpt lat="46.49129" lon="5.33013">
        <ele>223.6</ele>
        <time>2021-12-09T14:11:57Z</time>
      </trkpt>
      <trkpt lat="46.49132" lon="5.33036">
        <ele>224</ele>
        <time>2021-12-09T14:12:00Z</time>
      </trkpt>
      <trkpt lat="46.49135" lon="5.33051">
        <ele>224.2</ele>
        <time>2021-12-09T14:12:02Z</time>
      </trkpt>
      <trkpt lat="46.49145" lon="5.33076">
        <ele>224.6</ele>
        <time>2021-12-09T14:12:05Z</time>
      </trkpt>
      <trkpt lat="46.49161" lon="5.33112">
        <ele>224.8</ele>
        <time>2021-12-09T14:12:09Z</time>
      </trkpt>
      <trkpt lat="46.49166" lon="5.33119">
        <ele>224.6</ele>
        <time>2021-12-09T14:12:10Z</time>
      </trkpt>
      <trkpt lat="46.49188" lon="5.33144">
        <ele>224.4</ele>
        <time>2021-12-09T14:12:14Z</time>
      </trkpt>
      <trkpt lat="46.49194" lon="5.33149">
        <ele>224.4</ele>
        <time>2021-12-09T14:12:15Z</time>
      </trkpt>
      <trkpt lat="46.49227" lon="5.33178">
        <ele>224.8</ele>
        <time>2021-12-09T14:12:21Z</time>
      </trkpt>
      <trkpt lat="46.49232" lon="5.33182">
        <ele>225</ele>
        <time>2021-12-09T14:12:22Z</time>
      </trkpt>
      <trkpt lat="46.49249" lon="5.332">
        <ele>225.4</ele>
        <time>2021-12-09T14:12:26Z</time>
      </trkpt>
      <trkpt lat="46.4926" lon="5.33219">
        <ele>225.8</ele>
        <time>2021-12-09T14:12:29Z</time>
      </trkpt>
      <trkpt lat="46.49265" lon="5.33234">
        <ele>225.6</ele>
        <time>2021-12-09T14:12:31Z</time>
      </trkpt>
      <trkpt lat="46.49267" lon="5.33242">
        <ele>226</ele>
        <time>2021-12-09T14:12:32Z</time>
      </trkpt>
      <trkpt lat="46.49276" lon="5.3329">
        <ele>227.2</ele>
        <time>2021-12-09T14:12:38Z</time>
      </trkpt>
      <trkpt lat="46.4929" lon="5.33361">
        <ele>228</ele>
        <time>2021-12-09T14:12:47Z</time>
      </trkpt>
      <trkpt lat="46.49291" lon="5.33369">
        <ele>228.2</ele>
        <time>2021-12-09T14:12:48Z</time>
      </trkpt>
      <trkpt lat="46.49301" lon="5.33416">
        <ele>228.8</ele>
        <time>2021-12-09T14:12:54Z</time>
      </trkpt>
      <trkpt lat="46.49306" lon="5.3344">
        <ele>229.4</ele>
        <time>2021-12-09T14:12:57Z</time>
      </trkpt>
      <trkpt lat="46.49309" lon="5.33465">
        <ele>229.6</ele>
        <time>2021-12-09T14:13:00Z</time>
      </trkpt>
      <trkpt lat="46.49317" lon="5.33527">
        <ele>229.8</ele>
        <time>2021-12-09T14:13:07Z</time>
      </trkpt>
      <trkpt lat="46.49316" lon="5.33557">
        <ele>229.6</ele>
        <time>2021-12-09T14:13:10Z</time>
      </trkpt>
      <trkpt lat="46.49315" lon="5.33566">
        <ele>229.4</ele>
        <time>2021-12-09T14:13:11Z</time>
      </trkpt>
      <trkpt lat="46.49304" lon="5.33633">
        <ele>229.2</ele>
        <time>2021-12-09T14:13:18Z</time>
      </trkpt>
      <trkpt lat="46.49302" lon="5.33702">
        <ele>229.2</ele>
        <time>2021-12-09T14:13:25Z</time>
      </trkpt>
      <trkpt lat="46.49295" lon="5.33776">
        <ele>230.2</ele>
        <time>2021-12-09T14:13:33Z</time>
      </trkpt>
      <trkpt lat="46.49281" lon="5.33847">
        <ele>231</ele>
        <time>2021-12-09T14:13:41Z</time>
      </trkpt>
      <trkpt lat="46.49274" lon="5.33883">
        <ele>231.2</ele>
        <time>2021-12-09T14:13:45Z</time>
      </trkpt>
      <trkpt lat="46.49265" lon="5.33922">
        <ele>231.2</ele>
        <time>2021-12-09T14:13:49Z</time>
      </trkpt>
      <trkpt lat="46.49252" lon="5.33988">
        <ele>231.2</ele>
        <time>2021-12-09T14:13:56Z</time>
      </trkpt>
      <trkpt lat="46.49238" lon="5.34067">
        <ele>231.2</ele>
        <time>2021-12-09T14:14:04Z</time>
      </trkpt>
      <trkpt lat="46.49231" lon="5.34111">
        <ele>231.2</ele>
        <time>2021-12-09T14:14:08Z</time>
      </trkpt>
      <trkpt lat="46.49221" lon="5.34161">
        <ele>229.8</ele>
        <time>2021-12-09T14:14:12Z</time>
      </trkpt>
      <trkpt lat="46.49215" lon="5.34196">
        <ele>228.8</ele>
        <time>2021-12-09T14:14:15Z</time>
      </trkpt>
      <trkpt lat="46.49212" lon="5.34208">
        <ele>228.6</ele>
        <time>2021-12-09T14:14:16Z</time>
      </trkpt>
      <trkpt lat="46.49197" lon="5.34286">
        <ele>228</ele>
        <time>2021-12-09T14:14:23Z</time>
      </trkpt>
      <trkpt lat="46.49195" lon="5.34296">
        <ele>228</ele>
        <time>2021-12-09T14:14:24Z</time>
      </trkpt>
      <trkpt lat="46.49184" lon="5.34354">
        <ele>228.6</ele>
        <time>2021-12-09T14:14:30Z</time>
      </trkpt>
      <trkpt lat="46.49171" lon="5.34416">
        <ele>229.4</ele>
        <time>2021-12-09T14:14:36Z</time>
      </trkpt>
      <trkpt lat="46.49156" lon="5.34496">
        <ele>227.8</ele>
        <time>2021-12-09T14:14:43Z</time>
      </trkpt>
      <trkpt lat="46.49152" lon="5.34517">
        <ele>227.6</ele>
        <time>2021-12-09T14:14:45Z</time>
      </trkpt>
      <trkpt lat="46.49142" lon="5.34565">
        <ele>227.6</ele>
        <time>2021-12-09T14:14:50Z</time>
      </trkpt>
      <trkpt lat="46.49131" lon="5.34631">
        <ele>228.2</ele>
        <time>2021-12-09T14:14:57Z</time>
      </trkpt>
      <trkpt lat="46.4912" lon="5.34687">
        <ele>228.2</ele>
        <time>2021-12-09T14:15:02Z</time>
      </trkpt>
      <trkpt lat="46.49106" lon="5.34761">
        <ele>228</ele>
        <time>2021-12-09T14:15:09Z</time>
      </trkpt>
      <trkpt lat="46.49096" lon="5.34808">
        <ele>228.2</ele>
        <time>2021-12-09T14:15:14Z</time>
      </trkpt>
      <trkpt lat="46.49088" lon="5.34851">
        <ele>229.4</ele>
        <time>2021-12-09T14:15:19Z</time>
      </trkpt>
      <trkpt lat="46.49084" lon="5.34868">
        <ele>229.6</ele>
        <time>2021-12-09T14:15:21Z</time>
      </trkpt>
      <trkpt lat="46.49073" lon="5.34933">
        <ele>230.4</ele>
        <time>2021-12-09T14:15:29Z</time>
      </trkpt>
      <trkpt lat="46.49062" lon="5.34992">
        <ele>231.4</ele>
        <time>2021-12-09T14:15:36Z</time>
      </trkpt>
      <trkpt lat="46.4906" lon="5.35001">
        <ele>231.6</ele>
        <time>2021-12-09T14:15:37Z</time>
      </trkpt>
      <trkpt lat="46.4905" lon="5.35051">
        <ele>232.6</ele>
        <time>2021-12-09T14:15:43Z</time>
      </trkpt>
      <trkpt lat="46.49043" lon="5.35083">
        <ele>233.6</ele>
        <time>2021-12-09T14:15:47Z</time>
      </trkpt>
      <trkpt lat="46.49037" lon="5.35106">
        <ele>233.8</ele>
        <time>2021-12-09T14:15:50Z</time>
      </trkpt>
      <trkpt lat="46.49018" lon="5.3516">
        <ele>234.4</ele>
        <time>2021-12-09T14:15:57Z</time>
      </trkpt>
      <trkpt lat="46.48995" lon="5.35209">
        <ele>234.4</ele>
        <time>2021-12-09T14:16:03Z</time>
      </trkpt>
      <trkpt lat="46.48964" lon="5.35281">
        <ele>233</ele>
        <time>2021-12-09T14:16:11Z</time>
      </trkpt>
      <trkpt lat="46.48944" lon="5.35327">
        <ele>232.6</ele>
        <time>2021-12-09T14:16:16Z</time>
      </trkpt>
      <trkpt lat="46.48917" lon="5.3539">
        <ele>232.2</ele>
        <time>2021-12-09T14:16:23Z</time>
      </trkpt>
      <trkpt lat="46.48895" lon="5.35437">
        <ele>232.2</ele>
        <time>2021-12-09T14:16:29Z</time>
      </trkpt>
      <trkpt lat="46.48892" lon="5.35444">
        <ele>232.2</ele>
        <time>2021-12-09T14:16:30Z</time>
      </trkpt>
      <trkpt lat="46.48879" lon="5.35475">
        <ele>233</ele>
        <time>2021-12-09T14:16:34Z</time>
      </trkpt>
      <trkpt lat="46.48848" lon="5.35546">
        <ele>233.6</ele>
        <time>2021-12-09T14:16:43Z</time>
      </trkpt>
      <trkpt lat="46.48841" lon="5.35562">
        <ele>233.6</ele>
        <time>2021-12-09T14:16:45Z</time>
      </trkpt>
      <trkpt lat="46.48831" lon="5.35587">
        <ele>233.8</ele>
        <time>2021-12-09T14:16:48Z</time>
      </trkpt>
      <trkpt lat="46.48803" lon="5.35654">
        <ele>233.8</ele>
        <time>2021-12-09T14:16:56Z</time>
      </trkpt>
      <trkpt lat="46.48785" lon="5.35694">
        <ele>233.4</ele>
        <time>2021-12-09T14:17:01Z</time>
      </trkpt>
      <trkpt lat="46.48773" lon="5.3572">
        <ele>233.2</ele>
        <time>2021-12-09T14:17:04Z</time>
      </trkpt>
      <trkpt lat="46.48747" lon="5.35777">
        <ele>233.2</ele>
        <time>2021-12-09T14:17:11Z</time>
      </trkpt>
      <trkpt lat="46.48714" lon="5.35849">
        <ele>233.8</ele>
        <time>2021-12-09T14:17:20Z</time>
      </trkpt>
      <trkpt lat="46.48697" lon="5.35893">
        <ele>234.4</ele>
        <time>2021-12-09T14:17:26Z</time>
      </trkpt>
      <trkpt lat="46.48694" lon="5.359">
        <ele>234.6</ele>
        <time>2021-12-09T14:17:27Z</time>
      </trkpt>
      <trkpt lat="46.48687" lon="5.35931">
        <ele>235.4</ele>
        <time>2021-12-09T14:17:31Z</time>
      </trkpt>
      <trkpt lat="46.48685" lon="5.35939">
        <ele>235.6</ele>
        <time>2021-12-09T14:17:32Z</time>
      </trkpt>
      <trkpt lat="46.48684" lon="5.35947">
        <ele>235.8</ele>
        <time>2021-12-09T14:17:33Z</time>
      </trkpt>
      <trkpt lat="46.48681" lon="5.35971">
        <ele>236.4</ele>
        <time>2021-12-09T14:17:36Z</time>
      </trkpt>
      <trkpt lat="46.48677" lon="5.35994">
        <ele>236.8</ele>
        <time>2021-12-09T14:17:39Z</time>
      </trkpt>
      <trkpt lat="46.48671" lon="5.36017">
        <ele>237</ele>
        <time>2021-12-09T14:17:42Z</time>
      </trkpt>
      <trkpt lat="46.48667" lon="5.36035">
        <ele>237</ele>
        <time>2021-12-09T14:17:44Z</time>
      </trkpt>
      <trkpt lat="46.48654" lon="5.36098">
        <ele>235.6</ele>
        <time>2021-12-09T14:17:50Z</time>
      </trkpt>
      <trkpt lat="46.48645" lon="5.36151">
        <ele>234.6</ele>
        <time>2021-12-09T14:17:55Z</time>
      </trkpt>
      <trkpt lat="46.48644" lon="5.36161">
        <ele>234.6</ele>
        <time>2021-12-09T14:17:56Z</time>
      </trkpt>
      <trkpt lat="46.48638" lon="5.36237">
        <ele>235</ele>
        <time>2021-12-09T14:18:04Z</time>
      </trkpt>
      <trkpt lat="46.48628" lon="5.36301">
        <ele>236</ele>
        <time>2021-12-09T14:18:12Z</time>
      </trkpt>
      <trkpt lat="46.48624" lon="5.36314">
        <ele>236.4</ele>
        <time>2021-12-09T14:18:14Z</time>
      </trkpt>
      <trkpt lat="46.48622" lon="5.36327">
        <ele>236.8</ele>
        <time>2021-12-09T14:18:16Z</time>
      </trkpt>
      <trkpt lat="46.4862" lon="5.36339">
        <ele>237</ele>
        <time>2021-12-09T14:18:18Z</time>
      </trkpt>
      <trkpt lat="46.48617" lon="5.36354">
        <ele>237.8</ele>
        <time>2021-12-09T14:18:21Z</time>
      </trkpt>
      <trkpt lat="46.48616" lon="5.36359">
        <ele>238.4</ele>
        <time>2021-12-09T14:18:23Z</time>
      </trkpt>
      <trkpt lat="46.48616" lon="5.36359">
        <ele>238.8</ele>
        <time>2021-12-09T14:18:25Z</time>
      </trkpt>
      <trkpt lat="46.48615" lon="5.36359">
        <ele>239.2</ele>
        <time>2021-12-09T14:18:27Z</time>
      </trkpt>
      <trkpt lat="46.48616" lon="5.36351">
        <ele>240</ele>
        <time>2021-12-09T14:19:12Z</time>
      </trkpt>
      <trkpt lat="46.48617" lon="5.36344">
        <ele>239.8</ele>
        <time>2021-12-09T14:19:13Z</time>
      </trkpt>
      <trkpt lat="46.48617" lon="5.36337">
        <ele>239.8</ele>
        <time>2021-12-09T14:19:14Z</time>
      </trkpt>
      <trkpt lat="46.48612" lon="5.36325">
        <ele>239.6</ele>
        <time>2021-12-09T14:19:16Z</time>
      </trkpt>
      <trkpt lat="46.48603" lon="5.3632">
        <ele>239.2</ele>
        <time>2021-12-09T14:19:18Z</time>
      </trkpt>
      <trkpt lat="46.48598" lon="5.3632">
        <ele>239.2</ele>
        <time>2021-12-09T14:19:19Z</time>
      </trkpt>
      <trkpt lat="46.48561" lon="5.36326">
        <ele>239.6</ele>
        <time>2021-12-09T14:19:26Z</time>
      </trkpt>
      <trkpt lat="46.48522" lon="5.36333">
        <ele>241.2</ele>
        <time>2021-12-09T14:19:33Z</time>
      </trkpt>
      <trkpt lat="46.48511" lon="5.36335">
        <ele>241.4</ele>
        <time>2021-12-09T14:19:35Z</time>
      </trkpt>
      <trkpt lat="46.48465" lon="5.36342">
        <ele>242.2</ele>
        <time>2021-12-09T14:19:43Z</time>
      </trkpt>
      <trkpt lat="46.48419" lon="5.36354">
        <ele>242.4</ele>
        <time>2021-12-09T14:19:51Z</time>
      </trkpt>
      <trkpt lat="46.48387" lon="5.36378">
        <ele>242.8</ele>
        <time>2021-12-09T14:19:57Z</time>
      </trkpt>
      <trkpt lat="46.48343" lon="5.36428">
        <ele>243</ele>
        <time>2021-12-09T14:20:07Z</time>
      </trkpt>
      <trkpt lat="46.48334" lon="5.36437">
        <ele>243.4</ele>
        <time>2021-12-09T14:20:09Z</time>
      </trkpt>
      <trkpt lat="46.48313" lon="5.36459">
        <ele>244.4</ele>
        <time>2021-12-09T14:20:14Z</time>
      </trkpt>
      <trkpt lat="46.48309" lon="5.36464">
        <ele>244.4</ele>
        <time>2021-12-09T14:20:15Z</time>
      </trkpt>
      <trkpt lat="46.4829" lon="5.36486">
        <ele>245.4</ele>
        <time>2021-12-09T14:20:20Z</time>
      </trkpt>
      <trkpt lat="46.48263" lon="5.36515">
        <ele>246.4</ele>
        <time>2021-12-09T14:20:27Z</time>
      </trkpt>
      <trkpt lat="46.4824" lon="5.36541">
        <ele>247.4</ele>
        <time>2021-12-09T14:20:33Z</time>
      </trkpt>
      <trkpt lat="46.48225" lon="5.36557">
        <ele>248.2</ele>
        <time>2021-12-09T14:20:37Z</time>
      </trkpt>
      <trkpt lat="46.48206" lon="5.3656">
        <ele>248.6</ele>
        <time>2021-12-09T14:20:41Z</time>
      </trkpt>
      <trkpt lat="46.48197" lon="5.36564">
        <ele>248.6</ele>
        <time>2021-12-09T14:20:43Z</time>
      </trkpt>
      <trkpt lat="46.48193" lon="5.36569">
        <ele>248.8</ele>
        <time>2021-12-09T14:20:44Z</time>
      </trkpt>
      <trkpt lat="46.48191" lon="5.36575">
        <ele>248.8</ele>
        <time>2021-12-09T14:20:45Z</time>
      </trkpt>
      <trkpt lat="46.48184" lon="5.36596">
        <ele>249.2</ele>
        <time>2021-12-09T14:20:48Z</time>
      </trkpt>
      <trkpt lat="46.48174" lon="5.36614">
        <ele>249.4</ele>
        <time>2021-12-09T14:20:51Z</time>
      </trkpt>
      <trkpt lat="46.48166" lon="5.36623">
        <ele>249.6</ele>
        <time>2021-12-09T14:20:53Z</time>
      </trkpt>
      <trkpt lat="46.48162" lon="5.36628">
        <ele>249.6</ele>
        <time>2021-12-09T14:20:54Z</time>
      </trkpt>
      <trkpt lat="46.48143" lon="5.36649">
        <ele>250.2</ele>
        <time>2021-12-09T14:20:59Z</time>
      </trkpt>
      <trkpt lat="46.48112" lon="5.36683">
        <ele>250.6</ele>
        <time>2021-12-09T14:21:07Z</time>
      </trkpt>
      <trkpt lat="46.48109" lon="5.36686">
        <ele>250.8</ele>
        <time>2021-12-09T14:21:08Z</time>
      </trkpt>
      <trkpt lat="46.48106" lon="5.36699">
        <ele>251.4</ele>
        <time>2021-12-09T14:21:11Z</time>
      </trkpt>
      <trkpt lat="46.48107" lon="5.36704">
        <ele>251.4</ele>
        <time>2021-12-09T14:21:12Z</time>
      </trkpt>
      <trkpt lat="46.48113" lon="5.36711">
        <ele>251.8</ele>
        <time>2021-12-09T14:21:14Z</time>
      </trkpt>
      <trkpt lat="46.48137" lon="5.36729">
        <ele>253</ele>
        <time>2021-12-09T14:21:20Z</time>
      </trkpt>
      <trkpt lat="46.48144" lon="5.36736">
        <ele>253.2</ele>
        <time>2021-12-09T14:21:22Z</time>
      </trkpt>
      <trkpt lat="46.48158" lon="5.36748">
        <ele>254.2</ele>
        <time>2021-12-09T14:21:26Z</time>
      </trkpt>
      <trkpt lat="46.48176" lon="5.36763">
        <ele>255.4</ele>
        <time>2021-12-09T14:21:31Z</time>
      </trkpt>
      <trkpt lat="46.48195" lon="5.36777">
        <ele>256.2</ele>
        <time>2021-12-09T14:21:36Z</time>
      </trkpt>
      <trkpt lat="46.48198" lon="5.3678">
        <ele>256.4</ele>
        <time>2021-12-09T14:21:37Z</time>
      </trkpt>
      <trkpt lat="46.48215" lon="5.36795">
        <ele>257.6</ele>
        <time>2021-12-09T14:21:42Z</time>
      </trkpt>
      <trkpt lat="46.48235" lon="5.36809">
        <ele>258.8</ele>
        <time>2021-12-09T14:21:47Z</time>
      </trkpt>
      <trkpt lat="46.48251" lon="5.36823">
        <ele>260.2</ele>
        <time>2021-12-09T14:21:52Z</time>
      </trkpt>
      <trkpt lat="46.48266" lon="5.36838">
        <ele>261.2</ele>
        <time>2021-12-09T14:21:57Z</time>
      </trkpt>
    </trkseg>
  </trk>
</gpx>